
Distance (Route):
Temperature : 16.9°C
Humidity : 72.7%
Pressure : 903.8hPa| Receiver | Frames | First received | Last received |
|---|---|---|---|
| DO3MHA-12 | 545 | 2026-08-31 09:47:15 | 2026-08-31 11:24:45 |
| DO3MHA-11 | 544 | 2026-08-31 09:47:19 | 2026-08-31 11:24:53 |
| OE5MMP-10 | 271 | 2026-08-31 10:21:46 | 2026-08-31 11:19:16 |
| OE5DXL-15 | 146 | 2026-08-31 09:52:25 | 2026-08-31 11:24:50 |
| OM5KV | 126 | 2026-08-31 10:40:23 | 2026-08-31 11:05:59 |
| DG1MFX-10 | 117 | 2026-08-31 09:55:20 | 2026-08-31 11:19:49 |
| OE5WHR-10 | 114 | 2026-08-31 10:10:32 | 2026-08-31 11:20:17 |
| BAUMI2-15 | 109 | 2026-08-31 10:17:21 | 2026-08-31 11:06:58 |
| NBG1-10 | 103 | 2026-08-31 09:50:53 | 2026-08-31 11:19:17 |
| DL6DJ-15 | 101 | 2026-08-31 09:56:16 | 2026-08-31 11:20:09 |
| OE5DRO-10 | 100 | 2026-08-31 10:04:03 | 2026-08-31 11:21:39 |
| DB0UT-7 | 97 | 2026-08-31 10:03:28 | 2026-08-31 11:14:27 |
| PG1ADW-2 | 71 | 2026-08-31 10:21:58 | 2026-08-31 11:20:07 |
| DG1MJG | 69 | 2026-08-31 09:47:05 | 2026-08-31 11:07:58 |
| OE3JTB-15 | 59 | 2026-08-31 10:07:57 | 2026-08-31 11:24:01 |
| DM0DOS-11 | 55 | 2026-08-31 10:43:39 | 2026-08-31 11:04:13 |
| DK5PH-5 | 54 | 2026-08-31 10:26:20 | 2026-08-31 11:09:39 |
| DB0NH | 50 | 2026-08-31 09:54:43 | 2026-08-31 11:18:33 |
| DF7PN | 48 | 2026-08-31 10:18:00 | 2026-08-31 11:09:46 |
| DL9SK-14 | 29 | 2026-08-31 10:44:11 | 2026-08-31 11:11:06 |
| PETON7-10 | 23 | 2026-08-31 10:47:28 | 2026-08-31 11:01:58 |
| DO8TBO-1 | 18 | 2026-08-31 10:10:40 | 2026-08-31 11:07:16 |
| DH7VM-15 | 16 | 2026-08-31 10:14:24 | 2026-08-31 11:08:34 |
| DL1ZP-14 | 16 | 2026-08-31 10:47:12 | 2026-08-31 11:03:46 |
| DN1GJH-1 | 13 | 2026-08-31 10:32:53 | 2026-08-31 10:47:58 |
| S52SK | 12 | 2026-08-31 10:36:44 | 2026-08-31 10:50:11 |
| DF2AP-13 | 11 | 2026-08-31 10:50:40 | 2026-08-31 11:02:06 |
| OE5REO-15 | 9 | 2026-08-31 10:46:40 | 2026-08-31 11:01:11 |
| DF3TZ-5 | 7 | 2026-08-31 10:44:56 | 2026-08-31 11:11:50 |
| SONDE2-11 | 5 | 2026-08-31 10:55:14 | 2026-08-31 10:59:54 |
| DB0ND-19 | 4 | 2026-08-31 09:57:42 | 2026-08-31 11:14:46 |
| DO7DH-14 | 1 | 2026-08-31 11:12:52 | 2026-08-31 11:12:52 |
| Receiver | Date | Latitude | Longitude | Direction | Speed | Altitude | Climb | Temperature | Humidity | Pressure | Voltage | Killtimer | Uptime | BKT | XDATA |
|---|---|---|---|---|---|---|---|---|---|---|---|---|---|---|---|
| DO3MHA-11 | 2026-08-31 11:24:53 | 48.30242 | 12.54116 | 72° | 26km/h | 1054m | -9.5m/s | 16.9°C | 72.7% | 903.8hPa | 2.7V | 00:00:00 | 01:52:46 | 00:00:00 | |
| DO3MHA-11 | 2026-08-31 11:24:51 | 48.30238 | 12.54099 | 76° | 24km/h | 1073m | -8.4m/s | 16.8°C | 73.1% | 901.8hPa | 2.7V | 01:42:00 | 01:52:44 | 00:00:00 | |
| OE5DXL-15 | 2026-08-31 11:24:50 | 48.30236 | 12.54090 | 76° | 27km/h | 1081m | -9.2m/s | 16.7°C | 73.2% | 900.8hPa | 2.7V | 00:00:00 | 00:00:00 | 00:00:00 | |
| DO3MHA-11 | 2026-08-31 11:24:48 | 48.30232 | 12.54072 | 74° | 27km/h | 1100m | -8.8m/s | 16.5°C | 74.3% | 898.9hPa | 2.7V | 00:00:00 | 01:52:41 | 00:00:00 | |
| DO3MHA-11 | 2026-08-31 11:24:46 | 48.30229 | 12.54051 | 78° | 31km/h | 1117m | -9.2m/s | 16.3°C | 75.1% | 897.0hPa | 2.7V | 01:42:00 | 01:52:39 | 00:00:00 | |
| DO3MHA-12 | 2026-08-31 11:24:45 | 48.30227 | 12.54040 | 79° | 31km/h | 1127m | -9.9m/s | 16.2°C | 75.5% | 896.0hPa | 2.7V | 01:42:00 | 01:52:38 | 00:00:00 | |
| DO3MHA-11 | 2026-08-31 11:24:44 | 48.30225 | 12.54028 | 73° | 33km/h | 1136m | -10.1m/s | 16.2°C | 75.9% | 894.9hPa | 2.7V | 00:00:00 | 01:52:37 | 00:00:00 | |
| OE5DXL-15 | 2026-08-31 11:24:44 | 48.30225 | 12.54028 | 73° | 31km/h | 1136m | -10.1m/s | 16.2°C | 75.9% | 894.9hPa | 2.7V | 01:42:00 | 00:00:00 | 00:00:00 | |
| DO3MHA-12 | 2026-08-31 11:24:43 | 48.30223 | 12.54016 | 70° | 31km/h | 1146m | -10.9m/s | 16.1°C | 76.3% | 893.9hPa | 2.6V | 00:00:00 | 01:52:36 | 00:00:00 | |
| DO3MHA-11 | 2026-08-31 11:24:42 | 48.30220 | 12.54006 | 69° | 31km/h | 1157m | -11.0m/s | 16.0°C | 76.5% | 892.8hPa | 2.6V | 01:42:00 | 01:52:35 | 00:00:00 | |
| DO3MHA-12 | 2026-08-31 11:24:41 | 48.30217 | 12.53995 | 70° | 31km/h | 1168m | -10.8m/s | 15.9°C | 76.9% | 891.8hPa | 2.6V | 01:42:00 | 01:52:34 | 00:00:00 | |
| DO3MHA-11 | 2026-08-31 11:24:40 | 48.30214 | 12.53984 | 66° | 31km/h | 1179m | -10.7m/s | 15.8°C | 77.4% | 890.7hPa | 2.7V | 00:00:00 | 01:52:33 | 00:00:00 | |
| DO3MHA-12 | 2026-08-31 11:24:39 | 48.30211 | 12.53973 | 70° | 31km/h | 1189m | -10.6m/s | 15.7°C | 75.7% | 889.7hPa | 2.7V | 00:00:00 | 01:52:32 | 00:00:00 | |
| DO3MHA-11 | 2026-08-31 11:24:38 | 48.30208 | 12.53961 | 71° | 31km/h | 1200m | -10.8m/s | 15.6°C | 77.5% | 888.7hPa | 2.7V | 01:42:00 | 01:52:31 | 00:00:00 | |
| OE5DXL-15 | 2026-08-31 11:24:37 | 48.30206 | 12.53950 | 72° | 33km/h | 1210m | -9.9m/s | 15.5°C | 77.2% | 887.4hPa | 2.7V | 00:00:00 | 00:00:00 | 00:00:00 | |
| DO3MHA-12 | 2026-08-31 11:24:37 | 48.30206 | 12.53950 | 72° | 33km/h | 1210m | -9.9m/s | 15.5°C | 77.2% | 887.4hPa | 2.7V | 01:42:00 | 01:52:30 | 00:00:00 | |
| DO3MHA-11 | 2026-08-31 11:24:36 | 48.30203 | 12.53938 | 78° | 33km/h | 1220m | -10.6m/s | 15.4°C | 79.0% | 886.4hPa | 2.7V | 00:00:00 | 01:52:29 | 00:00:00 | |
| DO3MHA-12 | 2026-08-31 11:24:35 | 48.30202 | 12.53926 | 83° | 35km/h | 1230m | -9.7m/s | 15.3°C | 79.4% | 885.1hPa | 2.7V | 00:00:00 | 01:52:28 | 00:00:00 | |
| DO3MHA-11 | 2026-08-31 11:24:34 | 48.30201 | 12.53913 | 80° | 35km/h | 1240m | -10.7m/s | 15.2°C | 74.0% | 884.1hPa | 2.7V | 01:42:00 | 01:52:27 | 00:00:00 | |
| DO3MHA-12 | 2026-08-31 11:24:33 | 48.30199 | 12.53901 | 79° | 35km/h | 1250m | -10.1m/s | 15.1°C | 77.2% | 883.0hPa | 2.7V | 01:42:00 | 01:52:26 | 00:00:00 | |
| OE5DXL-15 | 2026-08-31 11:24:31 | 48.30195 | 12.53875 | 82° | 37km/h | 1272m | -9.9m/s | 14.9°C | 78.3% | 880.8hPa | 2.7V | 01:42:00 | 00:00:00 | 00:00:00 | |
| DO3MHA-12 | 2026-08-31 11:24:31 | 48.30195 | 12.53875 | 82° | 37km/h | 1272m | -9.9m/s | 14.9°C | 78.3% | 880.8hPa | 2.7V | 00:00:00 | 01:52:24 | 00:00:00 | |
| DO3MHA-11 | 2026-08-31 11:24:30 | 48.30194 | 12.53861 | 82° | 37km/h | 1281m | -8.5m/s | 14.9°C | 75.2% | 879.8hPa | 2.7V | 01:42:00 | 01:52:23 | 00:00:00 | |
| DO3MHA-12 | 2026-08-31 11:24:29 | 48.30193 | 12.53848 | 83° | 37km/h | 1290m | -9.1m/s | 14.8°C | 76.8% | 879.0hPa | 2.7V | 01:42:00 | 01:52:22 | 00:00:00 | |
| DO3MHA-11 | 2026-08-31 11:24:28 | 48.30192 | 12.53834 | 85° | 38km/h | 1299m | -9.0m/s | 14.7°C | 77.8% | 878.1hPa | 2.7V | 00:00:00 | 01:52:21 | 00:00:00 | |
| DO3MHA-12 | 2026-08-31 11:24:27 | 48.30191 | 12.53819 | 86° | 38km/h | 1308m | -9.5m/s | 14.6°C | 77.5% | 877.1hPa | 2.7V | 00:00:00 | 01:52:20 | 00:00:00 | |
| OE5DXL-15 | 2026-08-31 11:24:25 | 48.30190 | 12.53790 | 86° | 42km/h | 1328m | -9.7m/s | 14.4°C | 80.1% | 875.1hPa | 2.7V | 00:00:00 | 00:00:00 | 00:00:00 | |
| DO3MHA-12 | 2026-08-31 11:24:25 | 48.30190 | 12.53790 | 86° | 40km/h | 1328m | -9.7m/s | 14.4°C | 80.1% | 875.1hPa | 2.7V | 01:42:00 | 01:52:18 | 00:00:00 | |
| DO3MHA-11 | 2026-08-31 11:24:24 | 48.30189 | 12.53775 | 86° | 42km/h | 1338m | -9.9m/s | 14.3°C | 81.0% | 874.2hPa | 2.7V | 00:00:00 | 01:52:17 | 00:00:00 | |
| DO3MHA-12 | 2026-08-31 11:24:23 | 48.30188 | 12.53760 | 85° | 42km/h | 1348m | -9.7m/s | 14.2°C | 81.2% | 873.0hPa | 2.7V | 00:00:00 | 01:52:16 | 00:00:00 | |
| DO3MHA-11 | 2026-08-31 11:24:22 | 48.30187 | 12.53743 | 88° | 44km/h | 1357m | -9.9m/s | 14.1°C | 81.4% | 872.1hPa | 2.7V | 01:42:00 | 01:52:15 | 00:00:00 | |
| DO3MHA-12 | 2026-08-31 11:24:21 | 48.30187 | 12.53727 | 88° | 44km/h | 1366m | -9.4m/s | 14.1°C | 80.6% | 871.3hPa | 2.7V | 01:42:00 | 01:52:14 | 00:00:00 | |
| DO3MHA-11 | 2026-08-31 11:24:20 | 48.30186 | 12.53710 | 86° | 42km/h | 1376m | -9.0m/s | 14.0°C | 78.2% | 870.0hPa | 2.7V | 00:00:00 | 01:52:13 | 00:00:00 | |
| OE5DXL-15 | 2026-08-31 11:24:19 | 48.30185 | 12.53694 | 89° | 42km/h | 1384m | -9.2m/s | 13.9°C | 78.9% | 869.3hPa | 2.7V | 01:42:00 | 00:00:00 | 00:00:00 | |
| DO3MHA-12 | 2026-08-31 11:24:19 | 48.30185 | 12.53694 | 89° | 42km/h | 1384m | -9.2m/s | 13.9°C | 78.9% | 869.3hPa | 2.7V | 00:00:00 | 01:52:12 | 00:00:00 | |
| DO3MHA-11 | 2026-08-31 11:24:18 | 48.30185 | 12.53678 | 91° | 42km/h | 1394m | -9.0m/s | 13.8°C | 78.4% | 868.4hPa | 2.7V | 01:42:00 | 01:52:11 | 00:00:00 | |
| DO3MHA-12 | 2026-08-31 11:24:17 | 48.30185 | 12.53662 | 88° | 42km/h | 1403m | -8.7m/s | 13.8°C | 80.3% | 867.5hPa | 2.7V | 01:42:00 | 01:52:10 | 00:00:00 | |
| DO3MHA-11 | 2026-08-31 11:24:16 | 48.30184 | 12.53646 | 90° | 42km/h | 1411m | -9.6m/s | 13.6°C | 79.0% | 866.6hPa | 2.6V | 00:00:00 | 01:52:09 | 00:00:00 | |
| DO3MHA-12 | 2026-08-31 11:24:15 | 48.30184 | 12.53630 | 87° | 42km/h | 1421m | -9.1m/s | 13.6°C | 78.9% | 865.6hPa | 2.6V | 00:00:00 | 01:52:08 | 00:00:00 | |
| DO3MHA-11 | 2026-08-31 11:24:14 | 48.30183 | 12.53614 | 87° | 40km/h | 1429m | -8.6m/s | 13.5°C | 81.1% | 864.8hPa | 2.6V | 01:42:00 | 01:52:07 | 00:00:00 | |
| OE5DXL-15 | 2026-08-31 11:24:13 | 48.30182 | 12.53600 | 83° | 42km/h | 1438m | -8.7m/s | 13.3°C | 82.8% | 863.9hPa | 2.6V | 00:00:00 | 00:00:00 | 00:00:00 | |
| DO3MHA-12 | 2026-08-31 11:24:13 | 48.30182 | 12.53600 | 83° | 38km/h | 1438m | -8.7m/s | 13.3°C | 82.8% | 863.9hPa | 2.6V | 01:42:00 | 01:52:06 | 00:00:00 | |
| DO3MHA-11 | 2026-08-31 11:24:12 | 48.30181 | 12.53585 | 84° | 40km/h | 1447m | -9.2m/s | 13.3°C | 81.6% | 863.1hPa | 2.6V | 00:00:00 | 01:52:05 | 00:00:00 | |
| DO3MHA-12 | 2026-08-31 11:24:11 | 48.30180 | 12.53570 | 90° | 40km/h | 1456m | -9.5m/s | 13.2°C | 81.7% | 862.3hPa | 2.6V | 00:00:00 | 01:52:04 | 00:00:00 | |
| DO3MHA-11 | 2026-08-31 11:24:10 | 48.30180 | 12.53555 | 90° | 42km/h | 1465m | -9.2m/s | 13.1°C | 81.2% | 861.3hPa | 2.7V | 01:42:00 | 01:52:03 | 00:00:00 | |
| DO3MHA-12 | 2026-08-31 11:24:09 | 48.30179 | 12.53539 | 91° | 44km/h | 1475m | -9.1m/s | 13.1°C | 81.1% | 860.2hPa | 2.7V | 01:42:00 | 01:52:02 | 00:00:00 | |
| DO3MHA-11 | 2026-08-31 11:24:08 | 48.30179 | 12.53522 | 90° | 46km/h | 1484m | -9.1m/s | 13.0°C | 81.4% | 859.3hPa | 2.7V | 00:00:00 | 01:52:01 | 00:00:00 | |
| OE5DXL-15 | 2026-08-31 11:24:07 | 48.30179 | 12.53505 | 88° | 46km/h | 1493m | -9.9m/s | 12.9°C | 81.8% | 858.4hPa | 2.7V | 01:42:00 | 00:00:00 | 00:00:00 | |
| DO3MHA-12 | 2026-08-31 11:24:07 | 48.30179 | 12.53505 | 88° | 44km/h | 1493m | -9.9m/s | 12.9°C | 81.8% | 858.4hPa | 2.7V | 00:00:00 | 01:52:00 | 00:00:00 | |
| DO3MHA-11 | 2026-08-31 11:24:06 | 48.30178 | 12.53488 | 90° | 44km/h | 1503m | -9.2m/s | 12.8°C | 82.2% | 857.4hPa | 2.7V | 01:42:00 | 01:51:59 | 00:00:00 | |
| DO3MHA-12 | 2026-08-31 11:24:03 | 48.30176 | 12.53439 | 88° | 46km/h | 1531m | -8.9m/s | 12.6°C | 81.9% | 854.5hPa | 2.6V | 01:42:00 | 01:51:56 | 00:00:00 | |
| OE3JTB-15 | 2026-08-31 11:24:01 | 48.30174 | 12.53406 | 84° | 46km/h | 1550m | -10.0m/s | 12.5°C | 82.3% | 852.7hPa | 2.7V | 00:00:00 | 01:51:54 | 00:00:00 | |
| DO3MHA-11 | 2026-08-31 11:24:01 | 48.30174 | 12.53406 | 84° | 46km/h | 1550m | -10.0m/s | 12.5°C | 82.3% | 852.7hPa | 2.7V | 00:00:00 | 01:51:54 | 00:00:00 | |
| OE3JTB-15 | 2026-08-31 11:23:59 | 48.30173 | 12.53371 | 90° | 46km/h | 1568m | -8.7m/s | 12.2°C | 84.1% | 850.9hPa | 2.7V | 01:42:00 | 00:00:00 | 00:00:00 | |
| DO3MHA-12 | 2026-08-31 11:23:58 | 48.30173 | 12.53354 | 89° | 46km/h | 1577m | -9.2m/s | 12.1°C | 85.7% | 850.1hPa | 2.7V | 00:00:00 | 01:51:51 | 00:00:00 | |
| OE3JTB-15 | 2026-08-31 11:23:57 | 48.30172 | 12.53337 | 85° | 44km/h | 1586m | -9.0m/s | 12.1°C | 84.1% | 849.1hPa | 2.7V | 00:00:00 | 00:00:00 | 00:00:00 | |
| DO3MHA-11 | 2026-08-31 11:23:56 | 48.30171 | 12.53321 | 87° | 47km/h | 1595m | -9.6m/s | 12.1°C | 83.2% | 848.2hPa | 2.7V | 01:43:00 | 01:51:49 | 00:00:00 | |
| OE3JTB-15 | 2026-08-31 11:23:55 | 48.30171 | 12.53304 | 89° | 47km/h | 1604m | -9.3m/s | 11.9°C | 84.4% | 847.3hPa | 2.7V | 01:43:00 | 01:51:48 | 00:00:00 | |
| OE3JTB-15 | 2026-08-31 11:23:53 | 48.30170 | 12.53268 | 88° | 49km/h | 1623m | -9.2m/s | 11.8°C | 85.1% | 845.3hPa | 2.7V | 00:00:00 | 00:00:00 | 00:00:00 | |
| DO3MHA-12 | 2026-08-31 11:23:53 | 48.30170 | 12.53268 | 88° | 49km/h | 1623m | -9.2m/s | 11.8°C | 85.1% | 845.3hPa | 2.7V | 01:43:00 | 01:51:46 | 00:00:00 | |
| OE3JTB-15 | 2026-08-31 11:23:51 | 48.30168 | 12.53231 | 87° | 51km/h | 1641m | -9.6m/s | 11.7°C | 83.0% | 843.5hPa | 2.7V | 01:43:00 | 00:00:00 | 00:00:00 | |
| DO3MHA-11 | 2026-08-31 11:23:51 | 48.30168 | 12.53231 | 87° | 49km/h | 1641m | -9.6m/s | 11.7°C | 83.0% | 843.5hPa | 2.7V | 00:00:00 | 01:51:44 | 00:00:00 | |
| OE3JTB-15 | 2026-08-31 11:23:49 | 48.30167 | 12.53193 | 89° | 47km/h | 1660m | -9.6m/s | 11.7°C | 81.6% | 841.4hPa | 2.6V | 00:00:00 | 01:51:42 | 00:00:00 | |
| OE5DXL-15 | 2026-08-31 11:23:49 | 48.30167 | 12.53193 | 89° | 51km/h | 1660m | -9.6m/s | 11.7°C | 81.6% | 841.4hPa | 2.6V | 00:00:00 | 00:00:00 | 00:00:00 | |
| DO3MHA-12 | 2026-08-31 11:23:48 | 48.30166 | 12.53175 | 83° | 51km/h | 1669m | -9.4m/s | 11.6°C | 81.3% | 840.4hPa | 2.6V | 00:00:00 | 01:51:41 | 00:00:00 | |
| OE3JTB-15 | 2026-08-31 11:23:47 | 48.30165 | 12.53157 | 86° | 51km/h | 1679m | -9.4m/s | 11.6°C | 80.6% | 839.5hPa | 2.6V | 01:43:00 | 00:00:00 | 00:00:00 | |
| DO3MHA-11 | 2026-08-31 11:23:46 | 48.30164 | 12.53138 | 86° | 51km/h | 1688m | -9.4m/s | 11.6°C | 80.3% | 838.7hPa | 2.7V | 01:43:00 | 01:51:39 | 00:00:00 | |
| OE3JTB-15 | 2026-08-31 11:23:45 | 48.30163 | 12.53118 | 87° | 51km/h | 1697m | -9.7m/s | 11.5°C | 80.8% | 837.7hPa | 2.7V | 00:00:00 | 00:00:00 | 00:00:00 | |
| OE3JTB-15 | 2026-08-31 11:23:43 | 48.30161 | 12.53079 | 85° | 51km/h | 1716m | -9.5m/s | 11.5°C | 77.8% | 835.9hPa | 2.7V | 01:43:00 | 01:51:36 | 00:00:00 | |
| DO3MHA-12 | 2026-08-31 11:23:43 | 48.30161 | 12.53079 | 85° | 51km/h | 1716m | -9.5m/s | 11.5°C | 77.8% | 835.9hPa | 2.7V | 01:43:00 | 01:51:36 | 00:00:00 | |
| OE3JTB-15 | 2026-08-31 11:23:41 | 48.30158 | 12.53040 | 85° | 51km/h | 1735m | -9.0m/s | 11.4°C | 77.7% | 833.9hPa | 2.7V | 00:00:00 | 00:00:00 | 00:00:00 | |
| DO3MHA-11 | 2026-08-31 11:23:41 | 48.30158 | 12.53040 | 85° | 51km/h | 1735m | -9.0m/s | 11.4°C | 77.7% | 833.9hPa | 2.7V | 00:00:00 | 01:51:34 | 00:00:00 | |
| OE3JTB-15 | 2026-08-31 11:23:39 | 48.30155 | 12.53002 | 81° | 51km/h | 1753m | -9.6m/s | 11.4°C | 74.4% | 832.0hPa | 2.7V | 01:43:00 | 00:00:00 | 00:00:00 | |
| DO3MHA-12 | 2026-08-31 11:23:38 | 48.30153 | 12.52982 | 83° | 53km/h | 1762m | -8.8m/s | 11.3°C | 74.4% | 831.0hPa | 2.7V | 00:00:00 | 01:51:31 | 00:00:00 | |
| OE3JTB-15 | 2026-08-31 11:23:37 | 48.30152 | 12.52962 | 85° | 53km/h | 1771m | -9.1m/s | 11.3°C | 74.1% | 830.3hPa | 2.7V | 00:00:00 | 01:51:30 | 00:00:00 | |
| DO3MHA-11 | 2026-08-31 11:23:36 | 48.30151 | 12.52942 | 87° | 51km/h | 1780m | -8.9m/s | 11.3°C | 73.8% | 829.4hPa | 2.7V | 01:43:00 | 01:51:29 | 00:00:00 | |
| OE3JTB-15 | 2026-08-31 11:23:35 | 48.30150 | 12.52922 | 87° | 51km/h | 1789m | -9.2m/s | 11.2°C | 74.2% | 828.4hPa | 2.7V | 01:43:00 | 00:00:00 | 00:00:00 | |
| OE3JTB-15 | 2026-08-31 11:23:34 | 48.30147 | 12.52883 | 85° | 51km/h | 1807m | -9.5m/s | 11.0°C | 74.8% | 826.5hPa | 2.6V | 00:00:00 | 00:00:00 | 00:00:00 | |
| DO3MHA-12 | 2026-08-31 11:23:34 | 48.30147 | 12.52883 | 85° | 51km/h | 1807m | -9.5m/s | 11.0°C | 74.8% | 826.5hPa | 2.6V | 01:43:00 | 01:51:26 | 00:00:00 | |
| DO3MHA-11 | 2026-08-31 11:23:34 | 48.30145 | 12.52844 | 82° | 53km/h | 1826m | -9.7m/s | 10.9°C | 73.3% | 824.8hPa | 2.7V | 00:00:00 | 01:51:24 | 00:00:00 | |
| OE5DXL-15 | 2026-08-31 11:23:34 | 48.30140 | 12.52805 | 79° | 53km/h | 1845m | -9.5m/s | 10.8°C | 73.8% | 823.1hPa | 2.7V | 01:43:00 | 00:00:00 | 00:00:00 | |
| DO3MHA-12 | 2026-08-31 11:23:34 | 48.30137 | 12.52785 | 80° | 53km/h | 1854m | -9.3m/s | 10.7°C | 74.2% | 822.0hPa | 2.7V | 00:00:00 | 01:51:21 | 00:00:00 | |
| DO3MHA-11 | 2026-08-31 11:23:33 | 48.30132 | 12.52746 | 79° | 53km/h | 1873m | -9.7m/s | 10.5°C | 75.0% | 820.3hPa | 2.7V | 01:43:00 | 01:51:19 | 00:00:00 | |
| OE3JTB-15 | 2026-08-31 11:23:32 | 48.30130 | 12.52726 | 83° | 53km/h | 1883m | -9.8m/s | 10.4°C | 75.5% | 819.4hPa | 2.7V | 01:43:00 | 01:51:18 | 00:00:00 | |
| OE3JTB-15 | 2026-08-31 11:23:24 | 48.30126 | 12.52687 | 82° | 53km/h | 1902m | -9.5m/s | 10.2°C | 76.4% | 817.4hPa | 2.7V | 00:00:00 | 00:00:00 | 00:00:00 | |
| OE3JTB-15 | 2026-08-31 11:23:22 | 48.30122 | 12.52647 | 77° | 53km/h | 1921m | -10.1m/s | 10.0°C | 77.5% | 815.7hPa | 2.6V | 01:43:00 | 00:00:00 | 00:00:00 | |
| DO3MHA-12 | 2026-08-31 11:23:21 | 48.30122 | 12.52647 | 77° | 53km/h | 1921m | -10.1m/s | 10.0°C | 77.5% | 815.7hPa | 2.6V | 01:43:00 | 01:51:14 | 00:00:00 | |
| DO3MHA-11 | 2026-08-31 11:23:20 | 48.30119 | 12.52627 | 81° | 53km/h | 1932m | -9.6m/s | 9.9°C | 77.7% | 814.6hPa | 2.6V | 00:00:00 | 01:51:13 | 00:00:00 | |
| OE3JTB-15 | 2026-08-31 11:23:19 | 48.30117 | 12.52607 | 79° | 53km/h | 1941m | -9.8m/s | 9.9°C | 76.3% | 813.7hPa | 2.7V | 00:00:00 | 01:51:12 | 00:00:00 | |
| OE3JTB-15 | 2026-08-31 11:23:17 | 48.30110 | 12.52567 | 77° | 53km/h | 1960m | -10.0m/s | 9.7°C | 77.1% | 811.7hPa | 2.7V | 01:43:00 | 00:00:00 | 00:00:00 | |
| DO3MHA-12 | 2026-08-31 11:23:16 | 48.30107 | 12.52547 | 79° | 53km/h | 1970m | -9.5m/s | 9.7°C | 77.2% | 810.8hPa | 2.7V | 00:00:00 | 01:51:09 | 00:00:00 | |
| OE3JTB-15 | 2026-08-31 11:23:15 | 48.30105 | 12.52527 | 80° | 55km/h | 1979m | -9.6m/s | 9.6°C | 76.4% | 809.8hPa | 2.7V | 00:00:00 | 00:00:00 | 00:00:00 | |
| DO3MHA-11 | 2026-08-31 11:23:15 | 48.30105 | 12.52527 | 80° | 55km/h | 1979m | -9.6m/s | 9.6°C | 76.4% | 809.8hPa | 2.7V | 01:43:00 | 01:51:08 | 00:00:00 | |
| OE3JTB-15 | 2026-08-31 11:23:13 | 48.30099 | 12.52487 | 77° | 55km/h | 1999m | -9.3m/s | 9.6°C | 73.8% | 808.1hPa | 2.7V | 01:43:00 | 01:51:06 | 00:00:00 | |
| DO3MHA-12 | 2026-08-31 11:23:11 | 48.30093 | 12.52447 | 80° | 55km/h | 2017m | -9.7m/s | 9.4°C | 74.6% | 806.3hPa | 2.7V | 01:43:00 | 01:51:04 | 00:00:00 | |
| DO3MHA-11 | 2026-08-31 11:23:10 | 48.30091 | 12.52427 | 77° | 55km/h | 2027m | -10.2m/s | 9.3°C | 75.0% | 805.3hPa | 2.7V | 00:00:00 | 01:51:03 | 00:00:00 | |
| OE5DXL-15 | 2026-08-31 11:23:09 | 48.30088 | 12.52406 | 80° | 60km/h | 2038m | -10.7m/s | 9.2°C | 75.4% | 804.2hPa | 2.7V | 00:00:00 | 00:00:00 | 00:00:00 | |
| DO3MHA-12 | 2026-08-31 11:23:06 | 48.30079 | 12.52344 | 79° | 58km/h | 2067m | -9.7m/s | 8.9°C | 77.0% | 801.4hPa | 2.7V | 00:00:00 | 01:50:59 | 00:00:00 | |
| DO3MHA-11 | 2026-08-31 11:23:05 | 48.30076 | 12.52322 | 80° | 58km/h | 2077m | -10.3m/s | 8.8°C | 77.0% | 800.3hPa | 2.7V | 01:43:00 | 01:50:58 | 00:00:00 | |
| OE3JTB-15 | 2026-08-31 11:23:04 | 48.30073 | 12.52301 | 78° | 62km/h | 2087m | -10.6m/s | 8.7°C | 77.2% | 799.5hPa | 2.7V | 00:00:00 | 00:00:00 | 00:00:00 | |
| DO3MHA-12 | 2026-08-31 11:23:01 | 48.30065 | 12.52233 | 83° | 62km/h | 2117m | -9.6m/s | 8.5°C | 77.8% | 796.3hPa | 2.7V | 01:43:00 | 01:50:54 | 00:00:00 | |
| DO3MHA-11 | 2026-08-31 11:23:00 | 48.30063 | 12.52210 | 81° | 64km/h | 2127m | -10.9m/s | 8.4°C | 77.8% | 795.5hPa | 2.7V | 00:00:00 | 01:50:53 | 00:00:00 | |
| DO3MHA-12 | 2026-08-31 11:22:56 | 48.30051 | 12.52114 | 81° | 64km/h | 2169m | -10.6m/s | 8.2°C | 73.4% | 791.6hPa | 2.7V | 00:00:00 | 01:50:49 | 00:00:00 | |
| DO3MHA-11 | 2026-08-31 11:22:55 | 48.30049 | 12.52090 | 80° | 64km/h | 2179m | -9.9m/s | 8.1°C | 75.9% | 790.5hPa | 2.7V | 01:44:00 | 01:50:48 | 00:00:00 | |
| DO3MHA-12 | 2026-08-31 11:22:51 | 48.30036 | 12.51995 | 77° | 64km/h | 2220m | -10.7m/s | 8.2°C | 62.8% | 786.7hPa | 2.7V | 01:44:00 | 01:50:44 | 00:00:00 | |
| DO3MHA-11 | 2026-08-31 11:22:50 | 48.30032 | 12.51971 | 78° | 66km/h | 2231m | -11.0m/s | 8.2°C | 62.8% | 785.7hPa | 2.7V | 00:00:00 | 01:50:43 | 00:00:00 | |
| OE5DXL-15 | 2026-08-31 11:22:49 | 48.30029 | 12.51947 | 80° | 68km/h | 2241m | -10.8m/s | 8.2°C | 59.8% | 784.7hPa | 2.6V | 01:44:00 | 00:00:00 | 00:00:00 | |
| DO3MHA-12 | 2026-08-31 11:22:46 | 48.30020 | 12.51873 | 78° | 66km/h | 2273m | -11.2m/s | 8.2°C | 54.3% | 781.6hPa | 2.6V | 00:00:00 | 01:50:39 | 00:00:00 | |
| DO3MHA-11 | 2026-08-31 11:22:45 | 48.30016 | 12.51849 | 78° | 66km/h | 2284m | -11.2m/s | 8.1°C | 52.5% | 780.5hPa | 2.7V | 01:44:00 | 01:50:38 | 00:00:00 | |
| DO3MHA-12 | 2026-08-31 11:22:41 | 48.30002 | 12.51751 | 79° | 68km/h | 2327m | -10.6m/s | 7.9°C | 54.7% | 776.6hPa | 2.7V | 01:44:00 | 01:50:34 | 00:00:00 | |
| DO3MHA-11 | 2026-08-31 11:22:40 | 48.29999 | 12.51726 | 81° | 66km/h | 2337m | -11.0m/s | 7.9°C | 54.6% | 775.5hPa | 2.7V | 00:00:00 | 01:50:33 | 00:00:00 | |
| OE3JTB-15 | 2026-08-31 11:22:37 | 48.29988 | 12.51652 | 76° | 68km/h | 2370m | -11.7m/s | 7.6°C | 51.9% | 772.6hPa | 2.7V | 01:44:00 | 00:00:00 | 00:00:00 | |
| DO3MHA-12 | 2026-08-31 11:22:36 | 48.29984 | 12.51627 | 76° | 68km/h | 2382m | -10.8m/s | 7.6°C | 50.4% | 771.4hPa | 2.7V | 00:00:00 | 01:50:29 | 00:00:00 | |
| DO3MHA-11 | 2026-08-31 11:22:35 | 48.29979 | 12.51603 | 77° | 68km/h | 2393m | -11.2m/s | 7.5°C | 48.3% | 770.5hPa | 2.7V | 01:44:00 | 01:50:28 | 00:00:00 | |
| DO3MHA-12 | 2026-08-31 11:22:31 | 48.29964 | 12.51501 | 79° | 68km/h | 2434m | -9.7m/s | 7.3°C | 43.2% | 766.5hPa | 2.7V | 01:44:00 | 01:50:24 | 00:00:00 | |
| DO3MHA-11 | 2026-08-31 11:22:30 | 48.29960 | 12.51476 | 78° | 68km/h | 2444m | -9.9m/s | 7.3°C | 44.2% | 765.6hPa | 2.6V | 00:00:00 | 01:50:23 | 00:00:00 | |
| OE5DXL-15 | 2026-08-31 11:22:29 | 48.29957 | 12.51451 | 78° | 68km/h | 2454m | -10.7m/s | 7.2°C | 44.5% | 764.7hPa | 2.6V | 00:00:00 | 00:00:00 | 00:00:00 | |
| OE3JTB-15 | 2026-08-31 11:22:28 | 48.29953 | 12.51426 | 77° | 68km/h | 2464m | -10.6m/s | 7.0°C | 46.2% | 763.7hPa | 2.6V | 00:00:00 | 00:00:00 | 00:00:00 | |
| DO3MHA-12 | 2026-08-31 11:22:26 | 48.29944 | 12.51377 | 73° | 68km/h | 2485m | -10.7m/s | 6.7°C | 61.5% | 761.7hPa | 2.6V | 00:00:00 | 01:50:19 | 00:00:00 | |
| DO3MHA-11 | 2026-08-31 11:22:25 | 48.29939 | 12.51353 | 73° | 68km/h | 2495m | -10.7m/s | 6.6°C | 64.5% | 760.7hPa | 2.6V | 01:44:00 | 01:50:18 | 00:00:00 | |
| DO3MHA-12 | 2026-08-31 11:22:21 | 48.29920 | 12.51254 | 73° | 68km/h | 2534m | -10.5m/s | 6.2°C | 63.4% | 757.0hPa | 2.6V | 01:44:00 | 01:50:14 | 00:00:00 | |
| DO3MHA-11 | 2026-08-31 11:22:20 | 48.29915 | 12.51230 | 71° | 68km/h | 2544m | -10.5m/s | 6.2°C | 63.2% | 756.1hPa | 2.6V | 00:00:00 | 01:50:13 | 00:00:00 | |
| DO3MHA-12 | 2026-08-31 11:22:16 | 48.29893 | 12.51132 | 75° | 68km/h | 2585m | -10.3m/s | 5.8°C | 65.1% | 752.2hPa | 2.7V | 00:00:00 | 01:50:09 | 00:00:00 | |
| DO3MHA-11 | 2026-08-31 11:22:15 | 48.29888 | 12.51108 | 71° | 66km/h | 2595m | -10.1m/s | 5.7°C | 65.3% | 751.5hPa | 2.7V | 01:44:00 | 01:50:08 | 00:00:00 | |
| DO3MHA-12 | 2026-08-31 11:22:11 | 48.29867 | 12.51012 | 74° | 66km/h | 2635m | -10.1m/s | 5.5°C | 55.2% | 747.8hPa | 2.7V | 01:44:00 | 01:50:04 | 00:00:00 | |
| DO3MHA-11 | 2026-08-31 11:22:10 | 48.29862 | 12.50989 | 71° | 66km/h | 2645m | -10.5m/s | 5.5°C | 55.6% | 746.9hPa | 2.7V | 00:00:00 | 01:50:03 | 00:00:00 | |
| DO3MHA-12 | 2026-08-31 11:22:06 | 48.29841 | 12.50895 | 70° | 64km/h | 2687m | -10.2m/s | 5.3°C | 51.6% | 743.0hPa | 2.7V | 00:00:00 | 01:49:59 | 00:00:00 | |
| DO3MHA-11 | 2026-08-31 11:22:05 | 48.29836 | 12.50872 | 72° | 64km/h | 2697m | -10.2m/s | 5.3°C | 50.3% | 742.2hPa | 2.7V | 01:44:00 | 01:49:58 | 00:00:00 | |
| OE5DXL-15 | 2026-08-31 11:22:03 | 48.29827 | 12.50825 | 75° | 62km/h | 2717m | -10.5m/s | 5.3°C | 37.4% | 740.4hPa | 2.7V | 01:44:00 | 00:00:00 | 00:00:00 | |
| DO3MHA-12 | 2026-08-31 11:22:01 | 48.29818 | 12.50781 | 72° | 62km/h | 2738m | -11.0m/s | 5.3°C | 31.8% | 738.5hPa | 2.7V | 01:44:00 | 01:49:54 | 00:00:00 | |
| DO3MHA-11 | 2026-08-31 11:22:00 | 48.29813 | 12.50758 | 74° | 62km/h | 2749m | -10.5m/s | 5.2°C | 30.8% | 737.5hPa | 2.7V | 00:00:00 | 01:49:53 | 00:00:00 | |
| OE3JTB-15 | 2026-08-31 11:21:57 | 48.29800 | 12.50690 | 73° | 60km/h | 2781m | -10.7m/s | 5.0°C | 27.7% | 734.9hPa | 2.7V | 00:00:00 | 00:00:00 | 00:00:00 | |
| DO3MHA-12 | 2026-08-31 11:21:56 | 48.29796 | 12.50668 | 77° | 60km/h | 2791m | -10.0m/s | 5.0°C | 26.7% | 733.9hPa | 2.7V | 00:00:00 | 01:49:49 | 00:00:00 | |
| DO3MHA-11 | 2026-08-31 11:21:55 | 48.29792 | 12.50646 | 73° | 60km/h | 2801m | -10.8m/s | 4.9°C | 27.1% | 732.9hPa | 2.7V | 01:45:00 | 01:49:48 | 00:00:00 | |
| DO3MHA-12 | 2026-08-31 11:21:51 | 48.29777 | 12.50559 | 77° | 60km/h | 2842m | -10.2m/s | 4.7°C | 22.1% | 729.3hPa | 2.7V | 01:45:00 | 01:49:44 | 00:00:00 | |
| DO3MHA-11 | 2026-08-31 11:21:50 | 48.29774 | 12.50536 | 77° | 60km/h | 2852m | -9.6m/s | 4.9°C | 17.0% | 728.5hPa | 2.7V | 00:00:00 | 01:49:43 | 00:00:00 | |
| DO3MHA-12 | 2026-08-31 11:21:46 | 48.29759 | 12.50449 | 77° | 60km/h | 2896m | -11.2m/s | 4.8°C | 15.8% | 724.8hPa | 2.7V | 00:00:00 | 01:49:39 | 00:00:00 | |
| DO3MHA-11 | 2026-08-31 11:21:45 | 48.29756 | 12.50426 | 79° | 60km/h | 2907m | -10.8m/s | 4.8°C | 16.5% | 723.7hPa | 2.6V | 01:45:00 | 01:49:38 | 00:00:00 | |
| DO3MHA-12 | 2026-08-31 11:21:41 | 48.29745 | 12.50337 | 79° | 62km/h | 2950m | -10.4m/s | 4.6°C | 20.3% | 719.8hPa | 2.6V | 01:45:00 | 01:49:34 | 00:00:00 | |
| DO3MHA-11 | 2026-08-31 11:21:40 | 48.29742 | 12.50314 | 81° | 62km/h | 2960m | -8.6m/s | 4.6°C | 20.0% | 718.8hPa | 2.6V | 00:00:00 | 01:49:33 | 00:00:00 | |
| OE5DRO-10 | 2026-08-31 11:21:39 | 48.29739 | 12.50291 | 79° | 68km/h | 2968m | -8.1m/s | 4.5°C | 19.7% | 717.9hPa | 2.6V | 00:00:00 | 00:00:00 | 00:00:00 | |
| OE3JTB-15 | 2026-08-31 11:21:38 | 48.29736 | 12.50268 | 79° | 71km/h | 2977m | -8.9m/s | 4.4°C | 19.6% | 717.3hPa | 2.6V | 01:45:00 | 00:00:00 | 00:00:00 | |
| DO3MHA-12 | 2026-08-31 11:21:36 | 48.29730 | 12.50221 | 79° | 66km/h | 2995m | -9.0m/s | 4.3°C | 18.2% | 715.7hPa | 2.6V | 00:00:00 | 01:49:29 | 00:00:00 | |
| DO3MHA-11 | 2026-08-31 11:21:35 | 48.29727 | 12.50197 | 80° | 66km/h | 3004m | -8.1m/s | 4.3°C | 18.0% | 714.7hPa | 2.6V | 01:45:00 | 01:49:28 | 00:00:00 | |
| OE5DXL-15 | 2026-08-31 11:21:33 | 48.29720 | 12.50148 | 80° | 78km/h | 3021m | -8.1m/s | 4.1°C | 17.9% | 713.2hPa | 2.7V | 00:00:00 | 00:00:00 | 00:00:00 | |
| DO3MHA-12 | 2026-08-31 11:21:31 | 48.29714 | 12.50097 | 80° | 69km/h | 3039m | -8.4m/s | 4.0°C | 17.1% | 710.9hPa | 2.7V | 01:45:00 | 01:49:24 | 00:00:00 | |
| DO3MHA-11 | 2026-08-31 11:21:30 | 48.29710 | 12.50072 | 77° | 71km/h | 3047m | -8.4m/s | 4.1°C | 16.1% | 710.9hPa | 2.6V | 00:00:00 | 01:49:23 | 00:00:00 | |
| DO3MHA-12 | 2026-08-31 11:21:26 | 48.29695 | 12.49966 | 77° | 77km/h | 3082m | -8.7m/s | 4.0°C | 20.5% | 707.8hPa | 2.6V | 00:00:00 | 01:49:19 | 00:00:00 | |
| DO3MHA-11 | 2026-08-31 11:21:25 | 48.29691 | 12.49938 | 79° | 77km/h | 3091m | -9.2m/s | 4.0°C | 24.1% | 707.1hPa | 2.6V | 01:45:00 | 01:49:18 | 00:00:00 | |
| OE5DRO-10 | 2026-08-31 11:21:23 | 48.29683 | 12.49882 | 78° | 80km/h | 3109m | -9.6m/s | 3.9°C | 27.0% | 705.5hPa | 2.6V | 01:45:00 | 00:00:00 | 00:00:00 | |
| DO3MHA-12 | 2026-08-31 11:21:21 | 48.29674 | 12.49824 | 78° | 80km/h | 3127m | -8.8m/s | 3.7°C | 28.3% | 704.0hPa | 2.7V | 01:45:00 | 01:49:14 | 00:00:00 | |
| DO3MHA-11 | 2026-08-31 11:21:20 | 48.29670 | 12.49795 | 80° | 80km/h | 3137m | -9.5m/s | 3.7°C | 30.8% | 703.2hPa | 2.7V | 00:00:00 | 01:49:13 | 00:00:00 | |
| OE3JTB-15 | 2026-08-31 11:21:19 | 48.29666 | 12.49765 | 78° | 82km/h | 3146m | -9.2m/s | 3.8°C | 34.1% | 702.4hPa | 2.7V | 00:00:00 | 01:49:12 | 00:00:00 | |
| DO3MHA-12 | 2026-08-31 11:21:16 | 48.29653 | 12.49675 | 78° | 82km/h | 3172m | -8.8m/s | 3.6°C | 36.0% | 700.1hPa | 2.7V | 00:00:00 | 01:49:09 | 00:00:00 | |
| DO3MHA-11 | 2026-08-31 11:21:15 | 48.29648 | 12.49645 | 80° | 84km/h | 3181m | -8.7m/s | 3.5°C | 36.2% | 699.2hPa | 2.6V | 01:45:00 | 01:49:08 | 00:00:00 | |
| DO3MHA-12 | 2026-08-31 11:21:11 | 48.29630 | 12.49521 | 80° | 82km/h | 3217m | -8.3m/s | 3.4°C | 68.5% | 696.3hPa | 2.6V | 01:45:00 | 01:49:04 | 00:00:00 | |
| DO3MHA-11 | 2026-08-31 11:21:10 | 48.29627 | 12.49490 | 81° | 82km/h | 3225m | -8.6m/s | 3.3°C | 70.0% | 695.5hPa | 2.6V | 00:00:00 | 01:49:03 | 00:00:00 | |
| OE5DRO-10 | 2026-08-31 11:21:07 | 48.29616 | 12.49397 | 80° | 84km/h | 3253m | -9.4m/s | 3.2°C | 64.6% | 693.2hPa | 2.6V | 00:00:00 | 00:00:00 | 00:00:00 | |
| DO3MHA-12 | 2026-08-31 11:21:06 | 48.29612 | 12.49366 | 80° | 84km/h | 3262m | -9.7m/s | 3.1°C | 63.0% | 692.5hPa | 2.6V | 00:00:00 | 01:48:59 | 00:00:00 | |
| DO3MHA-11 | 2026-08-31 11:21:05 | 48.29608 | 12.49335 | 80° | 84km/h | 3271m | -9.4m/s | 3.1°C | 58.1% | 691.6hPa | 2.6V | 01:45:00 | 01:48:58 | 00:00:00 | |
| OE5DXL-15 | 2026-08-31 11:21:03 | 48.29600 | 12.49273 | 79° | 86km/h | 3290m | -9.0m/s | 3.0°C | 54.3% | 690.1hPa | 2.6V | 01:45:00 | 00:00:00 | 00:00:00 | |
| DO3MHA-12 | 2026-08-31 11:21:01 | 48.29592 | 12.49209 | 81° | 84km/h | 3309m | -8.5m/s | 2.9°C | 46.0% | 688.5hPa | 2.6V | 01:45:00 | 01:48:54 | 00:00:00 | |
| DO3MHA-11 | 2026-08-31 11:21:00 | 48.29588 | 12.49177 | 81° | 84km/h | 3318m | -9.6m/s | 2.9°C | 46.2% | 687.8hPa | 2.7V | 00:00:00 | 01:48:53 | 00:00:00 | |
| DO3MHA-12 | 2026-08-31 11:20:56 | 48.29573 | 12.49051 | 82° | 86km/h | 3357m | -8.2m/s | 2.6°C | 45.7% | 684.8hPa | 2.7V | 00:00:00 | 01:48:49 | 00:00:00 | |
| DO3MHA-11 | 2026-08-31 11:20:55 | 48.29570 | 12.49018 | 81° | 88km/h | 3366m | -8.7m/s | 2.5°C | 45.9% | 684.0hPa | 2.7V | 01:46:00 | 01:48:48 | 00:00:00 | |
| DO3MHA-12 | 2026-08-31 11:20:51 | 48.29556 | 12.48887 | 83° | 86km/h | 3402m | -8.7m/s | 2.2°C | 54.8% | 681.1hPa | 2.7V | 01:46:00 | 01:48:44 | 00:00:00 | |
| DO3MHA-12 | 2026-08-31 11:20:46 | 48.29538 | 12.48725 | 82° | 88km/h | 3450m | -9.7m/s | 1.7°C | 64.5% | 677.1hPa | 2.7V | 00:00:00 | 01:48:39 | 00:00:00 | |
| DO3MHA-11 | 2026-08-31 11:20:45 | 48.29535 | 12.48692 | 82° | 88km/h | 3460m | -11.1m/s | 1.7°C | 64.7% | 676.3hPa | 2.7V | 01:46:00 | 01:48:38 | 00:00:00 | |
| DO3MHA-12 | 2026-08-31 11:20:41 | 48.29521 | 12.48561 | 82° | 88km/h | 3506m | -11.9m/s | 1.2°C | 66.1% | 672.6hPa | 2.7V | 01:46:00 | 01:48:34 | 00:00:00 | |
| DO3MHA-12 | 2026-08-31 11:20:36 | 48.29506 | 12.48399 | 82° | 84km/h | 3564m | -11.1m/s | 0.7°C | 67.1% | 667.6hPa | 2.7V | 00:00:00 | 01:48:29 | 00:00:00 | |
| DO3MHA-11 | 2026-08-31 11:20:35 | 48.29502 | 12.48367 | 82° | 82km/h | 3576m | -11.9m/s | 0.6°C | 62.6% | 666.8hPa | 2.7V | 01:46:00 | 01:48:28 | 00:00:00 | |
| OE5DXL-15 | 2026-08-31 11:20:33 | 48.29497 | 12.48303 | 85° | 69km/h | 3598m | -11.6m/s | 0.7°C | 48.2% | 664.8hPa | 2.6V | 00:00:00 | 01:48:26 | 00:00:00 | |
| DO3MHA-12 | 2026-08-31 11:20:31 | 48.29493 | 12.48243 | 84° | 75km/h | 3619m | -10.8m/s | 0.7°C | 34.2% | 663.2hPa | 2.7V | 01:46:00 | 01:48:24 | 00:00:00 | |
| DO3MHA-11 | 2026-08-31 11:20:30 | 48.29491 | 12.48214 | 83° | 75km/h | 3630m | -11.6m/s | 0.9°C | 21.6% | 662.3hPa | 2.7V | 00:00:00 | 01:48:23 | 00:00:00 | |
| DO3MHA-12 | 2026-08-31 11:20:26 | 48.29481 | 12.48102 | 83° | 71km/h | 3677m | -12.2m/s | 1.0°C | 9.5% | 658.5hPa | 2.7V | 00:00:00 | 01:48:19 | 00:00:00 | |
| DO3MHA-11 | 2026-08-31 11:20:25 | 48.29479 | 12.48075 | 87° | 71km/h | 3689m | -11.7m/s | 1.0°C | 10.2% | 657.7hPa | 2.7V | 01:46:00 | 01:48:18 | 00:00:00 | |
| DO3MHA-12 | 2026-08-31 11:20:21 | 48.29473 | 12.47967 | 84° | 68km/h | 3737m | -12.4m/s | 0.8°C | 12.9% | 653.8hPa | 2.7V | 01:46:00 | 01:48:14 | 00:00:00 | |
| DO3MHA-11 | 2026-08-31 11:20:20 | 48.29471 | 12.47941 | 83° | 68km/h | 3749m | -11.8m/s | 0.7°C | 12.9% | 652.8hPa | 2.7V | 00:00:00 | 01:48:13 | 00:00:00 | |
| OE5DRO-10 | 2026-08-31 11:20:19 | 48.29469 | 12.47916 | 85° | 66km/h | 3760m | -11.8m/s | 0.6°C | 12.8% | 651.8hPa | 2.6V | 01:46:00 | 00:00:00 | 00:00:00 | |
| OE5WHR-10 | 2026-08-31 11:20:17 | 48.29466 | 12.47866 | 86° | 64km/h | 3784m | -11.0m/s | 0.4°C | 12.7% | 649.9hPa | 2.6V | 00:00:00 | 00:00:00 | 00:00:00 | |
| DO3MHA-12 | 2026-08-31 11:20:16 | 48.29465 | 12.47840 | 86° | 68km/h | 3795m | -11.0m/s | 0.4°C | 12.0% | 649.1hPa | 2.6V | 00:00:00 | 01:48:09 | 00:00:00 | |
| DO3MHA-11 | 2026-08-31 11:20:15 | 48.29463 | 12.47815 | 85° | 68km/h | 3806m | -11.8m/s | 0.4°C | 11.1% | 648.1hPa | 2.6V | 01:46:00 | 01:48:08 | 00:00:00 | |
| OE3JTB-15 | 2026-08-31 11:20:14 | 48.29462 | 12.47789 | 85° | 60km/h | 3817m | -11.3m/s | 0.3°C | 10.1% | 647.1hPa | 2.6V | 01:46:00 | 01:48:07 | 00:00:00 | |
| DO3MHA-12 | 2026-08-31 11:20:11 | 48.29454 | 12.47714 | 79° | 62km/h | 3854m | -12.1m/s | 0.3°C | 8.0% | 644.3hPa | 2.6V | 01:46:00 | 01:48:04 | 00:00:00 | |
| DO3MHA-11 | 2026-08-31 11:20:10 | 48.29451 | 12.47690 | 77° | 62km/h | 3866m | -12.9m/s | 0.3°C | 7.2% | 643.3hPa | 2.6V | 00:00:00 | 01:48:03 | 00:00:00 | |
| DL6DJ-15 | 2026-08-31 11:20:09 | 48.29441 | 12.47623 | 78° | 60km/h | 3903m | -11.7m/s | 0.2°C | 6.1% | 640.5hPa | 2.6V | 00:00:00 | 00:00:00 | 00:00:00 | |
| PG1ADW-2 | 2026-08-31 11:20:07 | 48.29441 | 12.47623 | 79° | 60km/h | 3903m | -11.6m/s | 0.1°C | 6.3% | 640.4hPa | 2.6V | 01:46:00 | 00:00:00 | 00:00:00 | |
| DO3MHA-11 | 2026-08-31 11:20:05 | 48.29434 | 12.47577 | 76° | 60km/h | 3926m | -12.1m/s | 0.1°C | 5.5% | 638.5hPa | 2.6V | 01:46:00 | 01:47:58 | 00:00:00 | |
| OE5DXL-15 | 2026-08-31 11:20:03 | 48.29426 | 12.47531 | 74° | 60km/h | 3951m | -12.1m/s | -0.0°C | 4.9% | 636.6hPa | 2.6V | 01:46:00 | 00:00:00 | 00:00:00 | |
| DO3MHA-12 | 2026-08-31 11:20:01 | 48.29418 | 12.47489 | 76° | 58km/h | 3975m | -12.3m/s | -0.1°C | 4.7% | 634.6hPa | 2.6V | 01:46:00 | 01:47:54 | 00:00:00 | |
| DO3MHA-11 | 2026-08-31 11:20:00 | 48.29415 | 12.47468 | 77° | 58km/h | 3987m | -11.9m/s | -0.2°C | 4.7% | 633.7hPa | 2.6V | 00:00:00 | 01:47:53 | 00:00:00 | |
| DO3MHA-12 | 2026-08-31 11:19:56 | 48.29398 | 12.47383 | 73° | 60km/h | 4035m | -11.4m/s | -0.6°C | 4.5% | 629.9hPa | 2.6V | 00:00:00 | 01:47:49 | 00:00:00 | |
| DO3MHA-11 | 2026-08-31 11:19:55 | 48.29394 | 12.47362 | 76° | 60km/h | 4046m | -12.3m/s | -0.7°C | 4.5% | 629.1hPa | 2.6V | 01:47:00 | 01:47:48 | 00:00:00 | |
| DO3MHA-12 | 2026-08-31 11:19:51 | 48.29378 | 12.47273 | 75° | 58km/h | 4093m | -11.5m/s | -1.1°C | 4.5% | 625.3hPa | 2.6V | 01:47:00 | 01:47:44 | 00:00:00 | |
| DO3MHA-11 | 2026-08-31 11:19:50 | 48.29373 | 12.47251 | 74° | 58km/h | 4104m | -11.7m/s | -1.1°C | 4.9% | 624.5hPa | 2.6V | 00:00:00 | 01:47:43 | 00:00:00 | |
| DG1MFX-10 | 2026-08-31 11:19:49 | 48.29373 | 12.47251 | 74° | 62km/h | 4104m | -11.7m/s | -1.1°C | 4.7% | 624.5hPa | 2.6V | 01:47:00 | 00:00:00 | 00:00:00 | |
| PG1ADW-2 | 2026-08-31 11:19:47 | 48.29361 | 12.47189 | 74° | 60km/h | 4143m | -12.8m/s | -1.3°C | 7.6% | 621.4hPa | 2.6V | 00:00:00 | 00:00:00 | 00:00:00 | |
| DO3MHA-12 | 2026-08-31 11:19:46 | 48.29357 | 12.47168 | 76° | 60km/h | 4156m | -13.5m/s | -1.4°C | 8.6% | 620.5hPa | 2.6V | 00:00:00 | 01:47:39 | 00:00:00 | |
| DO3MHA-11 | 2026-08-31 11:19:45 | 48.29353 | 12.47145 | 74° | 60km/h | 4169m | -13.5m/s | -1.5°C | 8.3% | 619.5hPa | 2.7V | 01:47:00 | 01:47:38 | 00:00:00 | |
| OE5WHR-10 | 2026-08-31 11:19:43 | 48.29344 | 12.47101 | 75° | 60km/h | 4195m | -11.4m/s | -1.6°C | 9.1% | 617.3hPa | 2.7V | 00:00:00 | 00:00:00 | 00:00:00 | |
| DO3MHA-12 | 2026-08-31 11:19:41 | 48.29336 | 12.47058 | 73° | 60km/h | 4219m | -12.4m/s | -1.8°C | 9.0% | 615.4hPa | 2.6V | 01:47:00 | 01:47:34 | 00:00:00 | |
| DO3MHA-11 | 2026-08-31 11:19:40 | 48.29332 | 12.47036 | 76° | 62km/h | 4231m | -13.0m/s | -1.9°C | 8.6% | 614.5hPa | 2.6V | 00:00:00 | 01:47:33 | 00:00:00 | |
| DO3MHA-12 | 2026-08-31 11:19:36 | 48.29314 | 12.46947 | 72° | 60km/h | 4285m | -13.7m/s | -2.3°C | 9.1% | 610.4hPa | 2.6V | 00:00:00 | 01:47:29 | 00:00:00 | |
| DO3MHA-11 | 2026-08-31 11:19:35 | 48.29310 | 12.46926 | 76° | 60km/h | 4297m | -12.8m/s | -2.3°C | 9.1% | 609.5hPa | 2.6V | 01:47:00 | 01:47:28 | 00:00:00 | |
| OE5DXL-15 | 2026-08-31 11:19:33 | 48.29302 | 12.46881 | 74° | 60km/h | 4324m | -13.9m/s | -2.5°C | 9.5% | 607.6hPa | 2.6V | 00:00:00 | 00:00:00 | 00:00:00 | |
| DO3MHA-12 | 2026-08-31 11:19:31 | 48.29293 | 12.46837 | 74° | 62km/h | 4350m | -13.2m/s | -2.7°C | 9.6% | 605.4hPa | 2.6V | 01:47:00 | 01:47:24 | 00:00:00 | |
| DO3MHA-11 | 2026-08-31 11:19:30 | 48.29289 | 12.46815 | 77° | 62km/h | 4363m | -12.6m/s | -2.8°C | 9.7% | 604.4hPa | 2.7V | 00:00:00 | 01:47:23 | 00:00:00 | |
| DG1MFX-10 | 2026-08-31 11:19:29 | 48.29289 | 12.46815 | 78° | 60km/h | 4363m | -12.7m/s | -2.9°C | 9.4% | 604.5hPa | 2.7V | 01:47:00 | 00:00:00 | 00:00:00 | |
| PG1ADW-2 | 2026-08-31 11:19:27 | 48.29278 | 12.46747 | 75° | 60km/h | 4401m | -12.8m/s | -3.2°C | 10.1% | 601.6hPa | 2.7V | 01:47:00 | 01:47:20 | 00:00:00 | |
| DO3MHA-12 | 2026-08-31 11:19:26 | 48.29273 | 12.46725 | 74° | 62km/h | 4414m | -13.4m/s | -3.3°C | 10.2% | 600.5hPa | 2.6V | 00:00:00 | 01:47:19 | 00:00:00 | |
| DO3MHA-11 | 2026-08-31 11:19:25 | 48.29270 | 12.46703 | 77° | 62km/h | 4426m | -13.2m/s | -3.4°C | 10.4% | 599.6hPa | 2.6V | 01:47:00 | 01:47:18 | 00:00:00 | |
| DO3MHA-12 | 2026-08-31 11:19:21 | 48.29254 | 12.46613 | 76° | 60km/h | 4477m | -12.9m/s | -3.9°C | 10.8% | 595.7hPa | 2.6V | 01:47:00 | 01:47:14 | 00:00:00 | |
| DO3MHA-11 | 2026-08-31 11:19:20 | 48.29250 | 12.46591 | 78° | 60km/h | 4489m | -12.4m/s | -4.0°C | 10.9% | 594.9hPa | 2.6V | 00:00:00 | 01:47:13 | 00:00:00 | |
| NBG1-10 | 2026-08-31 11:19:17 | 48.29238 | 12.46523 | 72° | 62km/h | 4527m | -13.0m/s | -4.2°C | 10.7% | 592.0hPa | 2.6V | 01:47:00 | 01:47:10 | 00:00:00 | |
| OE5MMP-10 | 2026-08-31 11:19:16 | 48.29234 | 12.46501 | 76° | 58km/h | 4539m | -12.5m/s | -4.3°C | 10.5% | 591.1hPa | 2.6V | 01:47:00 | 01:47:09 | 00:00:00 | |
| DO3MHA-11 | 2026-08-31 11:19:15 | 48.29230 | 12.46479 | 77° | 60km/h | 4551m | -11.9m/s | -4.3°C | 9.9% | 590.2hPa | 2.6V | 01:47:00 | 01:47:08 | 00:00:00 | |
| DO3MHA-12 | 2026-08-31 11:19:11 | 48.29212 | 12.46391 | 75° | 60km/h | 4601m | -12.6m/s | -4.6°C | 10.0% | 586.5hPa | 2.6V | 01:47:00 | 01:47:04 | 00:00:00 | |
| DO3MHA-11 | 2026-08-31 11:19:10 | 48.29208 | 12.46369 | 72° | 60km/h | 4613m | -13.1m/s | -4.7°C | 10.3% | 585.5hPa | 2.6V | 00:00:00 | 01:47:03 | 00:00:00 | |
| OE5WHR-10 | 2026-08-31 11:19:09 | 48.29203 | 12.46346 | 70° | 60km/h | 4626m | -13.1m/s | -4.7°C | 10.5% | 584.7hPa | 2.6V | 00:00:00 | 01:47:02 | 00:00:00 | |
| DL6DJ-15 | 2026-08-31 11:19:07 | 48.29187 | 12.46284 | 70° | 60km/h | 4663m | -12.5m/s | -4.7°C | 0% | 582.0hPa | 2.6V | 00:00:00 | 00:00:00 | 00:00:00 | |
| DO3MHA-12 | 2026-08-31 11:19:06 | 48.29187 | 12.46284 | 71° | 60km/h | 4663m | -12.4m/s | -4.7°C | 9.8% | 581.9hPa | 2.6V | 00:00:00 | 01:46:59 | 00:00:00 | |
| DO3MHA-11 | 2026-08-31 11:19:05 | 48.29182 | 12.46262 | 70° | 60km/h | 4675m | -13.0m/s | -4.6°C | 9.3% | 581.0hPa | 2.6V | 01:47:00 | 01:46:58 | 00:00:00 | |
| OE5DXL-15 | 2026-08-31 11:19:03 | 48.29172 | 12.46220 | 73° | 62km/h | 4699m | -12.2m/s | -4.7°C | 9.5% | 579.2hPa | 2.7V | 01:47:00 | 00:00:00 | 00:00:00 | |
| DO3MHA-12 | 2026-08-31 11:19:01 | 48.29162 | 12.46175 | 72° | 62km/h | 4723m | -13.2m/s | -4.8°C | 9.3% | 577.3hPa | 2.7V | 01:47:00 | 01:46:54 | 00:00:00 | |
| DO3MHA-11 | 2026-08-31 11:19:00 | 48.29157 | 12.46153 | 70° | 60km/h | 4736m | -13.4m/s | -4.9°C | 9.2% | 576.4hPa | 2.6V | 00:00:00 | 01:46:53 | 00:00:00 | |
| OE5MMP-10 | 2026-08-31 11:18:59 | 48.29152 | 12.46132 | 73° | 62km/h | 4748m | -12.7m/s | -5.0°C | 9.3% | 575.4hPa | 2.6V | 00:00:00 | 01:46:52 | 00:00:00 | |
| DO3MHA-12 | 2026-08-31 11:18:56 | 48.29138 | 12.46066 | 69° | 62km/h | 4785m | -13.2m/s | -5.1°C | 9.4% | 572.8hPa | 2.6V | 00:00:00 | 01:46:49 | 00:00:00 | |
| DO3MHA-11 | 2026-08-31 11:18:55 | 48.29132 | 12.46045 | 72° | 62km/h | 4797m | -12.4m/s | -5.2°C | 9.5% | 571.8hPa | 2.6V | 01:48:00 | 01:46:48 | 00:00:00 | |
| OE5WHR-10 | 2026-08-31 11:18:52 | 48.29117 | 12.45978 | 68° | 62km/h | 4833m | -13.2m/s | -5.5°C | 9.7% | 569.2hPa | 2.6V | 01:48:00 | 00:00:00 | 00:00:00 | |
| DO3MHA-12 | 2026-08-31 11:18:51 | 48.29111 | 12.45956 | 73° | 62km/h | 4846m | -12.7m/s | -5.6°C | 9.5% | 568.2hPa | 2.6V | 01:48:00 | 01:46:44 | 00:00:00 | |
| DO3MHA-11 | 2026-08-31 11:18:50 | 48.29106 | 12.45934 | 72° | 62km/h | 4858m | -12.9m/s | -5.7°C | 9.5% | 567.2hPa | 2.6V | 00:00:00 | 01:46:43 | 00:00:00 | |
| OE5MMP-10 | 2026-08-31 11:18:49 | 48.29101 | 12.45911 | 72° | 64km/h | 4870m | -12.8m/s | -5.8°C | 9.5% | 566.4hPa | 2.7V | 01:48:00 | 01:46:42 | 00:00:00 | |
| OE3JTB-15 | 2026-08-31 11:18:47 | 48.29090 | 12.45866 | 69° | 62km/h | 4895m | -13.2m/s | -5.9°C | 9.5% | 564.5hPa | 2.7V | 00:00:00 | 01:46:40 | 00:00:00 | |
| DG1MFX-10 | 2026-08-31 11:18:45 | 48.29085 | 12.45844 | 73° | 62km/h | 4907m | -13.0m/s | -6.1°C | 9.0% | 563.7hPa | 2.7V | 01:48:00 | 00:00:00 | 00:00:00 | |
| NBG1-10 | 2026-08-31 11:18:44 | 48.29075 | 12.45799 | 70° | 62km/h | 4932m | -13.7m/s | -6.2°C | 9.5% | 561.8hPa | 2.7V | 00:00:00 | 01:46:37 | 00:00:00 | |
| OE5DRO-10 | 2026-08-31 11:18:43 | 48.29069 | 12.45776 | 69° | 62km/h | 4945m | -13.8m/s | -6.3°C | 9.9% | 560.8hPa | 2.6V | 01:48:00 | 00:00:00 | 00:00:00 | |
| DO3MHA-12 | 2026-08-31 11:18:41 | 48.29058 | 12.45733 | 72° | 62km/h | 4970m | -13.5m/s | -6.5°C | 10.5% | 559.0hPa | 2.6V | 00:00:00 | 01:46:34 | 00:00:00 | |
| DO3MHA-11 | 2026-08-31 11:18:39 | 48.29047 | 12.45688 | 70° | 62km/h | 4996m | -13.7m/s | -6.7°C | 10.9% | 557.1hPa | 2.6V | 01:48:00 | 01:46:32 | 00:00:00 | |
| OE5MMP-10 | 2026-08-31 11:18:37 | 48.29036 | 12.45644 | 69° | 60km/h | 5022m | -13.6m/s | -7.0°C | 11.1% | 555.3hPa | 2.6V | 00:00:00 | 01:46:30 | 00:00:00 | |
| DO3MHA-12 | 2026-08-31 11:18:36 | 48.29030 | 12.45622 | 71° | 62km/h | 5035m | -12.9m/s | -7.0°C | 10.9% | 554.3hPa | 2.6V | 01:48:00 | 01:46:29 | 00:00:00 | |
| OE5WHR-10 | 2026-08-31 11:18:35 | 48.29025 | 12.45600 | 70° | 60km/h | 5047m | -12.7m/s | -7.2°C | 10.9% | 553.4hPa | 2.6V | 00:00:00 | 00:00:00 | 00:00:00 | |
| DB0NH | 2026-08-31 11:18:33 | 48.29013 | 12.45556 | 66° | 62km/h | 5071m | -13.0m/s | -7.3°C | 10.3% | 551.6hPa | 2.6V | 00:00:00 | 01:46:26 | 00:00:00 | |
| DO3MHA-11 | 2026-08-31 11:18:29 | 48.28990 | 12.45469 | 66° | 60km/h | 5122m | -13.3m/s | -7.7°C | 11.2% | 548.0hPa | 2.6V | 00:00:00 | 01:46:22 | 00:00:00 | |
| PG1ADW-2 | 2026-08-31 11:18:27 | 48.28978 | 12.45427 | 68° | 60km/h | 5146m | -11.5m/s | -7.9°C | 11.7% | 546.3hPa | 2.6V | 00:00:00 | 00:00:00 | 00:00:00 | |
| DO3MHA-12 | 2026-08-31 11:18:26 | 48.28972 | 12.45406 | 68° | 60km/h | 5157m | -10.9m/s | -8.0°C | 11.8% | 545.4hPa | 2.6V | 00:00:00 | 01:46:19 | 00:00:00 | |
| DG1MFX-10 | 2026-08-31 11:18:24 | 48.28967 | 12.45385 | 71° | 60km/h | 5168m | -11.3m/s | -8.2°C | 11.2% | 544.8hPa | 2.6V | 01:48:00 | 00:00:00 | 00:00:00 | |
| OE5MMP-10 | 2026-08-31 11:18:23 | 48.28956 | 12.45343 | 65° | 60km/h | 5191m | -12.0m/s | -8.3°C | 12.0% | 543.2hPa | 2.6V | 01:48:00 | 01:46:16 | 00:00:00 | |
| DO3MHA-11 | 2026-08-31 11:18:19 | 48.28930 | 12.45259 | 67° | 60km/h | 5236m | -11.8m/s | -8.6°C | 12.0% | 540.1hPa | 2.7V | 01:48:00 | 01:46:12 | 00:00:00 | |
| OE5WHR-10 | 2026-08-31 11:18:18 | 48.28924 | 12.45239 | 66° | 62km/h | 5248m | -11.9m/s | -8.7°C | 11.6% | 539.3hPa | 2.6V | 01:48:00 | 01:46:11 | 00:00:00 | |
| DO3MHA-12 | 2026-08-31 11:18:16 | 48.28912 | 12.45197 | 68° | 62km/h | 5272m | -10.9m/s | -8.9°C | 11.3% | 537.8hPa | 2.6V | 01:48:00 | 01:46:09 | 00:00:00 | |
| NBG1-10 | 2026-08-31 11:18:11 | 48.28881 | 12.45090 | 67° | 64km/h | 5329m | -11.8m/s | -9.4°C | 12.3% | 533.7hPa | 2.6V | 01:48:00 | 01:46:04 | 00:00:00 | |
| DO3MHA-11 | 2026-08-31 11:18:09 | 48.28868 | 12.45049 | 65° | 64km/h | 5350m | -8.9m/s | -9.6°C | 12.4% | 532.1hPa | 2.6V | 00:00:00 | 01:46:02 | 00:00:00 | |
| PG1ADW-2 | 2026-08-31 11:18:07 | 48.28855 | 12.45006 | 63° | 62km/h | 5371m | -12.9m/s | -9.8°C | 12.8% | 530.9hPa | 2.6V | 01:48:00 | 01:46:00 | 00:00:00 | |
| DO3MHA-12 | 2026-08-31 11:18:06 | 48.28847 | 12.44985 | 63° | 64km/h | 5383m | -11.5m/s | -9.9°C | 12.9% | 530.0hPa | 2.6V | 00:00:00 | 01:45:59 | 00:00:00 | |
| OE5MMP-10 | 2026-08-31 11:18:05 | 48.28841 | 12.44964 | 67° | 64km/h | 5394m | -11.3m/s | -10.0°C | 13.1% | 529.3hPa | 2.6V | 00:00:00 | 01:45:58 | 00:00:00 | |
| DG1MFX-10 | 2026-08-31 11:18:04 | 48.28841 | 12.44964 | 68° | 62km/h | 5394m | -11.3m/s | -10.0°C | 12.4% | 529.4hPa | 2.6V | 01:49:00 | 00:00:00 | 00:00:00 | |
| OE5DXL-15 | 2026-08-31 11:18:03 | 48.28827 | 12.44921 | 65° | 64km/h | 5418m | -13.1m/s | -10.2°C | 13.2% | 527.7hPa | 2.6V | 01:48:00 | 00:00:00 | 00:00:00 | |
| OE5WHR-10 | 2026-08-31 11:18:01 | 48.28814 | 12.44877 | 66° | 62km/h | 5441m | -11.7m/s | -10.4°C | 13.4% | 526.1hPa | 2.6V | 00:00:00 | 00:00:00 | 00:00:00 | |
| DO3MHA-11 | 2026-08-31 11:17:59 | 48.28800 | 12.44834 | 63° | 62km/h | 5463m | -11.3m/s | -10.6°C | 13.5% | 524.6hPa | 2.6V | 01:48:00 | 01:45:52 | 00:00:00 | |
| DO3MHA-12 | 2026-08-31 11:17:56 | 48.28780 | 12.44770 | 64° | 64km/h | 5494m | -11.8m/s | -10.9°C | 13.1% | 522.3hPa | 2.6V | 01:49:00 | 01:45:49 | 00:00:00 | |
| OE5DRO-10 | 2026-08-31 11:17:55 | 48.28773 | 12.44749 | 63° | 64km/h | 5505m | -11.0m/s | -11.0°C | 13.1% | 521.6hPa | 2.6V | 00:00:00 | 00:00:00 | 00:00:00 | |
| DO3MHA-11 | 2026-08-31 11:17:49 | 48.28732 | 12.44622 | 63° | 64km/h | 5566m | -11.8m/s | -11.5°C | 13.5% | 517.2hPa | 2.6V | 00:00:00 | 01:45:42 | 00:00:00 | |
| DB0NH | 2026-08-31 11:17:48 | 48.28726 | 12.44601 | 66° | 66km/h | 5578m | -11.7m/s | -11.6°C | 13.4% | 516.5hPa | 2.6V | 01:49:00 | 01:45:41 | 00:00:00 | |
| OE5MMP-10 | 2026-08-31 11:17:47 | 48.28719 | 12.44580 | 63° | 64km/h | 5589m | -12.7m/s | -11.7°C | 13.2% | 515.8hPa | 2.6V | 01:49:00 | 01:45:40 | 00:00:00 | |
| DO3MHA-12 | 2026-08-31 11:17:46 | 48.28711 | 12.44559 | 61° | 64km/h | 5601m | -13.0m/s | -11.8°C | 13.2% | 515.0hPa | 2.6V | 00:00:00 | 01:45:39 | 00:00:00 | |
| OE5WHR-10 | 2026-08-31 11:17:44 | 48.28697 | 12.44518 | 65° | 66km/h | 5624m | -11.2m/s | -12.0°C | 13.2% | 513.4hPa | 2.7V | 01:49:00 | 00:00:00 | 00:00:00 | |
| DG1MFX-10 | 2026-08-31 11:17:43 | 48.28696 | 12.44518 | 65° | 64km/h | 5624m | -11.3m/s | -12.1°C | 12.4% | 513.5hPa | 2.7V | 01:49:00 | 00:00:00 | 00:00:00 | |
| DO3MHA-11 | 2026-08-31 11:17:39 | 48.28658 | 12.44410 | 62° | 66km/h | 5679m | -10.5m/s | -12.5°C | 12.7% | 509.7hPa | 2.7V | 01:49:00 | 01:45:32 | 00:00:00 | |
| DO3MHA-12 | 2026-08-31 11:17:36 | 48.28635 | 12.44345 | 61° | 64km/h | 5710m | -11.4m/s | -12.8°C | 13.1% | 507.7hPa | 2.7V | 01:49:00 | 01:45:29 | 00:00:00 | |
| OE5DXL-15 | 2026-08-31 11:17:33 | 48.28611 | 12.44281 | 62° | 68km/h | 5742m | -10.3m/s | -13.1°C | 13.1% | 505.5hPa | 2.7V | 00:00:00 | 00:00:00 | 00:00:00 | |
| DO3MHA-11 | 2026-08-31 11:17:29 | 48.28578 | 12.44195 | 60° | 64km/h | 5786m | -11.1m/s | -13.4°C | 12.7% | 502.8hPa | 2.7V | 00:00:00 | 01:45:22 | 00:00:00 | |
| PG1ADW-2 | 2026-08-31 11:17:27 | 48.28562 | 12.44154 | 59° | 68km/h | 5806m | -10.7m/s | -13.6°C | 12.8% | 501.3hPa | 2.7V | 01:49:00 | 00:00:00 | 00:00:00 | |
| DO3MHA-12 | 2026-08-31 11:17:26 | 48.28554 | 12.44133 | 61° | 66km/h | 5818m | -11.2m/s | -13.7°C | 12.8% | 500.7hPa | 2.7V | 00:00:00 | 01:45:19 | 00:00:00 | |
| OE5MMP-10 | 2026-08-31 11:17:23 | 48.28531 | 12.44068 | 62° | 68km/h | 5849m | -11.6m/s | -14.0°C | 12.9% | 498.5hPa | 2.7V | 00:00:00 | 01:45:16 | 00:00:00 | |
| DG1MFX-10 | 2026-08-31 11:17:22 | 48.28531 | 12.44068 | 63° | 68km/h | 5849m | -11.7m/s | -14.0°C | 12.1% | 498.6hPa | 2.6V | 01:50:00 | 00:00:00 | 00:00:00 | |
| OE3JTB-15 | 2026-08-31 11:17:20 | 48.28507 | 12.44004 | 63° | 69km/h | 5881m | -10.9m/s | -14.2°C | 14.4% | 496.5hPa | 2.6V | 01:49:00 | 01:45:13 | 00:00:00 | |
| DO3MHA-11 | 2026-08-31 11:17:19 | 48.28499 | 12.43982 | 64° | 68km/h | 5891m | -10.9m/s | -14.3°C | 14.7% | 495.8hPa | 2.6V | 01:49:00 | 01:45:12 | 00:00:00 | |
| DB0NH | 2026-08-31 11:17:18 | 48.28492 | 12.43960 | 63° | 71km/h | 5902m | -11.0m/s | -14.4°C | 15.3% | 495.0hPa | 2.6V | 00:00:00 | 01:45:11 | 00:00:00 | |
| OE5DRO-10 | 2026-08-31 11:17:17 | 48.28484 | 12.43937 | 62° | 69km/h | 5912m | -11.5m/s | -14.5°C | 15.5% | 494.4hPa | 2.7V | 00:00:00 | 00:00:00 | 00:00:00 | |
| DO3MHA-12 | 2026-08-31 11:17:16 | 48.28476 | 12.43916 | 61° | 69km/h | 5923m | -11.3m/s | -14.6°C | 15.6% | 493.7hPa | 2.7V | 01:49:00 | 01:45:09 | 00:00:00 | |
| OE5MMP-10 | 2026-08-31 11:17:11 | 48.28439 | 12.43801 | 65° | 71km/h | 5976m | -11.6m/s | -15.1°C | 17.8% | 490.1hPa | 2.6V | 01:49:00 | 01:45:04 | 00:00:00 | |
| DO3MHA-11 | 2026-08-31 11:17:09 | 48.28424 | 12.43753 | 65° | 71km/h | 5998m | -11.2m/s | -15.2°C | 20.1% | 488.8hPa | 2.6V | 00:00:00 | 01:45:02 | 00:00:00 | |
| PG1ADW-2 | 2026-08-31 11:17:07 | 48.28409 | 12.43704 | 65° | 71km/h | 6019m | -10.7m/s | -15.4°C | 20.3% | 487.4hPa | 2.6V | 00:00:00 | 00:00:00 | 00:00:00 | |
| DO3MHA-12 | 2026-08-31 11:17:06 | 48.28401 | 12.43680 | 64° | 71km/h | 6030m | -10.9m/s | -15.5°C | 20.3% | 486.8hPa | 2.6V | 00:00:00 | 01:44:59 | 00:00:00 | |
| NBG1-10 | 2026-08-31 11:17:05 | 48.28394 | 12.43657 | 67° | 73km/h | 6040m | -10.8m/s | -15.5°C | 20.2% | 486.1hPa | 2.6V | 01:49:00 | 01:44:58 | 00:00:00 | |
| DL6DJ-15 | 2026-08-31 11:17:03 | 48.28372 | 12.43583 | 65° | 69km/h | 6071m | -10.8m/s | -15.8°C | 19.2% | 484.1hPa | 2.7V | 00:00:00 | 00:00:00 | 00:00:00 | |
| OE5WHR-10 | 2026-08-31 11:17:02 | 48.28372 | 12.43583 | 66° | 73km/h | 6071m | -10.7m/s | -15.8°C | 20.4% | 484.0hPa | 2.7V | 01:49:00 | 00:00:00 | 00:00:00 | |
| DO3MHA-11 | 2026-08-31 11:16:59 | 48.28352 | 12.43508 | 69° | 73km/h | 6105m | -11.7m/s | -16.0°C | 19.1% | 482.0hPa | 2.7V | 01:49:00 | 01:44:52 | 00:00:00 | |
| OE5DRO-10 | 2026-08-31 11:16:58 | 48.28345 | 12.43482 | 67° | 73km/h | 6117m | -12.6m/s | -16.0°C | 18.6% | 481.3hPa | 2.7V | 01:50:00 | 00:00:00 | 00:00:00 | |
| DO3MHA-12 | 2026-08-31 11:16:56 | 48.28331 | 12.43432 | 70° | 73km/h | 6140m | -9.8m/s | -16.2°C | 18.3% | 479.7hPa | 2.7V | 01:50:00 | 01:44:49 | 00:00:00 | |
| OE3JTB-15 | 2026-08-31 11:16:51 | 48.28297 | 12.43304 | 71° | 75km/h | 6188m | -9.8m/s | -16.5°C | 18.0% | 476.8hPa | 2.7V | 00:00:00 | 00:00:00 | 00:00:00 | |
| OE5MMP-10 | 2026-08-31 11:16:49 | 48.28284 | 12.43253 | 71° | 75km/h | 6208m | -9.4m/s | -16.6°C | 17.0% | 475.4hPa | 2.6V | 01:50:00 | 01:44:42 | 00:00:00 | |
| DB0NH | 2026-08-31 11:16:48 | 48.28277 | 12.43227 | 67° | 75km/h | 6219m | -11.5m/s | -16.7°C | 16.0% | 474.9hPa | 2.7V | 01:50:00 | 01:44:41 | 00:00:00 | |
| PG1ADW-2 | 2026-08-31 11:16:47 | 48.28270 | 12.43201 | 70° | 75km/h | 6230m | -10.4m/s | -16.7°C | 15.6% | 474.1hPa | 2.7V | 01:50:00 | 01:44:40 | 00:00:00 | |
| DO3MHA-12 | 2026-08-31 11:16:46 | 48.28264 | 12.43175 | 70° | 75km/h | 6240m | -11.7m/s | -16.7°C | 15.4% | 473.6hPa | 2.7V | 00:00:00 | 01:44:39 | 00:00:00 | |
| DG1MFX-10 | 2026-08-31 11:16:42 | 48.28244 | 12.43097 | 69° | 75km/h | 6271m | -11.3m/s | -17.0°C | 14.5% | 471.6hPa | 2.7V | 01:50:00 | 00:00:00 | 00:00:00 | |
| OE5WHR-10 | 2026-08-31 11:16:41 | 48.28230 | 12.43045 | 70° | 77km/h | 6291m | -11.4m/s | -17.0°C | 15.2% | 470.4hPa | 2.7V | 00:00:00 | 00:00:00 | 00:00:00 | |
| DO3MHA-11 | 2026-08-31 11:16:39 | 48.28216 | 12.42992 | 68° | 75km/h | 6313m | -10.4m/s | -17.1°C | 15.1% | 468.9hPa | 2.7V | 01:50:00 | 01:44:32 | 00:00:00 | |
| OE5MMP-10 | 2026-08-31 11:16:38 | 48.28209 | 12.42966 | 67° | 75km/h | 6323m | -10.1m/s | -17.2°C | 15.2% | 468.2hPa | 2.7V | 00:00:00 | 01:44:31 | 00:00:00 | |
| DO3MHA-12 | 2026-08-31 11:16:36 | 48.28195 | 12.42914 | 69° | 77km/h | 6345m | -11.8m/s | -17.4°C | 15.4% | 467.0hPa | 2.7V | 01:50:00 | 01:44:29 | 00:00:00 | |
| OE5DXL-15 | 2026-08-31 11:16:33 | 48.28173 | 12.42834 | 66° | 82km/h | 6378m | -11.1m/s | -17.6°C | 14.9% | 464.9hPa | 2.7V | 00:00:00 | 00:00:00 | 00:00:00 | |
| NBG1-10 | 2026-08-31 11:16:32 | 48.28165 | 12.42809 | 69° | 82km/h | 6389m | -10.9m/s | -17.6°C | 15.2% | 464.3hPa | 2.7V | 00:00:00 | 01:44:25 | 00:00:00 | |
| DL6DJ-15 | 2026-08-31 11:16:31 | 48.28158 | 12.42783 | 69° | 75km/h | 6399m | -10.3m/s | -17.8°C | 14.4% | 463.6hPa | 2.7V | 00:00:00 | 00:00:00 | 00:00:00 | |
| DO3MHA-11 | 2026-08-31 11:16:29 | 48.28144 | 12.42728 | 68° | 80km/h | 6420m | -11.0m/s | -17.9°C | 15.7% | 462.3hPa | 2.7V | 00:00:00 | 01:44:22 | 00:00:00 | |
| OE5MMP-10 | 2026-08-31 11:16:28 | 48.28136 | 12.42701 | 68° | 80km/h | 6430m | -10.7m/s | -18.0°C | 16.2% | 461.7hPa | 2.7V | 01:50:00 | 01:44:21 | 00:00:00 | |
| PG1ADW-2 | 2026-08-31 11:16:27 | 48.28129 | 12.42674 | 67° | 84km/h | 6441m | -11.7m/s | -18.1°C | 16.1% | 461.0hPa | 2.7V | 00:00:00 | 00:00:00 | 00:00:00 | |
| DO3MHA-12 | 2026-08-31 11:16:26 | 48.28121 | 12.42647 | 69° | 82km/h | 6453m | -11.1m/s | -18.2°C | 15.8% | 460.3hPa | 2.6V | 00:00:00 | 01:44:19 | 00:00:00 | |
| OE3JTB-15 | 2026-08-31 11:16:22 | 48.28092 | 12.42536 | 67° | 86km/h | 6495m | -10.1m/s | -18.3°C | 13.0% | 457.6hPa | 2.6V | 01:50:00 | 00:00:00 | 00:00:00 | |
| DG1MFX-10 | 2026-08-31 11:16:21 | 48.28092 | 12.42536 | 67° | 80km/h | 6495m | -10.1m/s | -18.3°C | 12.0% | 457.7hPa | 2.6V | 01:51:00 | 00:00:00 | 00:00:00 | |
| OE5WHR-10 | 2026-08-31 11:16:20 | 48.28076 | 12.42477 | 69° | 86km/h | 6515m | -10.6m/s | -18.4°C | 11.8% | 456.3hPa | 2.6V | 01:50:00 | 01:44:13 | 00:00:00 | |
| DO3MHA-11 | 2026-08-31 11:16:19 | 48.28068 | 12.42447 | 69° | 86km/h | 6526m | -11.6m/s | -18.4°C | 11.2% | 455.7hPa | 2.6V | 01:50:00 | 01:44:12 | 00:00:00 | |
| OE5MMP-10 | 2026-08-31 11:16:18 | 48.28060 | 12.42417 | 67° | 86km/h | 6538m | -12.3m/s | -18.4°C | 10.6% | 455.0hPa | 2.6V | 00:00:00 | 01:44:11 | 00:00:00 | |
| DO3MHA-12 | 2026-08-31 11:16:16 | 48.28044 | 12.42358 | 69° | 86km/h | 6559m | -11.1m/s | -18.5°C | 9.9% | 453.6hPa | 2.7V | 01:50:00 | 01:44:09 | 00:00:00 | |
| DO3MHA-11 | 2026-08-31 11:16:09 | 48.27988 | 12.42147 | 69° | 86km/h | 6638m | -11.1m/s | -18.9°C | 10.0% | 448.9hPa | 2.6V | 00:00:00 | 01:44:02 | 00:00:00 | |
| OE5MMP-10 | 2026-08-31 11:16:08 | 48.27980 | 12.42117 | 70° | 86km/h | 6649m | -11.0m/s | -19.0°C | 9.7% | 448.2hPa | 2.6V | 01:50:00 | 01:44:01 | 00:00:00 | |
| PG1ADW-2 | 2026-08-31 11:16:07 | 48.27972 | 12.42086 | 68° | 86km/h | 6661m | -11.9m/s | -19.0°C | 9.4% | 447.6hPa | 2.6V | 01:50:00 | 00:00:00 | 00:00:00 | |
| DO3MHA-12 | 2026-08-31 11:16:06 | 48.27964 | 12.42056 | 70° | 86km/h | 6672m | -11.6m/s | -19.1°C | 9.2% | 446.9hPa | 2.6V | 00:00:00 | 01:43:59 | 00:00:00 | |
| OE5DXL-15 | 2026-08-31 11:16:03 | 48.27941 | 12.41965 | 68° | 88km/h | 6707m | -12.0m/s | -19.3°C | 8.2% | 444.9hPa | 2.6V | 01:50:00 | 00:00:00 | 00:00:00 | |
| DL6DJ-15 | 2026-08-31 11:16:00 | 48.27918 | 12.41874 | 68° | 88km/h | 6740m | -12.3m/s | -19.4°C | 7.9% | 442.9hPa | 2.7V | 00:00:00 | 00:00:00 | 00:00:00 | |
| DO3MHA-11 | 2026-08-31 11:15:59 | 48.27910 | 12.41843 | 68° | 86km/h | 6752m | -11.2m/s | -19.5°C | 9.0% | 442.2hPa | 2.7V | 01:50:00 | 01:43:52 | 00:00:00 | |
| OE5MMP-10 | 2026-08-31 11:15:58 | 48.27902 | 12.41813 | 68° | 88km/h | 6763m | -10.4m/s | -19.5°C | 9.0% | 441.5hPa | 2.7V | 00:00:00 | 01:43:51 | 00:00:00 | |
| DO3MHA-12 | 2026-08-31 11:15:56 | 48.27887 | 12.41753 | 71° | 88km/h | 6783m | -11.2m/s | -19.7°C | 9.1% | 440.1hPa | 2.7V | 01:51:00 | 01:43:49 | 00:00:00 | |
| OE3JTB-15 | 2026-08-31 11:15:53 | 48.27863 | 12.41661 | 70° | 88km/h | 6817m | -11.5m/s | -19.9°C | 9.6% | 438.2hPa | 2.7V | 00:00:00 | 01:43:46 | 00:00:00 | |
| OE5MMP-10 | 2026-08-31 11:15:47 | 48.27814 | 12.41476 | 71° | 88km/h | 6883m | -11.2m/s | -20.5°C | 11.1% | 434.3hPa | 2.7V | 01:51:00 | 01:43:40 | 00:00:00 | |
| DO3MHA-12 | 2026-08-31 11:15:46 | 48.27806 | 12.41445 | 69° | 88km/h | 6895m | -12.9m/s | -20.6°C | 11.2% | 433.6hPa | 2.6V | 00:00:00 | 01:43:39 | 00:00:00 | |
| OE5DRO-10 | 2026-08-31 11:15:42 | 48.27774 | 12.41319 | 69° | 88km/h | 6944m | -12.1m/s | -21.0°C | 11.0% | 430.9hPa | 2.7V | 01:51:00 | 00:00:00 | 00:00:00 | |
| DG1MFX-10 | 2026-08-31 11:15:40 | 48.27765 | 12.41289 | 67° | 86km/h | 6956m | -12.1m/s | -21.1°C | 9.7% | 430.3hPa | 2.7V | 01:52:00 | 00:00:00 | 00:00:00 | |
| DO3MHA-11 | 2026-08-31 11:15:39 | 48.27749 | 12.41228 | 69° | 88km/h | 6979m | -12.0m/s | -21.2°C | 10.8% | 428.8hPa | 2.7V | 01:51:00 | 01:43:32 | 00:00:00 | |
| OE5WHR-10 | 2026-08-31 11:15:38 | 48.27740 | 12.41197 | 67° | 88km/h | 6991m | -12.4m/s | -21.3°C | 10.8% | 428.1hPa | 2.7V | 01:51:00 | 00:00:00 | 00:00:00 | |
| OE5MMP-10 | 2026-08-31 11:15:37 | 48.27731 | 12.41166 | 67° | 88km/h | 7003m | -12.3m/s | -21.5°C | 10.9% | 427.3hPa | 2.7V | 00:00:00 | 01:43:30 | 00:00:00 | |
| DO3MHA-12 | 2026-08-31 11:15:36 | 48.27723 | 12.41135 | 69° | 88km/h | 7015m | -12.1m/s | -21.6°C | 10.9% | 426.8hPa | 2.7V | 01:51:00 | 01:43:29 | 00:00:00 | |
| OE5DXL-15 | 2026-08-31 11:15:33 | 48.27697 | 12.41044 | 66° | 88km/h | 7050m | -12.1m/s | -21.8°C | 10.8% | 424.7hPa | 2.7V | 00:00:00 | 00:00:00 | 00:00:00 | |
| DO3MHA-11 | 2026-08-31 11:15:29 | 48.27660 | 12.40922 | 65° | 88km/h | 7098m | -10.9m/s | -22.1°C | 10.4% | 421.8hPa | 2.7V | 00:00:00 | 01:43:22 | 00:00:00 | |
| OE5MMP-10 | 2026-08-31 11:15:27 | 48.27643 | 12.40861 | 68° | 88km/h | 7120m | -11.0m/s | -22.2°C | 9.0% | 420.5hPa | 2.7V | 01:51:00 | 01:43:20 | 00:00:00 | |
| NBG1-10 | 2026-08-31 11:15:26 | 48.27635 | 12.40831 | 68° | 88km/h | 7132m | -11.8m/s | -22.3°C | 8.2% | 419.8hPa | 2.7V | 00:00:00 | 01:43:19 | 00:00:00 | |
| OE3JTB-15 | 2026-08-31 11:15:24 | 48.27617 | 12.40770 | 67° | 88km/h | 7155m | -11.6m/s | -22.3°C | 7.8% | 418.5hPa | 2.6V | 01:51:00 | 00:00:00 | 00:00:00 | |
| OE5DRO-10 | 2026-08-31 11:15:23 | 48.27608 | 12.40739 | 68° | 88km/h | 7166m | -10.4m/s | -22.4°C | 7.9% | 417.9hPa | 2.7V | 00:00:00 | 00:00:00 | 00:00:00 | |
| DG1MFX-10 | 2026-08-31 11:15:20 | 48.27581 | 12.40648 | 68° | 89km/h | 7198m | -9.1m/s | -22.7°C | 7.4% | 416.0hPa | 2.6V | 01:52:00 | 00:00:00 | 00:00:00 | |
| DO3MHA-11 | 2026-08-31 11:15:19 | 48.27573 | 12.40618 | 69° | 88km/h | 7206m | -9.2m/s | -22.7°C | 8.4% | 415.4hPa | 2.6V | 01:51:00 | 01:43:12 | 00:00:00 | |
| DO3MHA-12 | 2026-08-31 11:15:17 | 48.27548 | 12.40526 | 66° | 86km/h | 7236m | -10.5m/s | -23.0°C | 8.8% | 413.8hPa | 2.7V | 01:51:00 | 01:43:09 | 00:00:00 | |
| DB0NH | 2026-08-31 11:15:12 | 48.27512 | 12.40406 | 67° | 88km/h | 7281m | -11.3m/s | -23.4°C | 9.3% | 411.3hPa | 2.7V | 00:00:00 | 01:43:05 | 00:00:00 | |
| DO3MHA-11 | 2026-08-31 11:15:09 | 48.27486 | 12.40314 | 68° | 88km/h | 7311m | -10.7m/s | -23.7°C | 9.5% | 409.6hPa | 2.7V | 00:00:00 | 01:43:02 | 00:00:00 | |
| OE5MMP-10 | 2026-08-31 11:15:07 | 48.27469 | 12.40253 | 68° | 88km/h | 7332m | -11.1m/s | -23.8°C | 9.6% | 408.5hPa | 2.7V | 01:51:00 | 01:43:00 | 00:00:00 | |
| DO3MHA-12 | 2026-08-31 11:15:06 | 48.27460 | 12.40223 | 66° | 88km/h | 7342m | -10.6m/s | -23.9°C | 9.7% | 407.8hPa | 2.7V | 00:00:00 | 01:42:59 | 00:00:00 | |
| OE5DRO-10 | 2026-08-31 11:15:04 | 48.27441 | 12.40164 | 65° | 88km/h | 7363m | -11.5m/s | -24.1°C | 9.5% | 406.7hPa | 2.7V | 01:51:00 | 00:00:00 | 00:00:00 | |
| DL6DJ-15 | 2026-08-31 11:14:58 | 48.27386 | 12.39984 | 65° | 86km/h | 7427m | -9.7m/s | -24.7°C | 0% | 403.2hPa | 2.7V | 00:00:00 | 00:00:00 | 00:00:00 | |
| DB0ND-19 | 2026-08-31 11:14:46 | 48.27265 | 12.39637 | 60° | 86km/h | 7548m | -10.8m/s | 0°C | -1.0% | -1.0hPa | 2.7V | 00:00:00 | 00:00:00 | 00:00:00 | |
| DO3MHA-12 | 2026-08-31 11:14:45 | 48.27254 | 12.39609 | 61° | 88km/h | 7559m | -11.9m/s | -25.5°C | 9.9% | 395.8hPa | 2.7V | 00:00:00 | 01:42:38 | 00:00:00 | |
| DB0NH | 2026-08-31 11:14:42 | 48.27221 | 12.39523 | 62° | 89km/h | 7591m | -9.8m/s | -25.8°C | 10.1% | 394.1hPa | 2.6V | 01:52:00 | 01:42:35 | 00:00:00 | |
| DO3MHA-11 | 2026-08-31 11:14:39 | 48.27189 | 12.39436 | 61° | 88km/h | 7622m | -11.2m/s | -26.0°C | 10.3% | 392.5hPa | 2.6V | 01:52:00 | 01:42:32 | 00:00:00 | |
| OE5MMP-10 | 2026-08-31 11:14:37 | 48.27167 | 12.39377 | 63° | 88km/h | 7643m | -10.2m/s | -26.1°C | 10.3% | 391.2hPa | 2.6V | 00:00:00 | 01:42:30 | 00:00:00 | |
| OE5WHR-10 | 2026-08-31 11:14:35 | 48.27146 | 12.39319 | 61° | 89km/h | 7665m | -11.2m/s | -26.2°C | 10.1% | 390.1hPa | 2.6V | 00:00:00 | 00:00:00 | 00:00:00 | |
| OE5DXL-15 | 2026-08-31 11:14:33 | 48.27124 | 12.39262 | 59° | 89km/h | 7685m | -10.4m/s | -26.4°C | 10.1% | 389.0hPa | 2.6V | 00:00:00 | 00:00:00 | 00:00:00 | |
| DO3MHA-11 | 2026-08-31 11:14:29 | 48.27078 | 12.39147 | 60° | 89km/h | 7728m | -11.3m/s | -26.7°C | 9.8% | 386.8hPa | 2.7V | 00:00:00 | 01:42:22 | 00:00:00 | |
| DB0UT-7 | 2026-08-31 11:14:27 | 48.27054 | 12.39088 | 61° | 89km/h | 7751m | -10.5m/s | -26.9°C | 9.7% | 385.7hPa | 2.7V | 00:00:00 | 00:00:00 | 00:00:00 | |
| OE3JTB-15 | 2026-08-31 11:14:26 | 48.27043 | 12.39058 | 62° | 89km/h | 7761m | -10.2m/s | -26.9°C | 9.6% | 385.1hPa | 2.7V | 01:52:00 | 01:42:19 | 00:00:00 | |
| DO3MHA-12 | 2026-08-31 11:14:25 | 48.27032 | 12.39029 | 62° | 89km/h | 7771m | -9.7m/s | -27.0°C | 9.4% | 384.6hPa | 2.7V | 00:00:00 | 01:42:18 | 00:00:00 | |
| NBG1-10 | 2026-08-31 11:14:20 | 48.26976 | 12.38884 | 59° | 89km/h | 7823m | -11.1m/s | -27.3°C | 9.3% | 381.8hPa | 2.7V | 00:00:00 | 01:42:13 | 00:00:00 | |
| OE5MMP-10 | 2026-08-31 11:14:17 | 48.26942 | 12.38796 | 61° | 89km/h | 7856m | -11.0m/s | -27.6°C | 9.4% | 380.0hPa | 2.7V | 00:00:00 | 01:42:10 | 00:00:00 | |
| DO3MHA-12 | 2026-08-31 11:14:15 | 48.26919 | 12.38739 | 61° | 89km/h | 7878m | -12.0m/s | -27.8°C | 9.5% | 378.9hPa | 2.6V | 01:52:00 | 01:42:08 | 00:00:00 | |
| OE5WHR-10 | 2026-08-31 11:14:14 | 48.26908 | 12.38710 | 60° | 89km/h | 7889m | -11.9m/s | -27.9°C | 9.4% | 378.3hPa | 2.7V | 01:52:00 | 01:42:07 | 00:00:00 | |
| DO3MHA-11 | 2026-08-31 11:14:09 | 48.26850 | 12.38566 | 61° | 89km/h | 7942m | -10.0m/s | -28.3°C | 9.1% | 375.6hPa | 2.7V | 00:00:00 | 01:42:02 | 00:00:00 | |
| OE5MMP-10 | 2026-08-31 11:14:07 | 48.26827 | 12.38508 | 59° | 89km/h | 7962m | -11.0m/s | -28.5°C | 9.0% | 374.5hPa | 2.7V | 01:52:00 | 01:42:00 | 00:00:00 | |
| DO3MHA-12 | 2026-08-31 11:14:05 | 48.26804 | 12.38451 | 60° | 89km/h | 7985m | -11.2m/s | -28.6°C | 9.1% | 373.4hPa | 2.7V | 00:00:00 | 01:41:58 | 00:00:00 | |
| OE5DXL-15 | 2026-08-31 11:14:03 | 48.26780 | 12.38392 | 60° | 89km/h | 8007m | -11.1m/s | -28.8°C | 9.4% | 372.3hPa | 2.7V | 01:52:00 | 00:00:00 | 00:00:00 | |
| DB0NH | 2026-08-31 11:14:02 | 48.26769 | 12.38363 | 61° | 89km/h | 8018m | -10.5m/s | -28.9°C | 9.5% | 371.8hPa | 2.7V | 00:00:00 | 01:41:55 | 00:00:00 | |
| DO3MHA-11 | 2026-08-31 11:13:59 | 48.26736 | 12.38275 | 61° | 89km/h | 8050m | -10.8m/s | -29.2°C | 9.3% | 370.0hPa | 2.7V | 01:52:00 | 01:41:52 | 00:00:00 | |
| DG1MFX-10 | 2026-08-31 11:13:58 | 48.26736 | 12.38275 | 62° | 88km/h | 8050m | -10.8m/s | -29.2°C | 8.0% | 370.0hPa | 2.7V | 00:00:00 | 00:00:00 | 00:00:00 | |
| OE5MMP-10 | 2026-08-31 11:13:57 | 48.26714 | 12.38217 | 62° | 89km/h | 8072m | -10.7m/s | -29.4°C | 9.4% | 368.8hPa | 2.7V | 00:00:00 | 01:41:50 | 00:00:00 | |
| DO3MHA-12 | 2026-08-31 11:13:55 | 48.26692 | 12.38159 | 61° | 89km/h | 8093m | -11.0m/s | -29.6°C | 9.3% | 367.7hPa | 2.7V | 01:53:00 | 01:41:48 | 00:00:00 | |
| OE5WHR-10 | 2026-08-31 11:13:53 | 48.26669 | 12.38100 | 62° | 89km/h | 8115m | -10.8m/s | -29.8°C | 9.1% | 366.6hPa | 2.7V | 00:00:00 | 00:00:00 | 00:00:00 | |
| DO3MHA-11 | 2026-08-31 11:13:49 | 48.26626 | 12.37982 | 61° | 89km/h | 8158m | -11.7m/s | -30.1°C | 8.6% | 364.2hPa | 2.6V | 00:00:00 | 01:41:42 | 00:00:00 | |
| OE5DRO-10 | 2026-08-31 11:13:48 | 48.26614 | 12.37951 | 61° | 89km/h | 8170m | -11.6m/s | -30.2°C | 8.5% | 363.7hPa | 2.7V | 01:53:00 | 00:00:00 | 00:00:00 | |
| OE5MMP-10 | 2026-08-31 11:13:47 | 48.26603 | 12.37921 | 61° | 89km/h | 8181m | -11.4m/s | -30.3°C | 8.5% | 363.0hPa | 2.7V | 01:53:00 | 01:41:40 | 00:00:00 | |
| DO3MHA-12 | 2026-08-31 11:13:45 | 48.26581 | 12.37863 | 60° | 89km/h | 8202m | -11.5m/s | -30.4°C | 8.3% | 362.0hPa | 2.7V | 00:00:00 | 01:41:38 | 00:00:00 | |
| DB0ND-19 | 2026-08-31 11:13:44 | 48.26570 | 12.37834 | 58° | 88km/h | 8213m | -10.2m/s | 0°C | 0% | -1.0hPa | 2.7V | 00:00:00 | 00:00:00 | 00:00:00 | |
| DO3MHA-11 | 2026-08-31 11:13:39 | 48.26513 | 12.37687 | 59° | 89km/h | 8269m | -12.0m/s | -31.0°C | 7.8% | 358.6hPa | 2.7V | 01:53:00 | 01:41:32 | 00:00:00 | |
| DG1MFX-10 | 2026-08-31 11:13:38 | 48.26513 | 12.37687 | 60° | 88km/h | 8269m | -12.0m/s | -31.0°C | 6.6% | 358.7hPa | 2.7V | 00:00:00 | 00:00:00 | 00:00:00 | |
| OE5MMP-10 | 2026-08-31 11:13:37 | 48.26491 | 12.37629 | 62° | 89km/h | 8292m | -11.4m/s | -31.1°C | 7.6% | 357.4hPa | 2.7V | 00:00:00 | 01:41:30 | 00:00:00 | |
| DO3MHA-12 | 2026-08-31 11:13:35 | 48.26469 | 12.37569 | 61° | 89km/h | 8314m | -12.0m/s | -31.3°C | 7.5% | 356.3hPa | 2.7V | 01:53:00 | 01:41:28 | 00:00:00 | |
| OE5DXL-15 | 2026-08-31 11:13:33 | 48.26445 | 12.37509 | 59° | 93km/h | 8338m | -12.2m/s | -31.5°C | 7.5% | 355.2hPa | 2.7V | 00:00:00 | 00:00:00 | 00:00:00 | |
| DB0NH | 2026-08-31 11:13:32 | 48.26434 | 12.37481 | 60° | 95km/h | 8349m | -11.8m/s | -31.6°C | 7.6% | 354.5hPa | 2.7V | 01:53:00 | 01:41:25 | 00:00:00 | |
| DO3MHA-11 | 2026-08-31 11:13:29 | 48.26401 | 12.37391 | 61° | 89km/h | 8382m | -11.7m/s | -31.9°C | 7.5% | 352.9hPa | 2.7V | 00:00:00 | 01:41:22 | 00:00:00 | |
| OE3JTB-15 | 2026-08-31 11:13:28 | 48.26389 | 12.37361 | 61° | 97km/h | 8394m | -12.0m/s | -31.9°C | 7.5% | 352.3hPa | 2.7V | 01:53:00 | 00:00:00 | 00:00:00 | |
| OE5MMP-10 | 2026-08-31 11:13:27 | 48.26378 | 12.37331 | 60° | 89km/h | 8405m | -12.0m/s | -32.0°C | 7.5% | 351.7hPa | 2.7V | 01:53:00 | 01:41:20 | 00:00:00 | |
| DO3MHA-12 | 2026-08-31 11:13:25 | 48.26355 | 12.37273 | 60° | 89km/h | 8429m | -12.4m/s | -32.2°C | 7.5% | 350.6hPa | 2.7V | 00:00:00 | 01:41:18 | 00:00:00 | |
| DB0UT-7 | 2026-08-31 11:13:20 | 48.26299 | 12.37126 | 62° | 102km/h | 8487m | -12.0m/s | -32.6°C | 7.4% | 347.8hPa | 2.7V | 01:53:00 | 01:41:13 | 00:00:00 | |
| DO3MHA-11 | 2026-08-31 11:13:19 | 48.26288 | 12.37096 | 61° | 95km/h | 8498m | -11.5m/s | -32.7°C | 7.4% | 347.3hPa | 2.7V | 01:53:00 | 01:41:12 | 00:00:00 | |
| OE5MMP-10 | 2026-08-31 11:13:17 | 48.26266 | 12.37034 | 63° | 97km/h | 8521m | -11.1m/s | -32.9°C | 7.4% | 346.1hPa | 2.6V | 00:00:00 | 01:41:10 | 00:00:00 | |
| DO3MHA-12 | 2026-08-31 11:13:15 | 48.26244 | 12.36971 | 63° | 99km/h | 8544m | -11.9m/s | -33.1°C | 7.2% | 345.0hPa | 2.7V | 01:53:00 | 01:41:08 | 00:00:00 | |
| NBG1-10 | 2026-08-31 11:13:14 | 48.26234 | 12.36940 | 65° | 106km/h | 8555m | -10.9m/s | -33.2°C | 7.2% | 344.4hPa | 2.6V | 00:00:00 | 01:41:07 | 00:00:00 | |
| OE5WHR-10 | 2026-08-31 11:13:11 | 48.26201 | 12.36841 | 66° | 104km/h | 8589m | -11.2m/s | -33.2°C | 7.0% | 342.8hPa | 2.6V | 00:00:00 | 01:41:04 | 00:00:00 | |
| OE5DRO-10 | 2026-08-31 11:13:10 | 48.26190 | 12.36807 | 65° | 104km/h | 8600m | -12.2m/s | -33.3°C | 7.1% | 342.3hPa | 2.6V | 01:53:00 | 00:00:00 | 00:00:00 | |
| DO3MHA-11 | 2026-08-31 11:13:09 | 48.26180 | 12.36773 | 64° | 104km/h | 8612m | -11.8m/s | -33.4°C | 7.2% | 341.7hPa | 2.6V | 00:00:00 | 01:41:02 | 00:00:00 | |
| OE5MMP-10 | 2026-08-31 11:13:07 | 48.26158 | 12.36703 | 67° | 106km/h | 8635m | -11.0m/s | -33.5°C | 7.5% | 340.6hPa | 2.6V | 01:53:00 | 01:41:00 | 00:00:00 | |
| DO3MHA-12 | 2026-08-31 11:13:05 | 48.26137 | 12.36632 | 68° | 106km/h | 8656m | -11.1m/s | -33.6°C | 7.7% | 339.5hPa | 2.6V | 00:00:00 | 01:40:58 | 00:00:00 | |
| OE5DXL-15 | 2026-08-31 11:13:03 | 48.26117 | 12.36560 | 68° | 108km/h | 8678m | -11.4m/s | -33.8°C | 8.0% | 338.5hPa | 2.6V | 01:53:00 | 00:00:00 | 00:00:00 | |
| DL6DJ-15 | 2026-08-31 11:12:54 | 48.26025 | 12.36223 | 67° | 106km/h | 8780m | -11.7m/s | -34.4°C | 10.0% | 333.6hPa | 2.6V | 00:00:00 | 00:00:00 | 00:00:00 | |
| DO7DH-14 | 2026-08-31 11:12:52 | 48.26005 | 12.36149 | 70° | 110km/h | 8802m | -11.1m/s | 0°C | 0% | 0hPa | 2.6V | 00:00:00 | 01:40:45 | 00:00:00 | |
| OE5DRO-10 | 2026-08-31 11:12:51 | 48.25995 | 12.36110 | 69° | 110km/h | 8812m | -10.9m/s | -34.6°C | 13.2% | 331.8hPa | 2.6V | 00:00:00 | 00:00:00 | 00:00:00 | |
| DB0UT-7 | 2026-08-31 11:12:50 | 48.25985 | 12.36072 | 68° | 113km/h | 8823m | -11.7m/s | -34.7°C | 14.0% | 331.3hPa | 2.6V | 00:00:00 | 00:00:00 | 00:00:00 | |
| DO3MHA-11 | 2026-08-31 11:12:49 | 48.25975 | 12.36034 | 68° | 110km/h | 8835m | -12.0m/s | -34.7°C | 14.8% | 330.8hPa | 2.6V | 00:00:00 | 01:40:42 | 00:00:00 | |
| OE5MMP-10 | 2026-08-31 11:12:47 | 48.25953 | 12.35957 | 67° | 110km/h | 8858m | -12.5m/s | -34.9°C | 15.5% | 329.6hPa | 2.7V | 01:54:00 | 01:40:40 | 00:00:00 | |
| DO3MHA-12 | 2026-08-31 11:12:45 | 48.25931 | 12.35882 | 67° | 110km/h | 8883m | -12.3m/s | -35.1°C | 15.7% | 328.6hPa | 2.6V | 00:00:00 | 01:40:38 | 00:00:00 | |
| NBG1-10 | 2026-08-31 11:12:41 | 48.25889 | 12.35731 | 68° | 119km/h | 8929m | -11.0m/s | -35.4°C | 15.7% | 326.4hPa | 2.7V | 01:54:00 | 01:40:34 | 00:00:00 | |
| DO3MHA-11 | 2026-08-31 11:12:39 | 48.25868 | 12.35655 | 68° | 113km/h | 8950m | -11.2m/s | -35.5°C | 15.9% | 325.3hPa | 2.7V | 01:54:00 | 01:40:32 | 00:00:00 | |
| OE5MMP-10 | 2026-08-31 11:12:37 | 48.25846 | 12.35578 | 67° | 113km/h | 8971m | -11.6m/s | -35.7°C | 16.0% | 324.3hPa | 2.7V | 00:00:00 | 01:40:30 | 00:00:00 | |
| DO3MHA-12 | 2026-08-31 11:12:35 | 48.25823 | 12.35501 | 67° | 115km/h | 8994m | -11.5m/s | -35.9°C | 15.9% | 323.2hPa | 2.7V | 01:54:00 | 01:40:28 | 00:00:00 | |
| DG1MFX-10 | 2026-08-31 11:12:34 | 48.25823 | 12.35501 | 67° | 113km/h | 8994m | -11.5m/s | -35.9°C | 13.6% | 323.2hPa | 2.7V | 01:54:00 | 00:00:00 | 00:00:00 | |
| OE5DXL-15 | 2026-08-31 11:12:33 | 48.25800 | 12.35422 | 66° | 122km/h | 9016m | -12.3m/s | -36.0°C | 15.6% | 322.1hPa | 2.7V | 00:00:00 | 00:00:00 | 00:00:00 | |
| OE5DRO-10 | 2026-08-31 11:12:32 | 48.25788 | 12.35383 | 66° | 119km/h | 9028m | -12.5m/s | -36.1°C | 15.4% | 321.5hPa | 2.7V | 01:54:00 | 00:00:00 | 00:00:00 | |
| DO3MHA-11 | 2026-08-31 11:12:29 | 48.25752 | 12.35265 | 66° | 119km/h | 9064m | -12.4m/s | -36.3°C | 14.5% | 319.9hPa | 2.6V | 00:00:00 | 01:40:22 | 00:00:00 | |
| OE5MMP-10 | 2026-08-31 11:12:27 | 48.25728 | 12.35184 | 67° | 120km/h | 9088m | -12.3m/s | -36.4°C | 14.4% | 318.9hPa | 2.6V | 01:54:00 | 01:40:20 | 00:00:00 | |
| DO3MHA-12 | 2026-08-31 11:12:25 | 48.25704 | 12.35103 | 67° | 120km/h | 9112m | -12.6m/s | -36.5°C | 14.3% | 317.8hPa | 2.6V | 00:00:00 | 01:40:18 | 00:00:00 | |
| DL6DJ-15 | 2026-08-31 11:12:23 | 48.25681 | 12.35020 | 68° | 119km/h | 9137m | -11.8m/s | -36.7°C | 12.0% | 316.7hPa | 2.6V | 00:00:00 | 00:00:00 | 00:00:00 | |
| DB0UT-7 | 2026-08-31 11:12:20 | 48.25647 | 12.34892 | 69° | 128km/h | 9171m | -11.5m/s | -36.7°C | 13.8% | 315.0hPa | 2.6V | 01:54:00 | 01:40:13 | 00:00:00 | |
| DO3MHA-11 | 2026-08-31 11:12:19 | 48.25635 | 12.34849 | 69° | 124km/h | 9183m | -11.7m/s | -36.8°C | 13.7% | 314.5hPa | 2.6V | 01:54:00 | 01:40:12 | 00:00:00 | |
| OE5MMP-10 | 2026-08-31 11:12:17 | 48.25612 | 12.34764 | 68° | 126km/h | 9206m | -12.4m/s | -36.9°C | 14.7% | 313.4hPa | 2.7V | 00:00:00 | 01:40:10 | 00:00:00 | |
| DO3MHA-12 | 2026-08-31 11:12:15 | 48.25589 | 12.34677 | 70° | 126km/h | 9230m | -11.8m/s | -37.0°C | 16.5% | 312.3hPa | 2.6V | 01:54:00 | 01:40:08 | 00:00:00 | |
| DG1MFX-10 | 2026-08-31 11:12:14 | 48.25578 | 12.34633 | 69° | 126km/h | 9242m | -12.8m/s | -37.1°C | 14.6% | 311.8hPa | 2.7V | 01:55:00 | 00:00:00 | 00:00:00 | |
| OE5DRO-10 | 2026-08-31 11:12:13 | 48.25566 | 12.34589 | 68° | 130km/h | 9254m | -12.6m/s | -37.2°C | 17.8% | 311.2hPa | 2.7V | 00:00:00 | 00:00:00 | 00:00:00 | |
| DO3MHA-11 | 2026-08-31 11:12:09 | 48.25519 | 12.34411 | 70° | 130km/h | 9302m | -12.1m/s | -37.6°C | 20.8% | 309.1hPa | 2.7V | 00:00:00 | 01:40:02 | 00:00:00 | |
| NBG1-10 | 2026-08-31 11:12:08 | 48.25508 | 12.34366 | 69° | 133km/h | 9315m | -13.5m/s | -37.7°C | 21.6% | 308.5hPa | 2.7V | 00:00:00 | 01:40:01 | 00:00:00 | |
| OE5MMP-10 | 2026-08-31 11:12:07 | 48.25496 | 12.34320 | 69° | 131km/h | 9328m | -12.8m/s | -37.7°C | 22.3% | 307.9hPa | 2.6V | 01:54:00 | 01:40:00 | 00:00:00 | |
| DO3MHA-12 | 2026-08-31 11:12:05 | 48.25472 | 12.34229 | 69° | 133km/h | 9351m | -11.8m/s | -37.9°C | 24.1% | 306.8hPa | 2.6V | 00:00:00 | 01:39:58 | 00:00:00 | |
| OE5DXL-15 | 2026-08-31 11:12:03 | 48.25448 | 12.34137 | 69° | 133km/h | 9374m | -10.8m/s | -38.0°C | 26.7% | 305.9hPa | 2.6V | 01:54:00 | 00:00:00 | 00:00:00 | |
| DL6DJ-15 | 2026-08-31 11:11:52 | 48.25307 | 12.33624 | 67° | 135km/h | 9496m | -11.2m/s | -38.8°C | 33.5% | 300.5hPa | 2.6V | 00:00:00 | 00:00:00 | 00:00:00 | |
| DF3TZ-5 | 2026-08-31 11:11:50 | 48.25253 | 12.33437 | 66° | 135km/h | 9539m | -10.9m/s | -39.2°C | 35.7% | 298.6hPa | 2.6V | 00:00:00 | 00:00:00 | 00:00:00 | |
| DO3MHA-11 | 2026-08-31 11:11:49 | 48.25267 | 12.33484 | 67° | 135km/h | 9529m | -10.6m/s | -39.0°C | 39.6% | 299.0hPa | 2.6V | 00:00:00 | 01:39:42 | 00:00:00 | |
| OE5WHR-10 | 2026-08-31 11:11:47 | 48.25239 | 12.33390 | 66° | 135km/h | 9550m | -11.8m/s | -39.2°C | 40.7% | 298.1hPa | 2.7V | 00:00:00 | 00:00:00 | 00:00:00 | |
| DO3MHA-12 | 2026-08-31 11:11:45 | 48.25211 | 12.33298 | 66° | 133km/h | 9573m | -11.4m/s | -39.5°C | 41.9% | 297.1hPa | 2.6V | 00:00:00 | 01:39:38 | 00:00:00 | |
| DB0UT-7 | 2026-08-31 11:11:44 | 48.25197 | 12.33252 | 66° | 137km/h | 9584m | -11.8m/s | -39.6°C | 42.4% | 296.6hPa | 2.6V | 00:00:00 | 00:00:00 | 00:00:00 | |
| DO3MHA-11 | 2026-08-31 11:11:39 | 48.25127 | 12.33021 | 66° | 135km/h | 9642m | -11.4m/s | -40.1°C | 43.9% | 294.2hPa | 2.7V | 01:55:00 | 01:39:32 | 00:00:00 | |
| OE5MMP-10 | 2026-08-31 11:11:37 | 48.25099 | 12.32929 | 66° | 135km/h | 9664m | -10.4m/s | -40.3°C | 44.9% | 293.3hPa | 2.7V | 00:00:00 | 01:39:30 | 00:00:00 | |
| DO3MHA-12 | 2026-08-31 11:11:35 | 48.25071 | 12.32837 | 66° | 135km/h | 9686m | -11.1m/s | -40.4°C | 46.5% | 292.3hPa | 2.7V | 01:55:00 | 01:39:28 | 00:00:00 | |
| OE5DXL-15 | 2026-08-31 11:11:33 | 48.25042 | 12.32743 | 67° | 137km/h | 9708m | -10.7m/s | -40.7°C | 48.2% | 291.3hPa | 2.7V | 00:00:00 | 00:00:00 | 00:00:00 | |
| DG1MFX-10 | 2026-08-31 11:11:31 | 48.25029 | 12.32697 | 67° | 135km/h | 9718m | -10.7m/s | -40.8°C | 43.4% | 290.9hPa | 2.6V | 01:56:00 | 00:00:00 | 00:00:00 | |
| DO3MHA-11 | 2026-08-31 11:11:29 | 48.24987 | 12.32555 | 67° | 137km/h | 9751m | -11.4m/s | -41.1°C | 50.1% | 289.5hPa | 2.6V | 00:00:00 | 01:39:22 | 00:00:00 | |
| OE5MMP-10 | 2026-08-31 11:11:27 | 48.24960 | 12.32461 | 67° | 137km/h | 9774m | -11.5m/s | -41.3°C | 49.7% | 288.5hPa | 2.6V | 01:55:00 | 01:39:20 | 00:00:00 | |
| OE5WHR-10 | 2026-08-31 11:11:26 | 48.24947 | 12.32414 | 67° | 139km/h | 9785m | -11.8m/s | -41.4°C | 49.0% | 288.1hPa | 2.6V | 01:55:00 | 00:00:00 | 00:00:00 | |
| DO3MHA-12 | 2026-08-31 11:11:25 | 48.24933 | 12.32366 | 68° | 137km/h | 9797m | -11.8m/s | -41.4°C | 48.8% | 287.6hPa | 2.6V | 00:00:00 | 01:39:18 | 00:00:00 | |
| DB0NH | 2026-08-31 11:11:22 | 48.24893 | 12.32222 | 68° | 141km/h | 9832m | -11.8m/s | -41.6°C | 49.1% | 286.1hPa | 2.6V | 01:55:00 | 01:39:15 | 00:00:00 | |
| DL6DJ-15 | 2026-08-31 11:11:21 | 48.24868 | 12.32125 | 68° | 137km/h | 9856m | -11.9m/s | -41.8°C | 43.8% | 285.2hPa | 2.6V | 00:00:00 | 00:00:00 | 00:00:00 | |
| DO3MHA-11 | 2026-08-31 11:11:19 | 48.24855 | 12.32077 | 69° | 139km/h | 9867m | -11.2m/s | -41.8°C | 49.3% | 284.7hPa | 2.6V | 01:55:00 | 01:39:12 | 00:00:00 | |
| OE5MMP-10 | 2026-08-31 11:11:17 | 48.24829 | 12.31979 | 69° | 139km/h | 9890m | -11.4m/s | -42.0°C | 48.1% | 283.7hPa | 2.7V | 00:00:00 | 01:39:10 | 00:00:00 | |
| OE5DRO-10 | 2026-08-31 11:11:16 | 48.24817 | 12.31930 | 70° | 141km/h | 9901m | -11.5m/s | -42.0°C | 47.8% | 283.2hPa | 2.6V | 01:55:00 | 00:00:00 | 00:00:00 | |
| DO3MHA-12 | 2026-08-31 11:11:15 | 48.24805 | 12.31882 | 70° | 139km/h | 9913m | -11.9m/s | -42.1°C | 47.7% | 282.7hPa | 2.6V | 01:55:00 | 01:39:08 | 00:00:00 | |
| DB0UT-7 | 2026-08-31 11:11:14 | 48.24792 | 12.31833 | 69° | 141km/h | 9925m | -12.0m/s | -42.2°C | 47.8% | 282.3hPa | 2.7V | 01:55:00 | 01:39:07 | 00:00:00 | |
| DG1MFX-10 | 2026-08-31 11:11:11 | 48.24767 | 12.31735 | 70° | 139km/h | 9948m | -11.6m/s | -42.4°C | 42.8% | 281.4hPa | 2.7V | 01:56:00 | 00:00:00 | 00:00:00 | |
| DO3MHA-11 | 2026-08-31 11:11:09 | 48.24729 | 12.31588 | 70° | 141km/h | 9983m | -11.2m/s | -42.7°C | 50.3% | 279.8hPa | 2.7V | 00:00:00 | 01:39:02 | 00:00:00 | |
| OE5MMP-10 | 2026-08-31 11:11:07 | 48.24703 | 12.31490 | 69° | 141km/h | 10006m | -11.7m/s | -42.9°C | 51.5% | 278.9hPa | 2.7V | 01:55:00 | 01:39:00 | 00:00:00 | |
| DL9SK-14 | 2026-08-31 11:11:06 | 48.24678 | 12.31391 | 68° | 141km/h | 10028m | -11.2m/s | -43.1°C | 46.2% | 278.0hPa | 2.7V | 00:00:00 | 00:00:00 | 00:00:00 | |
| DO3MHA-12 | 2026-08-31 11:11:05 | 48.24677 | 12.31391 | 69° | 142km/h | 10028m | -11.2m/s | -43.1°C | 52.2% | 277.9hPa | 2.7V | 00:00:00 | 01:38:58 | 00:00:00 | |
| OE5DXL-15 | 2026-08-31 11:11:03 | 48.24652 | 12.31292 | 70° | 142km/h | 10051m | -10.9m/s | -43.3°C | 52.8% | 277.0hPa | 2.7V | 01:55:00 | 00:00:00 | 00:00:00 | |
| DL6DJ-15 | 2026-08-31 11:10:50 | 48.24473 | 12.30590 | 68° | 141km/h | 10211m | -12.1m/s | -44.5°C | 39.6% | 270.6hPa | 2.7V | 00:00:00 | 00:00:00 | 00:00:00 | |
| DF3TZ-5 | 2026-08-31 11:10:48 | 48.24460 | 12.30540 | 67° | 141km/h | 10223m | -12.1m/s | -44.6°C | 39.0% | 270.2hPa | 2.7V | 00:00:00 | 00:00:00 | 00:00:00 | |
| OE5MMP-10 | 2026-08-31 11:10:47 | 48.24446 | 12.30490 | 69° | 144km/h | 10235m | -11.6m/s | -44.6°C | 44.2% | 269.6hPa | 2.7V | 01:56:00 | 01:38:40 | 00:00:00 | |
| DO3MHA-12 | 2026-08-31 11:10:45 | 48.24419 | 12.30390 | 68° | 144km/h | 10257m | -11.5m/s | -44.7°C | 42.9% | 268.7hPa | 2.6V | 00:00:00 | 01:38:38 | 00:00:00 | |
| DB0UT-7 | 2026-08-31 11:10:44 | 48.24406 | 12.30340 | 68° | 150km/h | 10269m | -11.5m/s | -44.7°C | 42.2% | 268.2hPa | 2.7V | 00:00:00 | 00:00:00 | 00:00:00 | |
| DO3MHA-11 | 2026-08-31 11:10:39 | 48.24336 | 12.30086 | 68° | 148km/h | 10331m | -12.8m/s | -45.1°C | 43.2% | 265.8hPa | 2.7V | 01:56:00 | 01:38:32 | 00:00:00 | |
| OE5DRO-10 | 2026-08-31 11:10:38 | 48.24321 | 12.30035 | 68° | 148km/h | 10343m | -12.9m/s | -45.1°C | 42.8% | 265.3hPa | 2.7V | 01:56:00 | 00:00:00 | 00:00:00 | |
| OE5MMP-10 | 2026-08-31 11:10:37 | 48.24307 | 12.29984 | 67° | 150km/h | 10356m | -13.1m/s | -45.2°C | 43.1% | 264.8hPa | 2.7V | 00:00:00 | 01:38:30 | 00:00:00 | |
| DO3MHA-12 | 2026-08-31 11:10:35 | 48.24277 | 12.29882 | 67° | 150km/h | 10382m | -13.1m/s | -45.3°C | 43.7% | 263.9hPa | 2.7V | 01:56:00 | 01:38:28 | 00:00:00 | |
| OE5DXL-15 | 2026-08-31 11:10:33 | 48.24247 | 12.29778 | 67° | 153km/h | 10408m | -13.1m/s | -45.5°C | 44.6% | 262.8hPa | 2.7V | 00:00:00 | 00:00:00 | 00:00:00 | |
| OE3JTB-15 | 2026-08-31 11:10:31 | 48.24218 | 12.29674 | 68° | 153km/h | 10434m | -12.3m/s | -45.6°C | 45.6% | 261.8hPa | 2.7V | 01:56:00 | 00:00:00 | 00:00:00 | |
| DG1MFX-10 | 2026-08-31 11:10:30 | 48.24218 | 12.29674 | 69° | 150km/h | 10434m | -12.4m/s | -45.7°C | 39.6% | 261.9hPa | 2.7V | 01:57:00 | 00:00:00 | 00:00:00 | |
| DO3MHA-11 | 2026-08-31 11:10:29 | 48.24188 | 12.29568 | 67° | 151km/h | 10459m | -13.0m/s | -45.8°C | 47.1% | 260.8hPa | 2.7V | 00:00:00 | 01:38:22 | 00:00:00 | |
| OE5MMP-10 | 2026-08-31 11:10:27 | 48.24158 | 12.29464 | 68° | 151km/h | 10485m | -12.9m/s | -45.9°C | 47.2% | 259.8hPa | 2.7V | 01:56:00 | 01:38:20 | 00:00:00 | |
| DO3MHA-12 | 2026-08-31 11:10:25 | 48.24128 | 12.29358 | 67° | 151km/h | 10512m | -12.9m/s | -46.0°C | 47.2% | 258.8hPa | 2.7V | 00:00:00 | 01:38:18 | 00:00:00 | |
| OE5WHR-10 | 2026-08-31 11:10:23 | 48.24098 | 12.29253 | 67° | 153km/h | 10538m | -13.1m/s | -46.3°C | 46.9% | 257.7hPa | 2.7V | 00:00:00 | 00:00:00 | 00:00:00 | |
| DB0NH | 2026-08-31 11:10:22 | 48.24083 | 12.29200 | 67° | 155km/h | 10552m | -12.9m/s | -46.4°C | 46.7% | 257.3hPa | 2.7V | 01:56:00 | 01:38:15 | 00:00:00 | |
| DO3MHA-11 | 2026-08-31 11:10:19 | 48.24037 | 12.29042 | 67° | 153km/h | 10591m | -13.3m/s | -46.7°C | 45.1% | 255.7hPa | 2.6V | 01:56:00 | 01:38:12 | 00:00:00 | |
| OE5MMP-10 | 2026-08-31 11:10:17 | 48.24007 | 12.28936 | 66° | 153km/h | 10616m | -13.2m/s | -46.9°C | 43.7% | 254.7hPa | 2.7V | 00:00:00 | 01:38:10 | 00:00:00 | |
| DO3MHA-12 | 2026-08-31 11:10:15 | 48.23976 | 12.28829 | 68° | 153km/h | 10642m | -12.5m/s | -47.0°C | 42.0% | 253.7hPa | 2.6V | 01:56:00 | 01:38:08 | 00:00:00 | |
| DB0UT-7 | 2026-08-31 11:10:12 | 48.23932 | 12.28668 | 68° | 159km/h | 10680m | -14.0m/s | -47.3°C | 40.5% | 252.2hPa | 2.7V | 01:56:00 | 01:38:05 | 00:00:00 | |
| DG1MFX-10 | 2026-08-31 11:10:10 | 48.23903 | 12.28560 | 68° | 153km/h | 10706m | -13.8m/s | -47.5°C | 34.0% | 251.2hPa | 2.7V | 01:57:00 | 00:00:00 | 00:00:00 | |
| DO3MHA-11 | 2026-08-31 11:10:09 | 48.23888 | 12.28506 | 68° | 155km/h | 10720m | -14.2m/s | -47.6°C | 39.5% | 250.6hPa | 2.7V | 00:00:00 | 01:38:02 | 00:00:00 | |
| OE5MMP-10 | 2026-08-31 11:10:07 | 48.23857 | 12.28398 | 66° | 157km/h | 10747m | -14.2m/s | -47.7°C | 39.3% | 249.6hPa | 2.7V | 01:56:00 | 01:38:00 | 00:00:00 | |
| DO3MHA-12 | 2026-08-31 11:10:05 | 48.23824 | 12.28291 | 66° | 157km/h | 10776m | -14.8m/s | -47.8°C | 39.1% | 248.6hPa | 2.7V | 00:00:00 | 01:37:58 | 00:00:00 | |
| DL9SK-14 | 2026-08-31 11:10:04 | 48.23808 | 12.28237 | 65° | 155km/h | 10790m | -14.7m/s | -48.0°C | 33.2% | 248.0hPa | 2.7V | 00:00:00 | 00:00:00 | 00:00:00 | |
| OE5DXL-15 | 2026-08-31 11:10:03 | 48.23791 | 12.28183 | 65° | 159km/h | 10805m | -14.6m/s | -48.0°C | 39.1% | 247.5hPa | 2.7V | 01:56:00 | 00:00:00 | 00:00:00 | |
| DL6DJ-15 | 2026-08-31 11:09:47 | 48.23525 | 12.27317 | 64° | 157km/h | 11027m | -14.3m/s | -49.7°C | 36.4% | 239.3hPa | 2.6V | 00:00:00 | 00:00:00 | 00:00:00 | |
| DF7PN | 2026-08-31 11:09:46 | 48.23509 | 12.27263 | 65° | 157km/h | 11041m | -14.4m/s | -49.7°C | 36.5% | 238.8hPa | 2.6V | 00:00:00 | 00:00:00 | 00:00:00 | |
| DO3MHA-12 | 2026-08-31 11:09:45 | 48.23492 | 12.27208 | 66° | 161km/h | 11056m | -14.5m/s | -49.8°C | 43.6% | 238.2hPa | 2.6V | 00:00:00 | 01:37:38 | 00:00:00 | |
| DK5PH-5 | 2026-08-31 11:09:39 | 48.23390 | 12.26877 | 66° | 164km/h | 11143m | -14.7m/s | -50.4°C | 45.8% | 235.1hPa | 2.6V | 01:57:00 | 01:37:32 | 00:00:00 | |
| DB0UT-7 | 2026-08-31 11:09:37 | 48.23356 | 12.26766 | 65° | 164km/h | 11172m | -14.4m/s | -50.4°C | 44.5% | 234.0hPa | 2.6V | 00:00:00 | 00:00:00 | 00:00:00 | |
| DO3MHA-12 | 2026-08-31 11:09:35 | 48.23321 | 12.26655 | 66° | 164km/h | 11201m | -14.8m/s | -50.5°C | 43.4% | 233.1hPa | 2.6V | 01:57:00 | 01:37:28 | 00:00:00 | |
| OE5DXL-15 | 2026-08-31 11:09:33 | 48.23286 | 12.26542 | 67° | 164km/h | 11230m | -14.1m/s | -50.7°C | 43.2% | 232.0hPa | 2.6V | 00:00:00 | 00:00:00 | 00:00:00 | |
| DO3MHA-11 | 2026-08-31 11:09:29 | 48.23220 | 12.26314 | 68° | 164km/h | 11287m | -14.0m/s | -51.1°C | 42.0% | 229.9hPa | 2.6V | 00:00:00 | 01:37:22 | 00:00:00 | |
| OE5MMP-10 | 2026-08-31 11:09:27 | 48.23187 | 12.26200 | 67° | 166km/h | 11316m | -14.3m/s | -51.3°C | 41.3% | 228.9hPa | 2.6V | 01:57:00 | 01:37:20 | 00:00:00 | |
| DO3MHA-12 | 2026-08-31 11:09:25 | 48.23154 | 12.26085 | 67° | 166km/h | 11344m | -13.8m/s | -51.6°C | 40.4% | 228.0hPa | 2.6V | 00:00:00 | 01:37:18 | 00:00:00 | |
| NBG1-10 | 2026-08-31 11:09:23 | 48.23121 | 12.25970 | 68° | 164km/h | 11373m | -14.5m/s | -51.7°C | 39.1% | 227.0hPa | 2.6V | 01:57:00 | 01:37:16 | 00:00:00 | |
| OE5DRO-10 | 2026-08-31 11:09:22 | 48.23106 | 12.25912 | 68° | 164km/h | 11387m | -13.7m/s | -51.7°C | 38.3% | 226.5hPa | 2.6V | 01:57:00 | 00:00:00 | 00:00:00 | |
| OE5WHR-10 | 2026-08-31 11:09:20 | 48.23074 | 12.25796 | 68° | 164km/h | 11415m | -13.4m/s | -51.9°C | 36.7% | 225.5hPa | 2.6V | 01:57:00 | 00:00:00 | 00:00:00 | |
| DO3MHA-11 | 2026-08-31 11:09:19 | 48.23058 | 12.25738 | 69° | 164km/h | 11428m | -13.9m/s | -51.8°C | 35.4% | 225.0hPa | 2.6V | 01:57:00 | 01:37:12 | 00:00:00 | |
| OE5MMP-10 | 2026-08-31 11:09:17 | 48.23027 | 12.25621 | 69° | 164km/h | 11456m | -14.4m/s | -51.9°C | 33.7% | 224.0hPa | 2.7V | 00:00:00 | 01:37:10 | 00:00:00 | |
| DL6DJ-15 | 2026-08-31 11:09:16 | 48.23012 | 12.25564 | 67° | 164km/h | 11470m | -13.5m/s | -52.0°C | 27.0% | 223.6hPa | 2.6V | 00:00:00 | 00:00:00 | 00:00:00 | |
| DO3MHA-12 | 2026-08-31 11:09:15 | 48.22996 | 12.25506 | 68° | 164km/h | 11484m | -14.1m/s | -52.0°C | 32.6% | 223.0hPa | 2.6V | 01:57:00 | 01:37:08 | 00:00:00 | |
| DO3MHA-11 | 2026-08-31 11:09:09 | 48.22900 | 12.25160 | 68° | 164km/h | 11569m | -13.6m/s | -52.1°C | 29.3% | 220.2hPa | 2.6V | 00:00:00 | 01:37:02 | 00:00:00 | |
| DG1MFX-10 | 2026-08-31 11:09:08 | 48.22900 | 12.25160 | 68° | 164km/h | 11569m | -13.7m/s | -52.1°C | 23.6% | 220.3hPa | 2.6V | 01:57:00 | 00:00:00 | 00:00:00 | |
| OE5MMP-10 | 2026-08-31 11:09:07 | 48.22868 | 12.25045 | 68° | 164km/h | 11597m | -14.0m/s | -52.0°C | 28.5% | 219.3hPa | 2.6V | 01:57:00 | 01:37:00 | 00:00:00 | |
| DO3MHA-12 | 2026-08-31 11:09:05 | 48.22835 | 12.24930 | 67° | 164km/h | 11624m | -14.2m/s | -52.0°C | 27.8% | 218.3hPa | 2.6V | 00:00:00 | 01:36:58 | 00:00:00 | |
| OE5DXL-15 | 2026-08-31 11:09:03 | 48.22803 | 12.24815 | 68° | 164km/h | 11653m | -14.3m/s | -52.2°C | 27.3% | 217.4hPa | 2.6V | 01:57:00 | 00:00:00 | 00:00:00 | |
| DL9SK-14 | 2026-08-31 11:09:02 | 48.22771 | 12.24700 | 67° | 164km/h | 11681m | -13.7m/s | -52.3°C | 21.5% | 216.5hPa | 2.6V | 00:00:00 | 00:00:00 | 00:00:00 | |
| DO3MHA-11 | 2026-08-31 11:08:59 | 48.22739 | 12.24585 | 68° | 166km/h | 11710m | -13.9m/s | -52.3°C | 26.2% | 215.5hPa | 2.6V | 01:57:00 | 01:36:52 | 00:00:00 | |
| OE5MMP-10 | 2026-08-31 11:08:57 | 48.22707 | 12.24469 | 68° | 164km/h | 11738m | -13.7m/s | -52.5°C | 25.7% | 214.5hPa | 2.6V | 00:00:00 | 01:36:50 | 00:00:00 | |
| DO3MHA-12 | 2026-08-31 11:08:55 | 48.22674 | 12.24353 | 68° | 164km/h | 11766m | -14.6m/s | -52.7°C | 25.3% | 213.6hPa | 2.6V | 01:58:00 | 01:36:48 | 00:00:00 | |
| NBG1-10 | 2026-08-31 11:08:50 | 48.22592 | 12.24065 | 67° | 162km/h | 11840m | -14.8m/s | -53.1°C | 24.5% | 211.3hPa | 2.6V | 00:00:00 | 01:36:43 | 00:00:00 | |
| DO3MHA-11 | 2026-08-31 11:08:49 | 48.22576 | 12.24008 | 67° | 164km/h | 11854m | -14.6m/s | -53.0°C | 24.2% | 210.8hPa | 2.6V | 00:00:00 | 01:36:42 | 00:00:00 | |
| OE5MMP-10 | 2026-08-31 11:08:47 | 48.22543 | 12.23894 | 68° | 164km/h | 11884m | -13.9m/s | -53.2°C | 24.0% | 209.8hPa | 2.7V | 01:58:00 | 01:36:40 | 00:00:00 | |
| DO3MHA-12 | 2026-08-31 11:08:45 | 48.22512 | 12.23779 | 68° | 162km/h | 11912m | -14.2m/s | -53.4°C | 23.9% | 208.9hPa | 2.6V | 00:00:00 | 01:36:38 | 00:00:00 | |
| OE3JTB-15 | 2026-08-31 11:08:44 | 48.22495 | 12.23722 | 68° | 162km/h | 11927m | -14.5m/s | -53.5°C | 23.8% | 208.4hPa | 2.7V | 00:00:00 | 00:00:00 | 00:00:00 | |
| DO3MHA-11 | 2026-08-31 11:08:39 | 48.22417 | 12.23436 | 69° | 162km/h | 12000m | -14.3m/s | -53.7°C | 22.6% | 206.1hPa | 2.7V | 01:58:00 | 01:36:32 | 00:00:00 | |
| OE5WHR-10 | 2026-08-31 11:08:38 | 48.22402 | 12.23378 | 69° | 162km/h | 12014m | -14.3m/s | -53.8°C | 22.5% | 205.6hPa | 2.7V | 01:58:00 | 00:00:00 | 00:00:00 | |
| OE5MMP-10 | 2026-08-31 11:08:37 | 48.22387 | 12.23321 | 69° | 162km/h | 12028m | -13.6m/s | -53.9°C | 22.2% | 205.1hPa | 2.7V | 00:00:00 | 01:36:30 | 00:00:00 | |
| DO3MHA-12 | 2026-08-31 11:08:35 | 48.22356 | 12.23206 | 69° | 162km/h | 12057m | -14.5m/s | -54.0°C | 21.8% | 204.3hPa | 2.7V | 01:58:00 | 01:36:28 | 00:00:00 | |
| DH7VM-15 | 2026-08-31 11:08:34 | 48.22356 | 12.23206 | 69° | 164km/h | 12057m | -14.5m/s | -54.0°C | 16.6% | 204.3hPa | 2.7V | 00:00:00 | 00:00:00 | 00:00:00 | |
| OE5DXL-15 | 2026-08-31 11:08:33 | 48.22325 | 12.23093 | 68° | 164km/h | 12086m | -14.7m/s | -54.1°C | 21.2% | 203.3hPa | 2.7V | 00:00:00 | 00:00:00 | 00:00:00 | |
| DL9SK-14 | 2026-08-31 11:08:31 | 48.22279 | 12.22921 | 68° | 161km/h | 12129m | -14.2m/s | -54.2°C | 15.3% | 202.0hPa | 2.6V | 00:00:00 | 00:00:00 | 00:00:00 | |
| DO3MHA-11 | 2026-08-31 11:08:29 | 48.22264 | 12.22864 | 69° | 162km/h | 12143m | -14.1m/s | -54.2°C | 19.9% | 201.5hPa | 2.6V | 00:00:00 | 01:36:22 | 00:00:00 | |
| OE5MMP-10 | 2026-08-31 11:08:27 | 48.22234 | 12.22750 | 70° | 162km/h | 12171m | -14.2m/s | -54.3°C | 19.7% | 200.6hPa | 2.6V | 01:58:00 | 01:36:20 | 00:00:00 | |
| DB0UT-7 | 2026-08-31 11:08:26 | 48.22220 | 12.22693 | 70° | 164km/h | 12185m | -13.3m/s | -54.3°C | 19.3% | 200.1hPa | 2.6V | 00:00:00 | 00:00:00 | 00:00:00 | |
| DO3MHA-12 | 2026-08-31 11:08:25 | 48.22205 | 12.22636 | 69° | 164km/h | 12199m | -14.5m/s | -54.4°C | 19.2% | 199.7hPa | 2.6V | 00:00:00 | 01:36:18 | 00:00:00 | |
| DO3MHA-11 | 2026-08-31 11:08:19 | 48.22117 | 12.22290 | 70° | 164km/h | 12285m | -14.7m/s | -54.6°C | 17.7% | 197.0hPa | 2.6V | 01:58:00 | 01:36:12 | 00:00:00 | |
| OE5WHR-10 | 2026-08-31 11:08:17 | 48.22088 | 12.22173 | 70° | 164km/h | 12315m | -15.2m/s | -54.7°C | 17.4% | 196.1hPa | 2.6V | 00:00:00 | 00:00:00 | 00:00:00 | |
| DO3MHA-12 | 2026-08-31 11:08:15 | 48.22058 | 12.22057 | 70° | 164km/h | 12346m | -15.3m/s | -54.7°C | 16.8% | 195.2hPa | 2.6V | 01:58:00 | 01:36:08 | 00:00:00 | |
| DL6DJ-15 | 2026-08-31 11:08:14 | 48.22043 | 12.21999 | 68° | 162km/h | 12361m | -15.3m/s | -54.8°C | 12.0% | 194.8hPa | 2.6V | 00:00:00 | 00:00:00 | 00:00:00 | |
| DF7PN | 2026-08-31 11:08:13 | 48.22028 | 12.21941 | 69° | 162km/h | 12377m | -15.2m/s | -54.8°C | 11.8% | 194.3hPa | 2.6V | 00:00:00 | 00:00:00 | 00:00:00 | |
| DO3MHA-11 | 2026-08-31 11:08:09 | 48.21969 | 12.21708 | 70° | 164km/h | 12437m | -14.6m/s | -54.8°C | 15.6% | 192.4hPa | 2.6V | 00:00:00 | 01:36:02 | 00:00:00 | |
| OE5MMP-10 | 2026-08-31 11:08:07 | 48.21940 | 12.21592 | 70° | 164km/h | 12467m | -15.0m/s | -54.9°C | 15.5% | 191.5hPa | 2.6V | 01:58:00 | 01:36:00 | 00:00:00 | |
| OE5DRO-10 | 2026-08-31 11:08:06 | 48.21925 | 12.21533 | 71° | 164km/h | 12482m | -14.8m/s | -55.0°C | 15.4% | 191.1hPa | 2.6V | 01:58:00 | 00:00:00 | 00:00:00 | |
| DO3MHA-12 | 2026-08-31 11:08:05 | 48.21911 | 12.21475 | 70° | 164km/h | 12496m | -14.6m/s | -54.9°C | 15.1% | 190.6hPa | 2.6V | 00:00:00 | 01:35:58 | 00:00:00 | |
| OE5DXL-15 | 2026-08-31 11:08:03 | 48.21883 | 12.21356 | 71° | 162km/h | 12526m | -14.9m/s | -55.1°C | 15.1% | 189.8hPa | 2.6V | 01:58:00 | 00:00:00 | 00:00:00 | |
| DL9SK-14 | 2026-08-31 11:08:00 | 48.21828 | 12.21122 | 70° | 162km/h | 12587m | -15.0m/s | -55.1°C | 10.1% | 188.0hPa | 2.6V | 00:00:00 | 00:00:00 | 00:00:00 | |
| DO3MHA-11 | 2026-08-31 11:07:59 | 48.21828 | 12.21122 | 71° | 162km/h | 12587m | -15.0m/s | -55.1°C | 14.4% | 187.9hPa | 2.6V | 01:58:00 | 01:35:52 | 00:00:00 | |
| DG1MJG | 2026-08-31 11:07:58 | 48.21828 | 12.21122 | 72° | 164km/h | 12587m | -15.0m/s | -55.1°C | 10.1% | 188.0hPa | 2.6V | 01:59:00 | 00:00:00 | 00:00:00 | |
| OE5MMP-10 | 2026-08-31 11:07:57 | 48.21801 | 12.21004 | 72° | 162km/h | 12617m | -15.0m/s | -55.2°C | 14.2% | 187.0hPa | 2.6V | 00:00:00 | 01:35:50 | 00:00:00 | |
| OE5WHR-10 | 2026-08-31 11:07:56 | 48.21788 | 12.20946 | 72° | 162km/h | 12632m | -14.6m/s | -55.3°C | 14.3% | 186.6hPa | 2.6V | 01:59:00 | 01:35:49 | 00:00:00 | |
| DO3MHA-12 | 2026-08-31 11:07:55 | 48.21774 | 12.20887 | 71° | 162km/h | 12647m | -15.2m/s | -55.4°C | 14.3% | 186.2hPa | 2.6V | 01:59:00 | 01:35:48 | 00:00:00 | |
| DO3MHA-11 | 2026-08-31 11:07:49 | 48.21690 | 12.20540 | 70° | 162km/h | 12738m | -15.1m/s | -55.9°C | 14.1% | 183.5hPa | 2.6V | 00:00:00 | 01:35:42 | 00:00:00 | |
| OE5MMP-10 | 2026-08-31 11:07:47 | 48.21661 | 12.20425 | 70° | 161km/h | 12769m | -15.2m/s | -56.1°C | 14.3% | 182.7hPa | 2.7V | 01:59:00 | 01:35:40 | 00:00:00 | |
| OE3JTB-15 | 2026-08-31 11:07:46 | 48.21647 | 12.20368 | 70° | 153km/h | 12784m | -14.6m/s | -56.2°C | 14.4% | 182.2hPa | 2.6V | 00:00:00 | 00:00:00 | 00:00:00 | |
| DO3MHA-12 | 2026-08-31 11:07:45 | 48.21632 | 12.20311 | 70° | 161km/h | 12799m | -15.1m/s | -56.2°C | 14.3% | 181.8hPa | 2.6V | 00:00:00 | 01:35:38 | 00:00:00 | |
| NBG1-10 | 2026-08-31 11:07:44 | 48.21618 | 12.20253 | 70° | 151km/h | 12814m | -15.0m/s | -56.2°C | 14.2% | 181.4hPa | 2.6V | 00:00:00 | 01:35:37 | 00:00:00 | |
| DL6DJ-15 | 2026-08-31 11:07:43 | 48.21604 | 12.20196 | 69° | 161km/h | 12828m | -14.7m/s | -56.3°C | 9.6% | 181.1hPa | 2.6V | 00:00:00 | 00:00:00 | 00:00:00 | |
| DF3TZ-5 | 2026-08-31 11:07:42 | 48.21576 | 12.20080 | 70° | 161km/h | 12859m | -15.0m/s | -56.3°C | 9.3% | 180.2hPa | 2.6V | 00:00:00 | 00:00:00 | 00:00:00 | |
| DO3MHA-11 | 2026-08-31 11:07:39 | 48.21549 | 12.19966 | 71° | 155km/h | 12889m | -14.9m/s | -56.3°C | 13.3% | 179.3hPa | 2.6V | 01:59:00 | 01:35:32 | 00:00:00 | |
| OE5MMP-10 | 2026-08-31 11:07:37 | 48.21521 | 12.19851 | 71° | 153km/h | 12919m | -15.0m/s | -56.5°C | 13.1% | 178.5hPa | 2.6V | 00:00:00 | 01:35:30 | 00:00:00 | |
| DO3MHA-12 | 2026-08-31 11:07:35 | 48.21494 | 12.19739 | 71° | 151km/h | 12949m | -14.8m/s | -56.7°C | 12.7% | 177.6hPa | 2.6V | 01:59:00 | 01:35:28 | 00:00:00 | |
| DB0NH | 2026-08-31 11:07:34 | 48.21481 | 12.19683 | 71° | 148km/h | 12965m | -15.0m/s | -56.7°C | 12.6% | 177.2hPa | 2.6V | 00:00:00 | 01:35:27 | 00:00:00 | |
| OE5DXL-15 | 2026-08-31 11:07:33 | 48.21467 | 12.19628 | 70° | 148km/h | 12980m | -14.5m/s | -56.8°C | 12.5% | 176.7hPa | 2.6V | 00:00:00 | 00:00:00 | 00:00:00 | |
| DK5PH-5 | 2026-08-31 11:07:30 | 48.21427 | 12.19466 | 70° | 148km/h | 13023m | -13.7m/s | -56.7°C | 11.9% | 175.5hPa | 2.6V | 01:59:00 | 01:35:23 | 00:00:00 | |
| DO3MHA-11 | 2026-08-31 11:07:29 | 48.21413 | 12.19413 | 69° | 144km/h | 13036m | -13.6m/s | -56.6°C | 11.7% | 175.1hPa | 2.6V | 00:00:00 | 01:35:22 | 00:00:00 | |
| OE5DRO-10 | 2026-08-31 11:07:28 | 48.21399 | 12.19361 | 69° | 146km/h | 13050m | -12.8m/s | -56.5°C | 11.3% | 174.8hPa | 2.6V | 01:59:00 | 00:00:00 | 00:00:00 | |
| OE5MMP-10 | 2026-08-31 11:07:27 | 48.21386 | 12.19309 | 68° | 144km/h | 13063m | -12.9m/s | -56.4°C | 11.0% | 174.4hPa | 2.6V | 01:59:00 | 01:35:20 | 00:00:00 | |
| DB0UT-7 | 2026-08-31 11:07:26 | 48.21371 | 12.19258 | 68° | 108km/h | 13076m | -12.3m/s | -56.2°C | 10.7% | 174.1hPa | 2.6V | 00:00:00 | 00:00:00 | 00:00:00 | |
| DO3MHA-12 | 2026-08-31 11:07:25 | 48.21357 | 12.19207 | 68° | 144km/h | 13089m | -13.8m/s | -56.1°C | 10.3% | 173.8hPa | 2.6V | 00:00:00 | 01:35:18 | 00:00:00 | |
| DO3MHA-11 | 2026-08-31 11:07:19 | 48.21270 | 12.18911 | 67° | 148km/h | 13188m | -16.7m/s | -55.7°C | 9.5% | 171.2hPa | 2.6V | 01:59:00 | 01:35:12 | 00:00:00 | |
| OE5MMP-10 | 2026-08-31 11:07:17 | 48.21242 | 12.18810 | 69° | 148km/h | 13223m | -18.5m/s | -55.8°C | 9.4% | 170.4hPa | 2.7V | 00:00:00 | 01:35:10 | 00:00:00 | |
| DO8TBO-1 | 2026-08-31 11:07:16 | 48.21228 | 12.18759 | 69° | 142km/h | 13241m | -17.2m/s | -56.0°C | 9.5% | 169.8hPa | 2.6V | 00:00:00 | 01:35:09 | 00:00:00 | |
| DO3MHA-12 | 2026-08-31 11:07:15 | 48.21214 | 12.18708 | 68° | 150km/h | 13257m | -15.8m/s | -56.2°C | 9.5% | 169.3hPa | 2.6V | 01:59:00 | 01:35:08 | 00:00:00 | |
| OE5WHR-10 | 2026-08-31 11:07:14 | 48.21200 | 12.18657 | 68° | 148km/h | 13274m | -17.4m/s | -56.3°C | 9.5% | 168.9hPa | 2.6V | 01:59:00 | 00:00:00 | 00:00:00 | |
| DL6DJ-15 | 2026-08-31 11:07:12 | 48.21172 | 12.18552 | 69° | 150km/h | 13308m | -16.5m/s | -56.6°C | 5.6% | 168.0hPa | 2.6V | 00:00:00 | 00:00:00 | 00:00:00 | |
| NBG1-10 | 2026-08-31 11:07:11 | 48.21159 | 12.18499 | 71° | 135km/h | 13325m | -16.8m/s | -56.6°C | 9.4% | 167.6hPa | 2.6V | 01:59:00 | 01:35:04 | 00:00:00 | |
| DH7VM-15 | 2026-08-31 11:07:10 | 48.21159 | 12.18499 | 71° | 150km/h | 13325m | -16.8m/s | -56.7°C | 5.5% | 167.6hPa | 2.7V | 00:00:00 | 00:00:00 | 00:00:00 | |
| DO3MHA-11 | 2026-08-31 11:07:09 | 48.21134 | 12.18392 | 72° | 150km/h | 13358m | -17.1m/s | -56.5°C | 9.1% | 166.7hPa | 2.7V | 00:00:00 | 01:35:02 | 00:00:00 | |
| OE5MMP-10 | 2026-08-31 11:07:07 | 48.21110 | 12.18283 | 72° | 148km/h | 13393m | -16.7m/s | -56.4°C | 8.7% | 165.8hPa | 2.7V | 01:59:00 | 01:35:00 | 00:00:00 | |
| DG1MFX-10 | 2026-08-31 11:07:06 | 48.21110 | 12.18283 | 73° | 153km/h | 13393m | -16.8m/s | -56.4°C | 5.0% | 165.8hPa | 2.7V | 02:00:00 | 00:00:00 | 00:00:00 | |
| DO3MHA-12 | 2026-08-31 11:07:05 | 48.21086 | 12.18174 | 72° | 146km/h | 13427m | -16.8m/s | -56.4°C | 8.5% | 164.9hPa | 2.7V | 00:00:00 | 01:34:58 | 00:00:00 | |
| DB0NH | 2026-08-31 11:07:04 | 48.21074 | 12.18120 | 74° | 130km/h | 13444m | -16.7m/s | -56.3°C | 8.3% | 164.5hPa | 2.7V | 01:59:00 | 01:34:57 | 00:00:00 | |
| OE5DXL-15 | 2026-08-31 11:07:03 | 48.21063 | 12.18066 | 73° | 128km/h | 13461m | -17.4m/s | -56.1°C | 8.0% | 164.0hPa | 2.7V | 01:59:00 | 00:00:00 | 00:00:00 | |
| DK5PH-5 | 2026-08-31 11:07:00 | 48.21030 | 12.17906 | 75° | 124km/h | 13513m | -17.0m/s | -55.9°C | 7.4% | 162.7hPa | 2.6V | 00:00:00 | 01:34:53 | 00:00:00 | |
| DO3MHA-11 | 2026-08-31 11:06:59 | 48.21020 | 12.17854 | 74° | 135km/h | 13530m | -17.3m/s | -56.0°C | 7.3% | 162.3hPa | 2.6V | 01:59:00 | 01:34:52 | 00:00:00 | |
| BAUMI2-15 | 2026-08-31 11:06:58 | 48.21010 | 12.17801 | 75° | 139km/h | 13547m | -17.1m/s | -56.1°C | 7.3% | 161.8hPa | 2.6V | 00:00:00 | 01:34:51 | 00:00:00 | |
| OE5MMP-10 | 2026-08-31 11:06:57 | 48.21000 | 12.17750 | 75° | 131km/h | 13564m | -16.4m/s | -56.2°C | 7.2% | 161.4hPa | 2.6V | 00:00:00 | 01:34:50 | 00:00:00 | |
| DO3MHA-12 | 2026-08-31 11:06:55 | 48.20982 | 12.17649 | 76° | 128km/h | 13597m | -16.3m/s | -56.2°C | 7.1% | 160.5hPa | 2.6V | 00:00:00 | 01:34:48 | 00:00:00 | |
| OE5WHR-10 | 2026-08-31 11:06:53 | 48.20964 | 12.17550 | 76° | 120km/h | 13631m | -16.2m/s | -56.1°C | 7.0% | 159.7hPa | 2.6V | 00:00:00 | 01:34:46 | 00:00:00 | |
| OE5DRO-10 | 2026-08-31 11:06:50 | 48.20939 | 12.17408 | 76° | 119km/h | 13679m | -15.6m/s | -56.1°C | 6.9% | 158.4hPa | 2.6V | 02:00:00 | 00:00:00 | 00:00:00 | |
| DO3MHA-11 | 2026-08-31 11:06:49 | 48.20931 | 12.17362 | 75° | 120km/h | 13695m | -16.8m/s | -56.1°C | 6.9% | 158.1hPa | 2.6V | 02:00:00 | 01:34:42 | 00:00:00 | |
| OE3JTB-15 | 2026-08-31 11:06:48 | 48.20922 | 12.17318 | 73° | 115km/h | 13713m | -16.4m/s | -56.1°C | 6.8% | 157.6hPa | 2.7V | 00:00:00 | 01:34:41 | 00:00:00 | |
| OE5MMP-10 | 2026-08-31 11:06:47 | 48.20913 | 12.17273 | 73° | 119km/h | 13729m | -15.9m/s | -56.0°C | 6.7% | 157.2hPa | 2.7V | 02:00:00 | 01:34:40 | 00:00:00 | |
| DO8TBO-1 | 2026-08-31 11:06:46 | 48.20904 | 12.17229 | 73° | 108km/h | 13744m | -15.3m/s | -56.1°C | 6.8% | 156.9hPa | 2.7V | 00:00:00 | 01:34:39 | 00:00:00 | |
| DO3MHA-12 | 2026-08-31 11:06:45 | 48.20894 | 12.17185 | 72° | 117km/h | 13760m | -16.3m/s | -56.2°C | 6.8% | 156.5hPa | 2.7V | 02:00:00 | 01:34:38 | 00:00:00 | |
| BAUMI2-15 | 2026-08-31 11:06:42 | 48.20865 | 12.17059 | 72° | 117km/h | 13809m | -16.5m/s | -55.5°C | 6.3% | 155.3hPa | 2.6V | 00:00:00 | 01:34:35 | 00:00:00 | |
| DL6DJ-15 | 2026-08-31 11:06:41 | 48.20856 | 12.17017 | 71° | 117km/h | 13825m | -16.4m/s | -55.2°C | 2.9% | 155.0hPa | 2.6V | 00:00:00 | 00:00:00 | 00:00:00 | |
| DF3TZ-5 | 2026-08-31 11:06:40 | 48.20836 | 12.16934 | 69° | 113km/h | 13857m | -16.6m/s | -54.9°C | 0% | 154.1hPa | 2.6V | 00:00:00 | 00:00:00 | 00:00:00 | |
| DO3MHA-11 | 2026-08-31 11:06:39 | 48.20836 | 12.16934 | 70° | 115km/h | 13857m | -16.5m/s | -54.8°C | 6.0% | 154.1hPa | 2.6V | 00:00:00 | 01:34:32 | 00:00:00 | |
| NBG1-10 | 2026-08-31 11:06:38 | 48.20826 | 12.16893 | 71° | 100km/h | 13873m | -16.5m/s | -54.4°C | 5.8% | 153.7hPa | 2.6V | 00:00:00 | 01:34:31 | 00:00:00 | |
| OE5MMP-10 | 2026-08-31 11:06:37 | 48.20816 | 12.16852 | 70° | 113km/h | 13889m | -17.4m/s | -53.9°C | 5.6% | 153.3hPa | 2.6V | 00:00:00 | 01:34:30 | 00:00:00 | |
| DO3MHA-12 | 2026-08-31 11:06:35 | 48.20796 | 12.16770 | 71° | 111km/h | 13924m | -17.7m/s | -53.6°C | 5.5% | 152.5hPa | 2.6V | 00:00:00 | 01:34:28 | 00:00:00 | |
| DB0NH | 2026-08-31 11:06:34 | 48.20786 | 12.16728 | 71° | 99km/h | 13941m | -16.9m/s | -53.6°C | 5.5% | 152.1hPa | 2.6V | 02:00:00 | 01:34:27 | 00:00:00 | |
| OE5DXL-15 | 2026-08-31 11:06:33 | 48.20777 | 12.16688 | 73° | 95km/h | 13957m | -16.7m/s | -53.6°C | 5.5% | 151.7hPa | 2.6V | 00:00:00 | 00:00:00 | 00:00:00 | |
| OE5WHR-10 | 2026-08-31 11:06:32 | 48.20768 | 12.16647 | 72° | 100km/h | 13974m | -17.6m/s | -53.5°C | 5.5% | 151.3hPa | 2.6V | 02:00:00 | 00:00:00 | 00:00:00 | |
| BAUMI2-15 | 2026-08-31 11:06:31 | 48.20758 | 12.16606 | 71° | 110km/h | 13992m | -17.1m/s | -53.4°C | 5.4% | 151.0hPa | 2.6V | 00:00:00 | 01:34:24 | 00:00:00 | |
| DK5PH-5 | 2026-08-31 11:06:30 | 48.20749 | 12.16566 | 72° | 91km/h | 14009m | -16.9m/s | -53.4°C | 5.4% | 150.5hPa | 2.6V | 00:00:00 | 01:34:23 | 00:00:00 | |
| DO3MHA-11 | 2026-08-31 11:06:29 | 48.20741 | 12.16527 | 73° | 104km/h | 14026m | -17.4m/s | -53.4°C | 5.4% | 150.1hPa | 2.6V | 00:00:00 | 01:34:22 | 00:00:00 | |
| OE5MMP-10 | 2026-08-31 11:06:27 | 48.20723 | 12.16449 | 71° | 102km/h | 14061m | -17.4m/s | -53.4°C | 5.4% | 149.3hPa | 2.6V | 00:00:00 | 01:34:20 | 00:00:00 | |
| BAUMI2-15 | 2026-08-31 11:06:26 | 48.20714 | 12.16411 | 72° | 97km/h | 14078m | -16.9m/s | -53.6°C | 5.4% | 148.9hPa | 2.6V | 00:00:00 | 01:34:19 | 00:00:00 | |
| DO3MHA-12 | 2026-08-31 11:06:25 | 48.20706 | 12.16373 | 72° | 99km/h | 14095m | -17.4m/s | -53.7°C | 5.4% | 148.5hPa | 2.6V | 00:00:00 | 01:34:18 | 00:00:00 | |
| PG1ADW-2 | 2026-08-31 11:06:24 | 48.20697 | 12.16335 | 70° | 91km/h | 14113m | -17.7m/s | -53.7°C | 5.4% | 148.0hPa | 2.6V | 00:00:00 | 00:00:00 | 00:00:00 | |
| DO3MHA-11 | 2026-08-31 11:06:19 | 48.20657 | 12.16155 | 73° | 88km/h | 14200m | -18.0m/s | -53.3°C | 5.3% | 146.0hPa | 2.6V | 02:00:00 | 01:34:12 | 00:00:00 | |
| OE5MMP-10 | 2026-08-31 11:06:17 | 48.20643 | 12.16087 | 74° | 84km/h | 14236m | -18.0m/s | -52.9°C | 5.1% | 145.3hPa | 2.6V | 02:00:00 | 01:34:10 | 00:00:00 | |
| DO8TBO-1 | 2026-08-31 11:06:16 | 48.20636 | 12.16053 | 73° | 88km/h | 14254m | -17.9m/s | -52.8°C | 5.1% | 144.9hPa | 2.7V | 02:00:00 | 01:34:09 | 00:00:00 | |
| DO3MHA-12 | 2026-08-31 11:06:15 | 48.20629 | 12.16020 | 72° | 82km/h | 14272m | -18.2m/s | -52.8°C | 5.1% | 144.4hPa | 2.7V | 02:00:00 | 01:34:08 | 00:00:00 | |
| BAUMI2-15 | 2026-08-31 11:06:13 | 48.20616 | 12.15958 | 73° | 80km/h | 14307m | -17.5m/s | -52.6°C | 5.0% | 143.6hPa | 2.6V | 02:00:00 | 01:34:06 | 00:00:00 | |
| DB0UT-7 | 2026-08-31 11:06:12 | 48.20609 | 12.15929 | 72° | 77km/h | 14323m | -16.5m/s | -52.7°C | 5.0% | 143.2hPa | 2.6V | 02:00:00 | 01:34:05 | 00:00:00 | |
| OE5WHR-10 | 2026-08-31 11:06:11 | 48.20603 | 12.15899 | 71° | 77km/h | 14340m | -16.1m/s | -52.8°C | 5.0% | 142.8hPa | 2.7V | 00:00:00 | 00:00:00 | 00:00:00 | |
| DL6DJ-15 | 2026-08-31 11:06:10 | 48.20596 | 12.15871 | 68° | 78km/h | 14355m | -16.0m/s | -52.9°C | 2.3% | 142.5hPa | 2.7V | 00:00:00 | 00:00:00 | 00:00:00 | |
| DF7PN | 2026-08-31 11:06:09 | 48.20581 | 12.15816 | 69° | 78km/h | 14387m | -16.2m/s | -53.1°C | 2.4% | 141.8hPa | 2.7V | 00:00:00 | 00:00:00 | 00:00:00 | |
| BAUMI2-15 | 2026-08-31 11:06:08 | 48.20581 | 12.15816 | 70° | 78km/h | 14387m | -16.1m/s | -53.0°C | 5.2% | 141.8hPa | 2.7V | 00:00:00 | 01:34:01 | 00:00:00 | |
| DO3MHA-12 | 2026-08-31 11:06:05 | 48.20561 | 12.15733 | 70° | 75km/h | 14436m | -18.1m/s | -53.2°C | 5.2% | 140.7hPa | 2.7V | 00:00:00 | 01:33:58 | 00:00:00 | |
| DB0NH | 2026-08-31 11:06:04 | 48.20554 | 12.15706 | 69° | 73km/h | 14454m | -17.5m/s | -53.3°C | 5.3% | 140.3hPa | 2.7V | 00:00:00 | 01:33:57 | 00:00:00 | |
| BAUMI2-15 | 2026-08-31 11:06:03 | 48.20547 | 12.15680 | 70° | 75km/h | 14472m | -18.6m/s | -53.1°C | 5.2% | 140.0hPa | 2.7V | 00:00:00 | 01:33:56 | 00:00:00 | |
| DK5PH-5 | 2026-08-31 11:06:00 | 48.20528 | 12.15601 | 71° | 73km/h | 14528m | -19.0m/s | -53.2°C | 5.1% | 138.8hPa | 2.7V | 00:00:00 | 01:33:53 | 00:00:00 | |
| OM5KV | 2026-08-31 11:05:59 | 48.20521 | 12.15575 | 72° | 77km/h | 14547m | -18.9m/s | -53.2°C | 2.3% | 138.4hPa | 2.7V | 00:00:00 | 00:00:00 | 00:00:00 | |
| BAUMI2-15 | 2026-08-31 11:05:58 | 48.20515 | 12.15547 | 72° | 77km/h | 14565m | -18.1m/s | -53.2°C | 5.2% | 138.0hPa | 2.7V | 02:01:00 | 01:33:51 | 00:00:00 | |
| OE5MMP-10 | 2026-08-31 11:05:57 | 48.20509 | 12.15520 | 70° | 75km/h | 14584m | -18.0m/s | -53.3°C | 5.2% | 137.5hPa | 2.7V | 00:00:00 | 01:33:50 | 00:00:00 | |
| DO3MHA-12 | 2026-08-31 11:05:55 | 48.20495 | 12.15467 | 70° | 77km/h | 14619m | -18.1m/s | -53.5°C | 5.3% | 136.8hPa | 2.7V | 00:00:00 | 01:33:48 | 00:00:00 | |
| BAUMI2-15 | 2026-08-31 11:05:53 | 48.20481 | 12.15414 | 67° | 75km/h | 14656m | -17.9m/s | -53.5°C | 5.3% | 136.0hPa | 2.7V | 00:00:00 | 01:33:46 | 00:00:00 | |
| OE5WHR-10 | 2026-08-31 11:05:50 | 48.20458 | 12.15335 | 66° | 71km/h | 14710m | -18.0m/s | -53.7°C | 5.2% | 134.9hPa | 2.7V | 00:00:00 | 01:33:43 | 00:00:00 | |
| DO3MHA-11 | 2026-08-31 11:05:49 | 48.20451 | 12.15309 | 68° | 75km/h | 14728m | -17.5m/s | -53.9°C | 5.2% | 134.6hPa | 2.7V | 02:01:00 | 01:33:42 | 00:00:00 | |
| BAUMI2-15 | 2026-08-31 11:05:48 | 48.20443 | 12.15282 | 67° | 75km/h | 14746m | -17.7m/s | -54.0°C | 5.3% | 134.1hPa | 2.6V | 00:00:00 | 01:33:41 | 00:00:00 | |
| OE5MMP-10 | 2026-08-31 11:05:47 | 48.20435 | 12.15256 | 67° | 73km/h | 14764m | -17.9m/s | -54.1°C | 5.3% | 133.8hPa | 2.6V | 02:01:00 | 01:33:40 | 00:00:00 | |
| DO3MHA-12 | 2026-08-31 11:05:45 | 48.20421 | 12.15203 | 69° | 71km/h | 14799m | -17.3m/s | -54.4°C | 5.4% | 133.0hPa | 2.6V | 02:01:00 | 01:33:38 | 00:00:00 | |
| BAUMI2-15 | 2026-08-31 11:05:43 | 48.20406 | 12.15151 | 67° | 73km/h | 14834m | -17.4m/s | -54.3°C | 5.4% | 132.3hPa | 2.7V | 02:01:00 | 01:33:36 | 00:00:00 | |
| DB0UT-7 | 2026-08-31 11:05:42 | 48.20399 | 12.15125 | 71° | 51km/h | 14852m | -17.1m/s | -54.4°C | 5.3% | 132.0hPa | 2.6V | 00:00:00 | 00:00:00 | 00:00:00 | |
| DO3MHA-11 | 2026-08-31 11:05:39 | 48.20380 | 12.15048 | 72° | 69km/h | 14903m | -16.1m/s | -54.6°C | 5.4% | 130.9hPa | 2.6V | 00:00:00 | 01:33:32 | 00:00:00 | |
| DF7PN | 2026-08-31 11:05:38 | 48.20369 | 12.14998 | 73° | 68km/h | 14936m | -16.0m/s | -54.9°C | 2.4% | 130.2hPa | 2.6V | 00:00:00 | 00:00:00 | 00:00:00 | |
| OE5MMP-10 | 2026-08-31 11:05:37 | 48.20369 | 12.14998 | 74° | 68km/h | 14936m | -16.0m/s | -54.8°C | 5.4% | 130.2hPa | 2.6V | 00:00:00 | 01:33:30 | 00:00:00 | |
| DO3MHA-12 | 2026-08-31 11:05:35 | 48.20359 | 12.14947 | 74° | 68km/h | 14971m | -17.4m/s | -55.0°C | 5.5% | 129.5hPa | 2.6V | 00:00:00 | 01:33:28 | 00:00:00 | |
| OE5DRO-10 | 2026-08-31 11:05:34 | 48.20354 | 12.14922 | 75° | 62km/h | 14989m | -17.5m/s | -55.1°C | 5.5% | 129.2hPa | 2.6V | 00:00:00 | 00:00:00 | 00:00:00 | |
| DB0NH | 2026-08-31 11:05:33 | 48.20349 | 12.14897 | 76° | 55km/h | 15006m | -17.1m/s | -55.2°C | 5.4% | 128.8hPa | 2.6V | 00:00:00 | 01:33:26 | 00:00:00 | |
| NBG1-10 | 2026-08-31 11:05:32 | 48.20345 | 12.14871 | 76° | 51km/h | 15023m | -17.1m/s | -55.3°C | 5.5% | 128.4hPa | 2.6V | 02:01:00 | 01:33:25 | 00:00:00 | |
| DK5PH-5 | 2026-08-31 11:05:30 | 48.20337 | 12.14822 | 79° | 49km/h | 15057m | -16.7m/s | -55.4°C | 5.6% | 127.7hPa | 2.7V | 02:01:00 | 01:33:23 | 00:00:00 | |
| OE5WHR-10 | 2026-08-31 11:05:29 | 48.20334 | 12.14797 | 80° | 55km/h | 15074m | -16.1m/s | -55.4°C | 5.6% | 127.4hPa | 2.7V | 02:01:00 | 00:00:00 | 00:00:00 | |
| BAUMI2-15 | 2026-08-31 11:05:28 | 48.20330 | 12.14773 | 80° | 64km/h | 15091m | -15.8m/s | -55.5°C | 5.6% | 127.1hPa | 2.6V | 02:01:00 | 01:33:21 | 00:00:00 | |
| OE5MMP-10 | 2026-08-31 11:05:27 | 48.20327 | 12.14749 | 80° | 60km/h | 15106m | -16.0m/s | -55.6°C | 5.7% | 126.8hPa | 2.7V | 00:00:00 | 01:33:20 | 00:00:00 | |
| DO3MHA-12 | 2026-08-31 11:05:25 | 48.20321 | 12.14701 | 78° | 57km/h | 15139m | -15.8m/s | -55.8°C | 5.7% | 126.2hPa | 2.7V | 00:00:00 | 01:33:18 | 00:00:00 | |
| DL9SK-14 | 2026-08-31 11:05:24 | 48.20317 | 12.14678 | 77° | 60km/h | 15155m | -15.9m/s | -56.0°C | 2.5% | 125.9hPa | 2.7V | 00:00:00 | 00:00:00 | 00:00:00 | |
| BAUMI2-15 | 2026-08-31 11:05:23 | 48.20313 | 12.14656 | 76° | 57km/h | 15171m | -15.9m/s | -56.0°C | 5.8% | 125.5hPa | 2.7V | 00:00:00 | 01:33:16 | 00:00:00 | |
| PG1ADW-2 | 2026-08-31 11:05:22 | 48.20309 | 12.14634 | 74° | 47km/h | 15187m | -15.9m/s | -56.1°C | 5.8% | 125.2hPa | 2.7V | 00:00:00 | 01:33:15 | 00:00:00 | |
| DO3MHA-11 | 2026-08-31 11:05:19 | 48.20295 | 12.14573 | 69° | 49km/h | 15235m | -16.0m/s | -56.1°C | 5.7% | 124.2hPa | 2.7V | 02:01:00 | 01:33:12 | 00:00:00 | |
| BAUMI2-15 | 2026-08-31 11:05:18 | 48.20290 | 12.14554 | 68° | 51km/h | 15251m | -16.1m/s | -56.1°C | 5.7% | 123.8hPa | 2.7V | 00:00:00 | 01:33:11 | 00:00:00 | |
| OE5MMP-10 | 2026-08-31 11:05:17 | 48.20285 | 12.14536 | 69° | 47km/h | 15267m | -15.6m/s | -56.2°C | 5.8% | 123.6hPa | 2.7V | 02:01:00 | 01:33:10 | 00:00:00 | |
| DO3MHA-12 | 2026-08-31 11:05:15 | 48.20276 | 12.14500 | 70° | 44km/h | 15299m | -15.6m/s | -56.3°C | 5.7% | 123.0hPa | 2.6V | 02:01:00 | 01:33:08 | 00:00:00 | |
| BAUMI2-15 | 2026-08-31 11:05:13 | 48.20268 | 12.14465 | 73° | 46km/h | 15331m | -15.6m/s | -56.2°C | 5.8% | 122.3hPa | 2.7V | 02:01:00 | 01:33:06 | 00:00:00 | |
| DO3MHA-11 | 2026-08-31 11:05:09 | 48.20255 | 12.14399 | 78° | 38km/h | 15396m | -15.9m/s | -55.9°C | 5.7% | 121.1hPa | 2.6V | 00:00:00 | 01:33:02 | 00:00:00 | |
| OE5WHR-10 | 2026-08-31 11:05:08 | 48.20253 | 12.14383 | 81° | 40km/h | 15413m | -16.2m/s | -55.7°C | 5.6% | 120.8hPa | 2.6V | 00:00:00 | 00:00:00 | 00:00:00 | |
| OE5MMP-10 | 2026-08-31 11:05:07 | 48.20251 | 12.14368 | 78° | 38km/h | 15429m | -16.4m/s | -55.7°C | 5.6% | 120.5hPa | 2.6V | 00:00:00 | 01:33:00 | 00:00:00 | |
| OM5KV | 2026-08-31 11:05:06 | 48.20251 | 12.14368 | 78° | 38km/h | 15429m | -16.5m/s | -55.7°C | 2.3% | 120.5hPa | 2.6V | 02:02:00 | 00:00:00 | 00:00:00 | |
| DO3MHA-12 | 2026-08-31 11:05:05 | 48.20247 | 12.14340 | 78° | 38km/h | 15463m | -16.3m/s | -55.7°C | 5.6% | 119.8hPa | 2.6V | 00:00:00 | 01:32:58 | 00:00:00 | |
| OE5DXL-15 | 2026-08-31 11:05:03 | 48.20242 | 12.14312 | 78° | 44km/h | 15495m | -16.2m/s | -55.8°C | 5.5% | 119.2hPa | 2.6V | 00:00:00 | 00:00:00 | 00:00:00 | |
| DL9SK-14 | 2026-08-31 11:04:53 | 48.20202 | 12.14174 | 60° | 42km/h | 15664m | -16.4m/s | -55.6°C | 2.2% | 116.2hPa | 2.6V | 00:00:00 | 00:00:00 | 00:00:00 | |
| OM5KV | 2026-08-31 11:04:50 | 48.20191 | 12.14147 | 56° | 42km/h | 15698m | -16.8m/s | -55.7°C | 2.2% | 115.5hPa | 2.6V | 02:02:00 | 00:00:00 | 00:00:00 | |
| DO3MHA-11 | 2026-08-31 11:04:49 | 48.20179 | 12.14121 | 54° | 46km/h | 15731m | -17.1m/s | -55.8°C | 5.4% | 114.9hPa | 2.6V | 02:02:00 | 01:32:42 | 00:00:00 | |
| OM5KV | 2026-08-31 11:04:48 | 48.20179 | 12.14121 | 54° | 44km/h | 15731m | -17.2m/s | -55.8°C | 2.2% | 114.9hPa | 2.7V | 02:02:00 | 00:00:00 | 00:00:00 | |
| OE5MMP-10 | 2026-08-31 11:04:47 | 48.20165 | 12.14092 | 56° | 47km/h | 15765m | -16.6m/s | -55.9°C | 5.5% | 114.2hPa | 2.7V | 02:02:00 | 01:32:40 | 00:00:00 | |
| DO3MHA-12 | 2026-08-31 11:04:45 | 48.20152 | 12.14064 | 55° | 47km/h | 15798m | -16.7m/s | -56.2°C | 5.6% | 113.7hPa | 2.6V | 02:02:00 | 01:32:38 | 00:00:00 | |
| OM5KV | 2026-08-31 11:04:44 | 48.20152 | 12.14064 | 56° | 46km/h | 15798m | -16.7m/s | -56.3°C | 2.2% | 113.7hPa | 2.6V | 02:03:00 | 00:00:00 | 00:00:00 | |
| PG1ADW-2 | 2026-08-31 11:04:42 | 48.20129 | 12.14023 | 49° | 20km/h | 15848m | -16.5m/s | -56.5°C | 5.7% | 112.7hPa | 2.6V | 02:02:00 | 00:00:00 | 00:00:00 | |
| DO3MHA-11 | 2026-08-31 11:04:39 | 48.20105 | 12.13985 | 42° | 49km/h | 15896m | -16.3m/s | -56.4°C | 5.5% | 111.9hPa | 2.7V | 00:00:00 | 01:32:32 | 00:00:00 | |
| OE5MMP-10 | 2026-08-31 11:04:37 | 48.20086 | 12.13962 | 36° | 51km/h | 15932m | -18.8m/s | -56.3°C | 5.3% | 111.3hPa | 2.7V | 00:00:00 | 01:32:30 | 00:00:00 | |
| OM5KV | 2026-08-31 11:04:36 | 48.20086 | 12.13962 | 36° | 47km/h | 15932m | -18.8m/s | -56.4°C | 2.1% | 111.4hPa | 2.7V | 02:03:00 | 00:00:00 | 00:00:00 | |
| DO3MHA-12 | 2026-08-31 11:04:35 | 48.20066 | 12.13940 | 35° | 51km/h | 15969m | -18.4m/s | -55.9°C | 5.1% | 110.7hPa | 2.7V | 00:00:00 | 01:32:28 | 00:00:00 | |
| OE5DXL-15 | 2026-08-31 11:04:33 | 48.20045 | 12.13920 | 31° | 57km/h | 16007m | -18.8m/s | -55.2°C | 4.7% | 110.0hPa | 2.7V | 00:00:00 | 00:00:00 | 00:00:00 | |
| DK5PH-5 | 2026-08-31 11:04:30 | 48.20011 | 12.13892 | 26° | 60km/h | 16065m | -20.0m/s | -55.5°C | 4.7% | 109.0hPa | 2.7V | 00:00:00 | 01:32:23 | 00:00:00 | |
| DO3MHA-11 | 2026-08-31 11:04:29 | 48.19999 | 12.13883 | 25° | 53km/h | 16085m | -19.7m/s | -55.7°C | 4.8% | 108.7hPa | 2.7V | 00:00:00 | 01:32:22 | 00:00:00 | |
| OE5MMP-10 | 2026-08-31 11:04:27 | 48.19975 | 12.13866 | 30° | 53km/h | 16124m | -19.6m/s | -56.0°C | 4.9% | 108.0hPa | 2.7V | 00:00:00 | 01:32:20 | 00:00:00 | |
| OE5WHR-10 | 2026-08-31 11:04:26 | 48.19963 | 12.13856 | 29° | 58km/h | 16142m | -18.1m/s | -56.1°C | 4.9% | 107.7hPa | 2.7V | 02:02:00 | 00:00:00 | 00:00:00 | |
| DO3MHA-12 | 2026-08-31 11:04:25 | 48.19951 | 12.13847 | 26° | 53km/h | 16160m | -18.1m/s | -56.2°C | 4.9% | 107.3hPa | 2.7V | 00:00:00 | 01:32:18 | 00:00:00 | |
| DG1MJG | 2026-08-31 11:04:23 | 48.19940 | 12.13839 | 27° | 51km/h | 16178m | -17.5m/s | -56.3°C | 1.9% | 107.1hPa | 2.7V | 02:03:00 | 00:00:00 | 00:00:00 | |
| DB0UT-7 | 2026-08-31 11:04:22 | 48.19916 | 12.13821 | 29° | 64km/h | 16213m | -17.4m/s | -56.5°C | 5.0% | 106.4hPa | 2.7V | 00:00:00 | 01:32:15 | 00:00:00 | |
| DB0NH | 2026-08-31 11:04:20 | 48.19893 | 12.13800 | 34° | 66km/h | 16246m | -16.3m/s | -56.8°C | 5.1% | 105.9hPa | 2.7V | 02:02:00 | 01:32:13 | 00:00:00 | |
| DO3MHA-11 | 2026-08-31 11:04:19 | 48.19882 | 12.13789 | 36° | 57km/h | 16262m | -15.2m/s | -56.9°C | 5.2% | 105.6hPa | 2.7V | 02:02:00 | 01:32:12 | 00:00:00 | |
| OE5DRO-10 | 2026-08-31 11:04:18 | 48.19870 | 12.13777 | 35° | 64km/h | 16278m | -15.5m/s | -57.0°C | 5.2% | 105.4hPa | 2.6V | 00:00:00 | 00:00:00 | 00:00:00 | |
| OE5MMP-10 | 2026-08-31 11:04:17 | 48.19859 | 12.13766 | 34° | 60km/h | 16293m | -15.7m/s | -57.2°C | 5.2% | 105.1hPa | 2.6V | 02:02:00 | 01:32:10 | 00:00:00 | |
| OM5KV | 2026-08-31 11:04:16 | 48.19858 | 12.13766 | 35° | 55km/h | 16293m | -15.8m/s | -57.2°C | 1.9% | 105.2hPa | 2.6V | 02:03:00 | 00:00:00 | 00:00:00 | |
| DO3MHA-12 | 2026-08-31 11:04:15 | 48.19837 | 12.13740 | 42° | 62km/h | 16325m | -17.0m/s | -57.4°C | 5.3% | 104.6hPa | 2.6V | 02:02:00 | 01:32:08 | 00:00:00 | |
| DG1MFX-10 | 2026-08-31 11:04:14 | 48.19837 | 12.13740 | 43° | 58km/h | 16325m | -17.0m/s | -57.4°C | 2.0% | 104.6hPa | 2.6V | 02:03:00 | 00:00:00 | 00:00:00 | |
| DM0DOS-11 | 2026-08-31 11:04:13 | 48.19772 | 12.13648 | 48° | 66km/h | 16423m | -15.4m/s | -57.9°C | 5.7% | 103hPa | 2.6V | 02:02:49 | 01:32:02 | 00:00:00 | |
| OM5KV | 2026-08-31 11:04:12 | 48.19815 | 12.13712 | 45° | 57km/h | 16359m | -16.1m/s | -57.6°C | 2.0% | 104.1hPa | 2.6V | 02:03:00 | 00:00:00 | 00:00:00 | |
| OM5KV | 2026-08-31 11:04:11 | 48.19804 | 12.13696 | 46° | 60km/h | 16376m | -16.3m/s | -57.7°C | 2.0% | 103.8hPa | 2.6V | 02:03:00 | 00:00:00 | 00:00:00 | |
| DO3MHA-11 | 2026-08-31 11:04:09 | 48.19772 | 12.13647 | 49° | 71km/h | 16424m | -15.3m/s | -57.8°C | 5.7% | 102.9hPa | 2.6V | 00:00:00 | 01:32:02 | 00:00:00 | |
| OE5MMP-10 | 2026-08-31 11:04:07 | 48.19750 | 12.13610 | 51° | 73km/h | 16457m | -18.1m/s | -57.9°C | 5.7% | 102.5hPa | 2.6V | 00:00:00 | 01:32:00 | 00:00:00 | |
| DL6DJ-15 | 2026-08-31 11:04:06 | 48.19728 | 12.13570 | 52° | 69km/h | 16493m | -18.0m/s | -58.1°C | 2.1% | 101.9hPa | 2.6V | 00:00:00 | 00:00:00 | 00:00:00 | |
| DO3MHA-12 | 2026-08-31 11:04:05 | 48.19728 | 12.13570 | 53° | 75km/h | 16493m | -18.0m/s | -58.1°C | 5.9% | 101.9hPa | 2.6V | 00:00:00 | 01:31:58 | 00:00:00 | |
| DF3TZ-5 | 2026-08-31 11:04:04 | 48.19718 | 12.13549 | 53° | 71km/h | 16511m | -18.2m/s | -58.2°C | 2.2% | 101.6hPa | 2.6V | 00:00:00 | 00:00:00 | 00:00:00 | |
| OE5DXL-15 | 2026-08-31 11:04:03 | 48.19707 | 12.13527 | 54° | 62km/h | 16529m | -18.4m/s | -58.3°C | 6.0% | 101.3hPa | 2.6V | 02:02:00 | 00:00:00 | 00:00:00 | |
| DL9SK-14 | 2026-08-31 11:03:51 | 48.19609 | 12.13225 | 75° | 69km/h | 16782m | -20.9m/s | -57.6°C | 2.0% | 97.5hPa | 2.6V | 00:00:00 | 00:00:00 | 00:00:00 | |
| OM5KV | 2026-08-31 11:03:50 | 48.19604 | 12.13199 | 77° | 71km/h | 16803m | -21.0m/s | -57.2°C | 1.9% | 97.1hPa | 2.6V | 02:03:00 | 00:00:00 | 00:00:00 | |
| DO3MHA-11 | 2026-08-31 11:03:49 | 48.19600 | 12.13174 | 78° | 57km/h | 16826m | -24.0m/s | -56.8°C | 5.4% | 96.8hPa | 2.6V | 02:03:00 | 01:31:42 | 00:00:00 | |
| DM0DOS-11 | 2026-08-31 11:03:48 | 48.19581 | 12.13042 | 80° | 51km/h | 16956m | -19.4m/s | -56.3°C | 5.2% | 94.8hPa | 2.7V | 02:03:15 | 01:31:36 | 00:00:00 | |
| DL1ZP-14 | 2026-08-31 11:03:46 | 48.19586 | 12.13081 | 77° | 55km/h | 16917m | -20.3m/s | -56.4°C | 1.8% | 95.5hPa | 2.7V | 00:00:00 | 00:00:00 | 00:00:00 | |
| DO3MHA-12 | 2026-08-31 11:03:45 | 48.19586 | 12.13081 | 78° | 49km/h | 16917m | -20.3m/s | -56.3°C | 5.3% | 95.4hPa | 2.7V | 02:03:00 | 01:31:38 | 00:00:00 | |
| OE5WHR-10 | 2026-08-31 11:03:44 | 48.19583 | 12.13061 | 78° | 44km/h | 16937m | -20.1m/s | -56.3°C | 5.3% | 95.1hPa | 2.6V | 00:00:00 | 01:31:37 | 00:00:00 | |
| OM5KV | 2026-08-31 11:03:43 | 48.19584 | 12.13061 | 79° | 53km/h | 16937m | -20.2m/s | -56.4°C | 1.8% | 95.1hPa | 2.6V | 02:03:00 | 00:00:00 | 00:00:00 | |
| OE5DRO-10 | 2026-08-31 11:03:40 | 48.19573 | 12.12985 | 80° | 44km/h | 17017m | -20.9m/s | -55.9°C | 5.0% | 93.9hPa | 2.6V | 00:00:00 | 00:00:00 | 00:00:00 | |
| DO3MHA-11 | 2026-08-31 11:03:39 | 48.19571 | 12.12967 | 78° | 42km/h | 17037m | -20.8m/s | -55.8°C | 4.9% | 93.5hPa | 2.6V | 00:00:00 | 01:31:32 | 00:00:00 | |
| OM5KV | 2026-08-31 11:03:38 | 48.19571 | 12.12967 | 78° | 49km/h | 17037m | -20.9m/s | -55.9°C | 1.7% | 93.6hPa | 2.6V | 02:03:00 | 00:00:00 | 00:00:00 | |
| OE5MMP-10 | 2026-08-31 11:03:37 | 48.19565 | 12.12934 | 74° | 42km/h | 17078m | -20.1m/s | -55.8°C | 5.0% | 92.9hPa | 2.6V | 00:00:00 | 01:31:30 | 00:00:00 | |
| DO3MHA-12 | 2026-08-31 11:03:35 | 48.19558 | 12.12903 | 68° | 40km/h | 17119m | -21.1m/s | -55.5°C | 5.0% | 92.4hPa | 2.6V | 00:00:00 | 01:31:28 | 00:00:00 | |
| DM0DOS-11 | 2026-08-31 11:03:33 | 48.19544 | 12.12861 | 60° | 40km/h | 17175m | -17m/s | -55.1°C | 4.9% | 91.5hPa | 2.6V | 02:03:26 | 01:31:25 | 00:00:00 | |
| OE5DXL-15 | 2026-08-31 11:03:33 | 48.19549 | 12.12875 | 64° | 47km/h | 17158m | -17.8m/s | -55.1°C | 4.9% | 91.7hPa | 2.6V | 00:00:00 | 00:00:00 | 00:00:00 | |
| OM5KV | 2026-08-31 11:03:31 | 48.19544 | 12.12861 | 61° | 40km/h | 17176m | -17.0m/s | -55.1°C | 1.7% | 91.5hPa | 2.6V | 02:03:00 | 00:00:00 | 00:00:00 | |
| DK5PH-5 | 2026-08-31 11:03:30 | 48.19533 | 12.12836 | 53° | 49km/h | 17211m | -18.8m/s | -54.9°C | 4.8% | 91.0hPa | 2.6V | 00:00:00 | 01:31:23 | 00:00:00 | |
| DO3MHA-11 | 2026-08-31 11:03:29 | 48.19527 | 12.12824 | 47° | 44km/h | 17231m | -19.9m/s | -55.0°C | 4.9% | 90.7hPa | 2.6V | 00:00:00 | 01:31:22 | 00:00:00 | |
| OE5MMP-10 | 2026-08-31 11:03:27 | 48.19512 | 12.12804 | 40° | 46km/h | 17271m | -19.4m/s | -55.2°C | 5.0% | 90.1hPa | 2.6V | 00:00:00 | 01:31:20 | 00:00:00 | |
| OM5KV | 2026-08-31 11:03:26 | 48.19512 | 12.12804 | 40° | 40km/h | 17271m | -19.4m/s | -55.3°C | 1.7% | 90.2hPa | 2.6V | 02:03:00 | 00:00:00 | 00:00:00 | |
| DO3MHA-12 | 2026-08-31 11:03:25 | 48.19496 | 12.12784 | 43° | 47km/h | 17312m | -19.5m/s | -55.3°C | 5.0% | 89.6hPa | 2.6V | 00:00:00 | 01:31:18 | 00:00:00 | |
| DM0DOS-11 | 2026-08-31 11:03:23 | 48.19471 | 12.12749 | 43° | 49km/h | 17373m | -21.6m/s | -55.7°C | 5.1% | 88.8hPa | 2.6V | 02:03:36 | 01:31:15 | 00:00:00 | |
| OE5WHR-10 | 2026-08-31 11:03:23 | 48.19480 | 12.12761 | 44° | 51km/h | 17352m | -20.7m/s | -55.6°C | 5.0% | 89.0hPa | 2.6V | 02:03:00 | 00:00:00 | 00:00:00 | |
| DB0UT-7 | 2026-08-31 11:03:22 | 48.19471 | 12.12749 | 44° | 46km/h | 17373m | -21.6m/s | -55.7°C | 5.1% | 88.7hPa | 2.7V | 00:00:00 | 01:31:15 | 00:00:00 | |
| OE5DRO-10 | 2026-08-31 11:03:21 | 48.19462 | 12.12736 | 45° | 53km/h | 17395m | -21.8m/s | -55.8°C | 5.1% | 88.4hPa | 2.7V | 00:00:00 | 00:00:00 | 00:00:00 | |
| NBG1-10 | 2026-08-31 11:03:20 | 48.19453 | 12.12723 | 43° | 49km/h | 17416m | -21.4m/s | -55.9°C | 5.2% | 88.1hPa | 2.7V | 00:00:00 | 01:31:13 | 00:00:00 | |
| DO3MHA-11 | 2026-08-31 11:03:19 | 48.19445 | 12.12711 | 48° | 51km/h | 17437m | -21.3m/s | -55.9°C | 5.3% | 87.8hPa | 2.7V | 02:03:00 | 01:31:12 | 00:00:00 | |
| OE5MMP-10 | 2026-08-31 11:03:17 | 48.19428 | 12.12685 | 45° | 53km/h | 17481m | -21.5m/s | -54.9°C | 4.9% | 87.2hPa | 2.6V | 02:03:00 | 01:31:10 | 00:00:00 | |
| DO3MHA-12 | 2026-08-31 11:03:15 | 48.19410 | 12.12659 | 46° | 53km/h | 17523m | -20.2m/s | -54.0°C | 4.6% | 86.6hPa | 2.7V | 02:03:00 | 01:31:08 | 00:00:00 | |
| OM5KV | 2026-08-31 11:03:14 | 48.19410 | 12.12659 | 46° | 47km/h | 17523m | -20.2m/s | -54.1°C | 1.5% | 86.7hPa | 2.6V | 02:03:00 | 00:00:00 | 00:00:00 | |
| DH7VM-15 | 2026-08-31 11:03:11 | 48.19381 | 12.12620 | 41° | 53km/h | 17589m | -23.0m/s | -53.4°C | 1.5% | 85.8hPa | 2.6V | 02:03:00 | 00:00:00 | 00:00:00 | |
| DO3MHA-11 | 2026-08-31 11:03:09 | 48.19351 | 12.12581 | 43° | 55km/h | 17657m | -21.6m/s | -53.4°C | 4.4% | 84.9hPa | 2.6V | 00:00:00 | 01:31:02 | 00:00:00 | |
| DM0DOS-11 | 2026-08-31 11:03:08 | 48.19299 | 12.12507 | 45° | 58km/h | 17766m | -21.1m/s | -54°C | 4.6% | 83.5hPa | 2.6V | 02:03:54 | 01:30:57 | 00:00:00 | |
| OE3JTB-15 | 2026-08-31 11:03:08 | 48.19340 | 12.12566 | 43° | 37km/h | 17679m | -21.6m/s | -53.5°C | 4.3% | 84.6hPa | 2.7V | 00:00:00 | 00:00:00 | 00:00:00 | |
| OE5MMP-10 | 2026-08-31 11:03:07 | 48.19329 | 12.12552 | 43° | 53km/h | 17700m | -21.7m/s | -53.6°C | 4.5% | 84.3hPa | 2.7V | 00:00:00 | 01:31:00 | 00:00:00 | |
| DO3MHA-12 | 2026-08-31 11:03:05 | 48.19309 | 12.12522 | 46° | 51km/h | 17744m | -23.2m/s | -53.9°C | 4.5% | 83.7hPa | 2.7V | 00:00:00 | 01:30:58 | 00:00:00 | |
| DL6DJ-15 | 2026-08-31 11:03:04 | 48.19288 | 12.12491 | 44° | 55km/h | 17788m | -21.0m/s | -54.0°C | 1.5% | 83.2hPa | 2.7V | 00:00:00 | 00:00:00 | 00:00:00 | |
| OM5KV | 2026-08-31 11:03:03 | 48.19288 | 12.12491 | 45° | 55km/h | 17788m | -21.0m/s | -54.0°C | 1.5% | 83.2hPa | 2.7V | 02:04:00 | 00:00:00 | 00:00:00 | |
| OE5WHR-10 | 2026-08-31 11:03:02 | 48.19279 | 12.12476 | 48° | 40km/h | 17809m | -21.3m/s | -54.0°C | 4.6% | 82.9hPa | 2.7V | 00:00:00 | 00:00:00 | 00:00:00 | |
| DK5PH-5 | 2026-08-31 11:03:00 | 48.19262 | 12.12445 | 52° | 29km/h | 17855m | -23.2m/s | -53.8°C | 4.5% | 82.4hPa | 2.7V | 00:00:00 | 01:30:53 | 00:00:00 | |
| DO3MHA-11 | 2026-08-31 11:02:59 | 48.19254 | 12.12431 | 52° | 44km/h | 17878m | -21.9m/s | -53.9°C | 4.5% | 82.0hPa | 2.7V | 00:00:00 | 01:30:52 | 00:00:00 | |
| DM0DOS-11 | 2026-08-31 11:02:58 | 48.19222 | 12.12357 | 57° | 46km/h | 17991m | -23.4m/s | -53.8°C | 4.5% | 80.7hPa | 2.7V | 02:04:04 | 01:30:47 | 00:00:00 | |
| OE5MMP-10 | 2026-08-31 11:02:57 | 48.19240 | 12.12401 | 56° | 42km/h | 17922m | -23.2m/s | -54.0°C | 4.5% | 81.5hPa | 2.7V | 00:00:00 | 01:30:50 | 00:00:00 | |
| DB0NH | 2026-08-31 11:02:56 | 48.19234 | 12.12386 | 60° | 18km/h | 17945m | -23.5m/s | -53.8°C | 4.5% | 81.2hPa | 2.7V | 00:00:00 | 01:30:49 | 00:00:00 | |
| DO3MHA-12 | 2026-08-31 11:02:55 | 48.19228 | 12.12371 | 60° | 38km/h | 17968m | -23.2m/s | -53.9°C | 4.5% | 80.9hPa | 2.7V | 00:00:00 | 01:30:48 | 00:00:00 | |
| BAUMI2-15 | 2026-08-31 11:02:52 | 48.19212 | 12.12330 | 62° | 38km/h | 18038m | -23.3m/s | -53.5°C | 4.4% | 80.0hPa | 2.7V | 00:00:00 | 01:30:45 | 00:00:00 | |
| DG1MJG | 2026-08-31 11:02:51 | 48.19212 | 12.12330 | 62° | 38km/h | 18038m | -23.4m/s | -53.5°C | 1.4% | 80.1hPa | 2.7V | 02:04:00 | 00:00:00 | 00:00:00 | |
| DH7VM-15 | 2026-08-31 11:02:50 | 48.19206 | 12.12317 | 61° | 42km/h | 18062m | -22.7m/s | -53.6°C | 1.4% | 79.8hPa | 2.7V | 00:00:00 | 00:00:00 | 00:00:00 | |
| DO3MHA-11 | 2026-08-31 11:02:49 | 48.19197 | 12.12291 | 63° | 27km/h | 18106m | -22.9m/s | -53.6°C | 4.4% | 79.2hPa | 2.7V | 02:04:00 | 01:30:42 | 00:00:00 | |
| DM0DOS-11 | 2026-08-31 11:02:48 | 48.19181 | 12.12239 | 66° | 24km/h | 18222m | -24m/s | -53.8°C | 4.4% | 77.8hPa | 2.7V | 02:04:14 | 01:30:37 | 00:00:00 | |
| NBG1-10 | 2026-08-31 11:02:47 | 48.19189 | 12.12268 | 61° | 15km/h | 18154m | -23.1m/s | -53.4°C | 4.3% | 78.6hPa | 2.7V | 00:00:00 | 01:30:40 | 00:00:00 | |
| DB0UT-7 | 2026-08-31 11:02:46 | 48.19186 | 12.12258 | 66° | 15km/h | 18176m | -22.5m/s | -53.6°C | 4.3% | 78.3hPa | 2.7V | 00:00:00 | 00:00:00 | 00:00:00 | |
| DO3MHA-12 | 2026-08-31 11:02:45 | 48.19183 | 12.12248 | 72° | 22km/h | 18199m | -22.8m/s | -53.7°C | 4.4% | 78.0hPa | 2.7V | 02:04:00 | 01:30:38 | 00:00:00 | |
| OE5DRO-10 | 2026-08-31 11:02:43 | 48.19179 | 12.12231 | 77° | 13km/h | 18246m | -23.9m/s | -53.7°C | 4.4% | 77.5hPa | 2.6V | 00:00:00 | 00:00:00 | 00:00:00 | |
| BAUMI2-15 | 2026-08-31 11:02:42 | 48.19177 | 12.12223 | 71° | 20km/h | 18269m | -23.3m/s | -53.6°C | 4.3% | 77.2hPa | 2.6V | 02:04:00 | 01:30:35 | 00:00:00 | |
| OE5WHR-10 | 2026-08-31 11:02:41 | 48.19175 | 12.12215 | 72° | 11km/h | 18293m | -23.3m/s | -53.6°C | 4.3% | 76.9hPa | 2.6V | 00:00:00 | 01:30:34 | 00:00:00 | |
| DO3MHA-11 | 2026-08-31 11:02:39 | 48.19173 | 12.12202 | 75° | 15km/h | 18339m | -22.7m/s | -53.7°C | 4.4% | 76.3hPa | 2.6V | 00:00:00 | 01:30:32 | 00:00:00 | |
| DM0DOS-11 | 2026-08-31 11:02:38 | 48.19167 | 12.12169 | 75° | 16km/h | 18458m | -23.4m/s | -53.8°C | 4.3% | 75hPa | 2.6V | 02:04:24 | 01:30:27 | 00:00:00 | |
| DO3MHA-12 | 2026-08-31 11:02:35 | 48.19168 | 12.12175 | 74° | 9km/h | 18434m | -24.9m/s | -53.6°C | 4.2% | 75.2hPa | 2.6V | 00:00:00 | 01:30:28 | 00:00:00 | |
| OE5DXL-15 | 2026-08-31 11:02:33 | 48.19166 | 12.12164 | 81° | 11km/h | 18483m | -24.3m/s | -53.7°C | 4.3% | 74.7hPa | 2.6V | 02:04:00 | 00:00:00 | 00:00:00 | |
| BAUMI2-15 | 2026-08-31 11:02:32 | 48.19166 | 12.12161 | 83° | 7km/h | 18506m | -22.6m/s | -53.6°C | 4.2% | 74.4hPa | 2.6V | 00:00:00 | 01:30:25 | 00:00:00 | |
| DF7PN | 2026-08-31 11:02:31 | 48.19165 | 12.12158 | 68° | 11km/h | 18529m | -23.7m/s | -53.6°C | 1.3% | 74.2hPa | 2.6V | 00:00:00 | 00:00:00 | 00:00:00 | |
| DO3MHA-11 | 2026-08-31 11:02:29 | 48.19163 | 12.12152 | 47° | 7km/h | 18575m | -22.0m/s | -53.8°C | 4.3% | 73.6hPa | 2.6V | 00:00:00 | 01:30:22 | 00:00:00 | |
| DM0DOS-11 | 2026-08-31 11:02:28 | 48.19158 | 12.12144 | 32° | 7km/h | 18690m | -23.5m/s | -54.1°C | 4.4% | 72.3hPa | 2.6V | 02:04:34 | 01:30:17 | 00:00:00 | |
| OE5MMP-10 | 2026-08-31 11:02:27 | 48.19161 | 12.12149 | 31° | 9km/h | 18620m | -22.8m/s | -53.9°C | 4.4% | 73.1hPa | 2.6V | 00:00:00 | 01:30:20 | 00:00:00 | |
| DG1MFX-10 | 2026-08-31 11:02:26 | 48.19162 | 12.12149 | 31° | 5km/h | 18620m | -22.9m/s | -54.0°C | 1.4% | 73.2hPa | 2.6V | 02:04:00 | 00:00:00 | 00:00:00 | |
| DO3MHA-12 | 2026-08-31 11:02:25 | 48.19160 | 12.12146 | 48° | 11km/h | 18666m | -24.2m/s | -54.0°C | 4.4% | 72.6hPa | 2.6V | 00:00:00 | 01:30:18 | 00:00:00 | |
| OE5DRO-10 | 2026-08-31 11:02:24 | 48.19158 | 12.12144 | 33° | 13km/h | 18690m | -23.5m/s | -54.1°C | 4.4% | 72.3hPa | 2.6V | 00:00:00 | 00:00:00 | 00:00:00 | |
| BAUMI2-15 | 2026-08-31 11:02:22 | 48.19155 | 12.12142 | 35° | 11km/h | 18736m | -23.3m/s | -54.4°C | 4.5% | 71.8hPa | 2.6V | 00:00:00 | 01:30:15 | 00:00:00 | |
| DG1MJG | 2026-08-31 11:02:21 | 48.19155 | 12.12142 | 35° | 11km/h | 18736m | -23.4m/s | -54.5°C | 1.4% | 71.8hPa | 2.6V | 02:04:00 | 00:00:00 | 00:00:00 | |
| OE5WHR-10 | 2026-08-31 11:02:20 | 48.19150 | 12.12138 | 36° | 15km/h | 18783m | -23.4m/s | -54.4°C | 4.5% | 71.3hPa | 2.6V | 02:04:00 | 00:00:00 | 00:00:00 | |
| DO3MHA-11 | 2026-08-31 11:02:19 | 48.19148 | 12.12136 | 44° | 15km/h | 18805m | -22.0m/s | -54.5°C | 4.5% | 71.0hPa | 2.6V | 02:04:00 | 01:30:12 | 00:00:00 | |
| DM0DOS-11 | 2026-08-31 11:02:18 | 48.19135 | 12.12116 | 49° | 15km/h | 18930m | -24.4m/s | -54.8°C | 4.6% | 69.7hPa | 2.6V | 02:04:44 | 01:30:07 | 00:00:00 | |
| DL9SK-14 | 2026-08-31 11:02:18 | 48.19143 | 12.12130 | 49° | 16km/h | 18854m | -25.7m/s | -54.6°C | 1.4% | 70.5hPa | 2.6V | 00:00:00 | 00:00:00 | 00:00:00 | |
| BAUMI2-15 | 2026-08-31 11:02:17 | 48.19143 | 12.12130 | 50° | 16km/h | 18854m | -25.7m/s | -54.6°C | 4.5% | 70.5hPa | 2.6V | 00:00:00 | 01:30:10 | 00:00:00 | |
| DB0UT-7 | 2026-08-31 11:02:16 | 48.19140 | 12.12125 | 46° | 13km/h | 18881m | -25.9m/s | -54.7°C | 4.6% | 70.2hPa | 2.6V | 02:04:00 | 01:30:09 | 00:00:00 | |
| OM5KV | 2026-08-31 11:02:15 | 48.19137 | 12.12120 | 43° | 16km/h | 18906m | -24.6m/s | -54.8°C | 1.5% | 69.9hPa | 2.6V | 02:04:00 | 00:00:00 | 00:00:00 | |
| NBG1-10 | 2026-08-31 11:02:14 | 48.19134 | 12.12116 | 50° | 22km/h | 18931m | -24.3m/s | -54.8°C | 4.6% | 69.6hPa | 2.6V | 02:04:00 | 01:30:07 | 00:00:00 | |
| DL1ZP-14 | 2026-08-31 11:02:13 | 48.19132 | 12.12112 | 52° | 15km/h | 18954m | -24.1m/s | -55.0°C | 1.5% | 69.4hPa | 2.7V | 00:00:00 | 00:00:00 | 00:00:00 | |
| BAUMI2-15 | 2026-08-31 11:02:12 | 48.19130 | 12.12108 | 51° | 15km/h | 18978m | -23.7m/s | -54.9°C | 4.7% | 69.1hPa | 2.7V | 02:04:00 | 01:30:05 | 00:00:00 | |
| DO3MHA-11 | 2026-08-31 11:02:09 | 48.19121 | 12.12100 | 29° | 16km/h | 19055m | -25.4m/s | -54.5°C | 4.5% | 68.3hPa | 2.7V | 00:00:00 | 01:30:02 | 00:00:00 | |
| DM0DOS-11 | 2026-08-31 11:02:08 | 48.19104 | 12.12095 | 8° | 18km/h | 19183m | -24.9m/s | -54.8°C | 4.7% | 67hPa | 2.7V | 02:04:54 | 01:29:57 | 00:00:00 | |
| OE3JTB-15 | 2026-08-31 11:02:08 | 48.19117 | 12.12098 | 4° | 24km/h | 19080m | -25.6m/s | -54.5°C | 4.5% | 68.1hPa | 2.6V | 02:04:00 | 00:00:00 | 00:00:00 | |
| OE5MMP-10 | 2026-08-31 11:02:07 | 48.19114 | 12.12098 | 14° | 18km/h | 19106m | -27.1m/s | -54.4°C | 4.5% | 67.8hPa | 2.6V | 00:00:00 | 01:30:00 | 00:00:00 | |
| DF2AP-13 | 2026-08-31 11:02:06 | 48.19111 | 12.12097 | 17° | 26km/h | 19133m | -26.2m/s | -54.6°C | 4.6% | 67.5hPa | 2.6V | 00:00:00 | 01:29:59 | 00:00:00 | |
| DO3MHA-12 | 2026-08-31 11:02:05 | 48.19108 | 12.12096 | 13° | 22km/h | 19159m | -25.2m/s | -54.7°C | 4.6% | 67.2hPa | 2.6V | 00:00:00 | 01:29:58 | 00:00:00 | |
| OE5DXL-15 | 2026-08-31 11:02:03 | 48.19099 | 12.12095 | 10° | 26km/h | 19208m | -25.1m/s | -54.7°C | 4.7% | 66.7hPa | 2.6V | 00:00:00 | 00:00:00 | 00:00:00 | |
| DL6DJ-15 | 2026-08-31 11:02:01 | 48.19089 | 12.12092 | 12° | 22km/h | 19258m | -25.0m/s | -54.7°C | 1.5% | 66.2hPa | 2.6V | 00:00:00 | 00:00:00 | 00:00:00 | |
| DK5PH-5 | 2026-08-31 11:02:00 | 48.19084 | 12.12091 | 4° | 27km/h | 19283m | -24.5m/s | -54.7°C | 4.7% | 65.9hPa | 2.6V | 00:00:00 | 01:29:53 | 00:00:00 | |
| DO3MHA-11 | 2026-08-31 11:01:59 | 48.19078 | 12.12090 | 13° | 27km/h | 19308m | -24.2m/s | -54.7°C | 4.7% | 65.6hPa | 2.6V | 00:00:00 | 01:29:52 | 00:00:00 | |
| PETON7-10 | 2026-08-31 11:01:58 | 48.19072 | 12.12088 | 7° | 29km/h | 19332m | -24.5m/s | -54.7°C | 4.7% | 65.4hPa | 2.6V | 02:05:00 | 00:00:00 | 00:00:00 | |
| OM5KV | 2026-08-31 11:01:57 | 48.19072 | 12.12088 | 8° | 24km/h | 19332m | -24.5m/s | -54.8°C | 1.5% | 65.4hPa | 2.6V | 02:05:00 | 00:00:00 | 00:00:00 | |
| DO3MHA-12 | 2026-08-31 11:01:55 | 48.19054 | 12.12087 | 359° | 31km/h | 19406m | -25.6m/s | -54.9°C | 4.8% | 64.6hPa | 2.6V | 00:00:00 | 01:29:48 | 00:00:00 | |
| BAUMI2-15 | 2026-08-31 11:01:52 | 48.19034 | 12.12087 | 7° | 35km/h | 19480m | -24.1m/s | -54.8°C | 4.7% | 63.9hPa | 2.6V | 00:00:00 | 01:29:45 | 00:00:00 | |
| DG1MJG | 2026-08-31 11:01:51 | 48.19033 | 12.12087 | 7° | 33km/h | 19480m | -24.2m/s | -54.8°C | 1.5% | 63.9hPa | 2.6V | 02:05:00 | 00:00:00 | 00:00:00 | |
| DM0DOS-11 | 2026-08-31 11:01:48 | 48.18995 | 12.12062 | 37° | 38km/h | 19610m | -26m/s | -54.5°C | 4.5% | 62.7hPa | 2.6V | 02:05:11 | 01:29:40 | 00:00:00 | |
| OE5MMP-10 | 2026-08-31 11:01:47 | 48.18995 | 12.12062 | 38° | 26km/h | 19610m | -25.9m/s | -54.4°C | 4.5% | 62.6hPa | 2.6V | 02:05:00 | 01:29:40 | 00:00:00 | |
| DO3MHA-12 | 2026-08-31 11:01:46 | 48.18982 | 12.12047 | 44° | 24km/h | 19662m | -24.9m/s | -54.3°C | 4.5% | 62.1hPa | 2.7V | 02:05:00 | 01:29:38 | 00:00:00 | |
| PETON7-10 | 2026-08-31 11:01:43 | 48.18971 | 12.12032 | 40° | 24km/h | 19712m | -24.9m/s | -54.3°C | 4.5% | 61.6hPa | 2.7V | 00:00:00 | 00:00:00 | 00:00:00 | |
| BAUMI2-15 | 2026-08-31 11:01:42 | 48.18966 | 12.12026 | 45° | 20km/h | 19736m | -24.6m/s | -54.3°C | 4.5% | 61.4hPa | 2.7V | 02:05:00 | 01:29:35 | 00:00:00 | |
| NBG1-10 | 2026-08-31 11:01:41 | 48.18962 | 12.12020 | 43° | 18km/h | 19761m | -24.7m/s | -54.3°C | 4.5% | 61.1hPa | 2.7V | 00:00:00 | 01:29:34 | 00:00:00 | |
| OM5KV | 2026-08-31 11:01:39 | 48.18958 | 12.12016 | 35° | 18km/h | 19786m | -24.4m/s | -54.3°C | 1.4% | 61.0hPa | 2.7V | 02:05:00 | 00:00:00 | 00:00:00 | |
| DM0DOS-11 | 2026-08-31 11:01:38 | 48.18946 | 12.12004 | 23° | 22km/h | 19859m | -25.6m/s | -54.3°C | 4.6% | 60.2hPa | 2.7V | 02:05:21 | 01:29:30 | 00:00:00 | |
| OE5WHR-10 | 2026-08-31 11:01:38 | 48.18950 | 12.12007 | 35° | 22km/h | 19834m | -24.6m/s | -54.3°C | 4.6% | 60.4hPa | 2.7V | 00:00:00 | 01:29:31 | 00:00:00 | |
| OE5MMP-10 | 2026-08-31 11:01:37 | 48.18945 | 12.12004 | 24° | 26km/h | 19859m | -25.5m/s | -54.3°C | 4.6% | 60.2hPa | 2.7V | 00:00:00 | 01:29:30 | 00:00:00 | |
| DO3MHA-12 | 2026-08-31 11:01:35 | 48.18935 | 12.11997 | 20° | 26km/h | 19908m | -23.8m/s | -54.3°C | 4.7% | 59.7hPa | 2.7V | 00:00:00 | 01:29:28 | 00:00:00 | |
| OM5KV | 2026-08-31 11:01:34 | 48.18935 | 12.11997 | 21° | 27km/h | 19908m | -23.9m/s | -54.3°C | 1.5% | 59.7hPa | 2.7V | 02:05:00 | 00:00:00 | 00:00:00 | |
| OE5DXL-15 | 2026-08-31 11:01:33 | 48.18922 | 12.11989 | 25° | 16km/h | 19952m | -21.9m/s | -54.4°C | 4.7% | 59.2hPa | 2.7V | 00:00:00 | 00:00:00 | 00:00:00 | |
| BAUMI2-15 | 2026-08-31 11:01:32 | 48.18915 | 12.11985 | 29° | 27km/h | 19974m | -22.8m/s | -54.5°C | 4.8% | 59.1hPa | 2.7V | 00:00:00 | 01:29:25 | 00:00:00 | |
| DK5PH-5 | 2026-08-31 11:01:30 | 48.18903 | 12.11975 | 32° | 15km/h | 20020m | -24.2m/s | -54.7°C | 4.9% | 58.7hPa | 2.7V | 00:00:00 | 01:29:23 | 00:00:00 | |
| DO3MHA-11 | 2026-08-31 11:01:29 | 48.18897 | 12.11969 | 39° | 20km/h | 20045m | -27.4m/s | -54.6°C | 4.8% | 58.5hPa | 2.7V | 00:00:00 | 01:29:22 | 00:00:00 | |
| PETON7-10 | 2026-08-31 11:01:28 | 48.18893 | 12.11963 | 40° | 18km/h | 20072m | -26.5m/s | -54.5°C | 4.8% | 58.2hPa | 2.7V | 00:00:00 | 01:29:21 | 00:00:00 | |
| DM0DOS-11 | 2026-08-31 11:01:28 | 48.18881 | 12.11947 | 51° | 22km/h | 20150m | -26.2m/s | -54.6°C | 4.8% | 57.6hPa | 2.7V | 02:05:33 | 01:29:18 | 00:00:00 | |
| OE5MMP-10 | 2026-08-31 11:01:27 | 48.18888 | 12.11958 | 37° | 18km/h | 20099m | -26.8m/s | -54.6°C | 4.7% | 58.0hPa | 2.7V | 00:00:00 | 01:29:20 | 00:00:00 | |
| DH7VM-15 | 2026-08-31 11:01:26 | 48.18888 | 12.11958 | 37° | 20km/h | 20099m | -26.9m/s | -54.6°C | 1.5% | 58.1hPa | 2.7V | 00:00:00 | 00:00:00 | 00:00:00 | |
| DO3MHA-12 | 2026-08-31 11:01:25 | 48.18881 | 12.11947 | 52° | 18km/h | 20151m | -26.2m/s | -54.6°C | 4.8% | 57.5hPa | 2.7V | 00:00:00 | 01:29:18 | 00:00:00 | |
| OM5KV | 2026-08-31 11:01:23 | 48.18878 | 12.11940 | 56° | 24km/h | 20177m | -26.7m/s | -54.5°C | 1.5% | 57.3hPa | 2.7V | 02:05:00 | 00:00:00 | 00:00:00 | |
| BAUMI2-15 | 2026-08-31 11:01:22 | 48.18871 | 12.11928 | 51° | 16km/h | 20229m | -25.8m/s | -54.2°C | 4.6% | 56.8hPa | 2.7V | 00:00:00 | 01:29:15 | 00:00:00 | |
| DG1MJG | 2026-08-31 11:01:20 | 48.18869 | 12.11923 | 60° | 16km/h | 20254m | -25.7m/s | -54.0°C | 1.4% | 56.6hPa | 2.7V | 02:06:00 | 00:00:00 | 00:00:00 | |
| DO3MHA-11 | 2026-08-31 11:01:19 | 48.18863 | 12.11912 | 46° | 11km/h | 20304m | -25.4m/s | -53.6°C | 4.4% | 56.2hPa | 2.7V | 02:05:00 | 01:29:12 | 00:00:00 | |
| OE5MMP-10 | 2026-08-31 11:01:17 | 48.18858 | 12.11904 | 46° | 11km/h | 20355m | -24.1m/s | -53.6°C | 4.4% | 55.7hPa | 2.6V | 02:05:00 | 01:29:10 | 00:00:00 | |
| DL9SK-14 | 2026-08-31 11:01:16 | 48.18853 | 12.11900 | 13° | 9km/h | 20403m | -24.6m/s | -53.6°C | 1.4% | 55.4hPa | 2.6V | 00:00:00 | 00:00:00 | 00:00:00 | |
| DO3MHA-12 | 2026-08-31 11:01:15 | 48.18853 | 12.11900 | 14° | 9km/h | 20404m | -24.5m/s | -53.6°C | 4.5% | 55.3hPa | 2.6V | 02:05:00 | 01:29:08 | 00:00:00 | |
| PETON7-10 | 2026-08-31 11:01:13 | 48.18847 | 12.11896 | 17° | 11km/h | 20452m | -25.9m/s | -53.4°C | 4.4% | 54.9hPa | 2.7V | 02:05:00 | 00:00:00 | 00:00:00 | |
| DM0DOS-11 | 2026-08-31 11:01:12 | 48.18833 | 12.11881 | 30° | 7km/h | 20653m | -24.6m/s | -53.6°C | 4.5% | 53.2hPa | 2.7V | 02:05:53 | 01:28:58 | 00:00:00 | |
| DL1ZP-14 | 2026-08-31 11:01:12 | 48.18844 | 12.11893 | 44° | 9km/h | 20503m | -24.7m/s | -53.2°C | 1.3% | 54.5hPa | 2.6V | 00:00:00 | 00:00:00 | 00:00:00 | |
| OE5REO-15 | 2026-08-31 11:01:11 | 48.18844 | 12.11893 | 46° | 9km/h | 20503m | -24.7m/s | -53.2°C | 0% | 54.5hPa | 2.6V | 00:00:00 | 00:00:00 | 00:00:00 | |
| OE3JTB-15 | 2026-08-31 11:01:10 | 48.18842 | 12.11890 | 47° | 9km/h | 20528m | -24.9m/s | -53.3°C | 4.3% | 54.3hPa | 2.6V | 00:00:00 | 01:29:03 | 00:00:00 | |
| NBG1-10 | 2026-08-31 11:01:08 | 48.18839 | 12.11886 | 50° | 11km/h | 20578m | -25.2m/s | -53.5°C | 4.4% | 53.8hPa | 2.6V | 00:00:00 | 01:29:01 | 00:00:00 | |
| OE5MMP-10 | 2026-08-31 11:01:07 | 48.18837 | 12.11884 | 38° | 11km/h | 20603m | -25.8m/s | -53.6°C | 4.5% | 53.6hPa | 2.6V | 00:00:00 | 01:29:00 | 00:00:00 | |
| OM5KV | 2026-08-31 11:01:06 | 48.18837 | 12.11884 | 38° | 9km/h | 20603m | -25.8m/s | -53.6°C | 1.4% | 53.7hPa | 2.6V | 02:06:00 | 00:00:00 | 00:00:00 | |
| DO3MHA-12 | 2026-08-31 11:01:05 | 48.18833 | 12.11881 | 31° | 11km/h | 20653m | -24.5m/s | -53.5°C | 4.5% | 53.2hPa | 2.6V | 00:00:00 | 01:28:58 | 00:00:00 | |
| DG1MFX-10 | 2026-08-31 11:01:04 | 48.18833 | 12.11881 | 31° | 7km/h | 20653m | -24.6m/s | -53.6°C | 1.4% | 53.2hPa | 2.6V | 02:06:00 | 00:00:00 | 00:00:00 | |
| OE5DXL-15 | 2026-08-31 11:01:03 | 48.18829 | 12.11878 | 27° | 11km/h | 20702m | -23.8m/s | -53.5°C | 4.5% | 52.8hPa | 2.6V | 02:05:00 | 00:00:00 | 00:00:00 | |
| DB0UT-7 | 2026-08-31 11:01:02 | 48.18826 | 12.11877 | 15° | 11km/h | 20725m | -23.5m/s | -53.5°C | 4.5% | 52.6hPa | 2.7V | 00:00:00 | 00:00:00 | 00:00:00 | |
| DM0DOS-11 | 2026-08-31 11:01:00 | 48.18757 | 12.11867 | 68° | 11km/h | 21569m | -24.5m/s | -53.2°C | 4% | 46.1hPa | 2.7V | 02:06:27 | 01:28:24 | 00:00:00 | |
| DL6DJ-15 | 2026-08-31 11:00:59 | 48.18818 | 12.11872 | 32° | 15km/h | 20798m | -26.3m/s | -53.8°C | 1.4% | 52.0hPa | 2.7V | 00:00:00 | 00:00:00 | 00:00:00 | |
| DF7PN | 2026-08-31 11:00:58 | 48.18814 | 12.11869 | 24° | 13km/h | 20824m | -26.2m/s | -53.9°C | 1.4% | 51.8hPa | 2.7V | 00:00:00 | 00:00:00 | 00:00:00 | |
| OE5MMP-10 | 2026-08-31 11:00:57 | 48.18811 | 12.11867 | 40° | 7km/h | 20850m | -25.8m/s | -53.7°C | 4.5% | 51.6hPa | 2.7V | 00:00:00 | 01:28:50 | 00:00:00 | |
| DG1MJG | 2026-08-31 11:00:56 | 48.18802 | 12.11861 | 218° | 5km/h | 21016m | -29.0m/s | -52.9°C | 1.3% | 50.3hPa | 2.7V | 02:06:00 | 00:00:00 | 00:00:00 | |
| PG1ADW-2 | 2026-08-31 11:00:55 | 48.18782 | 12.11892 | 347° | 16km/h | 21321m | -29.3m/s | -53.2°C | 4.3% | 47.9hPa | 2.7V | 00:00:00 | 00:00:00 | 00:00:00 | |
| DO3MHA-11 | 2026-08-31 11:00:54 | 48.18778 | 12.11892 | 2° | 15km/h | 21350m | -28.5m/s | -53.3°C | 4.3% | 47.7hPa | 2.7V | 00:00:00 | 01:28:32 | 00:00:00 | |
| OE5WHR-10 | 2026-08-31 11:00:53 | 48.18764 | 12.11884 | 44° | 16km/h | 21462m | -27.9m/s | -53.4°C | 4.2% | 46.9hPa | 2.7V | 00:00:00 | 01:28:28 | 00:00:00 | |
| OE5DXL-15 | 2026-08-31 11:00:52 | 48.18760 | 12.11876 | 64° | 16km/h | 21517m | -25.7m/s | -53.2°C | 4.0% | 46.5hPa | 2.7V | 00:00:00 | 00:00:00 | 00:00:00 | |
| DK5PH-5 | 2026-08-31 11:00:51 | 48.18756 | 12.11863 | 56° | 16km/h | 21594m | -24.2m/s | -53.1°C | 4.1% | 45.9hPa | 2.7V | 00:00:00 | 01:28:23 | 00:00:00 | |
| DO3MHA-11 | 2026-08-31 11:00:48 | 48.18753 | 12.11860 | 28° | 20km/h | 21617m | -21.9m/s | -53.2°C | 4.1% | 45.7hPa | 2.7V | 00:00:00 | 01:28:22 | 00:00:00 | |
| DL6DJ-15 | 2026-08-31 11:00:45 | 48.18750 | 12.11858 | 13° | 18km/h | 21637m | -20.1m/s | -53.2°C | 1.3% | 45.6hPa | 2.7V | 00:00:00 | 00:00:00 | 00:00:00 | |
| OE5MMP-10 | 2026-08-31 11:00:38 | 48.18745 | 12.11856 | 16° | 20km/h | 21654m | -13.6m/s | -53.1°C | 4.3% | 45.4hPa | 2.7V | 00:00:00 | 01:28:20 | 00:00:00 | |
| OM5KV | 2026-08-31 11:00:36 | 48.18745 | 12.11856 | 16° | 22km/h | 21654m | -13.7m/s | -53.2°C | 1.3% | 45.4hPa | 2.7V | 02:07:00 | 00:00:00 | 00:00:00 | |
| DO3MHA-12 | 2026-08-31 11:00:25 | 48.18734 | 12.11854 | 8° | 18km/h | 21663m | 4.4m/s | -53.0°C | 4.3% | 45.2hPa | 2.7V | 00:00:00 | 01:28:18 | 00:00:00 | |
| OM5KV | 2026-08-31 11:00:24 | 48.18734 | 12.11854 | 8° | 20km/h | 21663m | 4.5m/s | -53.1°C | 1.3% | 45.3hPa | 2.7V | 02:07:00 | 00:00:00 | 00:00:00 | |
| DG1MFX-10 | 2026-08-31 11:00:23 | 48.18729 | 12.11853 | 11° | 20km/h | 21659m | 4.8m/s | -53.1°C | 1.4% | 45.3hPa | 2.7V | 02:07:00 | 00:00:00 | 00:00:00 | |
| PG1ADW-2 | 2026-08-31 11:00:20 | 48.18710 | 12.11845 | 7° | 16km/h | 21637m | 5.7m/s | -53.2°C | 4.5% | 45.4hPa | 2.7V | 00:00:00 | 01:28:13 | 00:00:00 | |
| DM0DOS-11 | 2026-08-31 11:00:19 | 48.18689 | 12.11837 | 21° | 15km/h | 21610m | 5m/s | -53.1°C | 4.3% | 45.6hPa | 2.7V | 02:06:43 | 01:28:08 | 00:00:00 | |
| DO3MHA-11 | 2026-08-31 11:00:19 | 48.18705 | 12.11845 | 7° | 16km/h | 21633m | 4.0m/s | -53.1°C | 4.4% | 45.5hPa | 2.7V | 02:06:00 | 01:28:12 | 00:00:00 | |
| OE5MMP-10 | 2026-08-31 11:00:17 | 48.18697 | 12.11841 | 24° | 15km/h | 21622m | 5.5m/s | -53.1°C | 4.4% | 45.5hPa | 2.6V | 02:06:00 | 01:28:10 | 00:00:00 | |
| DO3MHA-12 | 2026-08-31 11:00:16 | 48.18689 | 12.11837 | 22° | 13km/h | 21611m | 5.0m/s | -53.0°C | 4.3% | 45.6hPa | 2.7V | 02:06:00 | 01:28:08 | 00:00:00 | |
| OM5KV | 2026-08-31 11:00:14 | 48.18686 | 12.11834 | 28° | 15km/h | 21606m | 4.3m/s | -53.1°C | 1.3% | 45.7hPa | 2.7V | 02:07:00 | 00:00:00 | 00:00:00 | |
| OE3JTB-15 | 2026-08-31 11:00:12 | 48.18680 | 12.11828 | 48° | 18km/h | 21595m | 4.9m/s | -53.1°C | 4.3% | 45.7hPa | 2.7V | 00:00:00 | 00:00:00 | 00:00:00 | |
| PETON7-10 | 2026-08-31 11:00:11 | 48.18677 | 12.11823 | 51° | 16km/h | 21590m | 4.3m/s | -53.1°C | 4.2% | 45.7hPa | 2.7V | 00:00:00 | 00:00:00 | 00:00:00 | |
| DO3MHA-11 | 2026-08-31 11:00:09 | 48.18672 | 12.11817 | 32° | 16km/h | 21580m | 5.4m/s | -53.1°C | 4.2% | 45.8hPa | 2.7V | 00:00:00 | 01:28:02 | 00:00:00 | |
| OE5REO-15 | 2026-08-31 11:00:08 | 48.18673 | 12.11817 | 33° | 11km/h | 21580m | 5.5m/s | -53.1°C | 0% | 45.8hPa | 2.7V | 02:07:00 | 00:00:00 | 00:00:00 | |
| DB0NH | 2026-08-31 11:00:07 | 48.18668 | 12.11813 | 32° | 20km/h | 21569m | 5.4m/s | -53.1°C | 4.2% | 45.9hPa | 2.7V | 00:00:00 | 01:28:00 | 00:00:00 | |
| DO3MHA-12 | 2026-08-31 11:00:05 | 48.18663 | 12.11807 | 36° | 20km/h | 21559m | 4.1m/s | -53.0°C | 4.2% | 45.9hPa | 2.7V | 00:00:00 | 01:27:58 | 00:00:00 | |
| DM0DOS-11 | 2026-08-31 11:00:03 | 48.18636 | 12.11787 | 25° | 24km/h | 21527m | 5.4m/s | -53.3°C | 4.4% | 46.2hPa | 2.7V | 02:06:59 | 01:27:52 | 00:00:00 | |
| DL6DJ-15 | 2026-08-31 10:59:57 | 48.18624 | 12.11781 | 18° | 24km/h | 21517m | 4.5m/s | -53.3°C | 1.3% | 46.3hPa | 2.7V | 00:00:00 | 00:00:00 | 00:00:00 | |
| DF7PN | 2026-08-31 10:59:56 | 48.18614 | 12.11774 | 29° | 20km/h | 21506m | 5.7m/s | -53.4°C | 1.3% | 46.4hPa | 2.7V | 00:00:00 | 00:00:00 | 00:00:00 | |
| SONDE2-11 | 2026-08-31 10:59:54 | 48.18606 | 12.11767 | 30° | 18km/h | 21495m | 6.4m/s | -53.4°C | 1.3% | 46.5hPa | 2.7V | 00:00:00 | 00:00:00 | 00:00:00 | |
| OE5WHR-10 | 2026-08-31 10:59:53 | 48.18606 | 12.11767 | 31° | 20km/h | 21495m | 6.3m/s | -53.3°C | 4.3% | 46.4hPa | 2.7V | 00:00:00 | 00:00:00 | 00:00:00 | |
| OE5DRO-10 | 2026-08-31 10:59:52 | 48.18602 | 12.11763 | 30° | 20km/h | 21490m | 4.5m/s | -53.3°C | 4.3% | 46.5hPa | 2.7V | 00:00:00 | 00:00:00 | 00:00:00 | |
| OM5KV | 2026-08-31 10:59:51 | 48.18598 | 12.11760 | 38° | 16km/h | 21484m | 6.1m/s | -53.5°C | 1.3% | 46.6hPa | 2.7V | 02:07:00 | 00:00:00 | 00:00:00 | |
| DO3MHA-11 | 2026-08-31 10:59:49 | 48.18591 | 12.11751 | 42° | 22km/h | 21474m | 4.6m/s | -53.4°C | 4.4% | 46.6hPa | 2.7V | 02:07:00 | 01:27:42 | 00:00:00 | |
| OE5MMP-10 | 2026-08-31 10:59:47 | 48.18583 | 12.11743 | 22° | 22km/h | 21463m | 4.6m/s | -53.4°C | 4.5% | 46.6hPa | 2.6V | 02:07:00 | 01:27:40 | 00:00:00 | |
| OE3JTB-15 | 2026-08-31 10:59:43 | 48.18562 | 12.11734 | 12° | 16km/h | 21444m | 4.5m/s | -53.5°C | 4.5% | 46.8hPa | 2.7V | 00:00:00 | 01:27:36 | 00:00:00 | |
| DG1MFX-10 | 2026-08-31 10:59:42 | 48.18562 | 12.11734 | 13° | 22km/h | 21444m | 4.5m/s | -53.6°C | 1.4% | 46.9hPa | 2.7V | 02:07:00 | 00:00:00 | 00:00:00 | |
| PETON7-10 | 2026-08-31 10:59:41 | 48.18551 | 12.11732 | 4° | 16km/h | 21434m | 4.7m/s | -53.4°C | 4.5% | 46.9hPa | 2.7V | 02:07:00 | 00:00:00 | 00:00:00 | |
| PG1ADW-2 | 2026-08-31 10:59:40 | 48.18545 | 12.11731 | 6° | 16km/h | 21429m | 5.2m/s | -53.5°C | 4.4% | 46.9hPa | 2.6V | 00:00:00 | 00:00:00 | 00:00:00 | |
| DO3MHA-11 | 2026-08-31 10:59:39 | 48.18540 | 12.11730 | 14° | 16km/h | 21423m | 5.5m/s | -53.4°C | 4.3% | 46.9hPa | 2.6V | 00:00:00 | 01:27:32 | 00:00:00 | |
| DL1ZP-14 | 2026-08-31 10:59:38 | 48.18535 | 12.11728 | 19° | 18km/h | 21418m | 4.4m/s | -53.5°C | 1.3% | 47.0hPa | 2.6V | 00:00:00 | 00:00:00 | 00:00:00 | |
| OE5MMP-10 | 2026-08-31 10:59:37 | 48.18531 | 12.11726 | 20° | 16km/h | 21413m | 5.9m/s | -53.5°C | 4.3% | 47.0hPa | 2.6V | 00:00:00 | 01:27:30 | 00:00:00 | |
| OM5KV | 2026-08-31 10:59:36 | 48.18531 | 12.11726 | 21° | 18km/h | 21413m | 5.9m/s | -53.5°C | 1.3% | 47.1hPa | 2.6V | 02:08:00 | 00:00:00 | 00:00:00 | |
| OE5DXL-15 | 2026-08-31 10:59:33 | 48.18514 | 12.11718 | 18° | 13km/h | 21392m | 5.5m/s | -53.3°C | 4.5% | 47.2hPa | 2.6V | 02:07:00 | 00:00:00 | 00:00:00 | |
| OE5WHR-10 | 2026-08-31 10:59:32 | 48.18512 | 12.11717 | 4° | 15km/h | 21387m | 4.6m/s | -53.3°C | 4.5% | 47.2hPa | 2.6V | 00:00:00 | 01:27:25 | 00:00:00 | |
| DK5PH-5 | 2026-08-31 10:59:30 | 48.18505 | 12.11719 | 343° | 13km/h | 21377m | 4.6m/s | -53.3°C | 4.5% | 47.3hPa | 2.6V | 02:07:00 | 01:27:23 | 00:00:00 | |
| DO3MHA-11 | 2026-08-31 10:59:29 | 48.18501 | 12.11720 | 341° | 16km/h | 21371m | 5.5m/s | -53.4°C | 4.5% | 47.3hPa | 2.7V | 00:00:00 | 01:27:22 | 00:00:00 | |
| OE5MMP-10 | 2026-08-31 10:59:27 | 48.18493 | 12.11725 | 340° | 15km/h | 21361m | 5.0m/s | -53.4°C | 4.4% | 47.4hPa | 2.7V | 00:00:00 | 01:27:20 | 00:00:00 | |
| PETON7-10 | 2026-08-31 10:59:26 | 48.18488 | 12.11727 | 343° | 15km/h | 21355m | 6.3m/s | -53.3°C | 4.3% | 47.4hPa | 2.7V | 00:00:00 | 00:00:00 | 00:00:00 | |
| DO3MHA-12 | 2026-08-31 10:59:25 | 48.18483 | 12.11729 | 348° | 13km/h | 21350m | 4.0m/s | -53.3°C | 4.3% | 47.5hPa | 2.7V | 00:00:00 | 01:27:18 | 00:00:00 | |
| OM5KV | 2026-08-31 10:59:24 | 48.18478 | 12.11730 | 353° | 18km/h | 21345m | 4.9m/s | -53.4°C | 1.3% | 47.6hPa | 2.7V | 02:08:00 | 00:00:00 | 00:00:00 | |
| SONDE2-11 | 2026-08-31 10:59:23 | 48.18471 | 12.11730 | 13° | 9km/h | 21334m | 4.8m/s | -53.2°C | 1.3% | 47.6hPa | 2.7V | 00:00:00 | 00:00:00 | 00:00:00 | |
| DB0UT-7 | 2026-08-31 10:59:22 | 48.18471 | 12.11730 | 14° | 13km/h | 21334m | 4.7m/s | -53.2°C | 4.4% | 47.6hPa | 2.7V | 00:00:00 | 01:27:15 | 00:00:00 | |
| OM5KV | 2026-08-31 10:59:21 | 48.18471 | 12.11730 | 14° | 11km/h | 21334m | 4.8m/s | -53.2°C | 1.3% | 47.6hPa | 2.7V | 02:08:00 | 00:00:00 | 00:00:00 | |
| PG1ADW-2 | 2026-08-31 10:59:20 | 48.18466 | 12.11728 | 14° | 11km/h | 21324m | 5.5m/s | -53.1°C | 4.4% | 47.7hPa | 2.7V | 00:00:00 | 00:00:00 | 00:00:00 | |
| DO3MHA-11 | 2026-08-31 10:59:19 | 48.18464 | 12.11728 | 352° | 13km/h | 21319m | 4.5m/s | -53.1°C | 4.3% | 47.7hPa | 2.7V | 02:07:00 | 01:27:12 | 00:00:00 | |
| DM0DOS-11 | 2026-08-31 10:59:17 | 48.18459 | 12.11737 | 286° | 15km/h | 21303m | 4.6m/s | -53°C | 4.3% | 47.9hPa | 2.6V | 02:07:42 | 01:27:09 | 00:00:00 | |
| OE5MMP-10 | 2026-08-31 10:59:17 | 48.18460 | 12.11733 | 302° | 13km/h | 21309m | 6.6m/s | -53.0°C | 4.3% | 47.8hPa | 2.6V | 02:07:00 | 01:27:10 | 00:00:00 | |
| OM5KV | 2026-08-31 10:59:16 | 48.18458 | 12.11737 | 288° | 15km/h | 21303m | 4.6m/s | -53.0°C | 1.3% | 47.9hPa | 2.6V | 02:08:00 | 00:00:00 | 00:00:00 | |
| DO3MHA-12 | 2026-08-31 10:59:15 | 48.18457 | 12.11743 | 290° | 13km/h | 21298m | 4.9m/s | -53.0°C | 4.3% | 47.9hPa | 2.6V | 02:07:00 | 01:27:08 | 00:00:00 | |
| OE5DRO-10 | 2026-08-31 10:59:14 | 48.18456 | 12.11749 | 297° | 15km/h | 21293m | 5.5m/s | -53.0°C | 4.3% | 47.9hPa | 2.7V | 02:07:00 | 00:00:00 | 00:00:00 | |
| DL9SK-14 | 2026-08-31 10:59:12 | 48.18450 | 12.11763 | 302° | 11km/h | 21278m | 5.9m/s | -53.0°C | 1.3% | 48.1hPa | 2.6V | 00:00:00 | 00:00:00 | 00:00:00 | |
| OE5WHR-10 | 2026-08-31 10:59:11 | 48.18449 | 12.11763 | 303° | 13km/h | 21279m | 5.8m/s | -53.0°C | 4.3% | 48.0hPa | 2.6V | 02:07:00 | 00:00:00 | 00:00:00 | |
| PETON7-10 | 2026-08-31 10:59:10 | 48.18448 | 12.11767 | 297° | 15km/h | 21273m | 4.7m/s | -53.0°C | 4.3% | 48.1hPa | 2.6V | 00:00:00 | 01:27:03 | 00:00:00 | |
| DO3MHA-11 | 2026-08-31 10:59:09 | 48.18447 | 12.11769 | 304° | 11km/h | 21269m | 3.8m/s | -53.0°C | 4.3% | 48.1hPa | 2.6V | 00:00:00 | 01:27:02 | 00:00:00 | |
| DM0DOS-11 | 2026-08-31 10:59:07 | 48.18441 | 12.11775 | 343° | 11km/h | 21253m | 4m/s | -53.1°C | 4.2% | 48.2hPa | 2.6V | 02:07:52 | 01:26:59 | 00:00:00 | |
| OM5KV | 2026-08-31 10:59:07 | 48.18444 | 12.11773 | 340° | 11km/h | 21258m | 5.7m/s | -53.1°C | 1.3% | 48.2hPa | 2.6V | 02:08:00 | 00:00:00 | 00:00:00 | |
| OE5REO-15 | 2026-08-31 10:59:06 | 48.18444 | 12.11773 | 340° | 11km/h | 21258m | 5.7m/s | -53.1°C | 0% | 48.2hPa | 2.6V | 02:08:00 | 00:00:00 | 00:00:00 | |
| DO3MHA-12 | 2026-08-31 10:59:05 | 48.18438 | 12.11776 | 338° | 16km/h | 21249m | 5.4m/s | -53.1°C | 4.3% | 48.2hPa | 2.6V | 00:00:00 | 01:26:58 | 00:00:00 | |
| OM5KV | 2026-08-31 10:59:04 | 48.18439 | 12.11776 | 339° | 9km/h | 21249m | 5.5m/s | -53.2°C | 1.3% | 48.3hPa | 2.6V | 02:08:00 | 00:00:00 | 00:00:00 | |
| OE5DXL-15 | 2026-08-31 10:59:03 | 48.18436 | 12.11780 | 288° | 11km/h | 21238m | 4.6m/s | -53.2°C | 4.4% | 48.3hPa | 2.6V | 00:00:00 | 00:00:00 | 00:00:00 | |
| DG1MFX-10 | 2026-08-31 10:59:01 | 48.18435 | 12.11784 | 284° | 13km/h | 21233m | 6.2m/s | -53.3°C | 1.4% | 48.4hPa | 2.6V | 02:08:00 | 00:00:00 | 00:00:00 | |
| DK5PH-5 | 2026-08-31 10:59:00 | 48.18434 | 12.11796 | 268° | 11km/h | 21223m | 4.7m/s | -53.3°C | 4.4% | 48.4hPa | 2.6V | 00:00:00 | 01:26:53 | 00:00:00 | |
| DO3MHA-11 | 2026-08-31 10:58:59 | 48.18435 | 12.11803 | 258° | 15km/h | 21217m | 6.5m/s | -53.3°C | 4.4% | 48.5hPa | 2.6V | 00:00:00 | 01:26:52 | 00:00:00 | |
| DM0DOS-11 | 2026-08-31 10:58:57 | 48.18440 | 12.11840 | 274° | 13km/h | 21191m | 5.3m/s | -53.2°C | 4.4% | 48.7hPa | 2.6V | 02:08:04 | 01:26:47 | 00:00:00 | |
| DL6DJ-15 | 2026-08-31 10:58:55 | 48.18440 | 12.11835 | 270° | 15km/h | 21196m | 4.1m/s | -53.2°C | 1.3% | 48.7hPa | 2.7V | 00:00:00 | 00:00:00 | 00:00:00 | |
| DF7PN | 2026-08-31 10:58:54 | 48.18440 | 12.11844 | 270° | 7km/h | 21186m | 5.8m/s | -53.2°C | 1.3% | 48.8hPa | 2.7V | 00:00:00 | 00:00:00 | 00:00:00 | |
| SONDE2-11 | 2026-08-31 10:58:52 | 48.18439 | 12.11849 | 303° | 4km/h | 21175m | 6.0m/s | -53.1°C | 1.3% | 48.8hPa | 2.7V | 00:00:00 | 00:00:00 | 00:00:00 | |
| OE5WHR-10 | 2026-08-31 10:58:50 | 48.18438 | 12.11850 | 316° | 9km/h | 21170m | 5.1m/s | -53.1°C | 4.4% | 48.8hPa | 2.7V | 00:00:00 | 00:00:00 | 00:00:00 | |
| OE5REO-15 | 2026-08-31 10:58:49 | 48.18438 | 12.11852 | 298° | 4km/h | 21165m | 4.6m/s | -53.2°C | 0% | 48.9hPa | 2.7V | 02:08:00 | 00:00:00 | 00:00:00 | |
| DG1MJG | 2026-08-31 10:58:48 | 48.18438 | 12.11852 | 298° | 4km/h | 21165m | 4.6m/s | -53.2°C | 1.3% | 48.9hPa | 2.7V | 02:08:00 | 00:00:00 | 00:00:00 | |
| DM0DOS-11 | 2026-08-31 10:58:47 | 48.18443 | 12.11870 | 260° | 16km/h | 21140m | 5m/s | -53.2°C | 4.4% | 49.1hPa | 2.7V | 02:08:14 | 01:26:37 | 00:00:00 | |
| OE5MMP-10 | 2026-08-31 10:58:47 | 48.18438 | 12.11856 | 237° | 11km/h | 21154m | 4.0m/s | -53.1°C | 4.4% | 48.9hPa | 2.6V | 02:08:00 | 01:26:40 | 00:00:00 | |
| DO3MHA-12 | 2026-08-31 10:58:45 | 48.18441 | 12.11864 | 250° | 11km/h | 21145m | 5.7m/s | -53.2°C | 4.4% | 49.0hPa | 2.7V | 02:08:00 | 01:26:38 | 00:00:00 | |
| DH7VM-15 | 2026-08-31 10:58:44 | 48.18442 | 12.11870 | 261° | 16km/h | 21140m | 5.0m/s | -53.2°C | 1.3% | 49.1hPa | 2.7V | 00:00:00 | 00:00:00 | 00:00:00 | |
| DL9SK-14 | 2026-08-31 10:58:41 | 48.18444 | 12.11890 | 258° | 7km/h | 21120m | 4.1m/s | -53.1°C | 1.4% | 49.3hPa | 2.7V | 00:00:00 | 00:00:00 | 00:00:00 | |
| PETON7-10 | 2026-08-31 10:58:40 | 48.18444 | 12.11890 | 259° | 13km/h | 21120m | 4.1m/s | -53.1°C | 4.4% | 49.2hPa | 2.7V | 00:00:00 | 00:00:00 | 00:00:00 | |
| DO3MHA-11 | 2026-08-31 10:58:39 | 48.18444 | 12.11893 | 276° | 5km/h | 21115m | 6.1m/s | -53.1°C | 4.4% | 49.3hPa | 2.7V | 00:00:00 | 01:26:32 | 00:00:00 | |
| DM0DOS-11 | 2026-08-31 10:58:37 | 48.18440 | 12.11902 | 318° | 7km/h | 21082m | 6.5m/s | -53°C | 4.2% | 49.5hPa | 2.7V | 02:08:25 | 01:26:26 | 00:00:00 | |
| OE5MMP-10 | 2026-08-31 10:58:37 | 48.18443 | 12.11898 | 308° | 5km/h | 21104m | 5.1m/s | -53.0°C | 4.3% | 49.3hPa | 2.6V | 00:00:00 | 01:26:30 | 00:00:00 | |
| DL1ZP-14 | 2026-08-31 10:58:36 | 48.18442 | 12.11900 | 312° | 2km/h | 21092m | 5.0m/s | -53.0°C | 1.3% | 49.5hPa | 2.6V | 00:00:00 | 00:00:00 | 00:00:00 | |
| DO3MHA-12 | 2026-08-31 10:58:35 | 48.18442 | 12.11900 | 313° | 7km/h | 21093m | 5.0m/s | -53.0°C | 4.3% | 49.4hPa | 2.7V | 00:00:00 | 01:26:28 | 00:00:00 | |
| OE5DXL-15 | 2026-08-31 10:58:33 | 48.18440 | 12.11902 | 319° | 11km/h | 21082m | 6.4m/s | -53.0°C | 4.2% | 49.5hPa | 2.7V | 00:00:00 | 01:26:26 | 00:00:00 | |
| OE5REO-15 | 2026-08-31 10:58:32 | 48.18438 | 12.11906 | 315° | 7km/h | 21071m | 5.8m/s | -53.0°C | 0% | 49.6hPa | 2.7V | 00:00:00 | 00:00:00 | 00:00:00 | |
| DK5PH-5 | 2026-08-31 10:58:31 | 48.18436 | 12.11908 | 311° | 13km/h | 21066m | 5.5m/s | -52.9°C | 4.3% | 49.6hPa | 2.7V | 00:00:00 | 01:26:23 | 00:00:00 | |
| DO3MHA-11 | 2026-08-31 10:58:29 | 48.18435 | 12.11910 | 318° | 9km/h | 21060m | 4.9m/s | -52.9°C | 4.3% | 49.7hPa | 2.7V | 00:00:00 | 01:26:22 | 00:00:00 | |
| OE5MMP-10 | 2026-08-31 10:58:27 | 48.18432 | 12.11913 | 339° | 9km/h | 21049m | 4.4m/s | -52.8°C | 4.3% | 49.8hPa | 2.7V | 00:00:00 | 01:26:20 | 00:00:00 | |
| DM0DOS-11 | 2026-08-31 10:58:25 | 48.18423 | 12.11912 | 20° | 7km/h | 21029m | 4.7m/s | -52.8°C | 4.2% | 50hPa | 2.7V | 02:08:35 | 01:26:16 | 00:00:00 | |
| DO3MHA-12 | 2026-08-31 10:58:25 | 48.18427 | 12.11914 | 9° | 9km/h | 21039m | 6.1m/s | -52.8°C | 4.2% | 49.8hPa | 2.6V | 00:00:00 | 01:26:18 | 00:00:00 | |
| DL6DJ-15 | 2026-08-31 10:58:24 | 48.18425 | 12.11914 | 24° | 7km/h | 21034m | 4.5m/s | -52.8°C | 1.3% | 49.9hPa | 2.6V | 00:00:00 | 00:00:00 | 00:00:00 | |
| DF7PN | 2026-08-31 10:58:23 | 48.18421 | 12.11912 | 7° | 9km/h | 21023m | 6.4m/s | -52.8°C | 1.3% | 50.0hPa | 2.6V | 00:00:00 | 00:00:00 | 00:00:00 | |
| DB0UT-7 | 2026-08-31 10:58:22 | 48.18421 | 12.11912 | 8° | 13km/h | 21024m | 6.3m/s | -52.8°C | 4.2% | 50.0hPa | 2.6V | 02:08:00 | 01:26:15 | 00:00:00 | |
| PG1ADW-2 | 2026-08-31 10:58:20 | 48.18416 | 12.11912 | 350° | 15km/h | 21013m | 6.1m/s | -52.8°C | 4.1% | 50.0hPa | 2.7V | 00:00:00 | 00:00:00 | 00:00:00 | |
| DO3MHA-11 | 2026-08-31 10:58:19 | 48.18414 | 12.11913 | 343° | 11km/h | 21007m | 5.4m/s | -52.9°C | 4.2% | 50.1hPa | 2.7V | 02:08:00 | 01:26:12 | 00:00:00 | |
| OE5MMP-10 | 2026-08-31 10:58:17 | 48.18410 | 12.11916 | 326° | 13km/h | 20996m | 6.5m/s | -53.1°C | 4.3% | 50.2hPa | 2.6V | 02:08:00 | 01:26:10 | 00:00:00 | |
| DM0DOS-11 | 2026-08-31 10:58:15 | 48.18398 | 12.11928 | 4° | 7km/h | 20971m | 4.3m/s | -53.4°C | 4.4% | 50.4hPa | 2.7V | 02:08:46 | 01:26:05 | 00:00:00 | |
| DO3MHA-12 | 2026-08-31 10:58:15 | 48.18404 | 12.11922 | 324° | 15km/h | 20986m | 4.6m/s | -53.2°C | 4.3% | 50.2hPa | 2.6V | 02:08:00 | 01:26:08 | 00:00:00 | |
| OM5KV | 2026-08-31 10:58:14 | 48.18401 | 12.11925 | 324° | 11km/h | 20981m | 5.7m/s | -53.3°C | 1.3% | 50.3hPa | 2.7V | 02:09:00 | 00:00:00 | 00:00:00 | |
| BAUMI2-15 | 2026-08-31 10:58:12 | 48.18397 | 12.11928 | 5° | 15km/h | 20971m | 4.2m/s | -53.4°C | 4.4% | 50.4hPa | 2.7V | 00:00:00 | 01:26:05 | 00:00:00 | |
| OM5KV | 2026-08-31 10:58:09 | 48.18392 | 12.11925 | 27° | 16km/h | 20960m | 5.5m/s | -53.6°C | 1.3% | 50.5hPa | 2.7V | 02:09:00 | 00:00:00 | 00:00:00 | |
| OE5WHR-10 | 2026-08-31 10:58:08 | 48.18384 | 12.11917 | 37° | 13km/h | 20950m | 5.7m/s | -53.6°C | 4.4% | 50.5hPa | 2.7V | 02:08:00 | 00:00:00 | 00:00:00 | |
| DB0NH | 2026-08-31 10:58:07 | 48.18380 | 12.11912 | 41° | 16km/h | 20944m | 5.6m/s | -53.5°C | 4.4% | 50.6hPa | 2.6V | 00:00:00 | 01:26:00 | 00:00:00 | |
| DM0DOS-11 | 2026-08-31 10:58:05 | 48.18354 | 12.11891 | 12° | 13km/h | 20907m | 6m/s | -53.5°C | 4.3% | 50.9hPa | 2.6V | 02:08:58 | 01:25:53 | 00:00:00 | |
| DL1ZP-14 | 2026-08-31 10:58:05 | 48.18368 | 12.11899 | 27° | 18km/h | 20928m | 4.5m/s | -53.5°C | 1.3% | 50.8hPa | 2.6V | 00:00:00 | 00:00:00 | 00:00:00 | |
| OE5DXL-15 | 2026-08-31 10:58:03 | 48.18363 | 12.11896 | 27° | 13km/h | 20923m | 5.8m/s | -53.5°C | 4.3% | 50.8hPa | 2.7V | 02:08:00 | 00:00:00 | 00:00:00 | |
| BAUMI2-15 | 2026-08-31 10:58:02 | 48.18360 | 12.11894 | 25° | 13km/h | 20918m | 5.1m/s | -53.5°C | 4.4% | 50.8hPa | 2.7V | 02:08:00 | 01:25:55 | 00:00:00 | |
| DK5PH-5 | 2026-08-31 10:58:00 | 48.18354 | 12.11890 | 13° | 13km/h | 20907m | 6.0m/s | -53.5°C | 4.3% | 50.9hPa | 2.6V | 02:08:00 | 01:25:53 | 00:00:00 | |
| DO3MHA-11 | 2026-08-31 10:57:59 | 48.18351 | 12.11890 | 13° | 11km/h | 20902m | 5.0m/s | -53.5°C | 4.4% | 50.9hPa | 2.6V | 00:00:00 | 01:25:52 | 00:00:00 | |
| OE5DRO-10 | 2026-08-31 10:57:58 | 48.18347 | 12.11888 | 16° | 11km/h | 20897m | 4.3m/s | -53.4°C | 4.3% | 50.9hPa | 2.6V | 00:00:00 | 00:00:00 | 00:00:00 | |
| OE5MMP-10 | 2026-08-31 10:57:57 | 48.18344 | 12.11887 | 21° | 9km/h | 20893m | 5.2m/s | -53.4°C | 4.3% | 51.0hPa | 2.6V | 00:00:00 | 01:25:50 | 00:00:00 | |
| DO3MHA-12 | 2026-08-31 10:57:55 | 48.18340 | 12.11884 | 16° | 9km/h | 20882m | 4.4m/s | -53.4°C | 4.4% | 51.1hPa | 2.6V | 00:00:00 | 01:25:48 | 00:00:00 | |
| DM0DOS-11 | 2026-08-31 10:57:54 | 48.18328 | 12.11877 | 44° | 11km/h | 20858m | 5.4m/s | -53.7°C | 4.4% | 51.3hPa | 2.6V | 00:00:00 | 01:25:43 | 00:00:00 | |
| DL6DJ-15 | 2026-08-31 10:57:53 | 48.18336 | 12.11883 | 11° | 9km/h | 20872m | 5.5m/s | -53.5°C | 1.4% | 51.2hPa | 2.7V | 00:00:00 | 00:00:00 | 00:00:00 | |
| DF7PN | 2026-08-31 10:57:52 | 48.18330 | 12.11880 | 32° | 11km/h | 20863m | 4.5m/s | -53.6°C | 1.4% | 51.3hPa | 2.7V | 00:00:00 | 00:00:00 | 00:00:00 | |
| BAUMI2-15 | 2026-08-31 10:57:51 | 48.18330 | 12.11880 | 33° | 9km/h | 20863m | 4.5m/s | -53.6°C | 4.4% | 51.2hPa | 2.7V | 00:00:00 | 01:25:44 | 00:00:00 | |
| NBG1-10 | 2026-08-31 10:57:50 | 48.18328 | 12.11877 | 45° | 13km/h | 20858m | 5.4m/s | -53.7°C | 4.4% | 51.3hPa | 2.7V | 00:00:00 | 01:25:43 | 00:00:00 | |
| DO3MHA-11 | 2026-08-31 10:57:49 | 48.18327 | 12.11875 | 48° | 13km/h | 20853m | 4.5m/s | -53.8°C | 4.5% | 51.3hPa | 2.7V | 02:09:00 | 01:25:42 | 00:00:00 | |
| OM5KV | 2026-08-31 10:57:47 | 48.18323 | 12.11872 | 15° | 9km/h | 20843m | 5.7m/s | -53.9°C | 1.4% | 51.4hPa | 2.6V | 02:09:00 | 00:00:00 | 00:00:00 | |
| DO3MHA-12 | 2026-08-31 10:57:45 | 48.18318 | 12.11871 | 10° | 15km/h | 20833m | 5.3m/s | -53.8°C | 4.5% | 51.5hPa | 2.6V | 02:09:00 | 01:25:38 | 00:00:00 | |
| OM5KV | 2026-08-31 10:57:44 | 48.18318 | 12.11871 | 10° | 11km/h | 20833m | 5.3m/s | -53.9°C | 1.4% | 51.5hPa | 2.6V | 02:09:00 | 00:00:00 | 00:00:00 | |
| OM5KV | 2026-08-31 10:57:41 | 48.18308 | 12.11867 | 14° | 16km/h | 20818m | 6.2m/s | -53.8°C | 1.4% | 51.6hPa | 2.6V | 02:09:00 | 00:00:00 | 00:00:00 | |
| BAUMI2-15 | 2026-08-31 10:57:40 | 48.18299 | 12.11865 | 10° | 18km/h | 20807m | 4.7m/s | -53.6°C | 4.6% | 51.7hPa | 2.6V | 00:00:00 | 01:25:33 | 00:00:00 | |
| DL9SK-14 | 2026-08-31 10:57:39 | 48.18291 | 12.11862 | 17° | 13km/h | 20796m | 5.4m/s | -53.7°C | 1.4% | 51.8hPa | 2.6V | 00:00:00 | 00:00:00 | 00:00:00 | |
| DM0DOS-11 | 2026-08-31 10:57:38 | 48.18284 | 12.11858 | 19° | 16km/h | 20785m | 6.2m/s | -53.6°C | 4.4% | 51.9hPa | 2.7V | 00:00:00 | 01:25:29 | 00:00:00 | |
| OE5MMP-10 | 2026-08-31 10:57:37 | 48.18288 | 12.11860 | 22° | 16km/h | 20791m | 4.5m/s | -53.6°C | 4.5% | 51.8hPa | 2.6V | 00:00:00 | 01:25:30 | 00:00:00 | |
| OM5KV | 2026-08-31 10:57:36 | 48.18284 | 12.11858 | 21° | 16km/h | 20786m | 6.2m/s | -53.6°C | 1.4% | 51.9hPa | 2.6V | 02:09:00 | 00:00:00 | 00:00:00 | |
| DO3MHA-12 | 2026-08-31 10:57:35 | 48.18280 | 12.11856 | 20° | 16km/h | 20780m | 4.7m/s | -53.5°C | 4.4% | 51.9hPa | 2.6V | 00:00:00 | 01:25:28 | 00:00:00 | |
| DL1ZP-14 | 2026-08-31 10:57:34 | 48.18271 | 12.11851 | 21° | 16km/h | 20770m | 6.2m/s | -53.6°C | 1.4% | 52.0hPa | 2.6V | 00:00:00 | 00:00:00 | 00:00:00 | |
| OE5DXL-15 | 2026-08-31 10:57:33 | 48.18271 | 12.11851 | 22° | 11km/h | 20770m | 6.1m/s | -53.6°C | 4.4% | 52.0hPa | 2.6V | 00:00:00 | 00:00:00 | 00:00:00 | |
| OM5KV | 2026-08-31 10:57:32 | 48.18271 | 12.11851 | 22° | 18km/h | 20770m | 6.2m/s | -53.6°C | 1.4% | 52.0hPa | 2.6V | 02:09:00 | 00:00:00 | 00:00:00 | |
| DH7VM-15 | 2026-08-31 10:57:31 | 48.18267 | 12.11849 | 19° | 18km/h | 20765m | 4.7m/s | -53.6°C | 1.4% | 52.1hPa | 2.6V | 00:00:00 | 00:00:00 | 00:00:00 | |
| DK5PH-5 | 2026-08-31 10:57:30 | 48.18257 | 12.11846 | 3° | 11km/h | 20754m | 5.0m/s | -53.6°C | 4.4% | 52.1hPa | 2.6V | 00:00:00 | 01:25:23 | 00:00:00 | |
| DO3MHA-11 | 2026-08-31 10:57:29 | 48.18253 | 12.11846 | 354° | 9km/h | 20749m | 5.0m/s | -53.6°C | 4.4% | 52.1hPa | 2.6V | 00:00:00 | 01:25:22 | 00:00:00 | |
| DM0DOS-11 | 2026-08-31 10:57:28 | 48.18241 | 12.11849 | 359° | 9km/h | 20728m | 4.5m/s | -53.6°C | 4.4% | 52.4hPa | 2.6V | 00:00:00 | 01:25:18 | 00:00:00 | |
| OM5KV | 2026-08-31 10:57:28 | 48.18249 | 12.11847 | 348° | 13km/h | 20743m | 5.7m/s | -53.6°C | 1.3% | 52.2hPa | 2.6V | 02:09:00 | 00:00:00 | 00:00:00 | |
| OE5MMP-10 | 2026-08-31 10:57:27 | 48.18246 | 12.11848 | 346° | 9km/h | 20739m | 4.0m/s | -53.6°C | 4.3% | 52.2hPa | 2.6V | 00:00:00 | 01:25:20 | 00:00:00 | |
| OE5WHR-10 | 2026-08-31 10:57:26 | 48.18244 | 12.11849 | 350° | 9km/h | 20733m | 6.2m/s | -53.6°C | 4.4% | 52.3hPa | 2.6V | 00:00:00 | 01:25:19 | 00:00:00 | |
| DO3MHA-12 | 2026-08-31 10:57:25 | 48.18241 | 12.11849 | 360° | 9km/h | 20728m | 4.5m/s | -53.6°C | 4.4% | 52.3hPa | 2.6V | 00:00:00 | 01:25:18 | 00:00:00 | |
| DB0UT-7 | 2026-08-31 10:57:22 | 48.18236 | 12.11847 | 42° | 11km/h | 20712m | 4.6m/s | -53.5°C | 4.3% | 52.5hPa | 2.6V | 00:00:00 | 01:25:15 | 00:00:00 | |
| DF7PN | 2026-08-31 10:57:21 | 48.18233 | 12.11844 | 21° | 9km/h | 20701m | 5.4m/s | -53.5°C | 1.3% | 52.6hPa | 2.6V | 00:00:00 | 00:00:00 | 00:00:00 | |
| OE5DRO-10 | 2026-08-31 10:57:20 | 48.18233 | 12.11844 | 22° | 11km/h | 20701m | 5.4m/s | -53.4°C | 4.3% | 52.5hPa | 2.6V | 02:09:00 | 00:00:00 | 00:00:00 | |
| DO3MHA-11 | 2026-08-31 10:57:19 | 48.18230 | 12.11843 | 18° | 7km/h | 20696m | 5.4m/s | -53.5°C | 4.3% | 52.6hPa | 2.6V | 02:09:00 | 01:25:12 | 00:00:00 | |
| SONDE2-11 | 2026-08-31 10:57:18 | 48.18228 | 12.11842 | 9° | 7km/h | 20690m | 6.1m/s | -53.6°C | 1.4% | 52.7hPa | 2.7V | 00:00:00 | 00:00:00 | 00:00:00 | |
| OE5MMP-10 | 2026-08-31 10:57:17 | 48.18226 | 12.11842 | 360° | 7km/h | 20685m | 4.3m/s | -53.6°C | 4.4% | 52.7hPa | 2.7V | 02:09:00 | 01:25:10 | 00:00:00 | |
| DO3MHA-12 | 2026-08-31 10:57:15 | 48.18221 | 12.11842 | 353° | 9km/h | 20674m | 4.4m/s | -53.7°C | 4.4% | 52.7hPa | 2.7V | 02:09:00 | 01:25:08 | 00:00:00 | |
| OE3JTB-15 | 2026-08-31 10:57:14 | 48.18219 | 12.11842 | 350° | 13km/h | 20668m | 6.1m/s | -53.7°C | 4.5% | 52.8hPa | 2.6V | 00:00:00 | 00:00:00 | 00:00:00 | |
| OM5KV | 2026-08-31 10:57:13 | 48.18219 | 12.11842 | 350° | 5km/h | 20668m | 6.1m/s | -53.8°C | 1.4% | 52.9hPa | 2.6V | 02:09:00 | 00:00:00 | 00:00:00 | |
| BAUMI2-15 | 2026-08-31 10:57:12 | 48.18218 | 12.11842 | 27° | 7km/h | 20658m | 5.3m/s | -53.7°C | 4.5% | 52.9hPa | 2.6V | 02:09:00 | 01:25:05 | 00:00:00 | |
| DM0DOS-11 | 2026-08-31 10:57:11 | 48.18203 | 12.11825 | 18° | 20km/h | 20621m | 4.4m/s | -53.8°C | 4.5% | 53.2hPa | 2.6V | 00:00:00 | 01:24:58 | 00:00:00 | |
| OM5KV | 2026-08-31 10:57:11 | 48.18215 | 12.11840 | 45° | 7km/h | 20647m | 4.9m/s | -53.8°C | 1.4% | 53.0hPa | 2.6V | 02:09:00 | 00:00:00 | 00:00:00 | |
| DO3MHA-11 | 2026-08-31 10:57:09 | 48.18214 | 12.11837 | 55° | 16km/h | 20641m | 6.1m/s | -53.8°C | 4.5% | 53.0hPa | 2.6V | 00:00:00 | 01:25:02 | 00:00:00 | |
| OE5MMP-10 | 2026-08-31 10:57:07 | 48.18210 | 12.11831 | 40° | 18km/h | 20632m | 4.4m/s | -53.7°C | 4.5% | 53.1hPa | 2.6V | 00:00:00 | 01:25:00 | 00:00:00 | |
| DO3MHA-12 | 2026-08-31 10:57:05 | 48.18202 | 12.11825 | 19° | 16km/h | 20622m | 4.4m/s | -53.7°C | 4.5% | 53.2hPa | 2.6V | 00:00:00 | 01:24:58 | 00:00:00 | |
| OE5DXL-15 | 2026-08-31 10:57:04 | 48.18192 | 12.11822 | 8° | 13km/h | 20611m | 5.4m/s | -53.6°C | 4.5% | 53.3hPa | 2.6V | 00:00:00 | 00:00:00 | 00:00:00 | |
| DL1ZP-14 | 2026-08-31 10:57:03 | 48.18187 | 12.11821 | 3° | 16km/h | 20606m | 4.9m/s | -53.7°C | 1.4% | 53.4hPa | 2.6V | 00:00:00 | 00:00:00 | 00:00:00 | |
| DL6DJ-15 | 2026-08-31 10:56:51 | 48.18152 | 12.11796 | 6° | 15km/h | 20544m | 4.5m/s | -53.5°C | 1.3% | 53.9hPa | 2.6V | 00:00:00 | 00:00:00 | 00:00:00 | |
| DM0DOS-11 | 2026-08-31 10:56:49 | 48.18134 | 12.11796 | 346° | 15km/h | 20523m | 5.6m/s | -53.6°C | 4.3% | 54hPa | 2.6V | 00:00:00 | 01:24:39 | 00:00:00 | |
| OE5MMP-10 | 2026-08-31 10:56:47 | 48.18138 | 12.11795 | 355° | 9km/h | 20529m | 4.4m/s | -53.5°C | 4.4% | 54.0hPa | 2.6V | 02:10:00 | 01:24:40 | 00:00:00 | |
| OM5KV | 2026-08-31 10:56:46 | 48.18138 | 12.11795 | 355° | 18km/h | 20529m | 4.4m/s | -53.5°C | 1.4% | 54.0hPa | 2.7V | 02:10:00 | 00:00:00 | 00:00:00 | |
| DO3MHA-12 | 2026-08-31 10:56:45 | 48.18130 | 12.11797 | 344° | 9km/h | 20519m | 4.6m/s | -53.6°C | 4.3% | 54.0hPa | 2.7V | 02:10:00 | 01:24:38 | 00:00:00 | |
| OE5WHR-10 | 2026-08-31 10:56:44 | 48.18128 | 12.11798 | 358° | 13km/h | 20513m | 6.1m/s | -53.7°C | 4.4% | 54.1hPa | 2.7V | 00:00:00 | 00:00:00 | 00:00:00 | |
| OE5DRO-10 | 2026-08-31 10:56:43 | 48.18127 | 12.11795 | 102° | 13km/h | 20502m | 4.6m/s | -53.8°C | 4.4% | 54.2hPa | 2.7V | 00:00:00 | 00:00:00 | 00:00:00 | |
| OM5KV | 2026-08-31 10:56:42 | 48.18128 | 12.11792 | 122° | 9km/h | 20497m | 6.1m/s | -53.8°C | 1.3% | 54.3hPa | 2.7V | 02:10:00 | 00:00:00 | 00:00:00 | |
| DO3MHA-11 | 2026-08-31 10:56:39 | 48.18130 | 12.11787 | 99° | 15km/h | 20487m | 4.3m/s | -53.7°C | 4.4% | 54.3hPa | 2.7V | 00:00:00 | 01:24:32 | 00:00:00 | |
| OM5KV | 2026-08-31 10:56:38 | 48.18130 | 12.11787 | 99° | 7km/h | 20487m | 4.4m/s | -53.8°C | 1.4% | 54.4hPa | 2.7V | 02:10:00 | 00:00:00 | 00:00:00 | |
| OE5MMP-10 | 2026-08-31 10:56:37 | 48.18128 | 12.11780 | 46° | 15km/h | 20477m | 4.0m/s | -53.8°C | 4.4% | 54.4hPa | 2.7V | 00:00:00 | 01:24:30 | 00:00:00 | |
| DL9SK-14 | 2026-08-31 10:56:36 | 48.18125 | 12.11777 | 34° | 13km/h | 20472m | 5.7m/s | -53.9°C | 1.3% | 54.5hPa | 2.7V | 00:00:00 | 00:00:00 | 00:00:00 | |
| DG1MFX-10 | 2026-08-31 10:56:35 | 48.18122 | 12.11774 | 27° | 15km/h | 20467m | 5.2m/s | -53.9°C | 1.4% | 54.6hPa | 2.7V | 02:10:00 | 00:00:00 | 00:00:00 | |
| DM0DOS-11 | 2026-08-31 10:56:35 | 48.18105 | 12.11760 | 38° | 13km/h | 20440m | 4.6m/s | -54°C | 4.5% | 54.8hPa | 2.7V | 00:00:00 | 01:24:23 | 00:00:00 | |
| OE5DXL-15 | 2026-08-31 10:56:33 | 48.18115 | 12.11769 | 27° | 18km/h | 20456m | 6.0m/s | -54.0°C | 4.5% | 54.6hPa | 2.7V | 02:10:00 | 00:00:00 | 00:00:00 | |
| DL1ZP-14 | 2026-08-31 10:56:31 | 48.18107 | 12.11763 | 32° | 15km/h | 20445m | 5.9m/s | -54.1°C | 1.4% | 54.7hPa | 2.6V | 00:00:00 | 00:00:00 | 00:00:00 | |
| DK5PH-5 | 2026-08-31 10:56:30 | 48.18104 | 12.11760 | 39° | 16km/h | 20440m | 4.5m/s | -54.0°C | 4.5% | 54.7hPa | 2.7V | 02:10:00 | 01:24:23 | 00:00:00 | |
| DO3MHA-11 | 2026-08-31 10:56:29 | 48.18102 | 12.11756 | 51° | 16km/h | 20436m | 4.1m/s | -54.0°C | 4.5% | 54.8hPa | 2.6V | 00:00:00 | 01:24:22 | 00:00:00 | |
| OM5KV | 2026-08-31 10:56:28 | 48.18102 | 12.11756 | 51° | 13km/h | 20436m | 4.1m/s | -54.1°C | 1.4% | 54.8hPa | 2.6V | 02:10:00 | 00:00:00 | 00:00:00 | |
| OE5MMP-10 | 2026-08-31 10:56:27 | 48.18098 | 12.11747 | 61° | 18km/h | 20426m | 4.3m/s | -54.1°C | 4.6% | 54.8hPa | 2.6V | 00:00:00 | 01:24:20 | 00:00:00 | |
| PG1ADW-2 | 2026-08-31 10:56:26 | 48.18096 | 12.11743 | 60° | 18km/h | 20421m | 6.0m/s | -54.1°C | 4.5% | 54.9hPa | 2.6V | 02:10:00 | 00:00:00 | 00:00:00 | |
| DO3MHA-12 | 2026-08-31 10:56:25 | 48.18095 | 12.11739 | 53° | 20km/h | 20415m | 4.5m/s | -54.0°C | 4.5% | 54.9hPa | 2.7V | 00:00:00 | 01:24:18 | 00:00:00 | |
| OE5WHR-10 | 2026-08-31 10:56:23 | 48.18090 | 12.11730 | 47° | 18km/h | 20406m | 5.6m/s | -54.0°C | 4.5% | 55.0hPa | 2.7V | 00:00:00 | 01:24:16 | 00:00:00 | |
| DB0UT-7 | 2026-08-31 10:56:22 | 48.18086 | 12.11725 | 46° | 20km/h | 20401m | 5.1m/s | -53.9°C | 4.4% | 55.0hPa | 2.7V | 00:00:00 | 01:24:15 | 00:00:00 | |
| DL6DJ-15 | 2026-08-31 10:56:20 | 48.18078 | 12.11713 | 42° | 22km/h | 20391m | 5.9m/s | -54.0°C | 1.3% | 55.2hPa | 2.7V | 00:00:00 | 00:00:00 | 00:00:00 | |
| DM0DOS-11 | 2026-08-31 10:56:19 | 48.18047 | 12.11664 | 63° | 16km/h | 20344m | 5.1m/s | -54°C | 0% | 55.6hPa | 2.7V | 00:00:00 | 01:24:04 | 00:00:00 | |
| DO3MHA-11 | 2026-08-31 10:56:19 | 48.18074 | 12.11708 | 42° | 20km/h | 20386m | 4.6m/s | -53.9°C | 4.4% | 55.2hPa | 2.7V | 02:10:00 | 01:24:12 | 00:00:00 | |
| DF7PN | 2026-08-31 10:56:18 | 48.18070 | 12.11702 | 41° | 20km/h | 20381m | 5.0m/s | -53.9°C | 1.4% | 55.3hPa | 2.6V | 00:00:00 | 00:00:00 | 00:00:00 | |
| OE5MMP-10 | 2026-08-31 10:56:17 | 48.18066 | 12.11696 | 44° | 18km/h | 20376m | 5.9m/s | -53.9°C | 4.4% | 55.3hPa | 2.6V | 02:10:00 | 01:24:10 | 00:00:00 | |
| OE3JTB-15 | 2026-08-31 10:56:16 | 48.18061 | 12.11690 | 45° | 18km/h | 20370m | 4.3m/s | -53.9°C | 4.4% | 55.3hPa | 2.6V | 02:10:00 | 00:00:00 | 00:00:00 | |
| DO3MHA-12 | 2026-08-31 10:56:15 | 48.18057 | 12.11684 | 46° | 16km/h | 20366m | 5.3m/s | -53.9°C | 4.4% | 55.3hPa | 2.6V | 02:10:00 | 01:24:08 | 00:00:00 | |
| DF2AP-13 | 2026-08-31 10:56:14 | 48.18054 | 12.11679 | 47° | 18km/h | 20360m | 5.4m/s | -53.9°C | 4.4% | 55.4hPa | 2.6V | 00:00:00 | 01:24:07 | 00:00:00 | |
| NBG1-10 | 2026-08-31 10:56:11 | 48.18047 | 12.11664 | 64° | 22km/h | 20344m | 5.1m/s | -54.0°C | 4.4% | 55.5hPa | 2.6V | 00:00:00 | 01:24:04 | 00:00:00 | |
| DO3MHA-11 | 2026-08-31 10:56:09 | 48.18043 | 12.11653 | 53° | 16km/h | 20334m | 5.7m/s | -54.1°C | 4.4% | 55.6hPa | 2.6V | 00:00:00 | 01:24:02 | 00:00:00 | |
| OM5KV | 2026-08-31 10:56:08 | 48.18043 | 12.11653 | 54° | 15km/h | 20334m | 5.8m/s | -54.1°C | 1.4% | 55.7hPa | 2.6V | 02:11:00 | 00:00:00 | 00:00:00 | |
| OE5MMP-10 | 2026-08-31 10:56:07 | 48.18038 | 12.11645 | 46° | 18km/h | 20323m | 6.2m/s | -54.1°C | 4.4% | 55.7hPa | 2.6V | 00:00:00 | 01:24:00 | 00:00:00 | |
| DM0DOS-11 | 2026-08-31 10:56:05 | 48.18028 | 12.11631 | 40° | 18km/h | 20308m | 5.5m/s | -54.3°C | 0% | 0hPa | 2.6V | 00:00:00 | 01:23:57 | 00:00:00 | |
| DO3MHA-12 | 2026-08-31 10:56:05 | 48.18031 | 12.11636 | 47° | 18km/h | 20313m | 4.1m/s | -54.1°C | 4.4% | 55.8hPa | 2.7V | 00:00:00 | 01:23:58 | 00:00:00 | |
| OE5DRO-10 | 2026-08-31 10:56:04 | 48.18028 | 12.11631 | 41° | 20km/h | 20309m | 5.4m/s | -54.3°C | 4.5% | 55.9hPa | 2.7V | 00:00:00 | 00:00:00 | 00:00:00 | |
| OE5DXL-15 | 2026-08-31 10:56:03 | 48.18025 | 12.11627 | 39° | 24km/h | 20303m | 5.1m/s | -54.3°C | 4.5% | 55.9hPa | 2.7V | 00:00:00 | 00:00:00 | 00:00:00 | |
| OE5WHR-10 | 2026-08-31 10:56:02 | 48.18022 | 12.11623 | 43° | 22km/h | 20298m | 4.2m/s | -54.3°C | 4.4% | 55.9hPa | 2.7V | 02:10:00 | 00:00:00 | 00:00:00 | |
| DK5PH-5 | 2026-08-31 10:56:00 | 48.18017 | 12.11613 | 68° | 26km/h | 20288m | 5.3m/s | -54.4°C | 4.4% | 56.0hPa | 2.6V | 00:00:00 | 01:23:53 | 00:00:00 | |
| DO3MHA-11 | 2026-08-31 10:55:59 | 48.18016 | 12.11607 | 76° | 22km/h | 20283m | 4.8m/s | -54.4°C | 4.4% | 56.1hPa | 2.6V | 00:00:00 | 01:23:52 | 00:00:00 | |
| OE5MMP-10 | 2026-08-31 10:55:57 | 48.18014 | 12.11592 | 79° | 22km/h | 20273m | 4.6m/s | -54.4°C | 4.4% | 56.2hPa | 2.6V | 00:00:00 | 01:23:50 | 00:00:00 | |
| DM0DOS-11 | 2026-08-31 10:55:54 | 48.18011 | 12.11566 | 83° | 24km/h | 20258m | 4.6m/s | -54.7°C | 0% | 0hPa | 2.6V | 00:00:00 | 01:23:47 | 00:00:00 | |
| DG1MFX-10 | 2026-08-31 10:55:53 | 48.18011 | 12.11566 | 84° | 24km/h | 20258m | 4.6m/s | -54.7°C | 1.4% | 56.3hPa | 2.6V | 02:11:00 | 00:00:00 | 00:00:00 | |
| OM5KV | 2026-08-31 10:55:52 | 48.18010 | 12.11550 | 77° | 20km/h | 20248m | 4.2m/s | -54.8°C | 1.4% | 56.4hPa | 2.6V | 02:11:00 | 00:00:00 | 00:00:00 | |
| DM0DOS-11 | 2026-08-31 10:55:49 | 48.17980 | 12.11478 | 61° | 27km/h | 20202m | 5.9m/s | -54.9°C | 0% | 0hPa | 2.6V | 00:00:00 | 01:23:36 | 00:00:00 | |
| DL6DJ-15 | 2026-08-31 10:55:49 | 48.18000 | 12.11521 | 48° | 22km/h | 20227m | 5.3m/s | -54.9°C | 1.4% | 56.6hPa | 2.7V | 00:00:00 | 00:00:00 | 00:00:00 | |
| OE5MMP-10 | 2026-08-31 10:55:47 | 48.17996 | 12.11514 | 50° | 27km/h | 20222m | 3.8m/s | -54.8°C | 4.6% | 56.6hPa | 2.7V | 02:11:00 | 01:23:40 | 00:00:00 | |
| DH7VM-15 | 2026-08-31 10:55:46 | 48.17996 | 12.11514 | 50° | 26km/h | 20222m | 3.8m/s | -54.9°C | 1.4% | 56.7hPa | 2.6V | 00:00:00 | 00:00:00 | 00:00:00 | |
| DO3MHA-12 | 2026-08-31 10:55:45 | 48.17988 | 12.11498 | 59° | 27km/h | 20212m | 4.8m/s | -54.8°C | 4.6% | 56.7hPa | 2.6V | 02:11:00 | 01:23:38 | 00:00:00 | |
| PG1ADW-2 | 2026-08-31 10:55:43 | 48.17980 | 12.11478 | 62° | 27km/h | 20202m | 5.8m/s | -54.8°C | 4.5% | 56.8hPa | 2.6V | 00:00:00 | 00:00:00 | 00:00:00 | |
| OE5WHR-10 | 2026-08-31 10:55:41 | 48.17973 | 12.11460 | 61° | 27km/h | 20192m | 5.0m/s | -54.9°C | 4.7% | 56.9hPa | 2.6V | 00:00:00 | 00:00:00 | 00:00:00 | |
| OM5KV | 2026-08-31 10:55:40 | 48.17974 | 12.11460 | 61° | 27km/h | 20192m | 5.0m/s | -55.0°C | 1.5% | 57.0hPa | 2.6V | 02:11:00 | 00:00:00 | 00:00:00 | |
| DO3MHA-11 | 2026-08-31 10:55:39 | 48.17966 | 12.11442 | 53° | 27km/h | 20182m | 4.2m/s | -54.9°C | 4.8% | 57.0hPa | 2.6V | 00:00:00 | 01:23:32 | 00:00:00 | |
| DM0DOS-11 | 2026-08-31 10:55:38 | 48.17938 | 12.11413 | 29° | 27km/h | 20155m | 4.6m/s | -54.9°C | 0% | 0hPa | 2.6V | 00:00:00 | 01:23:27 | 00:00:00 | |
| NBG1-10 | 2026-08-31 10:55:38 | 48.17961 | 12.11434 | 46° | 26km/h | 20177m | 5.9m/s | -54.9°C | 4.8% | 57.0hPa | 2.6V | 02:11:00 | 01:23:31 | 00:00:00 | |
| OE5MMP-10 | 2026-08-31 10:55:37 | 48.17956 | 12.11427 | 35° | 26km/h | 20171m | 5.2m/s | -54.9°C | 4.8% | 57.1hPa | 2.7V | 00:00:00 | 01:23:30 | 00:00:00 | |
| DO3MHA-12 | 2026-08-31 10:55:35 | 48.17944 | 12.11418 | 27° | 27km/h | 20161m | 5.9m/s | -54.9°C | 4.7% | 57.2hPa | 2.7V | 00:00:00 | 01:23:28 | 00:00:00 | |
| DL9SK-14 | 2026-08-31 10:55:34 | 48.17938 | 12.11413 | 29° | 26km/h | 20156m | 4.6m/s | -54.9°C | 1.4% | 57.2hPa | 2.7V | 00:00:00 | 00:00:00 | 00:00:00 | |
| OE5DXL-15 | 2026-08-31 10:55:33 | 48.17932 | 12.11408 | 30° | 26km/h | 20151m | 4.5m/s | -54.9°C | 4.6% | 57.2hPa | 2.7V | 00:00:00 | 00:00:00 | 00:00:00 | |
| DG1MFX-10 | 2026-08-31 10:55:32 | 48.17932 | 12.11408 | 31° | 27km/h | 20151m | 4.6m/s | -54.9°C | 1.5% | 57.3hPa | 2.7V | 02:11:00 | 00:00:00 | 00:00:00 | |
| DK5PH-5 | 2026-08-31 10:55:30 | 48.17916 | 12.11394 | 36° | 26km/h | 20135m | 5.6m/s | -54.9°C | 4.6% | 57.4hPa | 2.7V | 00:00:00 | 01:23:23 | 00:00:00 | |
| DO3MHA-11 | 2026-08-31 10:55:29 | 48.17910 | 12.11388 | 41° | 29km/h | 20129m | 5.4m/s | -54.8°C | 4.6% | 57.4hPa | 2.7V | 00:00:00 | 01:23:22 | 00:00:00 | |
| OM5KV | 2026-08-31 10:55:28 | 48.17911 | 12.11388 | 42° | 27km/h | 20129m | 5.5m/s | -54.9°C | 1.4% | 57.5hPa | 2.7V | 02:11:00 | 00:00:00 | 00:00:00 | |
| DM0DOS-11 | 2026-08-31 10:55:27 | 48.17874 | 12.11354 | 20° | 31km/h | 20099m | 5.7m/s | -54.8°C | 0% | 0hPa | 2.7V | 00:00:00 | 01:23:16 | 00:00:00 | |
| OE5MMP-10 | 2026-08-31 10:55:27 | 48.17900 | 12.11373 | 40° | 27km/h | 20120m | 5.2m/s | -54.8°C | 4.7% | 57.5hPa | 2.6V | 00:00:00 | 01:23:20 | 00:00:00 | |
| OE5DRO-10 | 2026-08-31 10:55:26 | 48.17894 | 12.11367 | 33° | 26km/h | 20115m | 5.3m/s | -54.8°C | 4.7% | 57.6hPa | 2.6V | 02:11:00 | 00:00:00 | 00:00:00 | |
| DO3MHA-12 | 2026-08-31 10:55:25 | 48.17888 | 12.11362 | 25° | 27km/h | 20110m | 4.9m/s | -54.8°C | 4.7% | 57.6hPa | 2.7V | 00:00:00 | 01:23:18 | 00:00:00 | |
| PG1ADW-2 | 2026-08-31 10:55:23 | 48.17874 | 12.11354 | 21° | 22km/h | 20099m | 5.6m/s | -54.8°C | 4.7% | 57.7hPa | 2.7V | 00:00:00 | 01:23:16 | 00:00:00 | |
| DB0UT-7 | 2026-08-31 10:55:22 | 48.17866 | 12.11350 | 19° | 24km/h | 20094m | 4.4m/s | -54.8°C | 4.7% | 57.8hPa | 2.7V | 02:11:00 | 01:23:15 | 00:00:00 | |
| OE5WHR-10 | 2026-08-31 10:55:20 | 48.17852 | 12.11344 | 13° | 24km/h | 20084m | 5.1m/s | -54.7°C | 4.7% | 57.9hPa | 2.6V | 00:00:00 | 01:23:13 | 00:00:00 | |
| DO3MHA-11 | 2026-08-31 10:55:19 | 48.17846 | 12.11342 | 15° | 26km/h | 20079m | 4.2m/s | -54.7°C | 4.7% | 57.9hPa | 2.6V | 02:11:00 | 01:23:12 | 00:00:00 | |
| DL6DJ-15 | 2026-08-31 10:55:18 | 48.17834 | 12.11336 | 19° | 26km/h | 20068m | 4.8m/s | -54.8°C | 1.5% | 58.0hPa | 2.7V | 00:00:00 | 00:00:00 | 00:00:00 | |
| DF7PN | 2026-08-31 10:55:17 | 48.17828 | 12.11333 | 17° | 26km/h | 20063m | 6.1m/s | -54.8°C | 1.5% | 58.1hPa | 2.7V | 00:00:00 | 00:00:00 | 00:00:00 | |
| DO3MHA-12 | 2026-08-31 10:55:15 | 48.17821 | 12.11330 | 17° | 24km/h | 20057m | 5.2m/s | -54.8°C | 4.7% | 58.1hPa | 2.7V | 02:11:00 | 01:23:08 | 00:00:00 | |
| SONDE2-11 | 2026-08-31 10:55:14 | 48.17815 | 12.11327 | 19° | 26km/h | 20052m | 6.0m/s | -54.9°C | 1.5% | 58.2hPa | 2.6V | 00:00:00 | 00:00:00 | 00:00:00 | |
| DF2AP-13 | 2026-08-31 10:55:12 | 48.17802 | 12.11320 | 21° | 22km/h | 20042m | 3.9m/s | -54.8°C | 4.6% | 58.2hPa | 2.6V | 02:11:00 | 01:23:05 | 00:00:00 | |
| DG1MFX-10 | 2026-08-31 10:55:11 | 48.17802 | 12.11320 | 21° | 27km/h | 20042m | 3.9m/s | -54.9°C | 1.5% | 58.3hPa | 2.6V | 02:12:00 | 00:00:00 | 00:00:00 | |
| DO3MHA-11 | 2026-08-31 10:55:09 | 48.17785 | 12.11313 | 11° | 20km/h | 20027m | 5.3m/s | -54.8°C | 4.7% | 58.4hPa | 2.6V | 00:00:00 | 01:23:02 | 00:00:00 | |
| OE5MMP-10 | 2026-08-31 10:55:07 | 48.17775 | 12.11310 | 20° | 22km/h | 20017m | 4.4m/s | -54.6°C | 4.7% | 58.5hPa | 2.6V | 00:00:00 | 01:23:00 | 00:00:00 | |
| OM5KV | 2026-08-31 10:55:06 | 48.17775 | 12.11310 | 20° | 20km/h | 20017m | 4.4m/s | -54.7°C | 1.5% | 58.5hPa | 2.6V | 02:12:00 | 00:00:00 | 00:00:00 | |
| NBG1-10 | 2026-08-31 10:55:05 | 48.17767 | 12.11305 | 17° | 20km/h | 20006m | 5.7m/s | -54.6°C | 4.8% | 58.6hPa | 2.6V | 00:00:00 | 01:22:58 | 00:00:00 | |
| DM0DOS-11 | 2026-08-31 10:55:04 | 48.17735 | 12.11294 | 10° | 24km/h | 19975m | 4.8m/s | -54.5°C | 0% | 0hPa | 2.6V | 00:00:00 | 01:22:52 | 00:00:00 | |
| DL1ZP-14 | 2026-08-31 10:54:58 | 48.17729 | 12.11292 | 11° | 24km/h | 19970m | 5.0m/s | -54.5°C | 1.4% | 58.9hPa | 2.7V | 00:00:00 | 00:00:00 | 00:00:00 | |
| DF3TZ-5 | 2026-08-31 10:54:46 | 48.17663 | 12.11258 | 18° | 24km/h | 19905m | 4.4m/s | -54.4°C | 1.5% | 59.5hPa | 2.6V | 00:00:00 | 00:00:00 | 00:00:00 | |
| DO3MHA-12 | 2026-08-31 10:54:45 | 48.17663 | 12.11258 | 19° | 20km/h | 19905m | 4.4m/s | -54.3°C | 4.6% | 59.5hPa | 2.6V | 02:12:00 | 01:22:38 | 00:00:00 | |
| BAUMI2-15 | 2026-08-31 10:54:43 | 48.17652 | 12.11253 | 14° | 18km/h | 19895m | 5.4m/s | -54.3°C | 4.5% | 59.6hPa | 2.7V | 02:12:00 | 01:22:36 | 00:00:00 | |
| DF2AP-13 | 2026-08-31 10:54:42 | 48.17647 | 12.11252 | 16° | 24km/h | 19890m | 3.6m/s | -54.3°C | 4.5% | 59.6hPa | 2.6V | 00:00:00 | 01:22:35 | 00:00:00 | |
| DO3MHA-11 | 2026-08-31 10:54:39 | 48.17635 | 12.11243 | 34° | 20km/h | 19876m | 4.8m/s | -54.4°C | 4.5% | 59.8hPa | 2.6V | 00:00:00 | 01:22:32 | 00:00:00 | |
| OE5WHR-10 | 2026-08-31 10:54:38 | 48.17631 | 12.11239 | 36° | 24km/h | 19870m | 6.1m/s | -54.4°C | 4.5% | 59.8hPa | 2.6V | 00:00:00 | 00:00:00 | 00:00:00 | |
| DM0DOS-11 | 2026-08-31 10:54:37 | 48.17620 | 12.11227 | 40° | 20km/h | 19854m | 6.1m/s | -54.4°C | 0% | 0hPa | 2.6V | 00:00:00 | 01:22:28 | 00:00:00 | |
| OE5MMP-10 | 2026-08-31 10:54:37 | 48.17627 | 12.11235 | 37° | 22km/h | 19864m | 5.1m/s | -54.4°C | 4.6% | 59.9hPa | 2.6V | 00:00:00 | 01:22:30 | 00:00:00 | |
| DO3MHA-12 | 2026-08-31 10:54:35 | 48.17620 | 12.11227 | 41° | 22km/h | 19855m | 6.1m/s | -54.3°C | 4.5% | 60.0hPa | 2.6V | 00:00:00 | 01:22:28 | 00:00:00 | |
| BAUMI2-15 | 2026-08-31 10:54:33 | 48.17612 | 12.11216 | 44° | 22km/h | 19845m | 4.8m/s | -54.3°C | 4.5% | 60.0hPa | 2.6V | 00:00:00 | 01:22:26 | 00:00:00 | |
| NBG1-10 | 2026-08-31 10:54:32 | 48.17608 | 12.11210 | 44° | 27km/h | 19840m | 5.3m/s | -54.3°C | 4.5% | 60.1hPa | 2.6V | 00:00:00 | 01:22:25 | 00:00:00 | |
| OM5KV | 2026-08-31 10:54:31 | 48.17608 | 12.11210 | 45° | 20km/h | 19840m | 5.3m/s | -54.4°C | 1.4% | 60.1hPa | 2.6V | 02:13:00 | 00:00:00 | 00:00:00 | |
| PETON7-10 | 2026-08-31 10:54:30 | 48.17601 | 12.11199 | 45° | 26km/h | 19829m | 6.0m/s | -54.3°C | 4.5% | 60.2hPa | 2.6V | 00:00:00 | 01:22:23 | 00:00:00 | |
| DO3MHA-11 | 2026-08-31 10:54:29 | 48.17596 | 12.11193 | 42° | 24km/h | 19824m | 3.9m/s | -54.3°C | 4.5% | 60.2hPa | 2.6V | 00:00:00 | 01:22:22 | 00:00:00 | |
| BAUMI2-15 | 2026-08-31 10:54:28 | 48.17591 | 12.11187 | 40° | 24km/h | 19820m | 4.8m/s | -54.4°C | 4.5% | 60.3hPa | 2.6V | 02:12:00 | 01:22:21 | 00:00:00 | |
| OE5MMP-10 | 2026-08-31 10:54:27 | 48.17587 | 12.11182 | 35° | 26km/h | 19814m | 5.4m/s | -54.3°C | 4.5% | 60.3hPa | 2.6V | 00:00:00 | 01:22:20 | 00:00:00 | |
| DO3MHA-12 | 2026-08-31 10:54:25 | 48.17577 | 12.11173 | 29° | 26km/h | 19804m | 6.0m/s | -54.3°C | 4.5% | 60.4hPa | 2.6V | 00:00:00 | 01:22:18 | 00:00:00 | |
| OM5KV | 2026-08-31 10:54:24 | 48.17577 | 12.11173 | 29° | 24km/h | 19804m | 6.1m/s | -54.4°C | 1.4% | 60.4hPa | 2.6V | 02:13:00 | 00:00:00 | 00:00:00 | |
| BAUMI2-15 | 2026-08-31 10:54:23 | 48.17565 | 12.11164 | 27° | 27km/h | 19794m | 4.0m/s | -54.3°C | 4.6% | 60.5hPa | 2.6V | 00:00:00 | 01:22:16 | 00:00:00 | |
| OE3JTB-15 | 2026-08-31 10:54:20 | 48.17548 | 12.11151 | 30° | 29km/h | 19779m | 4.1m/s | -54.4°C | 4.7% | 60.7hPa | 2.6V | 00:00:00 | 00:00:00 | 00:00:00 | |
| DO3MHA-11 | 2026-08-31 10:54:19 | 48.17543 | 12.11147 | 33° | 27km/h | 19775m | 5.5m/s | -54.4°C | 4.6% | 60.7hPa | 2.6V | 02:12:00 | 01:22:12 | 00:00:00 | |
| DB0UT-7 | 2026-08-31 10:54:18 | 48.17537 | 12.11141 | 35° | 31km/h | 19769m | 4.2m/s | -54.4°C | 4.6% | 60.8hPa | 2.7V | 00:00:00 | 01:22:11 | 00:00:00 | |
| OE5MMP-10 | 2026-08-31 10:54:17 | 48.17531 | 12.11135 | 35° | 27km/h | 19765m | 5.2m/s | -54.3°C | 4.5% | 60.8hPa | 2.7V | 02:12:00 | 01:22:10 | 00:00:00 | |
| DF7PN | 2026-08-31 10:54:16 | 48.17515 | 12.11118 | 36° | 27km/h | 19749m | 5.9m/s | -54.5°C | 1.4% | 61.0hPa | 2.7V | 00:00:00 | 00:00:00 | 00:00:00 | |
| OM5KV | 2026-08-31 10:54:14 | 48.17515 | 12.11118 | 37° | 27km/h | 19749m | 5.9m/s | -54.5°C | 1.4% | 61.0hPa | 2.7V | 02:13:00 | 00:00:00 | 00:00:00 | |
| BAUMI2-15 | 2026-08-31 10:54:13 | 48.17509 | 12.11112 | 37° | 27km/h | 19744m | 4.0m/s | -54.4°C | 4.5% | 61.0hPa | 2.7V | 02:12:00 | 01:22:06 | 00:00:00 | |
| DF2AP-13 | 2026-08-31 10:54:12 | 48.17503 | 12.11106 | 35° | 31km/h | 19740m | 5.1m/s | -54.4°C | 4.5% | 61.0hPa | 2.6V | 00:00:00 | 01:22:05 | 00:00:00 | |
| PETON7-10 | 2026-08-31 10:54:11 | 48.17497 | 12.11100 | 32° | 31km/h | 19735m | 5.0m/s | -54.4°C | 4.5% | 61.1hPa | 2.6V | 02:12:00 | 00:00:00 | 00:00:00 | |
| DO3MHA-11 | 2026-08-31 10:54:09 | 48.17486 | 12.11089 | 32° | 33km/h | 19726m | 5.2m/s | -54.3°C | 4.5% | 61.2hPa | 2.7V | 00:00:00 | 01:22:02 | 00:00:00 | |
| BAUMI2-15 | 2026-08-31 10:54:08 | 48.17479 | 12.11082 | 35° | 35km/h | 19721m | 5.2m/s | -54.3°C | 4.5% | 61.2hPa | 2.7V | 00:00:00 | 01:22:01 | 00:00:00 | |
| OE5MMP-10 | 2026-08-31 10:54:07 | 48.17471 | 12.11075 | 35° | 33km/h | 19716m | 4.5m/s | -54.3°C | 4.5% | 61.3hPa | 2.7V | 00:00:00 | 01:22:00 | 00:00:00 | |
| DO3MHA-12 | 2026-08-31 10:54:05 | 48.17457 | 12.11061 | 30° | 33km/h | 19706m | 5.0m/s | -54.2°C | 4.6% | 61.4hPa | 2.7V | 00:00:00 | 01:21:58 | 00:00:00 | |
| BAUMI2-15 | 2026-08-31 10:54:03 | 48.17442 | 12.11049 | 29° | 31km/h | 19696m | 5.6m/s | -54.2°C | 4.5% | 61.5hPa | 2.7V | 00:00:00 | 01:21:56 | 00:00:00 | |
| DL9SK-14 | 2026-08-31 10:54:01 | 48.17427 | 12.11037 | 27° | 33km/h | 19686m | 4.6m/s | -54.4°C | 1.4% | 61.6hPa | 2.7V | 00:00:00 | 00:00:00 | 00:00:00 | |
| DK5PH-5 | 2026-08-31 10:54:00 | 48.17420 | 12.11032 | 24° | 29km/h | 19681m | 5.8m/s | -54.4°C | 4.4% | 61.6hPa | 2.7V | 00:00:00 | 01:21:53 | 00:00:00 | |
| NBG1-10 | 2026-08-31 10:53:59 | 48.17412 | 12.11027 | 20° | 29km/h | 19677m | 3.8m/s | -54.5°C | 4.4% | 61.6hPa | 2.7V | 02:12:00 | 01:21:52 | 00:00:00 | |
| OE5MMP-10 | 2026-08-31 10:53:57 | 48.17398 | 12.11018 | 27° | 33km/h | 19668m | 5.3m/s | -54.6°C | 4.5% | 61.7hPa | 2.7V | 00:00:00 | 01:21:50 | 00:00:00 | |
| PETON7-10 | 2026-08-31 10:53:56 | 48.17391 | 12.11013 | 32° | 31km/h | 19663m | 4.8m/s | -54.6°C | 4.5% | 61.8hPa | 2.7V | 00:00:00 | 00:00:00 | 00:00:00 | |
| DO3MHA-12 | 2026-08-31 10:53:55 | 48.17384 | 12.11006 | 34° | 33km/h | 19658m | 4.6m/s | -54.7°C | 4.6% | 61.8hPa | 2.7V | 00:00:00 | 01:21:48 | 00:00:00 | |
| BAUMI2-15 | 2026-08-31 10:53:52 | 48.17364 | 12.10988 | 31° | 35km/h | 19643m | 5.6m/s | -54.6°C | 4.7% | 62.0hPa | 2.7V | 00:00:00 | 01:21:45 | 00:00:00 | |
| OE3JTB-15 | 2026-08-31 10:53:51 | 48.17357 | 12.10981 | 31° | 27km/h | 19638m | 5.0m/s | -54.6°C | 4.7% | 62.0hPa | 2.7V | 00:00:00 | 01:21:44 | 00:00:00 | |
| OM5KV | 2026-08-31 10:53:50 | 48.17357 | 12.10981 | 31° | 35km/h | 19638m | 5.0m/s | -54.6°C | 1.5% | 62.1hPa | 2.7V | 02:13:00 | 00:00:00 | 00:00:00 | |
| DO3MHA-11 | 2026-08-31 10:53:49 | 48.17341 | 12.10969 | 25° | 29km/h | 19629m | 5.9m/s | -54.7°C | 4.7% | 62.1hPa | 2.7V | 02:13:00 | 01:21:42 | 00:00:00 | |
| DB0UT-7 | 2026-08-31 10:53:48 | 48.17334 | 12.10964 | 24° | 27km/h | 19624m | 4.2m/s | -54.7°C | 4.6% | 62.1hPa | 2.7V | 02:13:00 | 00:00:00 | 00:00:00 | |
| OE5MMP-10 | 2026-08-31 10:53:47 | 48.17326 | 12.10958 | 27° | 27km/h | 19618m | 6.0m/s | -54.7°C | 4.5% | 62.2hPa | 2.6V | 02:13:00 | 01:21:40 | 00:00:00 | |
| DO3MHA-12 | 2026-08-31 10:53:45 | 48.17312 | 12.10947 | 32° | 27km/h | 19609m | 4.8m/s | -54.7°C | 4.5% | 62.3hPa | 2.6V | 02:13:00 | 01:21:38 | 00:00:00 | |
| DL6DJ-15 | 2026-08-31 10:53:44 | 48.17305 | 12.10941 | 31° | 27km/h | 19604m | 5.8m/s | -54.9°C | 1.5% | 62.4hPa | 2.7V | 00:00:00 | 00:00:00 | 00:00:00 | |
| DF7PN | 2026-08-31 10:53:43 | 48.17300 | 12.10936 | 32° | 24km/h | 19598m | 4.8m/s | -54.9°C | 1.5% | 62.5hPa | 2.7V | 00:00:00 | 00:00:00 | 00:00:00 | |
| DF2AP-13 | 2026-08-31 10:53:42 | 48.17295 | 12.10930 | 35° | 27km/h | 19593m | 5.1m/s | -54.8°C | 4.7% | 62.5hPa | 2.7V | 02:13:00 | 01:21:35 | 00:00:00 | |
| PETON7-10 | 2026-08-31 10:53:41 | 48.17289 | 12.10925 | 36° | 27km/h | 19588m | 5.5m/s | -54.8°C | 4.7% | 62.5hPa | 2.6V | 00:00:00 | 01:21:34 | 00:00:00 | |
| DO3MHA-11 | 2026-08-31 10:53:39 | 48.17278 | 12.10914 | 26° | 27km/h | 19579m | 5.7m/s | -54.9°C | 4.7% | 62.6hPa | 2.6V | 00:00:00 | 01:21:32 | 00:00:00 | |
| OE5MMP-10 | 2026-08-31 10:53:37 | 48.17266 | 12.10908 | 18° | 29km/h | 19569m | 5.2m/s | -54.8°C | 4.6% | 62.7hPa | 2.6V | 00:00:00 | 01:21:30 | 00:00:00 | |
| DO3MHA-12 | 2026-08-31 10:53:35 | 48.17252 | 12.10902 | 13° | 27km/h | 19559m | 4.4m/s | -54.8°C | 4.6% | 62.8hPa | 2.6V | 00:00:00 | 01:21:28 | 00:00:00 | |
| OM5KV | 2026-08-31 10:53:34 | 48.17252 | 12.10902 | 14° | 29km/h | 19559m | 4.5m/s | -54.9°C | 1.5% | 62.9hPa | 2.6V | 02:14:00 | 00:00:00 | 00:00:00 | |
| OE5DXL-15 | 2026-08-31 10:53:33 | 48.17238 | 12.10898 | 8° | 26km/h | 19549m | 3.6m/s | -54.7°C | 4.5% | 62.9hPa | 2.6V | 02:13:00 | 00:00:00 | 00:00:00 | |
| BAUMI2-15 | 2026-08-31 10:53:32 | 48.17231 | 12.10897 | 12° | 29km/h | 19545m | 5.2m/s | -54.8°C | 4.5% | 62.9hPa | 2.6V | 00:00:00 | 01:21:25 | 00:00:00 | |
| DK5PH-5 | 2026-08-31 10:53:30 | 48.17216 | 12.10890 | 21° | 26km/h | 19535m | 4.7m/s | -54.8°C | 4.4% | 63.0hPa | 2.6V | 02:13:00 | 01:21:23 | 00:00:00 | |
| DO3MHA-11 | 2026-08-31 10:53:29 | 48.17209 | 12.10886 | 21° | 27km/h | 19529m | 5.9m/s | -54.8°C | 4.5% | 63.1hPa | 2.7V | 00:00:00 | 01:21:22 | 00:00:00 | |
| DG1MJG | 2026-08-31 10:53:28 | 48.17209 | 12.10886 | 22° | 27km/h | 19529m | 5.9m/s | -54.8°C | 1.4% | 63.1hPa | 2.7V | 02:14:00 | 00:00:00 | 00:00:00 | |
| OE5MMP-10 | 2026-08-31 10:53:27 | 48.17197 | 12.10879 | 21° | 27km/h | 19519m | 5.2m/s | -54.8°C | 4.5% | 63.2hPa | 2.7V | 00:00:00 | 01:21:20 | 00:00:00 | |
| OM5KV | 2026-08-31 10:53:26 | 48.17184 | 12.10873 | 15° | 27km/h | 19510m | 3.4m/s | -54.9°C | 1.5% | 63.3hPa | 2.7V | 02:14:00 | 00:00:00 | 00:00:00 | |
| BAUMI2-15 | 2026-08-31 10:53:22 | 48.17164 | 12.10870 | 3° | 29km/h | 19497m | 4.1m/s | -55.0°C | 4.7% | 63.4hPa | 2.7V | 00:00:00 | 01:21:15 | 00:00:00 | |
| OE3JTB-15 | 2026-08-31 10:53:19 | 48.17142 | 12.10866 | 6° | 24km/h | 19483m | 4.4m/s | -55.4°C | 4.8% | 63.6hPa | 2.7V | 02:13:00 | 00:00:00 | 00:00:00 | |
| DB0UT-7 | 2026-08-31 10:53:18 | 48.17134 | 12.10866 | 2° | 20km/h | 19478m | 5.5m/s | -55.5°C | 4.7% | 63.6hPa | 2.6V | 00:00:00 | 01:21:11 | 00:00:00 | |
| OE5MMP-10 | 2026-08-31 10:53:17 | 48.17127 | 12.10866 | 357° | 26km/h | 19472m | 4.8m/s | -55.5°C | 4.8% | 63.7hPa | 2.6V | 02:13:00 | 01:21:10 | 00:00:00 | |
| OM5KV | 2026-08-31 10:53:16 | 48.17126 | 12.10866 | 358° | 31km/h | 19472m | 4.9m/s | -55.5°C | 1.5% | 63.7hPa | 2.6V | 02:14:00 | 00:00:00 | 00:00:00 | |
| DO3MHA-12 | 2026-08-31 10:53:15 | 48.17111 | 12.10867 | 2° | 24km/h | 19463m | 5.0m/s | -55.5°C | 4.7% | 63.7hPa | 2.6V | 02:13:00 | 01:21:08 | 00:00:00 | |
| OE5WHR-10 | 2026-08-31 10:53:14 | 48.17103 | 12.10866 | 7° | 22km/h | 19458m | 5.0m/s | -55.4°C | 4.7% | 63.8hPa | 2.6V | 00:00:00 | 01:21:07 | 00:00:00 | |
| DL6DJ-15 | 2026-08-31 10:53:13 | 48.17096 | 12.10864 | 8° | 29km/h | 19454m | 3.7m/s | -55.5°C | 1.5% | 63.9hPa | 2.6V | 00:00:00 | 00:00:00 | 00:00:00 | |
| BAUMI2-15 | 2026-08-31 10:53:12 | 48.17089 | 12.10863 | 8° | 22km/h | 19450m | 4.5m/s | -55.4°C | 4.8% | 63.9hPa | 2.6V | 02:13:00 | 01:21:05 | 00:00:00 | |
| OE5DRO-10 | 2026-08-31 10:53:11 | 48.17082 | 12.10862 | 3° | 20km/h | 19445m | 5.5m/s | -55.4°C | 4.8% | 63.9hPa | 2.6V | 00:00:00 | 00:00:00 | 00:00:00 | |
| PETON7-10 | 2026-08-31 10:53:10 | 48.17076 | 12.10862 | 358° | 18km/h | 19440m | 4.7m/s | -55.3°C | 4.8% | 64.0hPa | 2.6V | 00:00:00 | 00:00:00 | 00:00:00 | |
| DO3MHA-11 | 2026-08-31 10:53:09 | 48.17071 | 12.10862 | 357° | 18km/h | 19435m | 5.2m/s | -55.4°C | 4.9% | 64.0hPa | 2.6V | 00:00:00 | 01:21:02 | 00:00:00 | |
| OE5MMP-10 | 2026-08-31 10:53:07 | 48.17062 | 12.10862 | 5° | 18km/h | 19424m | 4.4m/s | -55.4°C | 4.9% | 64.1hPa | 2.6V | 00:00:00 | 01:21:00 | 00:00:00 | |
| DG1MFX-10 | 2026-08-31 10:53:06 | 48.17062 | 12.10862 | 6° | 18km/h | 19424m | 4.4m/s | -55.4°C | 1.6% | 64.2hPa | 2.6V | 02:14:00 | 00:00:00 | 00:00:00 | |
| DO3MHA-12 | 2026-08-31 10:53:05 | 48.17053 | 12.10861 | 1° | 20km/h | 19414m | 4.3m/s | -55.4°C | 4.8% | 64.3hPa | 2.6V | 00:00:00 | 01:20:58 | 00:00:00 | |
| OM5KV | 2026-08-31 10:53:04 | 48.17053 | 12.10861 | 1° | 16km/h | 19414m | 4.3m/s | -55.4°C | 1.5% | 64.3hPa | 2.6V | 02:14:00 | 00:00:00 | 00:00:00 | |
| OE5DXL-15 | 2026-08-31 10:53:03 | 48.17045 | 12.10860 | 16° | 16km/h | 19404m | 6.0m/s | -55.4°C | 4.7% | 64.4hPa | 2.6V | 00:00:00 | 00:00:00 | 00:00:00 | |
| DL9SK-14 | 2026-08-31 10:52:59 | 48.17027 | 12.10850 | 13° | 18km/h | 19384m | 4.5m/s | -55.4°C | 1.5% | 64.6hPa | 2.6V | 00:00:00 | 00:00:00 | 00:00:00 | |
| DL1ZP-14 | 2026-08-31 10:52:54 | 48.17000 | 12.10844 | 358° | 24km/h | 19358m | 4.4m/s | -55.3°C | 1.5% | 64.8hPa | 2.6V | 00:00:00 | 00:00:00 | 00:00:00 | |
| OE5WHR-10 | 2026-08-31 10:52:53 | 48.16993 | 12.10844 | 3° | 15km/h | 19353m | 6.0m/s | -55.3°C | 4.8% | 64.9hPa | 2.6V | 02:14:00 | 00:00:00 | 00:00:00 | |
| OE5DRO-10 | 2026-08-31 10:52:52 | 48.16988 | 12.10843 | 11° | 15km/h | 19348m | 4.9m/s | -55.2°C | 4.8% | 64.9hPa | 2.6V | 00:00:00 | 00:00:00 | 00:00:00 | |
| OE3JTB-15 | 2026-08-31 10:52:50 | 48.16979 | 12.10840 | 16° | 15km/h | 19339m | 4.9m/s | -55.3°C | 4.8% | 65.0hPa | 2.6V | 00:00:00 | 00:00:00 | 00:00:00 | |
| OM5KV | 2026-08-31 10:52:49 | 48.16978 | 12.10840 | 16° | 16km/h | 19339m | 5.0m/s | -55.3°C | 1.5% | 65.1hPa | 2.6V | 02:14:00 | 00:00:00 | 00:00:00 | |
| DM0DOS-11 | 2026-08-31 10:52:46 | 48.16959 | 12.10832 | 8° | 15km/h | 19313m | 6.1m/s | -55.2°C | 0% | 0hPa | 2.6V | 00:00:00 | 01:20:38 | 00:00:00 | |
| DG1MFX-10 | 2026-08-31 10:52:46 | 48.16967 | 12.10835 | 19° | 15km/h | 19324m | 6.1m/s | -55.2°C | 1.5% | 65.2hPa | 2.6V | 02:14:00 | 00:00:00 | 00:00:00 | |
| DO3MHA-12 | 2026-08-31 10:52:45 | 48.16960 | 12.10832 | 9° | 13km/h | 19314m | 6.1m/s | -55.1°C | 4.8% | 65.3hPa | 2.6V | 02:14:00 | 01:20:38 | 00:00:00 | |
| OM5KV | 2026-08-31 10:52:44 | 48.16959 | 12.10832 | 9° | 15km/h | 19314m | 6.1m/s | -55.2°C | 1.5% | 65.3hPa | 2.6V | 02:14:00 | 00:00:00 | 00:00:00 | |
| DB0UT-7 | 2026-08-31 10:52:43 | 48.16952 | 12.10832 | 357° | 15km/h | 19304m | 4.1m/s | -55.0°C | 4.8% | 65.4hPa | 2.6V | 00:00:00 | 00:00:00 | 00:00:00 | |
| DF2AP-13 | 2026-08-31 10:52:42 | 48.16949 | 12.10832 | 3° | 15km/h | 19299m | 5.3m/s | -55.0°C | 4.8% | 65.4hPa | 2.6V | 00:00:00 | 01:20:35 | 00:00:00 | |
| DF7PN | 2026-08-31 10:52:41 | 48.16945 | 12.10832 | 8° | 13km/h | 19294m | 4.4m/s | -55.0°C | 1.5% | 65.5hPa | 2.6V | 00:00:00 | 00:00:00 | 00:00:00 | |
| PETON7-10 | 2026-08-31 10:52:40 | 48.16942 | 12.10831 | 8° | 15km/h | 19290m | 4.7m/s | -54.9°C | 4.7% | 65.5hPa | 2.6V | 02:14:00 | 00:00:00 | 00:00:00 | |
| OM5KV | 2026-08-31 10:52:39 | 48.16938 | 12.10831 | 5° | 11km/h | 19285m | 5.4m/s | -55.0°C | 1.5% | 65.6hPa | 2.7V | 02:14:00 | 00:00:00 | 00:00:00 | |
| OE5MMP-10 | 2026-08-31 10:52:37 | 48.16933 | 12.10829 | 19° | 15km/h | 19274m | 6.1m/s | -55.0°C | 4.7% | 65.7hPa | 2.7V | 00:00:00 | 01:20:30 | 00:00:00 | |
| DM0DOS-11 | 2026-08-31 10:52:35 | 48.16919 | 12.10824 | 4° | 15km/h | 19254m | 4.5m/s | -55°C | 0% | 0hPa | 2.7V | 00:00:00 | 01:20:26 | 00:00:00 | |
| OE5DXL-15 | 2026-08-31 10:52:33 | 48.16919 | 12.10824 | 5° | 15km/h | 19254m | 4.5m/s | -54.9°C | 4.8% | 65.9hPa | 2.6V | 00:00:00 | 00:00:00 | 00:00:00 | |
| OE5WHR-10 | 2026-08-31 10:52:32 | 48.16915 | 12.10823 | 7° | 16km/h | 19248m | 6.2m/s | -54.9°C | 4.8% | 66.0hPa | 2.6V | 00:00:00 | 00:00:00 | 00:00:00 | |
| OM5KV | 2026-08-31 10:52:31 | 48.16915 | 12.10823 | 8° | 16km/h | 19248m | 6.2m/s | -55.0°C | 1.6% | 66.0hPa | 2.6V | 02:14:00 | 00:00:00 | 00:00:00 | |
| DK5PH-5 | 2026-08-31 10:52:30 | 48.16907 | 12.10822 | 359° | 13km/h | 19238m | 5.7m/s | -54.9°C | 4.8% | 66.1hPa | 2.6V | 00:00:00 | 01:20:23 | 00:00:00 | |
| DM0DOS-11 | 2026-08-31 10:52:29 | 48.16877 | 12.10831 | 344° | 16km/h | 19196m | 5.9m/s | -54.7°C | 0% | 0hPa | 2.6V | 00:00:00 | 01:20:15 | 00:00:00 | |
| DG1MJG | 2026-08-31 10:52:29 | 48.16899 | 12.10824 | 348° | 15km/h | 19228m | 4.1m/s | -55.0°C | 1.5% | 66.2hPa | 2.7V | 02:14:00 | 00:00:00 | 00:00:00 | |
| OE5MMP-10 | 2026-08-31 10:52:28 | 48.16896 | 12.10825 | 353° | 16km/h | 19223m | 6.0m/s | -54.9°C | 4.9% | 66.2hPa | 2.7V | 00:00:00 | 01:20:20 | 00:00:00 | |
| OM5KV | 2026-08-31 10:52:26 | 48.16896 | 12.10825 | 354° | 15km/h | 19223m | 6.0m/s | -55.0°C | 1.5% | 66.3hPa | 2.7V | 02:14:00 | 00:00:00 | 00:00:00 | |
| DO3MHA-12 | 2026-08-31 10:52:25 | 48.16888 | 12.10826 | 352° | 16km/h | 19212m | 5.0m/s | -54.8°C | 4.8% | 66.3hPa | 2.7V | 00:00:00 | 01:20:18 | 00:00:00 | |
| DL1ZP-14 | 2026-08-31 10:52:23 | 48.16881 | 12.10829 | 340° | 15km/h | 19202m | 4.7m/s | -54.7°C | 1.5% | 66.5hPa | 2.7V | 00:00:00 | 00:00:00 | 00:00:00 | |
| NBG1-10 | 2026-08-31 10:52:21 | 48.16868 | 12.10834 | 348° | 11km/h | 19186m | 4.2m/s | -54.7°C | 4.6% | 66.6hPa | 2.7V | 02:14:00 | 01:20:13 | 00:00:00 | |
| DO3MHA-11 | 2026-08-31 10:52:19 | 48.16864 | 12.10836 | 343° | 15km/h | 19181m | 5.9m/s | -54.6°C | 4.6% | 66.6hPa | 2.7V | 02:14:00 | 01:20:12 | 00:00:00 | |
| OE5MMP-10 | 2026-08-31 10:52:17 | 48.16855 | 12.10840 | 343° | 11km/h | 19171m | 5.9m/s | -54.5°C | 4.6% | 66.7hPa | 2.6V | 02:14:00 | 01:20:10 | 00:00:00 | |
| DB0NH | 2026-08-31 10:52:15 | 48.16846 | 12.10844 | 344° | 9km/h | 19160m | 5.1m/s | -54.5°C | 4.6% | 66.9hPa | 2.7V | 02:14:00 | 01:20:08 | 00:00:00 | |
| OE5DRO-10 | 2026-08-31 10:52:14 | 48.16843 | 12.10845 | 339° | 9km/h | 19154m | 6.1m/s | -54.4°C | 4.6% | 66.9hPa | 2.6V | 00:00:00 | 00:00:00 | 00:00:00 | |
| DB0UT-7 | 2026-08-31 10:52:13 | 48.16840 | 12.10847 | 338° | 9km/h | 19149m | 4.0m/s | -54.4°C | 4.7% | 67.0hPa | 2.6V | 02:14:00 | 01:20:06 | 00:00:00 | |
| DM0DOS-11 | 2026-08-31 10:52:10 | 48.16832 | 12.10848 | 352° | 5km/h | 19127m | 6.1m/s | 0°C | 0% | 0hPa | 2.6V | 00:00:00 | 01:20:02 | 00:00:00 | |
| DF2AP-13 | 2026-08-31 10:52:10 | 48.16833 | 12.10848 | 6° | 11km/h | 19134m | 5.0m/s | -54.3°C | 4.7% | 67.1hPa | 2.7V | 02:14:00 | 01:20:03 | 00:00:00 | |
| DO3MHA-11 | 2026-08-31 10:52:09 | 48.16831 | 12.10848 | 353° | 9km/h | 19128m | 6.1m/s | -54.3°C | 4.7% | 67.2hPa | 2.6V | 00:00:00 | 01:20:02 | 00:00:00 | |
| OM5KV | 2026-08-31 10:52:08 | 48.16832 | 12.10848 | 353° | 5km/h | 19128m | 6.1m/s | -54.3°C | 1.5% | 67.2hPa | 2.6V | 02:14:00 | 00:00:00 | 00:00:00 | |
| OE5MMP-10 | 2026-08-31 10:52:07 | 48.16828 | 12.10850 | 344° | 9km/h | 19118m | 4.2m/s | -54.3°C | 4.7% | 67.3hPa | 2.6V | 00:00:00 | 01:20:00 | 00:00:00 | |
| PG1ADW-2 | 2026-08-31 10:52:06 | 48.16825 | 12.10851 | 353° | 9km/h | 19113m | 5.7m/s | -54.3°C | 4.7% | 67.4hPa | 2.6V | 00:00:00 | 00:00:00 | 00:00:00 | |
| DO3MHA-12 | 2026-08-31 10:52:05 | 48.16822 | 12.10851 | 1° | 7km/h | 19108m | 4.5m/s | -54.2°C | 4.6% | 67.4hPa | 2.6V | 00:00:00 | 01:19:58 | 00:00:00 | |
| OE5DXL-15 | 2026-08-31 10:52:03 | 48.16815 | 12.10851 | 351° | 13km/h | 19099m | 5.3m/s | -54.2°C | 4.5% | 67.5hPa | 2.6V | 02:14:00 | 00:00:00 | 00:00:00 | |
| DM0DOS-11 | 2026-08-31 10:52:00 | 48.16808 | 12.10859 | 329° | 4km/h | 19064m | 6.2m/s | -54.2°C | 0% | 0hPa | 2.6V | 00:00:00 | 01:19:50 | 00:00:00 | |
| DO3MHA-11 | 2026-08-31 10:52:00 | 48.16809 | 12.10858 | 319° | 9km/h | 19076m | 6.4m/s | -54.3°C | 4.5% | 67.8hPa | 2.6V | 00:00:00 | 01:19:52 | 00:00:00 | |
| OM5KV | 2026-08-31 10:51:59 | 48.16809 | 12.10858 | 319° | 4km/h | 19076m | 6.5m/s | -54.3°C | 1.4% | 67.8hPa | 2.6V | 02:15:00 | 00:00:00 | 00:00:00 | |
| OE5MMP-10 | 2026-08-31 10:51:57 | 48.16808 | 12.10859 | 330° | 11km/h | 19065m | 6.2m/s | -54.2°C | 4.5% | 67.8hPa | 2.6V | 00:00:00 | 01:19:50 | 00:00:00 | |
| DO3MHA-12 | 2026-08-31 10:51:55 | 48.16806 | 12.10861 | 352° | 13km/h | 19054m | 3.4m/s | -54.1°C | 4.5% | 68.0hPa | 2.6V | 00:00:00 | 01:19:48 | 00:00:00 | |
| OE3JTB-15 | 2026-08-31 10:51:52 | 48.16799 | 12.10854 | 53° | 18km/h | 19039m | 5.8m/s | -54.0°C | 4.5% | 68.2hPa | 2.6V | 02:15:00 | 00:00:00 | 00:00:00 | |
| OE5WHR-10 | 2026-08-31 10:51:50 | 48.16794 | 12.10843 | 63° | 16km/h | 19028m | 4.6m/s | -54.0°C | 4.5% | 68.3hPa | 2.7V | 02:15:00 | 00:00:00 | 00:00:00 | |
| DO3MHA-11 | 2026-08-31 10:51:49 | 48.16792 | 12.10837 | 55° | 15km/h | 19023m | 6.1m/s | -54.0°C | 4.4% | 68.3hPa | 2.7V | 02:15:00 | 01:19:42 | 00:00:00 | |
| NBG1-10 | 2026-08-31 10:51:47 | 48.16787 | 12.10832 | 14° | 18km/h | 19011m | 4.7m/s | -54.0°C | 4.5% | 68.4hPa | 2.7V | 00:00:00 | 01:19:40 | 00:00:00 | |
| PG1ADW-2 | 2026-08-31 10:51:46 | 48.16784 | 12.10831 | 7° | 18km/h | 19007m | 3.9m/s | -54.0°C | 4.5% | 68.5hPa | 2.7V | 02:15:00 | 00:00:00 | 00:00:00 | |
| DG1MFX-10 | 2026-08-31 10:51:45 | 48.16782 | 12.10830 | 17° | 9km/h | 19002m | 5.8m/s | -54.1°C | 1.5% | 68.6hPa | 2.7V | 02:15:00 | 00:00:00 | 00:00:00 | |
| DB0UT-7 | 2026-08-31 10:51:43 | 48.16777 | 12.10825 | 43° | 18km/h | 18991m | 4.3m/s | -54.2°C | 4.5% | 68.7hPa | 2.7V | 00:00:00 | 00:00:00 | 00:00:00 | |
| DF2AP-13 | 2026-08-31 10:51:40 | 48.16768 | 12.10812 | 51° | 18km/h | 18976m | 4.0m/s | 0°C | 0% | 0hPa | 2.7V | 00:00:00 | 01:19:33 | 00:00:00 | |
| DO3MHA-11 | 2026-08-31 10:51:39 | 48.16765 | 12.10806 | 62° | 18km/h | 18971m | 6.0m/s | -54.4°C | 4.5% | 68.9hPa | 2.7V | 00:00:00 | 01:19:32 | 00:00:00 | |
| OE5MMP-10 | 2026-08-31 10:51:37 | 48.16762 | 12.10792 | 77° | 20km/h | 18959m | 4.3m/s | -54.4°C | 4.5% | 69.0hPa | 2.7V | 00:00:00 | 01:19:30 | 00:00:00 | |
| OE5DRO-10 | 2026-08-31 10:51:36 | 48.16761 | 12.10785 | 77° | 20km/h | 18954m | 5.9m/s | -54.4°C | 4.6% | 69.1hPa | 2.7V | 02:15:00 | 00:00:00 | 00:00:00 | |
| DO3MHA-12 | 2026-08-31 10:51:35 | 48.16760 | 12.10779 | 71° | 20km/h | 18949m | 4.3m/s | -54.4°C | 4.5% | 69.1hPa | 2.7V | 00:00:00 | 01:19:28 | 00:00:00 | |
| OM5KV | 2026-08-31 10:51:34 | 48.16759 | 12.10779 | 72° | 15km/h | 18949m | 4.4m/s | -54.5°C | 1.4% | 69.1hPa | 2.7V | 02:15:00 | 00:00:00 | 00:00:00 | |
| OE5DXL-15 | 2026-08-31 10:51:33 | 48.16756 | 12.10769 | 65° | 18km/h | 18940m | 5.7m/s | -54.4°C | 4.6% | 69.2hPa | 2.7V | 00:00:00 | 00:00:00 | 00:00:00 | |
| DK5PH-5 | 2026-08-31 10:51:31 | 48.16748 | 12.10750 | 48° | 16km/h | 18927m | 4.8m/s | -54.4°C | 4.6% | 69.4hPa | 2.7V | 00:00:00 | 01:19:23 | 00:00:00 | |
| OM5KV | 2026-08-31 10:51:30 | 48.16748 | 12.10750 | 49° | 24km/h | 18927m | 4.9m/s | -54.4°C | 1.5% | 69.4hPa | 2.7V | 02:15:00 | 00:00:00 | 00:00:00 | |
| DO3MHA-11 | 2026-08-31 10:51:29 | 48.16744 | 12.10744 | 40° | 20km/h | 18922m | 4.9m/s | -54.4°C | 4.6% | 69.4hPa | 2.7V | 00:00:00 | 01:19:22 | 00:00:00 | |
| OM5KV | 2026-08-31 10:51:28 | 48.16744 | 12.10744 | 40° | 24km/h | 18922m | 5.0m/s | -54.4°C | 1.5% | 69.5hPa | 2.7V | 02:15:00 | 00:00:00 | 00:00:00 | |
| OE5MMP-10 | 2026-08-31 10:51:27 | 48.16734 | 12.10732 | 38° | 18km/h | 18913m | 4.9m/s | -54.3°C | 4.6% | 69.5hPa | 2.7V | 00:00:00 | 01:19:20 | 00:00:00 | |
| DL9SK-14 | 2026-08-31 10:51:26 | 48.16729 | 12.10726 | 44° | 24km/h | 18908m | 4.9m/s | -54.3°C | 1.5% | 69.6hPa | 2.7V | 00:00:00 | 00:00:00 | 00:00:00 | |
| DO3MHA-12 | 2026-08-31 10:51:25 | 48.16725 | 12.10719 | 50° | 16km/h | 18904m | 3.7m/s | -54.2°C | 4.5% | 69.6hPa | 2.7V | 00:00:00 | 01:19:18 | 00:00:00 | |
| OM5KV | 2026-08-31 10:51:23 | 48.16721 | 12.10713 | 50° | 20km/h | 18899m | 5.6m/s | -54.3°C | 1.5% | 69.7hPa | 2.7V | 02:15:00 | 00:00:00 | 00:00:00 | |
| OE3JTB-15 | 2026-08-31 10:51:22 | 48.16716 | 12.10703 | 53° | 13km/h | 18889m | 4.9m/s | -54.2°C | 4.6% | 69.8hPa | 2.7V | 00:00:00 | 00:00:00 | 00:00:00 | |
| DL1ZP-14 | 2026-08-31 10:51:21 | 48.16712 | 12.10693 | 67° | 15km/h | 18878m | 4.3m/s | -54.2°C | 1.5% | 69.9hPa | 2.7V | 00:00:00 | 00:00:00 | 00:00:00 | |
| DO3MHA-11 | 2026-08-31 10:51:19 | 48.16710 | 12.10687 | 63° | 16km/h | 18874m | 5.0m/s | -54.2°C | 4.6% | 69.9hPa | 2.6V | 02:15:00 | 01:19:12 | 00:00:00 | |
| OM5KV | 2026-08-31 10:51:18 | 48.16710 | 12.10687 | 64° | 15km/h | 18874m | 5.0m/s | -54.3°C | 1.5% | 70.0hPa | 2.6V | 02:15:00 | 00:00:00 | 00:00:00 | |
| OE5MMP-10 | 2026-08-31 10:51:17 | 48.16706 | 12.10678 | 51° | 15km/h | 18863m | 4.6m/s | -54.3°C | 4.7% | 70.0hPa | 2.6V | 02:15:00 | 01:19:10 | 00:00:00 | |
| OM5KV | 2026-08-31 10:51:16 | 48.16706 | 12.10678 | 51° | 16km/h | 18863m | 4.7m/s | -54.3°C | 1.5% | 70.1hPa | 2.7V | 02:15:00 | 00:00:00 | 00:00:00 | |
| DO3MHA-12 | 2026-08-31 10:51:15 | 48.16700 | 12.10668 | 42° | 15km/h | 18852m | 3.8m/s | -54.3°C | 4.7% | 70.1hPa | 2.7V | 02:15:00 | 01:19:08 | 00:00:00 | |
| PG1ADW-2 | 2026-08-31 10:51:14 | 48.16697 | 12.10664 | 35° | 13km/h | 18847m | 6.8m/s | -54.3°C | 4.6% | 70.2hPa | 2.6V | 00:00:00 | 01:19:07 | 00:00:00 | |
| DB0UT-7 | 2026-08-31 10:51:13 | 48.16693 | 12.10661 | 28° | 11km/h | 18841m | 4.6m/s | -54.2°C | 4.6% | 70.3hPa | 2.6V | 00:00:00 | 01:19:06 | 00:00:00 | |
| OM5KV | 2026-08-31 10:51:12 | 48.16693 | 12.10661 | 29° | 16km/h | 18841m | 4.6m/s | -54.2°C | 1.5% | 70.3hPa | 2.6V | 02:15:00 | 00:00:00 | 00:00:00 | |
| OM5KV | 2026-08-31 10:51:11 | 48.16690 | 12.10658 | 32° | 16km/h | 18836m | 6.1m/s | -54.2°C | 1.5% | 70.4hPa | 2.6V | 02:15:00 | 00:00:00 | 00:00:00 | |
| DF2AP-13 | 2026-08-31 10:51:10 | 48.16683 | 12.10652 | 30° | 11km/h | 18826m | 5.7m/s | 0°C | 0% | 0hPa | 2.6V | 00:00:00 | 01:19:03 | 00:00:00 | |
| DO3MHA-11 | 2026-08-31 10:51:09 | 48.16680 | 12.10650 | 26° | 13km/h | 18820m | 4.9m/s | -54.0°C | 4.4% | 70.5hPa | 2.6V | 00:00:00 | 01:19:02 | 00:00:00 | |
| DF7PN | 2026-08-31 10:51:08 | 48.16676 | 12.10645 | 47° | 13km/h | 18810m | 6.3m/s | -54.0°C | 1.5% | 70.7hPa | 2.6V | 00:00:00 | 00:00:00 | 00:00:00 | |
| OE5MMP-10 | 2026-08-31 10:51:07 | 48.16676 | 12.10645 | 48° | 13km/h | 18810m | 6.3m/s | -54.0°C | 4.5% | 70.6hPa | 2.6V | 00:00:00 | 01:19:00 | 00:00:00 | |
| OM5KV | 2026-08-31 10:51:06 | 48.16676 | 12.10645 | 48° | 13km/h | 18810m | 6.3m/s | -54.0°C | 1.5% | 70.7hPa | 2.6V | 02:16:00 | 00:00:00 | 00:00:00 | |
| DH7VM-15 | 2026-08-31 10:51:05 | 48.16669 | 12.10631 | 52° | 15km/h | 18796m | 5.7m/s | -53.9°C | 1.4% | 70.8hPa | 2.6V | 00:00:00 | 00:00:00 | 00:00:00 | |
| OE5DXL-15 | 2026-08-31 10:51:04 | 48.16667 | 12.10627 | 41° | 9km/h | 18791m | 5.1m/s | -53.8°C | 4.5% | 70.8hPa | 2.6V | 00:00:00 | 00:00:00 | 00:00:00 | |
| DG1MFX-10 | 2026-08-31 10:51:02 | 48.16667 | 12.10627 | 41° | 13km/h | 18791m | 5.1m/s | -53.8°C | 1.5% | 70.9hPa | 2.6V | 02:16:00 | 00:00:00 | 00:00:00 | |
| DL9SK-14 | 2026-08-31 10:50:55 | 48.16647 | 12.10614 | 29° | 9km/h | 18744m | 4.5m/s | -54.2°C | 1.4% | 71.4hPa | 2.6V | 00:00:00 | 00:00:00 | 00:00:00 | |
| DL1ZP-14 | 2026-08-31 10:50:50 | 48.16638 | 12.10601 | 70° | 11km/h | 18718m | 4.2m/s | -54.1°C | 1.4% | 71.7hPa | 2.6V | 00:00:00 | 00:00:00 | 00:00:00 | |
| DO3MHA-11 | 2026-08-31 10:50:49 | 48.16638 | 12.10601 | 71° | 9km/h | 18718m | 4.1m/s | -54.0°C | 4.4% | 71.7hPa | 2.6V | 02:16:00 | 01:18:42 | 00:00:00 | |
| OM5KV | 2026-08-31 10:50:48 | 48.16636 | 12.10596 | 70° | 11km/h | 18714m | 4.6m/s | -54.1°C | 1.4% | 71.7hPa | 2.7V | 02:16:00 | 00:00:00 | 00:00:00 | |
| OE5MMP-10 | 2026-08-31 10:50:47 | 48.16635 | 12.10593 | 60° | 7km/h | 18709m | 5.7m/s | -54.0°C | 4.5% | 71.7hPa | 2.7V | 02:16:00 | 01:18:40 | 00:00:00 | |
| DO3MHA-12 | 2026-08-31 10:50:45 | 48.16633 | 12.10589 | 37° | 7km/h | 18698m | 5.8m/s | -54.0°C | 4.5% | 71.9hPa | 2.6V | 02:16:00 | 01:18:38 | 00:00:00 | |
| PETON7-10 | 2026-08-31 10:50:43 | 48.16629 | 12.10585 | 21° | 11km/h | 18689m | 4.3m/s | -54.1°C | 4.5% | 72.0hPa | 2.6V | 02:16:00 | 00:00:00 | 00:00:00 | |
| BAUMI2-15 | 2026-08-31 10:50:42 | 48.16627 | 12.10585 | 7° | 7km/h | 18683m | 5.9m/s | -54.2°C | 4.5% | 72.0hPa | 2.7V | 02:16:00 | 01:18:35 | 00:00:00 | |
| NBG1-10 | 2026-08-31 10:50:41 | 48.16625 | 12.10584 | 4° | 13km/h | 18678m | 4.4m/s | -54.2°C | 4.6% | 72.1hPa | 2.7V | 02:16:00 | 01:18:34 | 00:00:00 | |
| DF2AP-13 | 2026-08-31 10:50:40 | 48.16623 | 12.10584 | 24° | 7km/h | 18673m | 5.6m/s | 0°C | 0% | 0hPa | 2.6V | 00:00:00 | 01:18:33 | 00:00:00 | |
| DB0NH | 2026-08-31 10:50:39 | 48.16622 | 12.10582 | 55° | 29km/h | 18667m | 5.0m/s | -54.3°C | 4.6% | 72.2hPa | 2.6V | 02:16:00 | 01:18:32 | 00:00:00 | |
| DO3MHA-12 | 2026-08-31 10:50:35 | 48.16622 | 12.10568 | 99° | 11km/h | 18646m | 6.4m/s | -54.2°C | 4.6% | 72.4hPa | 2.6V | 00:00:00 | 01:18:28 | 00:00:00 | |
| PG1ADW-2 | 2026-08-31 10:50:34 | 48.16622 | 12.10563 | 95° | 15km/h | 18641m | 4.5m/s | -54.2°C | 4.6% | 72.5hPa | 2.6V | 02:16:00 | 00:00:00 | 00:00:00 | |
| OE5DXL-15 | 2026-08-31 10:50:33 | 48.16622 | 12.10558 | 94° | 15km/h | 18636m | 6.0m/s | -54.2°C | 4.6% | 72.6hPa | 2.7V | 02:16:00 | 00:00:00 | 00:00:00 | |
| DO3MHA-11 | 2026-08-31 10:50:32 | 48.16619 | 12.10545 | 47° | 13km/h | 18616m | 4.9m/s | -54.1°C | 4.5% | 72.8hPa | 2.7V | 00:00:00 | 01:18:22 | 00:00:00 | |
| PETON7-10 | 2026-08-31 10:50:31 | 48.16617 | 12.10542 | 39° | 15km/h | 18610m | 5.7m/s | -54.2°C | 4.5% | 72.8hPa | 2.7V | 00:00:00 | 00:00:00 | 00:00:00 | |
| OE5MMP-10 | 2026-08-31 10:50:28 | 48.16616 | 12.10540 | 43° | 15km/h | 18605m | 4.1m/s | -54.1°C | 4.5% | 72.9hPa | 2.7V | 00:00:00 | 01:18:20 | 00:00:00 | |
| DO3MHA-12 | 2026-08-31 10:50:25 | 48.16613 | 12.10534 | 65° | 16km/h | 18596m | 5.1m/s | -54.1°C | 4.4% | 73.0hPa | 2.7V | 00:00:00 | 01:18:18 | 00:00:00 | |
| OE3JTB-15 | 2026-08-31 10:50:24 | 48.16612 | 12.10530 | 72° | 18km/h | 18591m | 4.7m/s | 0°C | 0% | 0hPa | 2.7V | 02:16:00 | 00:00:00 | 00:00:00 | |
| BAUMI2-15 | 2026-08-31 10:50:22 | 48.16610 | 12.10519 | 86° | 18km/h | 18580m | 4.4m/s | -54.1°C | 4.5% | 73.2hPa | 2.7V | 00:00:00 | 01:18:15 | 00:00:00 | |
| OE5DRO-10 | 2026-08-31 10:50:20 | 48.16610 | 12.10506 | 87° | 18km/h | 18571m | 5.9m/s | -54.1°C | 4.6% | 73.3hPa | 2.7V | 00:00:00 | 00:00:00 | 00:00:00 | |
| DO3MHA-11 | 2026-08-31 10:50:19 | 48.16610 | 12.10499 | 87° | 16km/h | 18565m | 4.8m/s | -54.1°C | 4.6% | 73.4hPa | 2.7V | 02:16:00 | 01:18:12 | 00:00:00 | |
| OM5KV | 2026-08-31 10:50:18 | 48.16610 | 12.10499 | 87° | 20km/h | 18565m | 4.8m/s | -54.2°C | 1.5% | 73.4hPa | 2.7V | 02:16:00 | 00:00:00 | 00:00:00 | |
| OE5MMP-10 | 2026-08-31 10:50:17 | 48.16609 | 12.10486 | 90° | 16km/h | 18555m | 4.3m/s | -54.1°C | 4.7% | 73.5hPa | 2.7V | 02:16:00 | 01:18:10 | 00:00:00 | |
| DO3MHA-12 | 2026-08-31 10:50:15 | 48.16608 | 12.10475 | 75° | 16km/h | 18546m | 5.3m/s | -54.1°C | 4.7% | 73.6hPa | 2.6V | 02:16:00 | 01:18:08 | 00:00:00 | |
| OM5KV | 2026-08-31 10:50:14 | 48.16608 | 12.10475 | 75° | 15km/h | 18546m | 5.3m/s | -54.1°C | 1.5% | 73.7hPa | 2.7V | 02:17:00 | 00:00:00 | 00:00:00 | |
| PETON7-10 | 2026-08-31 10:50:13 | 48.16606 | 12.10464 | 70° | 18km/h | 18535m | 5.8m/s | -54.0°C | 4.5% | 73.7hPa | 2.7V | 00:00:00 | 01:18:06 | 00:00:00 | |
| BAUMI2-15 | 2026-08-31 10:50:12 | 48.16605 | 12.10459 | 75° | 18km/h | 18530m | 4.4m/s | -54.0°C | 4.5% | 73.8hPa | 2.7V | 02:16:00 | 01:18:05 | 00:00:00 | |
| S52SK | 2026-08-31 10:50:11 | 48.16605 | 12.10458 | 75° | 15km/h | 18530m | 4.5m/s | -54.0°C | 0% | 73.8hPa | 2.7V | 00:00:00 | 00:00:00 | 00:00:00 | |
| PG1ADW-2 | 2026-08-31 10:50:10 | 48.16602 | 12.10447 | 72° | 20km/h | 18520m | 5.4m/s | -54.0°C | 4.5% | 73.9hPa | 2.7V | 00:00:00 | 00:00:00 | 00:00:00 | |
| DO3MHA-11 | 2026-08-31 10:50:09 | 48.16601 | 12.10440 | 73° | 20km/h | 18515m | 4.0m/s | -54.0°C | 4.5% | 73.9hPa | 2.7V | 00:00:00 | 01:18:02 | 00:00:00 | |
| NBG1-10 | 2026-08-31 10:50:08 | 48.16599 | 12.10433 | 78° | 20km/h | 18510m | 5.6m/s | -54.0°C | 4.5% | 74.0hPa | 2.7V | 00:00:00 | 01:18:01 | 00:00:00 | |
| DO3MHA-12 | 2026-08-31 10:50:07 | 48.16599 | 12.10413 | 94° | 20km/h | 18495m | 5.3m/s | -53.9°C | 4.6% | 74.2hPa | 2.7V | 00:00:00 | 01:17:58 | 00:00:00 | |
| OE5DXL-15 | 2026-08-31 10:50:03 | 48.16600 | 12.10397 | 102° | 22km/h | 18486m | 5.3m/s | -53.9°C | 4.6% | 74.3hPa | 2.7V | 00:00:00 | 00:00:00 | 00:00:00 | |
| OM5KV | 2026-08-31 10:50:02 | 48.16600 | 12.10397 | 102° | 20km/h | 18486m | 5.4m/s | -53.9°C | 1.5% | 74.3hPa | 2.7V | 02:17:00 | 00:00:00 | 00:00:00 | |
| DL9SK-14 | 2026-08-31 10:49:53 | 48.16597 | 12.10311 | 89° | 20km/h | 18429m | 5.4m/s | -53.8°C | 1.5% | 75.0hPa | 2.7V | 00:00:00 | 00:00:00 | 00:00:00 | |
| DL1ZP-14 | 2026-08-31 10:49:48 | 48.16598 | 12.10271 | 84° | 20km/h | 18405m | 5.8m/s | -53.6°C | 1.5% | 75.3hPa | 2.7V | 00:00:00 | 00:00:00 | 00:00:00 | |
| OE5MMP-10 | 2026-08-31 10:49:47 | 48.16598 | 12.10271 | 85° | 22km/h | 18405m | 5.8m/s | -53.6°C | 4.5% | 75.2hPa | 2.7V | 02:17:00 | 01:17:40 | 00:00:00 | |
| OM5KV | 2026-08-31 10:49:46 | 48.16599 | 12.10271 | 86° | 20km/h | 18405m | 5.8m/s | -53.6°C | 1.5% | 75.3hPa | 2.6V | 02:17:00 | 00:00:00 | 00:00:00 | |
| DO3MHA-12 | 2026-08-31 10:49:45 | 48.16596 | 12.10255 | 74° | 22km/h | 18395m | 5.0m/s | -53.4°C | 4.5% | 75.3hPa | 2.6V | 02:17:00 | 01:17:38 | 00:00:00 | |
| OE5WHR-10 | 2026-08-31 10:49:44 | 48.16594 | 12.10247 | 72° | 24km/h | 18390m | 5.2m/s | -53.4°C | 4.4% | 75.4hPa | 2.6V | 02:17:00 | 00:00:00 | 00:00:00 | |
| BAUMI2-15 | 2026-08-31 10:49:42 | 48.16590 | 12.10230 | 68° | 22km/h | 18380m | 5.8m/s | -53.4°C | 4.4% | 75.5hPa | 2.7V | 02:17:00 | 01:17:35 | 00:00:00 | |
| OM5KV | 2026-08-31 10:49:41 | 48.16590 | 12.10230 | 68° | 22km/h | 18380m | 5.9m/s | -53.5°C | 1.4% | 75.6hPa | 2.7V | 02:17:00 | 00:00:00 | 00:00:00 | |
| OM5KV | 2026-08-31 10:49:40 | 48.16588 | 12.10222 | 69° | 20km/h | 18375m | 4.4m/s | -53.5°C | 1.4% | 75.6hPa | 2.7V | 02:17:00 | 00:00:00 | 00:00:00 | |
| DO3MHA-11 | 2026-08-31 10:49:39 | 48.16585 | 12.10207 | 77° | 22km/h | 18365m | 4.8m/s | -53.5°C | 4.3% | 75.7hPa | 2.7V | 00:00:00 | 01:17:32 | 00:00:00 | |
| OM5KV | 2026-08-31 10:49:37 | 48.16581 | 12.10176 | 84° | 22km/h | 18344m | 5.8m/s | -53.5°C | 1.4% | 76.0hPa | 2.7V | 02:17:00 | 00:00:00 | 00:00:00 | |
| OE5DXL-15 | 2026-08-31 10:49:33 | 48.16579 | 12.10159 | 78° | 27km/h | 18334m | 5.8m/s | -53.5°C | 4.4% | 76.1hPa | 2.7V | 00:00:00 | 00:00:00 | 00:00:00 | |
| BAUMI2-15 | 2026-08-31 10:49:32 | 48.16578 | 12.10150 | 74° | 26km/h | 18329m | 4.6m/s | -53.4°C | 4.4% | 76.1hPa | 2.7V | 00:00:00 | 01:17:25 | 00:00:00 | |
| PG1ADW-2 | 2026-08-31 10:49:30 | 48.16574 | 12.10132 | 71° | 24km/h | 18318m | 5.4m/s | -53.5°C | 4.5% | 76.3hPa | 2.7V | 02:17:00 | 00:00:00 | 00:00:00 | |
| DO3MHA-11 | 2026-08-31 10:49:29 | 48.16571 | 12.10123 | 67° | 22km/h | 18314m | 4.1m/s | -53.6°C | 4.5% | 76.3hPa | 2.7V | 00:00:00 | 01:17:22 | 00:00:00 | |
| PETON7-10 | 2026-08-31 10:49:28 | 48.16569 | 12.10114 | 63° | 26km/h | 18309m | 5.4m/s | -53.6°C | 4.5% | 76.4hPa | 2.7V | 00:00:00 | 01:17:21 | 00:00:00 | |
| OE5MMP-10 | 2026-08-31 10:49:27 | 48.16566 | 12.10106 | 62° | 24km/h | 18304m | 4.0m/s | -53.6°C | 4.4% | 76.4hPa | 2.7V | 00:00:00 | 01:17:20 | 00:00:00 | |
| OE3JTB-15 | 2026-08-31 10:49:26 | 48.16563 | 12.10098 | 64° | 31km/h | 18299m | 5.5m/s | 0°C | 0% | 0hPa | 2.7V | 00:00:00 | 01:17:19 | 00:00:00 | |
| DO3MHA-12 | 2026-08-31 10:49:25 | 48.16561 | 12.10090 | 70° | 26km/h | 18294m | 4.5m/s | -53.5°C | 4.3% | 76.6hPa | 2.7V | 00:00:00 | 01:17:18 | 00:00:00 | |
| OE5WHR-10 | 2026-08-31 10:49:23 | 48.16558 | 12.10076 | 77° | 29km/h | 18285m | 4.8m/s | -53.5°C | 4.4% | 76.6hPa | 2.7V | 00:00:00 | 00:00:00 | 00:00:00 | |
| BAUMI2-15 | 2026-08-31 10:49:22 | 48.16557 | 12.10069 | 79° | 26km/h | 18281m | 3.1m/s | -53.5°C | 4.4% | 76.7hPa | 2.7V | 00:00:00 | 01:17:15 | 00:00:00 | |
| S52SK | 2026-08-31 10:49:20 | 48.16556 | 12.10062 | 80° | 20km/h | 18277m | 4.8m/s | -53.6°C | 0% | 76.8hPa | 2.7V | 00:00:00 | 00:00:00 | 00:00:00 | |
| DO3MHA-11 | 2026-08-31 10:49:19 | 48.16552 | 12.10044 | 69° | 29km/h | 18267m | 4.1m/s | -53.4°C | 4.5% | 76.9hPa | 2.7V | 02:17:00 | 01:17:12 | 00:00:00 | |
| OE5MMP-10 | 2026-08-31 10:49:17 | 48.16546 | 12.10022 | 65° | 29km/h | 18258m | 5.2m/s | -53.5°C | 4.5% | 77.0hPa | 2.6V | 02:17:00 | 01:17:10 | 00:00:00 | |
| OM5KV | 2026-08-31 10:49:16 | 48.16546 | 12.10022 | 65° | 31km/h | 18258m | 5.2m/s | -53.5°C | 1.5% | 77.0hPa | 2.6V | 02:18:00 | 00:00:00 | 00:00:00 | |
| DO3MHA-12 | 2026-08-31 10:49:15 | 48.16540 | 12.10001 | 70° | 29km/h | 18248m | 5.8m/s | -53.5°C | 4.5% | 77.1hPa | 2.6V | 02:17:00 | 01:17:08 | 00:00:00 | |
| PETON7-10 | 2026-08-31 10:49:13 | 48.16535 | 12.09978 | 79° | 33km/h | 18238m | 4.6m/s | -53.5°C | 4.4% | 77.2hPa | 2.7V | 02:17:00 | 00:00:00 | 00:00:00 | |
| BAUMI2-15 | 2026-08-31 10:49:12 | 48.16534 | 12.09968 | 82° | 29km/h | 18233m | 5.3m/s | -53.5°C | 4.4% | 77.3hPa | 2.7V | 02:17:00 | 01:17:05 | 00:00:00 | |
| PG1ADW-2 | 2026-08-31 10:49:10 | 48.16532 | 12.09947 | 84° | 35km/h | 18223m | 5.5m/s | -53.5°C | 4.4% | 77.4hPa | 2.7V | 00:00:00 | 00:00:00 | 00:00:00 | |
| DO3MHA-11 | 2026-08-31 10:49:09 | 48.16531 | 12.09936 | 83° | 33km/h | 18218m | 4.2m/s | -53.5°C | 4.4% | 77.5hPa | 2.7V | 00:00:00 | 01:17:02 | 00:00:00 | |
| DB0UT-7 | 2026-08-31 10:49:07 | 48.16526 | 12.09903 | 71° | 38km/h | 18205m | 3.7m/s | -53.5°C | 4.4% | 77.6hPa | 2.7V | 02:17:00 | 01:16:59 | 00:00:00 | |
| DL6DJ-15 | 2026-08-31 10:49:05 | 48.16521 | 12.09880 | 72° | 35km/h | 18196m | 4.9m/s | -53.4°C | 1.4% | 77.8hPa | 2.6V | 00:00:00 | 00:00:00 | 00:00:00 | |
| OE5DRO-10 | 2026-08-31 10:49:04 | 48.16521 | 12.09880 | 73° | 37km/h | 18196m | 4.8m/s | -53.3°C | 4.4% | 77.7hPa | 2.6V | 00:00:00 | 00:00:00 | 00:00:00 | |
| OE5DXL-15 | 2026-08-31 10:49:03 | 48.16518 | 12.09867 | 75° | 40km/h | 18191m | 3.9m/s | -53.3°C | 4.4% | 77.8hPa | 2.6V | 02:17:00 | 00:00:00 | 00:00:00 | |
| DL9SK-14 | 2026-08-31 10:48:51 | 48.16476 | 12.09699 | 68° | 37km/h | 18128m | 5.2m/s | -53.7°C | 1.4% | 78.6hPa | 2.7V | 00:00:00 | 00:00:00 | 00:00:00 | |
| PG1ADW-2 | 2026-08-31 10:48:50 | 48.16476 | 12.09699 | 69° | 42km/h | 18129m | 5.2m/s | -53.6°C | 4.3% | 78.5hPa | 2.7V | 00:00:00 | 00:00:00 | 00:00:00 | |
| DO3MHA-11 | 2026-08-31 10:48:49 | 48.16473 | 12.09686 | 72° | 42km/h | 18123m | 5.0m/s | -53.6°C | 4.4% | 78.6hPa | 2.7V | 02:18:00 | 01:16:42 | 00:00:00 | |
| OM5KV | 2026-08-31 10:48:48 | 48.16473 | 12.09686 | 73° | 38km/h | 18123m | 5.0m/s | -53.7°C | 1.5% | 78.6hPa | 2.6V | 02:18:00 | 00:00:00 | 00:00:00 | |
| OE5MMP-10 | 2026-08-31 10:48:47 | 48.16467 | 12.09658 | 75° | 44km/h | 18114m | 5.3m/s | -53.6°C | 4.5% | 78.7hPa | 2.6V | 02:18:00 | 01:16:40 | 00:00:00 | |
| DO3MHA-12 | 2026-08-31 10:48:45 | 48.16461 | 12.09632 | 69° | 46km/h | 18106m | 3.1m/s | -53.6°C | 4.5% | 78.8hPa | 2.6V | 02:18:00 | 01:16:38 | 00:00:00 | |
| OM5KV | 2026-08-31 10:48:43 | 48.16457 | 12.09619 | 66° | 40km/h | 18101m | 5.2m/s | -53.7°C | 1.5% | 78.9hPa | 2.6V | 02:18:00 | 00:00:00 | 00:00:00 | |
| OE5WHR-10 | 2026-08-31 10:48:41 | 48.16441 | 12.09574 | 58° | 46km/h | 18086m | 5.8m/s | -53.6°C | 4.5% | 79.0hPa | 2.6V | 02:18:00 | 00:00:00 | 00:00:00 | |
| DO3MHA-11 | 2026-08-31 10:48:39 | 48.16427 | 12.09545 | 54° | 46km/h | 18077m | 4.0m/s | -53.5°C | 4.5% | 79.2hPa | 2.7V | 00:00:00 | 01:16:32 | 00:00:00 | |
| OE5MMP-10 | 2026-08-31 10:48:37 | 48.16412 | 12.09515 | 55° | 46km/h | 18067m | 4.0m/s | -53.5°C | 4.4% | 79.3hPa | 2.7V | 00:00:00 | 01:16:30 | 00:00:00 | |
| DB0UT-7 | 2026-08-31 10:48:36 | 48.16405 | 12.09499 | 55° | 46km/h | 18062m | 5.5m/s | -53.5°C | 4.4% | 79.4hPa | 2.7V | 00:00:00 | 00:00:00 | 00:00:00 | |
| DO3MHA-12 | 2026-08-31 10:48:35 | 48.16399 | 12.09485 | 55° | 44km/h | 18057m | 4.7m/s | -53.4°C | 4.4% | 79.4hPa | 2.7V | 00:00:00 | 01:16:28 | 00:00:00 | |
| DL6DJ-15 | 2026-08-31 10:48:34 | 48.16386 | 12.09458 | 58° | 44km/h | 18048m | 5.4m/s | -53.4°C | 1.4% | 79.6hPa | 2.7V | 00:00:00 | 00:00:00 | 00:00:00 | |
| OM5KV | 2026-08-31 10:48:33 | 48.16386 | 12.09458 | 59° | 44km/h | 18049m | 5.4m/s | -53.4°C | 1.4% | 79.6hPa | 2.7V | 02:19:00 | 00:00:00 | 00:00:00 | |
| DK5PH-5 | 2026-08-31 10:48:30 | 48.16370 | 12.09412 | 62° | 46km/h | 18034m | 5.6m/s | -53.3°C | 4.3% | 79.7hPa | 2.7V | 00:00:00 | 01:16:23 | 00:00:00 | |
| DO3MHA-11 | 2026-08-31 10:48:29 | 48.16364 | 12.09398 | 61° | 44km/h | 18029m | 4.6m/s | -53.2°C | 4.3% | 79.8hPa | 2.7V | 00:00:00 | 01:16:22 | 00:00:00 | |
| PETON7-10 | 2026-08-31 10:48:28 | 48.16359 | 12.09384 | 61° | 44km/h | 18025m | 4.6m/s | -53.2°C | 4.3% | 79.8hPa | 2.7V | 02:18:00 | 00:00:00 | 00:00:00 | |
| OE5MMP-10 | 2026-08-31 10:48:27 | 48.16353 | 12.09369 | 61° | 44km/h | 18020m | 5.1m/s | -53.2°C | 4.4% | 79.9hPa | 2.7V | 00:00:00 | 01:16:20 | 00:00:00 | |
| OE3JTB-15 | 2026-08-31 10:48:26 | 48.16348 | 12.09354 | 61° | 49km/h | 18015m | 4.4m/s | 0°C | 0% | 0hPa | 2.7V | 00:00:00 | 00:00:00 | 00:00:00 | |
| DO3MHA-12 | 2026-08-31 10:48:25 | 48.16342 | 12.09340 | 61° | 42km/h | 18010m | 5.3m/s | -53.2°C | 4.3% | 80.0hPa | 2.7V | 00:00:00 | 01:16:18 | 00:00:00 | |
| DG1MJG | 2026-08-31 10:48:21 | 48.16327 | 12.09297 | 64° | 46km/h | 17996m | 4.3m/s | -53.5°C | 1.5% | 80.2hPa | 2.7V | 02:19:00 | 00:00:00 | 00:00:00 | |
| DL9SK-14 | 2026-08-31 10:48:20 | 48.16312 | 12.09253 | 64° | 38km/h | 17982m | 4.5m/s | -53.8°C | 1.5% | 80.4hPa | 2.7V | 00:00:00 | 00:00:00 | 00:00:00 | |
| DO3MHA-11 | 2026-08-31 10:48:19 | 48.16312 | 12.09253 | 65° | 44km/h | 17982m | 4.5m/s | -53.7°C | 4.4% | 80.3hPa | 2.7V | 02:18:00 | 01:16:12 | 00:00:00 | |
| OM5KV | 2026-08-31 10:48:18 | 48.16312 | 12.09252 | 66° | 40km/h | 17982m | 4.5m/s | -53.8°C | 1.5% | 80.4hPa | 2.6V | 02:19:00 | 00:00:00 | 00:00:00 | |
| OE5MMP-10 | 2026-08-31 10:48:17 | 48.16304 | 12.09225 | 69° | 46km/h | 17974m | 4.9m/s | -53.8°C | 4.4% | 80.5hPa | 2.6V | 02:18:00 | 01:16:10 | 00:00:00 | |
| DO3MHA-12 | 2026-08-31 10:48:15 | 48.16297 | 12.09195 | 70° | 47km/h | 17964m | 4.5m/s | -53.8°C | 4.4% | 80.6hPa | 2.7V | 02:18:00 | 01:16:08 | 00:00:00 | |
| DB0NH | 2026-08-31 10:48:14 | 48.16293 | 12.09180 | 69° | 53km/h | 17959m | 5.2m/s | -53.8°C | 4.5% | 80.6hPa | 2.6V | 00:00:00 | 01:16:07 | 00:00:00 | |
| PETON7-10 | 2026-08-31 10:48:13 | 48.16289 | 12.09164 | 67° | 49km/h | 17955m | 3.6m/s | -53.8°C | 4.4% | 80.7hPa | 2.6V | 00:00:00 | 00:00:00 | 00:00:00 | |
| OM5KV | 2026-08-31 10:48:12 | 48.16289 | 12.09164 | 68° | 44km/h | 17955m | 3.7m/s | -53.9°C | 1.5% | 80.7hPa | 2.6V | 02:19:00 | 00:00:00 | 00:00:00 | |
| DO3MHA-11 | 2026-08-31 10:48:09 | 48.16269 | 12.09097 | 64° | 51km/h | 17935m | 5.8m/s | -53.9°C | 4.5% | 81.0hPa | 2.6V | 00:00:00 | 01:16:02 | 00:00:00 | |
| OM5KV | 2026-08-31 10:48:08 | 48.16269 | 12.09097 | 64° | 49km/h | 17935m | 5.9m/s | -53.9°C | 1.5% | 81.0hPa | 2.6V | 02:19:00 | 00:00:00 | 00:00:00 | |
| OE5MMP-10 | 2026-08-31 10:48:07 | 48.16257 | 12.09064 | 64° | 51km/h | 17925m | 5.7m/s | -54.0°C | 4.5% | 81.1hPa | 2.6V | 00:00:00 | 01:16:00 | 00:00:00 | |
| DB0UT-7 | 2026-08-31 10:48:06 | 48.16252 | 12.09048 | 65° | 51km/h | 17920m | 4.3m/s | -54.0°C | 4.5% | 81.2hPa | 2.6V | 00:00:00 | 01:15:59 | 00:00:00 | |
| OM5KV | 2026-08-31 10:48:05 | 48.16241 | 12.09014 | 63° | 49km/h | 17911m | 5.7m/s | -54.0°C | 1.5% | 81.3hPa | 2.6V | 02:19:00 | 00:00:00 | 00:00:00 | |
| DL6DJ-15 | 2026-08-31 10:48:03 | 48.16228 | 12.08981 | 59° | 49km/h | 17902m | 4.6m/s | -53.9°C | 1.5% | 81.4hPa | 2.6V | 00:00:00 | 00:00:00 | 00:00:00 | |
| DF7PN | 2026-08-31 10:48:01 | 48.16222 | 12.08964 | 59° | 51km/h | 17896m | 5.6m/s | -53.9°C | 1.5% | 81.5hPa | 2.6V | 00:00:00 | 00:00:00 | 00:00:00 | |
| DK5PH-5 | 2026-08-31 10:48:00 | 48.16215 | 12.08947 | 60° | 53km/h | 17892m | 3.6m/s | -53.8°C | 4.4% | 81.5hPa | 2.6V | 00:00:00 | 01:15:53 | 00:00:00 | |
| DO3MHA-11 | 2026-08-31 10:47:59 | 48.16208 | 12.08930 | 58° | 53km/h | 17888m | 4.4m/s | -53.8°C | 4.4% | 81.5hPa | 2.6V | 00:00:00 | 01:15:52 | 00:00:00 | |
| DN1GJH-1 | 2026-08-31 10:47:58 | 48.16201 | 12.08914 | 55° | 51km/h | 17883m | 5.2m/s | -53.8°C | 1.5% | 81.7hPa | 2.6V | 02:19:00 | 00:00:00 | 00:00:00 | |
| OE5MMP-10 | 2026-08-31 10:47:57 | 48.16193 | 12.08898 | 53° | 55km/h | 17878m | 3.5m/s | -53.8°C | 4.4% | 81.7hPa | 2.6V | 00:00:00 | 01:15:50 | 00:00:00 | |
| NBG1-10 | 2026-08-31 10:47:56 | 48.16185 | 12.08882 | 54° | 51km/h | 17874m | 4.3m/s | -53.8°C | 4.4% | 81.7hPa | 2.6V | 00:00:00 | 01:15:49 | 00:00:00 | |
| DO3MHA-12 | 2026-08-31 10:47:55 | 48.16177 | 12.08866 | 55° | 55km/h | 17870m | 4.8m/s | -53.8°C | 4.4% | 81.8hPa | 2.6V | 00:00:00 | 01:15:48 | 00:00:00 | |
| OM5KV | 2026-08-31 10:47:54 | 48.16177 | 12.08866 | 56° | 55km/h | 17870m | 4.9m/s | -53.9°C | 1.5% | 81.8hPa | 2.6V | 02:19:00 | 00:00:00 | 00:00:00 | |
| DM0DOS-11 | 2026-08-31 10:47:53 | 48.16118 | 12.08750 | 50° | 57km/h | 17838m | 4.5m/s | -54.2°C | 0% | 0hPa | 2.6V | 00:00:00 | 01:15:41 | 00:00:00 | |
| DL9SK-14 | 2026-08-31 10:47:49 | 48.16118 | 12.08750 | 50° | 57km/h | 17838m | 4.5m/s | -54.2°C | 1.5% | 82.2hPa | 2.6V | 00:00:00 | 00:00:00 | 00:00:00 | |
| OE5DRO-10 | 2026-08-31 10:47:48 | 48.16118 | 12.08750 | 51° | 51km/h | 17839m | 4.5m/s | -54.2°C | 4.6% | 82.2hPa | 2.6V | 02:19:00 | 00:00:00 | 00:00:00 | |
| OE5MMP-10 | 2026-08-31 10:47:47 | 48.16109 | 12.08734 | 50° | 49km/h | 17834m | 5.4m/s | -54.3°C | 4.6% | 82.2hPa | 2.7V | 02:19:00 | 01:15:40 | 00:00:00 | |
| DO3MHA-12 | 2026-08-31 10:47:45 | 48.16092 | 12.08703 | 51° | 49km/h | 17823m | 5.9m/s | -54.3°C | 4.7% | 82.4hPa | 2.7V | 02:19:00 | 01:15:38 | 00:00:00 | |
| OE5REO-15 | 2026-08-31 10:47:44 | 48.16092 | 12.08703 | 51° | 53km/h | 17823m | 6.0m/s | -54.4°C | 0% | 0hPa | 2.7V | 00:00:00 | 00:00:00 | 00:00:00 | |
| DB0NH | 2026-08-31 10:47:43 | 48.16075 | 12.08673 | 52° | 51km/h | 17814m | 4.1m/s | -54.3°C | 4.7% | 82.5hPa | 2.7V | 00:00:00 | 01:15:36 | 00:00:00 | |
| OM5KV | 2026-08-31 10:47:42 | 48.16075 | 12.08673 | 53° | 49km/h | 17814m | 4.1m/s | -54.3°C | 1.6% | 82.5hPa | 2.7V | 02:20:00 | 00:00:00 | 00:00:00 | |
| OM5KV | 2026-08-31 10:47:41 | 48.16068 | 12.08659 | 53° | 46km/h | 17809m | 5.9m/s | -54.3°C | 1.5% | 82.6hPa | 2.7V | 02:20:00 | 00:00:00 | 00:00:00 | |
| DO3MHA-11 | 2026-08-31 10:47:39 | 48.16046 | 12.08618 | 50° | 53km/h | 17795m | 4.3m/s | -54.1°C | 4.6% | 82.7hPa | 2.7V | 00:00:00 | 01:15:32 | 00:00:00 | |
| OE5WHR-10 | 2026-08-31 10:47:38 | 48.16038 | 12.08604 | 48° | 51km/h | 17790m | 5.1m/s | -54.1°C | 4.6% | 82.8hPa | 2.7V | 02:19:00 | 00:00:00 | 00:00:00 | |
| DO3MHA-12 | 2026-08-31 10:47:37 | 48.16009 | 12.08564 | 42° | 51km/h | 17776m | 5.4m/s | -54.1°C | 4.6% | 83.0hPa | 2.7V | 00:00:00 | 01:15:28 | 00:00:00 | |
| OE3JTB-15 | 2026-08-31 10:47:35 | 48.15998 | 12.08549 | 41° | 60km/h | 17771m | 3.9m/s | 0°C | 0% | 0hPa | 2.7V | 00:00:00 | 01:15:27 | 00:00:00 | |
| OE5DXL-15 | 2026-08-31 10:47:33 | 48.15987 | 12.08535 | 40° | 49km/h | 17768m | 3.2m/s | -54.0°C | 4.6% | 83.1hPa | 2.7V | 02:19:00 | 00:00:00 | 00:00:00 | |
| DL6DJ-15 | 2026-08-31 10:47:32 | 48.15965 | 12.08510 | 38° | 49km/h | 17758m | 4.1m/s | -54.0°C | 1.6% | 83.2hPa | 2.6V | 00:00:00 | 00:00:00 | 00:00:00 | |
| DK5PH-5 | 2026-08-31 10:47:30 | 48.15956 | 12.08498 | 41° | 49km/h | 17754m | 3.8m/s | -53.9°C | 4.6% | 83.3hPa | 2.6V | 02:19:00 | 01:15:23 | 00:00:00 | |
| OE5REO-15 | 2026-08-31 10:47:29 | 48.15947 | 12.08486 | 43° | 46km/h | 17750m | 4.8m/s | -53.9°C | 0% | 0hPa | 2.6V | 00:00:00 | 00:00:00 | 00:00:00 | |
| PETON7-10 | 2026-08-31 10:47:28 | 48.15938 | 12.08475 | 43° | 51km/h | 17745m | 4.7m/s | 0°C | 0% | 0hPa | 2.6V | 00:00:00 | 00:00:00 | 00:00:00 | |
| OE5MMP-10 | 2026-08-31 10:47:27 | 48.15929 | 12.08462 | 43° | 49km/h | 17741m | 4.3m/s | -53.8°C | 4.7% | 83.5hPa | 2.6V | 00:00:00 | 01:15:20 | 00:00:00 | |
| DO3MHA-12 | 2026-08-31 10:47:25 | 48.15911 | 12.08438 | 43° | 51km/h | 17731m | 4.3m/s | -53.7°C | 4.6% | 83.6hPa | 2.6V | 00:00:00 | 01:15:18 | 00:00:00 | |
| OM5KV | 2026-08-31 10:47:24 | 48.15911 | 12.08438 | 43° | 47km/h | 17731m | 4.3m/s | -53.8°C | 1.6% | 83.6hPa | 2.6V | 02:20:00 | 00:00:00 | 00:00:00 | |
| NBG1-10 | 2026-08-31 10:47:23 | 48.15893 | 12.08412 | 46° | 49km/h | 17722m | 5.2m/s | -53.7°C | 4.5% | 83.7hPa | 2.6V | 02:19:00 | 01:15:16 | 00:00:00 | |
| DG1MJG | 2026-08-31 10:47:21 | 48.15885 | 12.08399 | 48° | 53km/h | 17717m | 4.3m/s | -53.8°C | 1.6% | 83.8hPa | 2.7V | 02:20:00 | 00:00:00 | 00:00:00 | |
| OM5KV | 2026-08-31 10:47:19 | 48.15857 | 12.08358 | 44° | 51km/h | 17703m | 4.0m/s | -53.6°C | 1.5% | 84.0hPa | 2.7V | 02:20:00 | 00:00:00 | 00:00:00 | |
| DL9SK-14 | 2026-08-31 10:47:18 | 48.15837 | 12.08332 | 37° | 53km/h | 17694m | 4.2m/s | -53.6°C | 1.5% | 84.1hPa | 2.7V | 00:00:00 | 00:00:00 | 00:00:00 | |
| OE5WHR-10 | 2026-08-31 10:47:17 | 48.15837 | 12.08332 | 38° | 49km/h | 17694m | 4.1m/s | -53.5°C | 4.4% | 84.0hPa | 2.7V | 00:00:00 | 00:00:00 | 00:00:00 | |
| DN1GJH-1 | 2026-08-31 10:47:16 | 48.15837 | 12.08332 | 39° | 53km/h | 17694m | 4.2m/s | -53.6°C | 1.5% | 84.1hPa | 2.7V | 00:00:00 | 00:00:00 | 00:00:00 | |
| DO3MHA-12 | 2026-08-31 10:47:15 | 48.15815 | 12.08310 | 32° | 49km/h | 17684m | 3.8m/s | -53.5°C | 4.4% | 84.2hPa | 2.7V | 02:19:00 | 01:15:08 | 00:00:00 | |
| OM5KV | 2026-08-31 10:47:14 | 48.15815 | 12.08310 | 33° | 53km/h | 17684m | 3.9m/s | -53.5°C | 1.5% | 84.2hPa | 2.6V | 02:20:00 | 00:00:00 | 00:00:00 | |
| OE5REO-15 | 2026-08-31 10:47:13 | 48.15793 | 12.08288 | 38° | 51km/h | 17675m | 5.4m/s | -53.5°C | 0% | 0hPa | 2.6V | 00:00:00 | 00:00:00 | 00:00:00 | |
| DL1ZP-14 | 2026-08-31 10:47:12 | 48.15775 | 12.08264 | 43° | 46km/h | 17667m | 4.9m/s | -53.5°C | -1.0% | 84.4hPa | 2.6V | 00:00:00 | 00:00:00 | 00:00:00 | |
| OE5DRO-10 | 2026-08-31 10:47:10 | 48.15766 | 12.08252 | 46° | 49km/h | 17662m | 4.4m/s | -53.4°C | 4.5% | 84.5hPa | 2.6V | 00:00:00 | 00:00:00 | 00:00:00 | |
| DO3MHA-11 | 2026-08-31 10:47:09 | 48.15758 | 12.08240 | 49° | 49km/h | 17657m | 4.3m/s | -53.4°C | 4.4% | 84.5hPa | 2.6V | 00:00:00 | 01:15:02 | 00:00:00 | |
| OM5KV | 2026-08-31 10:47:08 | 48.15758 | 12.08240 | 49° | 46km/h | 17657m | 4.4m/s | -53.5°C | 1.5% | 84.6hPa | 2.6V | 02:20:00 | 00:00:00 | 00:00:00 | |
| OE5MMP-10 | 2026-08-31 10:47:07 | 48.15743 | 12.08212 | 50° | 49km/h | 17648m | 4.2m/s | -53.4°C | 4.4% | 84.7hPa | 2.6V | 00:00:00 | 01:15:00 | 00:00:00 | |
| DB0UT-7 | 2026-08-31 10:47:06 | 48.15734 | 12.08198 | 48° | 46km/h | 17643m | 4.8m/s | -53.4°C | 4.3% | 84.7hPa | 2.6V | 00:00:00 | 01:14:59 | 00:00:00 | |
| DO3MHA-12 | 2026-08-31 10:47:05 | 48.15726 | 12.08185 | 44° | 49km/h | 17638m | 5.0m/s | -53.4°C | 4.3% | 84.8hPa | 2.6V | 00:00:00 | 01:14:58 | 00:00:00 | |
| OE5DXL-15 | 2026-08-31 10:47:03 | 48.15707 | 12.08160 | 41° | 46km/h | 17629m | 5.4m/s | -53.4°C | 4.3% | 84.9hPa | 2.6V | 00:00:00 | 00:00:00 | 00:00:00 | |
| DL6DJ-15 | 2026-08-31 10:47:00 | 48.15676 | 12.08125 | 35° | 47km/h | 17614m | 4.7m/s | -53.4°C | 1.5% | 85.2hPa | 2.6V | 00:00:00 | 00:00:00 | 00:00:00 | |
| DF7PN | 2026-08-31 10:46:59 | 48.15666 | 12.08114 | 36° | 46km/h | 17610m | 4.0m/s | -53.4°C | 1.5% | 85.2hPa | 2.6V | 00:00:00 | 00:00:00 | 00:00:00 | |
| DL9SK-14 | 2026-08-31 10:46:47 | 48.15553 | 12.07957 | 43° | 42km/h | 17548m | 4.1m/s | -54.1°C | 1.4% | 86.0hPa | 2.6V | 00:00:00 | 00:00:00 | 00:00:00 | |
| OM5KV | 2026-08-31 10:46:45 | 48.15546 | 12.07946 | 45° | 40km/h | 17543m | 5.8m/s | -54.2°C | 1.4% | 86.1hPa | 2.6V | 02:20:00 | 00:00:00 | 00:00:00 | |
| OM5KV | 2026-08-31 10:46:44 | 48.15546 | 12.07946 | 45° | 40km/h | 17543m | 5.8m/s | -54.2°C | 1.4% | 86.1hPa | 2.6V | 02:20:00 | 00:00:00 | 00:00:00 | |
| DB0NH | 2026-08-31 10:46:43 | 48.15532 | 12.07925 | 49° | 46km/h | 17534m | 4.7m/s | -54.5°C | 4.4% | 86.2hPa | 2.6V | 00:00:00 | 01:14:36 | 00:00:00 | |
| BAUMI2-15 | 2026-08-31 10:46:42 | 48.15526 | 12.07914 | 51° | 42km/h | 17529m | 5.1m/s | -54.6°C | 4.4% | 86.3hPa | 2.6V | 02:20:00 | 01:14:35 | 00:00:00 | |
| OE5REO-15 | 2026-08-31 10:46:40 | 48.15519 | 12.07901 | 52° | 44km/h | 17525m | 3.3m/s | 0°C | 0% | 0hPa | 2.6V | 00:00:00 | 00:00:00 | 00:00:00 | |
| DO3MHA-11 | 2026-08-31 10:46:39 | 48.15505 | 12.07876 | 50° | 46km/h | 17516m | 4.8m/s | -55.1°C | 4.6% | 86.4hPa | 2.6V | 00:00:00 | 01:14:32 | 00:00:00 | |
| OE5MMP-10 | 2026-08-31 10:46:37 | 48.15492 | 12.07852 | 50° | 47km/h | 17507m | 4.5m/s | -55.4°C | 4.7% | 86.5hPa | 2.6V | 00:00:00 | 01:14:30 | 00:00:00 | |
| DG1MFX-10 | 2026-08-31 10:46:36 | 48.15484 | 12.07839 | 51° | 46km/h | 17502m | 5.7m/s | -55.6°C | 1.7% | 86.7hPa | 2.6V | 02:20:00 | 00:00:00 | 00:00:00 | |
| OE5WHR-10 | 2026-08-31 10:46:35 | 48.15477 | 12.07825 | 51° | 47km/h | 17497m | 4.5m/s | -55.8°C | 5.0% | 86.7hPa | 2.6V | 02:20:00 | 00:00:00 | 00:00:00 | |
| OE5DXL-15 | 2026-08-31 10:46:33 | 48.15461 | 12.07799 | 47° | 46km/h | 17487m | 4.2m/s | -55.9°C | 5.1% | 86.8hPa | 2.7V | 00:00:00 | 00:00:00 | 00:00:00 | |
| BAUMI2-15 | 2026-08-31 10:46:32 | 48.15453 | 12.07786 | 45° | 51km/h | 17483m | 3.4m/s | -55.9°C | 5.1% | 86.8hPa | 2.7V | 00:00:00 | 01:14:25 | 00:00:00 | |
| S52SK | 2026-08-31 10:46:31 | 48.15453 | 12.07786 | 46° | 47km/h | 17483m | 3.5m/s | -56.0°C | 0% | 86.9hPa | 2.7V | 00:00:00 | 00:00:00 | 00:00:00 | |
| DK5PH-5 | 2026-08-31 10:46:30 | 48.15435 | 12.07759 | 44° | 44km/h | 17474m | 4.3m/s | -56.0°C | 5.1% | 87.0hPa | 2.7V | 00:00:00 | 01:14:23 | 00:00:00 | |
| DO3MHA-11 | 2026-08-31 10:46:29 | 48.15425 | 12.07746 | 42° | 49km/h | 17469m | 4.7m/s | -56.0°C | 5.1% | 87.0hPa | 2.7V | 00:00:00 | 01:14:22 | 00:00:00 | |
| DF7PN | 2026-08-31 10:46:28 | 48.15415 | 12.07733 | 39° | 49km/h | 17464m | 5.3m/s | -56.1°C | 1.8% | 87.2hPa | 2.7V | 00:00:00 | 00:00:00 | 00:00:00 | |
| OM5KV | 2026-08-31 10:46:27 | 48.15415 | 12.07733 | 41° | 51km/h | 17464m | 5.3m/s | -56.1°C | 1.8% | 87.2hPa | 2.7V | 02:20:00 | 00:00:00 | 00:00:00 | |
| DO3MHA-12 | 2026-08-31 10:46:25 | 48.15385 | 12.07697 | 38° | 46km/h | 17450m | 3.9m/s | -56.0°C | 5.0% | 87.3hPa | 2.7V | 00:00:00 | 01:14:18 | 00:00:00 | |
| BAUMI2-15 | 2026-08-31 10:46:22 | 48.15355 | 12.07665 | 37° | 44km/h | 17435m | 5.9m/s | -55.9°C | 4.9% | 87.5hPa | 2.7V | 00:00:00 | 01:14:15 | 00:00:00 | |
| OM5KV | 2026-08-31 10:46:21 | 48.15355 | 12.07665 | 37° | 47km/h | 17435m | 5.9m/s | -55.9°C | 1.7% | 87.6hPa | 2.7V | 02:20:00 | 00:00:00 | 00:00:00 | |
| S52SK | 2026-08-31 10:46:20 | 48.15346 | 12.07655 | 38° | 46km/h | 17430m | 4.2m/s | -55.9°C | 0% | 87.7hPa | 2.7V | 00:00:00 | 00:00:00 | 00:00:00 | |
| DO3MHA-11 | 2026-08-31 10:46:19 | 48.15328 | 12.07635 | 35° | 42km/h | 17420m | 5.5m/s | -55.9°C | 5.1% | 87.7hPa | 2.7V | 02:20:00 | 01:14:12 | 00:00:00 | |
| OE5MMP-10 | 2026-08-31 10:46:17 | 48.15310 | 12.07617 | 36° | 42km/h | 17411m | 5.3m/s | -55.8°C | 5.2% | 87.9hPa | 2.6V | 02:20:00 | 01:14:10 | 00:00:00 | |
| DL9SK-14 | 2026-08-31 10:46:16 | 48.15294 | 12.07599 | 36° | 40km/h | 17400m | 4.2m/s | -55.8°C | 1.8% | 88.1hPa | 2.6V | 00:00:00 | 00:00:00 | 00:00:00 | |
| DO3MHA-12 | 2026-08-31 10:46:15 | 48.15294 | 12.07599 | 37° | 42km/h | 17400m | 4.2m/s | -55.8°C | 5.1% | 88.0hPa | 2.6V | 02:20:00 | 01:14:08 | 00:00:00 | |
| OE5WHR-10 | 2026-08-31 10:46:14 | 48.15286 | 12.07590 | 34° | 38km/h | 17396m | 5.4m/s | -55.7°C | 5.1% | 88.1hPa | 2.6V | 00:00:00 | 00:00:00 | 00:00:00 | |
| DB0NH | 2026-08-31 10:46:13 | 48.15277 | 12.07581 | 35° | 37km/h | 17391m | 4.6m/s | -55.8°C | 5.1% | 88.1hPa | 2.6V | 00:00:00 | 01:14:06 | 00:00:00 | |
| BAUMI2-15 | 2026-08-31 10:46:12 | 48.15268 | 12.07572 | 35° | 42km/h | 17386m | 5.1m/s | -55.8°C | 5.0% | 88.2hPa | 2.6V | 02:20:00 | 01:14:05 | 00:00:00 | |
| DM0DOS-11 | 2026-08-31 10:46:11 | 48.15223 | 12.07530 | 34° | 42km/h | 17361m | 4.3m/s | -55.7°C | 0% | 0hPa | 2.6V | 00:00:00 | 01:14:00 | 00:00:00 | |
| OM5KV | 2026-08-31 10:46:10 | 48.15259 | 12.07563 | 35° | 42km/h | 17381m | 4.1m/s | -55.8°C | 1.7% | 88.3hPa | 2.6V | 02:20:00 | 00:00:00 | 00:00:00 | |
| DO3MHA-11 | 2026-08-31 10:46:09 | 48.15241 | 12.07547 | 30° | 38km/h | 17371m | 4.3m/s | -55.7°C | 5.0% | 88.4hPa | 2.6V | 00:00:00 | 01:14:02 | 00:00:00 | |
| OE5MMP-10 | 2026-08-31 10:46:08 | 48.15223 | 12.07530 | 35° | 38km/h | 17361m | 4.2m/s | -55.7°C | 4.9% | 88.5hPa | 2.6V | 00:00:00 | 01:14:00 | 00:00:00 | |
| DO3MHA-12 | 2026-08-31 10:46:05 | 48.15205 | 12.07513 | 33° | 37km/h | 17351m | 5.1m/s | -55.6°C | 4.9% | 88.7hPa | 2.6V | 00:00:00 | 01:13:58 | 00:00:00 | |
| OM5KV | 2026-08-31 10:46:04 | 48.15205 | 12.07513 | 34° | 40km/h | 17351m | 5.1m/s | -55.6°C | 1.7% | 88.8hPa | 2.6V | 02:20:00 | 00:00:00 | 00:00:00 | |
| OE5DXL-15 | 2026-08-31 10:46:03 | 48.15189 | 12.07496 | 39° | 35km/h | 17341m | 5.7m/s | -55.5°C | 4.9% | 88.8hPa | 2.6V | 02:20:00 | 00:00:00 | 00:00:00 | |
| DL6DJ-15 | 2026-08-31 10:45:58 | 48.15154 | 12.07455 | 38° | 35km/h | 17316m | 6.0m/s | -55.4°C | 1.7% | 89.2hPa | 2.7V | 00:00:00 | 00:00:00 | 00:00:00 | |
| OE5MMP-10 | 2026-08-31 10:45:57 | 48.15147 | 12.07447 | 43° | 35km/h | 17311m | 4.4m/s | -55.3°C | 5.1% | 89.3hPa | 2.7V | 00:00:00 | 01:13:50 | 00:00:00 | |
| OM5KV | 2026-08-31 10:45:55 | 48.15134 | 12.07430 | 41° | 35km/h | 17302m | 5.2m/s | -55.3°C | 1.7% | 89.4hPa | 2.7V | 02:21:00 | 00:00:00 | 00:00:00 | |
| DG1MFX-10 | 2026-08-31 10:45:54 | 48.15134 | 12.07430 | 41° | 35km/h | 17302m | 5.2m/s | -55.3°C | 1.8% | 89.4hPa | 2.7V | 02:21:00 | 00:00:00 | 00:00:00 | |
| OE5WHR-10 | 2026-08-31 10:45:53 | 48.15121 | 12.07412 | 42° | 35km/h | 17293m | 5.7m/s | -55.3°C | 4.9% | 89.5hPa | 2.7V | 00:00:00 | 01:13:46 | 00:00:00 | |
| DM0DOS-11 | 2026-08-31 10:45:52 | 48.15094 | 12.07379 | 38° | 31km/h | 17273m | 4.4m/s | -55.4°C | 0% | 0hPa | 2.7V | 00:00:00 | 01:13:42 | 00:00:00 | |
| BAUMI2-15 | 2026-08-31 10:45:52 | 48.15114 | 12.07403 | 43° | 33km/h | 17288m | 4.3m/s | -55.3°C | 4.8% | 89.6hPa | 2.7V | 00:00:00 | 01:13:45 | 00:00:00 | |
| DO3MHA-11 | 2026-08-31 10:45:49 | 48.15094 | 12.07379 | 39° | 33km/h | 17274m | 4.4m/s | -55.4°C | 4.9% | 89.8hPa | 2.7V | 02:21:00 | 01:13:42 | 00:00:00 | |
| DB0UT-7 | 2026-08-31 10:45:48 | 48.15088 | 12.07371 | 44° | 37km/h | 17268m | 6.4m/s | -55.3°C | 4.9% | 89.8hPa | 2.7V | 02:21:00 | 01:13:41 | 00:00:00 | |
| OE5MMP-10 | 2026-08-31 10:45:47 | 48.15083 | 12.07363 | 51° | 35km/h | 17263m | 4.5m/s | -55.2°C | 4.9% | 89.9hPa | 2.6V | 02:21:00 | 01:13:40 | 00:00:00 | |
| DL9SK-14 | 2026-08-31 10:45:45 | 48.15069 | 12.07337 | 49° | 29km/h | 17247m | 3.9m/s | -55.2°C | 1.7% | 90.2hPa | 2.7V | 00:00:00 | 00:00:00 | 00:00:00 | |
| NBG1-10 | 2026-08-31 10:45:44 | 48.15069 | 12.07337 | 50° | 37km/h | 17247m | 3.8m/s | -55.2°C | 5.0% | 90.2hPa | 2.7V | 02:21:00 | 01:13:37 | 00:00:00 | |
| DB0NH | 2026-08-31 10:45:43 | 48.15064 | 12.07328 | 50° | 38km/h | 17243m | 3.8m/s | -55.1°C | 5.0% | 90.2hPa | 2.6V | 02:21:00 | 01:13:36 | 00:00:00 | |
| BAUMI2-15 | 2026-08-31 10:45:42 | 48.15059 | 12.07318 | 52° | 40km/h | 17239m | 5.5m/s | -55.1°C | 5.0% | 90.3hPa | 2.6V | 02:21:00 | 01:13:35 | 00:00:00 | |
| DO3MHA-11 | 2026-08-31 10:45:39 | 48.15040 | 12.07282 | 52° | 37km/h | 17224m | 5.8m/s | -55.1°C | 4.9% | 90.5hPa | 2.6V | 00:00:00 | 01:13:32 | 00:00:00 | |
| OE5MMP-10 | 2026-08-31 10:45:37 | 48.15027 | 12.07258 | 49° | 35km/h | 17214m | 4.1m/s | -55.1°C | 4.8% | 90.6hPa | 2.6V | 00:00:00 | 01:13:30 | 00:00:00 | |
| DO3MHA-12 | 2026-08-31 10:45:35 | 48.15014 | 12.07235 | 52° | 33km/h | 17204m | 3.9m/s | -55.1°C | 4.8% | 90.8hPa | 2.6V | 00:00:00 | 01:13:28 | 00:00:00 | |
| OE5DXL-15 | 2026-08-31 10:45:33 | 48.15003 | 12.07214 | 55° | 38km/h | 17195m | 4.4m/s | -55.1°C | 4.7% | 90.9hPa | 2.6V | 00:00:00 | 00:00:00 | 00:00:00 | |
| DK5PH-5 | 2026-08-31 10:45:30 | 48.14992 | 12.07184 | 64° | 40km/h | 17181m | 4.4m/s | -55.1°C | 4.8% | 91.1hPa | 2.6V | 00:00:00 | 01:13:23 | 00:00:00 | |
| DO3MHA-11 | 2026-08-31 10:45:29 | 48.14988 | 12.07173 | 65° | 38km/h | 17177m | 4.4m/s | -55.1°C | 4.8% | 91.2hPa | 2.6V | 00:00:00 | 01:13:22 | 00:00:00 | |
| OE5MMP-10 | 2026-08-31 10:45:27 | 48.14981 | 12.07151 | 64° | 40km/h | 17167m | 3.4m/s | -55.1°C | 4.8% | 91.3hPa | 2.6V | 00:00:00 | 01:13:20 | 00:00:00 | |
| DF7PN | 2026-08-31 10:45:26 | 48.14977 | 12.07139 | 64° | 35km/h | 17163m | 4.7m/s | -55.1°C | 1.7% | 91.4hPa | 2.6V | 00:00:00 | 00:00:00 | 00:00:00 | |
| DO3MHA-12 | 2026-08-31 10:45:25 | 48.14973 | 12.07126 | 67° | 40km/h | 17158m | 5.5m/s | -55.1°C | 4.9% | 91.4hPa | 2.6V | 00:00:00 | 01:13:18 | 00:00:00 | |
| OM5KV | 2026-08-31 10:45:24 | 48.14973 | 12.07126 | 67° | 40km/h | 17158m | 5.5m/s | -55.1°C | 1.7% | 91.5hPa | 2.6V | 02:21:00 | 00:00:00 | 00:00:00 | |
| BAUMI2-15 | 2026-08-31 10:45:22 | 48.14961 | 12.07083 | 68° | 42km/h | 17143m | 4.2m/s | -55.2°C | 4.9% | 91.6hPa | 2.6V | 00:00:00 | 01:13:15 | 00:00:00 | |
| OM5KV | 2026-08-31 10:45:20 | 48.14957 | 12.07069 | 68° | 44km/h | 17138m | 5.6m/s | -55.2°C | 1.8% | 91.7hPa | 2.6V | 02:21:00 | 00:00:00 | 00:00:00 | |
| DO3MHA-11 | 2026-08-31 10:45:19 | 48.14949 | 12.07039 | 68° | 37km/h | 17129m | 4.8m/s | -55.2°C | 4.8% | 91.8hPa | 2.6V | 02:21:00 | 01:13:12 | 00:00:00 | |
| DB0UT-7 | 2026-08-31 10:45:18 | 48.14945 | 12.07025 | 68° | 42km/h | 17124m | 4.8m/s | -55.3°C | 4.9% | 91.9hPa | 2.7V | 00:00:00 | 00:00:00 | 00:00:00 | |
| OE5MMP-10 | 2026-08-31 10:45:17 | 48.14942 | 12.07012 | 70° | 38km/h | 17119m | 3.4m/s | -55.2°C | 4.8% | 92.0hPa | 2.7V | 02:21:00 | 01:13:10 | 00:00:00 | |
| PG1ADW-2 | 2026-08-31 10:45:16 | 48.14939 | 12.07000 | 71° | 42km/h | 17115m | 5.2m/s | -55.3°C | 4.7% | 92.0hPa | 2.7V | 00:00:00 | 01:13:09 | 00:00:00 | |
| DG1MFX-10 | 2026-08-31 10:45:13 | 48.14933 | 12.06976 | 73° | 33km/h | 17106m | 5.4m/s | -55.5°C | 1.7% | 92.2hPa | 2.7V | 02:21:00 | 00:00:00 | 00:00:00 | |
| BAUMI2-15 | 2026-08-31 10:45:12 | 48.14928 | 12.06952 | 73° | 42km/h | 17097m | 3.2m/s | -55.5°C | 4.8% | 92.3hPa | 2.7V | 02:21:00 | 01:13:05 | 00:00:00 | |
| DO3MHA-11 | 2026-08-31 10:45:09 | 48.14919 | 12.06906 | 78° | 46km/h | 17083m | 4.5m/s | -55.5°C | 5.0% | 92.5hPa | 2.7V | 00:00:00 | 01:13:02 | 00:00:00 | |
| DO3MHA-12 | 2026-08-31 10:45:08 | 48.14907 | 12.06837 | 76° | 44km/h | 17062m | 6.0m/s | -55.7°C | 5.0% | 92.8hPa | 2.7V | 00:00:00 | 01:12:58 | 00:00:00 | |
| DF3TZ-5 | 2026-08-31 10:44:56 | 48.14886 | 12.06671 | 79° | 49km/h | 17015m | 5.4m/s | 0°C | -1.0% | -1.0hPa | 2.7V | 00:00:00 | 00:00:00 | 00:00:00 | |
| DO3MHA-12 | 2026-08-31 10:44:55 | 48.14886 | 12.06671 | 80° | 53km/h | 17015m | 5.3m/s | -56.3°C | 5.1% | 93.5hPa | 2.7V | 00:00:00 | 01:12:48 | 00:00:00 | |
| DG1MFX-10 | 2026-08-31 10:44:52 | 48.14882 | 12.06633 | 83° | 51km/h | 17005m | 4.1m/s | -56.3°C | 1.9% | 93.7hPa | 2.7V | 02:22:00 | 00:00:00 | 00:00:00 | |
| OM5KV | 2026-08-31 10:44:51 | 48.14880 | 12.06614 | 81° | 51km/h | 17000m | 6.0m/s | -56.3°C | 1.9% | 93.8hPa | 2.7V | 02:22:00 | 00:00:00 | 00:00:00 | |
| DM0DOS-11 | 2026-08-31 10:44:49 | 48.14870 | 12.06534 | 80° | 55km/h | 16980m | 5.4m/s | -56.3°C | 0% | 0hPa | 2.7V | 00:00:00 | 01:12:41 | 00:00:00 | |
| DO3MHA-11 | 2026-08-31 10:44:49 | 48.14873 | 12.06554 | 81° | 55km/h | 16986m | 5.2m/s | -56.3°C | 5.1% | 93.9hPa | 2.7V | 02:22:00 | 01:12:42 | 00:00:00 | |
| DB0UT-7 | 2026-08-31 10:44:48 | 48.14871 | 12.06534 | 81° | 62km/h | 16980m | 5.4m/s | -56.2°C | 5.2% | 94.0hPa | 2.6V | 00:00:00 | 01:12:41 | 00:00:00 | |
| OE5MMP-10 | 2026-08-31 10:44:47 | 48.14868 | 12.06513 | 80° | 57km/h | 16975m | 4.6m/s | -56.2°C | 5.2% | 94.1hPa | 2.6V | 02:22:00 | 01:12:40 | 00:00:00 | |
| DO3MHA-12 | 2026-08-31 10:44:45 | 48.14864 | 12.06473 | 82° | 57km/h | 16966m | 5.2m/s | -56.3°C | 5.3% | 94.2hPa | 2.6V | 02:22:00 | 01:12:38 | 00:00:00 | |
| DL9SK-14 | 2026-08-31 10:44:42 | 48.14856 | 12.06411 | 78° | 55km/h | 16951m | 4.7m/s | -56.3°C | 2.0% | 94.5hPa | 2.7V | 00:00:00 | 00:00:00 | 00:00:00 | |
| DO3MHA-11 | 2026-08-31 10:44:39 | 48.14847 | 12.06347 | 78° | 62km/h | 16937m | 5.2m/s | -56.5°C | 5.2% | 94.6hPa | 2.7V | 00:00:00 | 01:12:32 | 00:00:00 | |
| OE5DRO-10 | 2026-08-31 10:44:38 | 48.14844 | 12.06326 | 76° | 64km/h | 16931m | 4.9m/s | -56.6°C | 5.2% | 94.7hPa | 2.7V | 00:00:00 | 00:00:00 | 00:00:00 | |
| DM0DOS-11 | 2026-08-31 10:44:37 | 48.14820 | 12.06169 | 78° | 64km/h | 16898m | 4.8m/s | -56.6°C | 0% | 0hPa | 2.7V | 00:00:00 | 01:12:24 | 00:00:00 | |
| PG1ADW-2 | 2026-08-31 10:44:36 | 48.14836 | 12.06282 | 78° | 66km/h | 16922m | 5.3m/s | -56.5°C | 5.2% | 94.9hPa | 2.6V | 00:00:00 | 00:00:00 | 00:00:00 | |
| DO3MHA-12 | 2026-08-31 10:44:35 | 48.14833 | 12.06259 | 79° | 64km/h | 16918m | 4.2m/s | -56.5°C | 5.2% | 94.9hPa | 2.6V | 00:00:00 | 01:12:28 | 00:00:00 | |
| OM5KV | 2026-08-31 10:44:34 | 48.14833 | 12.06259 | 79° | 62km/h | 16918m | 4.3m/s | -56.6°C | 1.9% | 95.0hPa | 2.6V | 02:22:00 | 00:00:00 | 00:00:00 | |
| OE5DXL-15 | 2026-08-31 10:44:33 | 48.14826 | 12.06214 | 77° | 71km/h | 16908m | 3.9m/s | -56.5°C | 5.2% | 95.1hPa | 2.6V | 02:22:00 | 00:00:00 | 00:00:00 | |
| DG1MFX-10 | 2026-08-31 10:44:31 | 48.14823 | 12.06192 | 79° | 62km/h | 16903m | 5.3m/s | -56.7°C | 2.0% | 95.2hPa | 2.6V | 02:22:00 | 00:00:00 | 00:00:00 | |
| OE5WHR-10 | 2026-08-31 10:44:30 | 48.14813 | 12.06121 | 77° | 71km/h | 16889m | 5.4m/s | -56.6°C | 5.2% | 95.4hPa | 2.6V | 02:22:00 | 00:00:00 | 00:00:00 | |
| DO3MHA-11 | 2026-08-31 10:44:29 | 48.14813 | 12.06121 | 77° | 68km/h | 16889m | 5.4m/s | -56.6°C | 5.2% | 95.4hPa | 2.7V | 00:00:00 | 01:12:22 | 00:00:00 | |
| OM5KV | 2026-08-31 10:44:28 | 48.14813 | 12.06121 | 77° | 66km/h | 16889m | 5.4m/s | -56.6°C | 2.0% | 95.4hPa | 2.7V | 02:22:00 | 00:00:00 | 00:00:00 | |
| OE5MMP-10 | 2026-08-31 10:44:27 | 48.14805 | 12.06073 | 77° | 68km/h | 16879m | 5.9m/s | -56.8°C | 5.3% | 95.5hPa | 2.7V | 00:00:00 | 01:12:20 | 00:00:00 | |
| DO3MHA-12 | 2026-08-31 10:44:25 | 48.14797 | 12.06023 | 76° | 69km/h | 16869m | 5.2m/s | -56.9°C | 5.5% | 95.7hPa | 2.7V | 00:00:00 | 01:12:18 | 00:00:00 | |
| DF7PN | 2026-08-31 10:44:24 | 48.14792 | 12.05999 | 73° | 68km/h | 16864m | 4.4m/s | -57.1°C | 2.1% | 95.8hPa | 2.7V | 00:00:00 | 00:00:00 | 00:00:00 | |
| OM5KV | 2026-08-31 10:44:22 | 48.14788 | 12.05973 | 75° | 69km/h | 16859m | 5.0m/s | -57.2°C | 2.1% | 95.9hPa | 2.7V | 02:22:00 | 00:00:00 | 00:00:00 | |
| DM0DOS-11 | 2026-08-31 10:44:19 | 48.14744 | 12.05714 | 74° | 78km/h | 16812m | 4.5m/s | -57.5°C | 0% | 0hPa | 2.7V | 00:00:00 | 01:12:06 | 00:00:00 | |
| DO3MHA-11 | 2026-08-31 10:44:19 | 48.14771 | 12.05875 | 76° | 75km/h | 16841m | 5.0m/s | -57.5°C | 5.6% | 96.1hPa | 2.7V | 02:22:00 | 01:12:12 | 00:00:00 | |
| DG1MJG | 2026-08-31 10:44:18 | 48.14771 | 12.05875 | 76° | 68km/h | 16841m | 5.1m/s | -57.6°C | 2.1% | 96.1hPa | 2.6V | 02:23:00 | 00:00:00 | 00:00:00 | |
| OE5MMP-10 | 2026-08-31 10:44:17 | 48.14762 | 12.05824 | 77° | 77km/h | 16831m | 5.0m/s | -57.5°C | 5.5% | 96.3hPa | 2.6V | 02:22:00 | 01:12:10 | 00:00:00 | |
| DB0UT-7 | 2026-08-31 10:44:16 | 48.14758 | 12.05798 | 78° | 78km/h | 16826m | 4.9m/s | -57.5°C | 5.5% | 96.3hPa | 2.6V | 02:22:00 | 00:00:00 | 00:00:00 | |
| DO3MHA-12 | 2026-08-31 10:44:15 | 48.14754 | 12.05771 | 78° | 78km/h | 16822m | 3.6m/s | -57.5°C | 5.4% | 96.4hPa | 2.6V | 02:22:00 | 01:12:08 | 00:00:00 | |
| DL9SK-14 | 2026-08-31 10:44:11 | 48.14733 | 12.05656 | 73° | 80km/h | 16802m | 4.0m/s | -57.5°C | 2.1% | 96.7hPa | 2.6V | 00:00:00 | 00:00:00 | 00:00:00 | |
| OM5KV | 2026-08-31 10:44:10 | 48.14734 | 12.05656 | 74° | 80km/h | 16802m | 4.0m/s | -57.5°C | 2.1% | 96.7hPa | 2.6V | 02:23:00 | 00:00:00 | 00:00:00 | |
| DM0DOS-11 | 2026-08-31 10:44:09 | 48.14684 | 12.05463 | 67° | 78km/h | 16769m | 5.1m/s | -57.6°C | 0% | 0hPa | 2.6V | 00:00:00 | 01:11:57 | 00:00:00 | |
| DO3MHA-11 | 2026-08-31 10:44:09 | 48.14720 | 12.05599 | 69° | 78km/h | 16793m | 5.3m/s | -57.5°C | 5.7% | 96.8hPa | 2.7V | 00:00:00 | 01:12:02 | 00:00:00 | |
| OE5MMP-10 | 2026-08-31 10:44:08 | 48.14705 | 12.05544 | 69° | 80km/h | 16784m | 5.4m/s | -57.5°C | 5.7% | 97.0hPa | 2.7V | 00:00:00 | 01:12:00 | 00:00:00 | |
| DB0NH | 2026-08-31 10:44:07 | 48.14705 | 12.05544 | 69° | 69km/h | 16784m | 5.4m/s | -57.5°C | 5.7% | 97.0hPa | 2.7V | 02:22:00 | 01:12:00 | 00:00:00 | |
| DO3MHA-12 | 2026-08-31 10:44:05 | 48.14691 | 12.05490 | 69° | 82km/h | 16774m | 5.3m/s | -57.5°C | 5.6% | 97.1hPa | 2.6V | 00:00:00 | 01:11:58 | 00:00:00 | |
| OM5KV | 2026-08-31 10:44:04 | 48.14691 | 12.05490 | 69° | 77km/h | 16774m | 5.3m/s | -57.6°C | 2.1% | 97.2hPa | 2.6V | 02:23:00 | 00:00:00 | 00:00:00 | |
| OE5DXL-15 | 2026-08-31 10:44:03 | 48.14676 | 12.05435 | 70° | 78km/h | 16764m | 4.9m/s | -57.6°C | 5.5% | 97.2hPa | 2.6V | 00:00:00 | 00:00:00 | 00:00:00 | |
| DM0DOS-11 | 2026-08-31 10:44:00 | 48.14603 | 12.05177 | 56° | 78km/h | 16719m | 3.7m/s | -58.3°C | 0% | 0hPa | 2.6V | 00:00:00 | 01:11:47 | 00:00:00 | |
| DL6DJ-15 | 2026-08-31 10:43:54 | 48.14603 | 12.05177 | 56° | 78km/h | 16719m | 3.7m/s | -58.3°C | 2.3% | 98.0hPa | 2.6V | 00:00:00 | 00:00:00 | 00:00:00 | |
| DF7PN | 2026-08-31 10:43:53 | 48.14592 | 12.05153 | 56° | 77km/h | 16715m | 5.1m/s | -58.3°C | 2.3% | 98.1hPa | 2.6V | 00:00:00 | 00:00:00 | 00:00:00 | |
| DG1MFX-10 | 2026-08-31 10:43:50 | 48.14573 | 12.05103 | 62° | 77km/h | 16706m | 4.5m/s | -58.5°C | 2.4% | 98.2hPa | 2.6V | 02:23:00 | 00:00:00 | 00:00:00 | |
| DM0DOS-11 | 2026-08-31 10:43:49 | 48.14511 | 12.04918 | 62° | 80km/h | 16672m | 4.8m/s | -58.7°C | 0% | 0hPa | 2.6V | 00:00:00 | 01:11:37 | 00:00:00 | |
| DO3MHA-11 | 2026-08-31 10:43:49 | 48.14554 | 12.05051 | 64° | 78km/h | 16696m | 4.2m/s | -58.6°C | 6.1% | 98.3hPa | 2.6V | 02:23:00 | 01:11:42 | 00:00:00 | |
| OM5KV | 2026-08-31 10:43:48 | 48.14554 | 12.05051 | 64° | 78km/h | 16696m | 4.3m/s | -58.6°C | 0% | 0hPa | 2.6V | 02:23:00 | 00:00:00 | 00:00:00 | |
| OE5MMP-10 | 2026-08-31 10:43:47 | 48.14537 | 12.04998 | 66° | 78km/h | 16687m | 5.9m/s | -58.7°C | 6.1% | 98.5hPa | 2.6V | 02:23:00 | 01:11:40 | 00:00:00 | |
| DO3MHA-12 | 2026-08-31 10:43:45 | 48.14520 | 12.04945 | 64° | 77km/h | 16677m | 5.0m/s | -58.7°C | 6.1% | 98.6hPa | 2.7V | 02:23:00 | 01:11:38 | 00:00:00 | |
| OM5KV | 2026-08-31 10:43:42 | 48.14502 | 12.04891 | 63° | 80km/h | 16667m | 4.2m/s | -58.7°C | 0% | 0hPa | 2.7V | 02:23:00 | 00:00:00 | 00:00:00 | |
| OE5DRO-10 | 2026-08-31 10:43:40 | 48.14473 | 12.04814 | 61° | 71km/h | 16652m | 5.4m/s | -58.6°C | 6.1% | 99.0hPa | 2.7V | 00:00:00 | 00:00:00 | 00:00:00 | |
| DM0DOS-11 | 2026-08-31 10:43:39 | 48.14416 | 12.04669 | 59° | 73km/h | 16620m | 6m/s | 0°C | 0% | 0hPa | 2.7V | 00:00:00 | 01:11:27 | 00:00:00 | |
| DO3MHA-11 | 2026-08-31 10:43:39 | 48.14464 | 12.04789 | 60° | 73km/h | 16646m | 5.6m/s | -58.6°C | 6.2% | 99.1hPa | 2.6V | 00:00:00 | 01:11:32 | 00:00:00 | |
| OE5MMP-10 | 2026-08-31 10:43:37 | 48.14444 | 12.04740 | 60° | 73km/h | 16636m | 6.4m/s | -58.6°C | 6.2% | 99.3hPa | 2.6V | 00:00:00 | 01:11:30 | 00:00:00 | |
| PG1ADW-2 | 2026-08-31 10:43:36 | 48.14434 | 12.04716 | 60° | 71km/h | 16630m | 4.6m/s | -58.6°C | 6.1% | 99.3hPa | 2.6V | 00:00:00 | 00:00:00 | 00:00:00 | |
| DO3MHA-12 | 2026-08-31 10:43:35 | 48.14425 | 12.04693 | 60° | 73km/h | 16626m | 4.3m/s | -58.6°C | 6.1% | 99.4hPa | 2.6V | 00:00:00 | 01:11:28 | 00:00:00 | |
| OE5DXL-15 | 2026-08-31 10:43:33 | 48.14407 | 12.04645 | 60° | 71km/h | 16615m | 4.3m/s | -58.5°C | 6.1% | 99.6hPa | 2.6V | 00:00:00 | 00:00:00 | 00:00:00 | |
| NBG1-10 | 2026-08-31 10:43:32 | 48.14397 | 12.04621 | 61° | 69km/h | 16611m | 4.9m/s | -58.5°C | 6.1% | 99.7hPa | 2.6V | 00:00:00 | 01:11:25 | 00:00:00 | |
| DK5PH-5 | 2026-08-31 10:43:30 | 48.14379 | 12.04573 | 61° | 69km/h | 16601m | 4.5m/s | -58.4°C | 6.1% | 99.8hPa | 2.6V | 00:00:00 | 01:11:23 | 00:00:00 | |
| DO3MHA-11 | 2026-08-31 10:43:29 | 48.14370 | 12.04549 | 60° | 71km/h | 16596m | 5.3m/s | -58.4°C | 6.1% | 99.9hPa | 2.6V | 00:00:00 | 01:11:22 | 00:00:00 | |
| OE5MMP-10 | 2026-08-31 10:43:27 | 48.14349 | 12.04501 | 55° | 69km/h | 16586m | 4.0m/s | -58.3°C | 6.1% | 100.1hPa | 2.6V | 00:00:00 | 01:11:20 | 00:00:00 | |
| OE5WHR-10 | 2026-08-31 10:43:26 | 48.14338 | 12.04480 | 53° | 69km/h | 16581m | 5.6m/s | -58.3°C | 6.0% | 100.1hPa | 2.6V | 02:23:00 | 00:00:00 | 00:00:00 | |
| DO3MHA-12 | 2026-08-31 10:43:25 | 48.14327 | 12.04458 | 52° | 69km/h | 16576m | 4.5m/s | -58.2°C | 6.0% | 100.2hPa | 2.6V | 00:00:00 | 01:11:18 | 00:00:00 | |
| DL6DJ-15 | 2026-08-31 10:43:23 | 48.14305 | 12.04418 | 50° | 69km/h | 16566m | 6.1m/s | -58.3°C | 2.2% | 100.5hPa | 2.6V | 00:00:00 | 00:00:00 | 00:00:00 | |
| DF7PN | 2026-08-31 10:43:22 | 48.14283 | 12.04378 | 52° | 68km/h | 16556m | 6.0m/s | -58.2°C | 2.3% | 100.6hPa | 2.6V | 00:00:00 | 00:00:00 | 00:00:00 | |
| OM5KV | 2026-08-31 10:43:20 | 48.14283 | 12.04378 | 53° | 68km/h | 16556m | 6.0m/s | -58.2°C | 0% | 100.6hPa | 2.6V | 00:00:00 | 00:00:00 | 00:00:00 | |
| DO3MHA-11 | 2026-08-31 10:43:19 | 48.14263 | 12.04336 | 55° | 71km/h | 16546m | 5.3m/s | -58.1°C | 6.0% | 100.7hPa | 2.6V | 02:23:00 | 01:11:12 | 00:00:00 | |
| OE5MMP-10 | 2026-08-31 10:43:17 | 48.14242 | 12.04292 | 54° | 69km/h | 16537m | 3.8m/s | -58.1°C | 6.0% | 100.9hPa | 2.7V | 02:23:00 | 01:11:10 | 00:00:00 | |
| PG1ADW-2 | 2026-08-31 10:43:16 | 48.14231 | 12.04271 | 54° | 69km/h | 16532m | 5.7m/s | -58.1°C | 6.1% | 100.9hPa | 2.6V | 00:00:00 | 00:00:00 | 00:00:00 | |
| DO3MHA-12 | 2026-08-31 10:43:15 | 48.14221 | 12.04250 | 54° | 69km/h | 16527m | 4.3m/s | -58.0°C | 6.0% | 101.0hPa | 2.6V | 02:23:00 | 01:11:08 | 00:00:00 | |
| OM5KV | 2026-08-31 10:43:14 | 48.14221 | 12.04250 | 54° | 69km/h | 16527m | 4.3m/s | -58.0°C | 0% | 0hPa | 2.7V | 00:00:00 | 00:00:00 | 00:00:00 | |
| DG1MFX-10 | 2026-08-31 10:43:10 | 48.14178 | 12.04162 | 56° | 71km/h | 16508m | 5.8m/s | -58.0°C | 2.3% | 101.4hPa | 2.7V | 02:24:00 | 00:00:00 | 00:00:00 | |
| DO3MHA-11 | 2026-08-31 10:43:09 | 48.14157 | 12.04121 | 53° | 68km/h | 16497m | 5.1m/s | -57.9°C | 6.1% | 101.5hPa | 2.7V | 00:00:00 | 01:11:02 | 00:00:00 | |
| OE5MMP-10 | 2026-08-31 10:43:07 | 48.14136 | 12.04082 | 50° | 68km/h | 16486m | 5.4m/s | -57.9°C | 6.0% | 101.7hPa | 2.7V | 00:00:00 | 01:11:00 | 00:00:00 | |
| OE5WHR-10 | 2026-08-31 10:43:05 | 48.14114 | 12.04043 | 49° | 62km/h | 16476m | 6.2m/s | -57.9°C | 5.9% | 101.9hPa | 2.7V | 00:00:00 | 00:00:00 | 00:00:00 | |
| OM5KV | 2026-08-31 10:43:03 | 48.14103 | 12.04025 | 49° | 66km/h | 16471m | 4.2m/s | -57.9°C | 0% | 0hPa | 2.7V | 00:00:00 | 00:00:00 | 00:00:00 | |
| DL6DJ-15 | 2026-08-31 10:42:52 | 48.13967 | 12.03781 | 45° | 58km/h | 16400m | 4.2m/s | -57.7°C | 2.3% | 103.2hPa | 2.7V | 00:00:00 | 00:00:00 | 00:00:00 | |
| DF7PN | 2026-08-31 10:42:51 | 48.13956 | 12.03765 | 45° | 58km/h | 16395m | 6.3m/s | -57.6°C | 2.3% | 103.2hPa | 2.7V | 00:00:00 | 00:00:00 | 00:00:00 | |
| DO3MHA-11 | 2026-08-31 10:42:49 | 48.13946 | 12.03749 | 46° | 58km/h | 16389m | 5.4m/s | -57.6°C | 6.0% | 103.3hPa | 2.7V | 02:24:00 | 01:10:42 | 00:00:00 | |
| OE5MMP-10 | 2026-08-31 10:42:47 | 48.13924 | 12.03718 | 43° | 58km/h | 16378m | 4.3m/s | -57.5°C | 6.1% | 103.5hPa | 2.6V | 02:24:00 | 01:10:40 | 00:00:00 | |
| DB0UT-7 | 2026-08-31 10:42:46 | 48.13913 | 12.03703 | 43° | 55km/h | 16373m | 5.8m/s | -57.5°C | 5.9% | 103.5hPa | 2.6V | 02:24:00 | 01:10:39 | 00:00:00 | |
| DG1MJG | 2026-08-31 10:42:45 | 48.13913 | 12.03703 | 43° | 58km/h | 16373m | 5.8m/s | -57.6°C | 2.3% | 103.6hPa | 2.6V | 02:24:00 | 00:00:00 | 00:00:00 | |
| OE5WHR-10 | 2026-08-31 10:42:44 | 48.13892 | 12.03673 | 44° | 57km/h | 16360m | 4.6m/s | -57.5°C | 6.0% | 103.7hPa | 2.6V | 00:00:00 | 01:10:37 | 00:00:00 | |
| OM5KV | 2026-08-31 10:42:42 | 48.13882 | 12.03658 | 46° | 58km/h | 16355m | 6.4m/s | 0°C | 0% | 0hPa | 2.6V | 00:00:00 | 00:00:00 | 00:00:00 | |
| BAUMI2-15 | 2026-08-31 10:42:41 | 48.13861 | 12.03626 | 46° | 58km/h | 16344m | 5.6m/s | -57.3°C | 6.0% | 104.0hPa | 2.6V | 00:00:00 | 01:10:34 | 00:00:00 | |
| OM5KV | 2026-08-31 10:42:40 | 48.13861 | 12.03626 | 46° | 58km/h | 16344m | 5.7m/s | 0°C | 0% | 0hPa | 2.6V | 00:00:00 | 00:00:00 | 00:00:00 | |
| DO3MHA-11 | 2026-08-31 10:42:39 | 48.13840 | 12.03596 | 44° | 55km/h | 16334m | 3.8m/s | -57.2°C | 5.9% | 104.2hPa | 2.6V | 00:00:00 | 01:10:32 | 00:00:00 | |
| OE5DRO-10 | 2026-08-31 10:42:38 | 48.13829 | 12.03581 | 43° | 55km/h | 16328m | 6.4m/s | -57.2°C | 5.9% | 104.2hPa | 2.6V | 00:00:00 | 00:00:00 | 00:00:00 | |
| OE5MMP-10 | 2026-08-31 10:42:37 | 48.13818 | 12.03566 | 42° | 55km/h | 16322m | 5.6m/s | -57.1°C | 6.0% | 104.4hPa | 2.6V | 00:00:00 | 01:10:30 | 00:00:00 | |
| BAUMI2-15 | 2026-08-31 10:42:36 | 48.13807 | 12.03552 | 42° | 55km/h | 16317m | 5.0m/s | -57.0°C | 5.9% | 104.5hPa | 2.6V | 02:24:00 | 01:10:29 | 00:00:00 | |
| OM5KV | 2026-08-31 10:42:35 | 48.13807 | 12.03552 | 42° | 57km/h | 16317m | 5.0m/s | 0°C | 0% | 0hPa | 2.7V | 00:00:00 | 00:00:00 | 00:00:00 | |
| OE5DXL-15 | 2026-08-31 10:42:33 | 48.13776 | 12.03513 | 37° | 53km/h | 16300m | 6.6m/s | -56.9°C | 5.8% | 104.7hPa | 2.7V | 00:00:00 | 00:00:00 | 00:00:00 | |
| DK5PH-5 | 2026-08-31 10:42:30 | 48.13741 | 12.03479 | 31° | 51km/h | 16282m | 6.6m/s | -56.8°C | 5.8% | 105.0hPa | 2.7V | 00:00:00 | 01:10:23 | 00:00:00 | |
| DO3MHA-11 | 2026-08-31 10:42:29 | 48.13729 | 12.03469 | 32° | 53km/h | 16276m | 5.3m/s | -56.8°C | 5.8% | 105.1hPa | 2.7V | 00:00:00 | 01:10:22 | 00:00:00 | |
| OE5MMP-10 | 2026-08-31 10:42:27 | 48.13706 | 12.03446 | 36° | 51km/h | 16264m | 4.7m/s | -56.8°C | 5.8% | 105.3hPa | 2.7V | 00:00:00 | 01:10:20 | 00:00:00 | |
| NBG1-10 | 2026-08-31 10:42:26 | 48.13695 | 12.03434 | 37° | 51km/h | 16258m | 6.7m/s | -56.7°C | 5.9% | 105.4hPa | 2.7V | 02:24:00 | 01:10:19 | 00:00:00 | |
| OM5KV | 2026-08-31 10:42:25 | 48.13673 | 12.03409 | 41° | 53km/h | 16248m | 4.1m/s | 0°C | 0% | 0hPa | 2.6V | 00:00:00 | 00:00:00 | 00:00:00 | |
| OE5WHR-10 | 2026-08-31 10:42:24 | 48.13663 | 12.03396 | 41° | 51km/h | 16243m | 6.3m/s | -56.6°C | 5.8% | 105.7hPa | 2.6V | 02:24:00 | 00:00:00 | 00:00:00 | |
| DL6DJ-15 | 2026-08-31 10:42:21 | 48.13633 | 12.03359 | 36° | 47km/h | 16226m | 5.8m/s | -56.5°C | 2.3% | 106.0hPa | 2.6V | 00:00:00 | 00:00:00 | 00:00:00 | |
| DF7PN | 2026-08-31 10:42:20 | 48.13623 | 12.03349 | 32° | 47km/h | 16221m | 5.2m/s | -56.4°C | 2.3% | 106.1hPa | 2.6V | 00:00:00 | 00:00:00 | 00:00:00 | |
| DO3MHA-11 | 2026-08-31 10:42:19 | 48.13623 | 12.03349 | 33° | 51km/h | 16221m | 5.2m/s | -56.4°C | 5.8% | 106.0hPa | 2.6V | 02:24:00 | 01:10:12 | 00:00:00 | |
| OM5KV | 2026-08-31 10:42:18 | 48.13623 | 12.03349 | 34° | 47km/h | 16221m | 5.2m/s | 0°C | 0% | 0hPa | 2.7V | 00:00:00 | 00:00:00 | 00:00:00 | |
| OE5MMP-10 | 2026-08-31 10:42:17 | 48.13601 | 12.03330 | 29° | 51km/h | 16210m | 3.5m/s | -56.3°C | 5.7% | 106.2hPa | 2.7V | 02:24:00 | 01:10:10 | 00:00:00 | |
| DB0UT-7 | 2026-08-31 10:42:16 | 48.13590 | 12.03321 | 27° | 49km/h | 16206m | 5.8m/s | -56.3°C | 5.7% | 106.3hPa | 2.6V | 00:00:00 | 00:00:00 | 00:00:00 | |
| DO3MHA-12 | 2026-08-31 10:42:15 | 48.13578 | 12.03312 | 26° | 51km/h | 16200m | 5.0m/s | -56.2°C | 5.7% | 106.4hPa | 2.6V | 02:24:00 | 01:10:08 | 00:00:00 | |
| OM5KV | 2026-08-31 10:42:12 | 48.13554 | 12.03295 | 29° | 55km/h | 16190m | 5.6m/s | 0°C | 0% | 0hPa | 2.7V | 00:00:00 | 00:00:00 | 00:00:00 | |
| BAUMI2-15 | 2026-08-31 10:42:10 | 48.13519 | 12.03264 | 35° | 51km/h | 16174m | 4.7m/s | -56.0°C | 5.7% | 106.8hPa | 2.7V | 00:00:00 | 01:10:03 | 00:00:00 | |
| DO3MHA-11 | 2026-08-31 10:42:09 | 48.13509 | 12.03253 | 38° | 49km/h | 16170m | 3.8m/s | -56.0°C | 5.7% | 106.9hPa | 2.7V | 00:00:00 | 01:10:02 | 00:00:00 | |
| DG1MFX-10 | 2026-08-31 10:42:08 | 48.13509 | 12.03253 | 38° | 51km/h | 16170m | 3.9m/s | -56.1°C | 2.3% | 107.0hPa | 2.7V | 02:25:00 | 00:00:00 | 00:00:00 | |
| OE5MMP-10 | 2026-08-31 10:42:07 | 48.13489 | 12.03229 | 39° | 49km/h | 16160m | 4.4m/s | -55.9°C | 5.6% | 107.1hPa | 2.7V | 00:00:00 | 01:10:00 | 00:00:00 | |
| DO3MHA-12 | 2026-08-31 10:42:05 | 48.13469 | 12.03208 | 32° | 49km/h | 16150m | 4.9m/s | -55.9°C | 5.5% | 107.2hPa | 2.7V | 00:00:00 | 01:09:58 | 00:00:00 | |
| OE5DXL-15 | 2026-08-31 10:42:03 | 48.13447 | 12.03190 | 28° | 47km/h | 16139m | 4.1m/s | -55.8°C | 5.6% | 107.4hPa | 2.7V | 00:00:00 | 00:00:00 | 00:00:00 | |
| DL6DJ-15 | 2026-08-31 10:41:50 | 48.13300 | 12.03048 | 35° | 47km/h | 16069m | 5.0m/s | -56.1°C | 2.3% | 108.7hPa | 2.7V | 00:00:00 | 00:00:00 | 00:00:00 | |
| DO3MHA-11 | 2026-08-31 10:41:49 | 48.13300 | 12.03048 | 36° | 44km/h | 16069m | 5.0m/s | -56.0°C | 5.6% | 108.6hPa | 2.7V | 02:25:00 | 01:09:42 | 00:00:00 | |
| S52SK | 2026-08-31 10:41:48 | 48.13300 | 12.03048 | 36° | 47km/h | 16069m | 5.0m/s | -56.1°C | 0% | 108.7hPa | 2.6V | 02:25:00 | 00:00:00 | 00:00:00 | |
| OE5MMP-10 | 2026-08-31 10:41:47 | 48.13281 | 12.03029 | 31° | 44km/h | 16059m | 6.1m/s | -56.1°C | 5.6% | 108.8hPa | 2.6V | 02:25:00 | 01:09:40 | 00:00:00 | |
| DO3MHA-12 | 2026-08-31 10:41:45 | 48.13262 | 12.03014 | 27° | 46km/h | 16049m | 5.8m/s | -56.2°C | 5.7% | 109.0hPa | 2.7V | 02:25:00 | 01:09:38 | 00:00:00 | |
| BAUMI2-15 | 2026-08-31 10:41:44 | 48.13252 | 12.03007 | 26° | 46km/h | 16043m | 4.6m/s | -56.3°C | 5.7% | 109.0hPa | 2.7V | 00:00:00 | 01:09:37 | 00:00:00 | |
| S52SK | 2026-08-31 10:41:43 | 48.13252 | 12.03007 | 27° | 44km/h | 16043m | 4.6m/s | -56.4°C | 0% | 109.1hPa | 2.7V | 00:00:00 | 00:00:00 | 00:00:00 | |
| OE5WHR-10 | 2026-08-31 10:41:41 | 48.13223 | 12.02984 | 34° | 46km/h | 16029m | 3.1m/s | -56.8°C | 5.9% | 109.3hPa | 2.7V | 00:00:00 | 01:09:34 | 00:00:00 | |
| DO3MHA-11 | 2026-08-31 10:41:39 | 48.13206 | 12.02963 | 43° | 44km/h | 16020m | 5.2m/s | -57.0°C | 6.0% | 109.5hPa | 2.7V | 00:00:00 | 01:09:32 | 00:00:00 | |
| S52SK | 2026-08-31 10:41:38 | 48.13206 | 12.02963 | 44° | 47km/h | 16020m | 5.3m/s | -57.0°C | 0% | 109.5hPa | 2.7V | 00:00:00 | 00:00:00 | 00:00:00 | |
| OE5MMP-10 | 2026-08-31 10:41:37 | 48.13188 | 12.02938 | 45° | 44km/h | 16009m | 5.9m/s | -57.1°C | 6.1% | 109.6hPa | 2.7V | 00:00:00 | 01:09:30 | 00:00:00 | |
| BAUMI2-15 | 2026-08-31 10:41:36 | 48.13179 | 12.02925 | 43° | 44km/h | 16004m | 4.6m/s | -57.1°C | 6.1% | 109.7hPa | 2.7V | 00:00:00 | 01:09:29 | 00:00:00 | |
| DO3MHA-12 | 2026-08-31 10:41:35 | 48.13171 | 12.02914 | 42° | 44km/h | 15999m | 5.0m/s | -57.2°C | 6.1% | 109.8hPa | 2.7V | 00:00:00 | 01:09:28 | 00:00:00 | |
| OE5DXL-15 | 2026-08-31 10:41:33 | 48.13155 | 12.02892 | 43° | 44km/h | 15986m | 5.2m/s | -57.1°C | 6.2% | 110.0hPa | 2.7V | 02:25:00 | 00:00:00 | 00:00:00 | |
| DO3MHA-11 | 2026-08-31 10:41:29 | 48.13124 | 12.02851 | 45° | 46km/h | 15964m | 4.1m/s | -57.1°C | 6.2% | 110.4hPa | 2.6V | 00:00:00 | 01:09:22 | 00:00:00 | |
| DG1MFX-10 | 2026-08-31 10:41:28 | 48.13124 | 12.02851 | 45° | 44km/h | 15964m | 4.1m/s | -57.1°C | 2.6% | 110.4hPa | 2.6V | 02:26:00 | 00:00:00 | 00:00:00 | |
| OE5MMP-10 | 2026-08-31 10:41:27 | 48.13107 | 12.02827 | 42° | 46km/h | 15954m | 4.9m/s | -57.0°C | 6.1% | 110.6hPa | 2.6V | 00:00:00 | 01:09:20 | 00:00:00 | |
| DO3MHA-12 | 2026-08-31 10:41:25 | 48.13090 | 12.02803 | 46° | 46km/h | 15945m | 5.8m/s | -56.9°C | 6.1% | 110.8hPa | 2.6V | 00:00:00 | 01:09:18 | 00:00:00 | |
| DK5PH-5 | 2026-08-31 10:41:24 | 48.13082 | 12.02790 | 48° | 42km/h | 15940m | 4.5m/s | -57.0°C | 6.1% | 110.9hPa | 2.6V | 02:25:00 | 01:09:17 | 00:00:00 | |
| OE5DRO-10 | 2026-08-31 10:41:22 | 48.13066 | 12.02764 | 47° | 42km/h | 15930m | 5.3m/s | -57.0°C | 6.1% | 111.0hPa | 2.6V | 00:00:00 | 00:00:00 | 00:00:00 | |
| OE5WHR-10 | 2026-08-31 10:41:20 | 48.13050 | 12.02739 | 49° | 40km/h | 15919m | 6.3m/s | -56.9°C | 6.2% | 111.2hPa | 2.6V | 02:25:00 | 00:00:00 | 00:00:00 | |
| DL6DJ-15 | 2026-08-31 10:41:19 | 48.13035 | 12.02714 | 46° | 44km/h | 15909m | 5.9m/s | -56.9°C | 2.6% | 111.5hPa | 2.6V | 00:00:00 | 00:00:00 | 00:00:00 | |
| OE5MMP-10 | 2026-08-31 10:41:17 | 48.13027 | 12.02701 | 45° | 40km/h | 15904m | 5.0m/s | -56.8°C | 6.1% | 111.5hPa | 2.6V | 02:25:00 | 01:09:10 | 00:00:00 | |
| DB0UT-7 | 2026-08-31 10:41:16 | 48.13019 | 12.02690 | 46° | 42km/h | 15898m | 5.7m/s | -56.8°C | 6.1% | 111.6hPa | 2.6V | 02:25:00 | 00:00:00 | 00:00:00 | |
| DO3MHA-12 | 2026-08-31 10:41:15 | 48.13012 | 12.02679 | 49° | 40km/h | 15893m | 5.0m/s | -56.8°C | 6.1% | 111.7hPa | 2.6V | 02:25:00 | 01:09:08 | 00:00:00 | |
| BAUMI2-15 | 2026-08-31 10:41:13 | 48.12999 | 12.02657 | 45° | 38km/h | 15883m | 5.6m/s | -56.8°C | 6.1% | 111.9hPa | 2.7V | 00:00:00 | 01:09:06 | 00:00:00 | |
| DO3MHA-11 | 2026-08-31 10:41:09 | 48.12972 | 12.02615 | 50° | 40km/h | 15863m | 5.0m/s | -56.8°C | 6.2% | 112.2hPa | 2.7V | 00:00:00 | 01:09:02 | 00:00:00 | |
| BAUMI2-15 | 2026-08-31 10:41:08 | 48.12965 | 12.02603 | 49° | 42km/h | 15857m | 5.5m/s | -56.8°C | 6.2% | 112.3hPa | 2.7V | 02:25:00 | 01:09:01 | 00:00:00 | |
| OE5MMP-10 | 2026-08-31 10:41:07 | 48.12958 | 12.02591 | 50° | 40km/h | 15852m | 4.6m/s | -56.8°C | 6.1% | 112.4hPa | 2.7V | 00:00:00 | 01:09:00 | 00:00:00 | |
| DO3MHA-12 | 2026-08-31 10:41:05 | 48.12945 | 12.02565 | 56° | 38km/h | 15841m | 4.6m/s | -56.7°C | 6.1% | 112.6hPa | 2.7V | 00:00:00 | 01:08:58 | 00:00:00 | |
| OE5DXL-15 | 2026-08-31 10:41:03 | 48.12932 | 12.02539 | 53° | 42km/h | 15832m | 5.2m/s | -56.6°C | 6.1% | 112.8hPa | 2.7V | 00:00:00 | 00:00:00 | 00:00:00 | |
| DL6DJ-15 | 2026-08-31 10:40:48 | 48.12829 | 12.02344 | 52° | 44km/h | 15747m | 6.0m/s | -56.2°C | 2.5% | 114.3hPa | 2.7V | 00:00:00 | 00:00:00 | 00:00:00 | |
| OE5MMP-10 | 2026-08-31 10:40:47 | 48.12829 | 12.02344 | 53° | 44km/h | 15747m | 5.9m/s | -56.1°C | 5.9% | 114.2hPa | 2.7V | 02:26:00 | 01:08:40 | 00:00:00 | |
| DB0UT-7 | 2026-08-31 10:40:46 | 48.12821 | 12.02331 | 50° | 44km/h | 15742m | 4.2m/s | -56.1°C | 5.9% | 114.4hPa | 2.6V | 00:00:00 | 01:08:39 | 00:00:00 | |
| DO3MHA-12 | 2026-08-31 10:40:45 | 48.12814 | 12.02318 | 50° | 44km/h | 15737m | 6.1m/s | -56.1°C | 5.9% | 114.4hPa | 2.6V | 02:26:00 | 01:08:38 | 00:00:00 | |
| S52SK | 2026-08-31 10:40:44 | 48.12814 | 12.02318 | 51° | 46km/h | 15737m | 6.2m/s | -56.1°C | 0% | 114.5hPa | 2.6V | 00:00:00 | 00:00:00 | 00:00:00 | |
| OM5KV | 2026-08-31 10:40:41 | 48.12794 | 12.02278 | 54° | 42km/h | 15719m | 6.5m/s | 0°C | 0% | 0hPa | 2.6V | 00:00:00 | 00:00:00 | 00:00:00 | |
| OE5WHR-10 | 2026-08-31 10:40:38 | 48.12768 | 12.02224 | 54° | 44km/h | 15697m | 5.9m/s | -56.0°C | 5.8% | 115.1hPa | 2.6V | 00:00:00 | 01:08:31 | 00:00:00 | |
| OE5MMP-10 | 2026-08-31 10:40:37 | 48.12761 | 12.02211 | 54° | 46km/h | 15691m | 5.1m/s | -55.9°C | 5.8% | 115.3hPa | 2.6V | 00:00:00 | 01:08:30 | 00:00:00 | |
| DO3MHA-12 | 2026-08-31 10:40:35 | 48.12748 | 12.02183 | 58° | 46km/h | 15683m | 5.7m/s | -55.9°C | 5.8% | 115.4hPa | 2.6V | 00:00:00 | 01:08:28 | 00:00:00 | |
| OE5DXL-15 | 2026-08-31 10:40:33 | 48.12736 | 12.02153 | 61° | 42km/h | 15673m | 5.1m/s | -55.8°C | 5.7% | 115.6hPa | 2.6V | 00:00:00 | 00:00:00 | 00:00:00 | |
| DO3MHA-11 | 2026-08-31 10:40:29 | 48.12714 | 12.02092 | 64° | 42km/h | 15652m | 4.8m/s | -55.9°C | 5.7% | 116.0hPa | 2.6V | 00:00:00 | 01:08:22 | 00:00:00 | |
| OE5MMP-10 | 2026-08-31 10:40:27 | 48.12704 | 12.02061 | 63° | 40km/h | 15641m | 4.5m/s | -55.9°C | 5.8% | 116.2hPa | 2.6V | 00:00:00 | 01:08:20 | 00:00:00 | |
| DO3MHA-12 | 2026-08-31 10:40:25 | 48.12695 | 12.02033 | 68° | 40km/h | 15631m | 6.2m/s | -55.9°C | 5.8% | 116.4hPa | 2.6V | 00:00:00 | 01:08:18 | 00:00:00 | |
| DK5PH-5 | 2026-08-31 10:40:24 | 48.12691 | 12.02018 | 70° | 40km/h | 15626m | 3.9m/s | -55.9°C | 5.7% | 116.5hPa | 2.6V | 00:00:00 | 01:08:17 | 00:00:00 | |
| OM5KV | 2026-08-31 10:40:23 | 48.12691 | 12.02018 | 70° | 42km/h | 15626m | 3.9m/s | 0°C | 0% | 0hPa | 2.6V | 00:00:00 | 00:00:00 | 00:00:00 | |
| DO3MHA-11 | 2026-08-31 10:40:19 | 48.12675 | 12.01949 | 74° | 42km/h | 15601m | 4.7m/s | -56.5°C | 6.0% | 116.9hPa | 2.6V | 02:26:00 | 01:08:12 | 00:00:00 | |
| OE5MMP-10 | 2026-08-31 10:40:17 | 48.12669 | 12.01919 | 74° | 42km/h | 15591m | 4.4m/s | -56.5°C | 5.9% | 117.1hPa | 2.6V | 02:26:00 | 01:08:10 | 00:00:00 | |
| DB0UT-7 | 2026-08-31 10:40:16 | 48.12666 | 12.01904 | 74° | 40km/h | 15585m | 6.3m/s | -56.5°C | 5.9% | 117.2hPa | 2.7V | 00:00:00 | 00:00:00 | 00:00:00 | |
| DO3MHA-12 | 2026-08-31 10:40:15 | 48.12663 | 12.01888 | 75° | 40km/h | 15580m | 3.9m/s | -56.4°C | 5.9% | 117.3hPa | 2.7V | 02:26:00 | 01:08:08 | 00:00:00 | |
| NBG1-10 | 2026-08-31 10:40:14 | 48.12660 | 12.01871 | 74° | 40km/h | 15576m | 4.0m/s | -56.4°C | 5.9% | 117.4hPa | 2.7V | 00:00:00 | 01:08:07 | 00:00:00 | |
| DG1MJG | 2026-08-31 10:40:12 | 48.12656 | 12.01856 | 72° | 44km/h | 15572m | 5.1m/s | -56.5°C | 2.6% | 117.5hPa | 2.7V | 02:26:00 | 00:00:00 | 00:00:00 | |
| DO3MHA-11 | 2026-08-31 10:40:09 | 48.12644 | 12.01797 | 77° | 38km/h | 15553m | 4.0m/s | -56.3°C | 6.1% | 117.8hPa | 2.7V | 00:00:00 | 01:08:02 | 00:00:00 | |
| OE5MMP-10 | 2026-08-31 10:40:07 | 48.12640 | 12.01771 | 77° | 38km/h | 15544m | 4.1m/s | -56.3°C | 6.1% | 118.0hPa | 2.7V | 00:00:00 | 01:08:00 | 00:00:00 | |
| OE5DRO-10 | 2026-08-31 10:40:06 | 48.12638 | 12.01758 | 81° | 40km/h | 15538m | 6.0m/s | -56.3°C | 6.1% | 118.1hPa | 2.7V | 02:26:00 | 00:00:00 | 00:00:00 | |
| DO3MHA-12 | 2026-08-31 10:40:05 | 48.12637 | 12.01745 | 84° | 40km/h | 15533m | 4.1m/s | -56.2°C | 6.0% | 118.2hPa | 2.6V | 00:00:00 | 01:07:58 | 00:00:00 | |
| DG1MFX-10 | 2026-08-31 10:40:04 | 48.12636 | 12.01745 | 84° | 35km/h | 15533m | 4.1m/s | -56.3°C | 2.6% | 118.2hPa | 2.6V | 02:27:00 | 00:00:00 | 00:00:00 | |
| OE5DXL-15 | 2026-08-31 10:40:03 | 48.12634 | 12.01717 | 81° | 40km/h | 15523m | 5.1m/s | -56.2°C | 5.9% | 118.4hPa | 2.6V | 02:26:00 | 00:00:00 | 00:00:00 | |
| DO3MHA-11 | 2026-08-31 10:39:59 | 48.12628 | 12.01655 | 79° | 40km/h | 15504m | 6.2m/s | -56.0°C | 5.9% | 118.7hPa | 2.6V | 00:00:00 | 01:07:52 | 00:00:00 | |
| OE5MMP-10 | 2026-08-31 10:39:57 | 48.12622 | 12.01624 | 74° | 40km/h | 15495m | 3.9m/s | -55.9°C | 5.8% | 118.9hPa | 2.6V | 00:00:00 | 01:07:50 | 00:00:00 | |
| OE5WHR-10 | 2026-08-31 10:39:56 | 48.12620 | 12.01610 | 77° | 40km/h | 15490m | 5.6m/s | -55.9°C | 5.8% | 119.0hPa | 2.6V | 00:00:00 | 00:00:00 | 00:00:00 | |
| DO3MHA-12 | 2026-08-31 10:39:55 | 48.12618 | 12.01595 | 80° | 40km/h | 15485m | 3.5m/s | -55.8°C | 5.8% | 119.1hPa | 2.6V | 00:00:00 | 01:07:48 | 00:00:00 | |
| DK5PH-5 | 2026-08-31 10:39:54 | 48.12616 | 12.01581 | 79° | 40km/h | 15481m | 4.8m/s | -55.8°C | 5.7% | 119.2hPa | 2.6V | 02:27:00 | 01:07:47 | 00:00:00 | |
| DO3MHA-11 | 2026-08-31 10:39:49 | 48.12602 | 12.01507 | 77° | 40km/h | 15455m | 5.6m/s | -55.6°C | 5.7% | 119.6hPa | 2.6V | 02:27:00 | 01:07:42 | 00:00:00 | |
| OE5MMP-10 | 2026-08-31 10:39:47 | 48.12599 | 12.01477 | 81° | 40km/h | 15446m | 3.6m/s | -55.5°C | 5.8% | 119.8hPa | 2.6V | 02:27:00 | 01:07:40 | 00:00:00 | |
| DB0UT-7 | 2026-08-31 10:39:46 | 48.12597 | 12.01462 | 77° | 42km/h | 15442m | 5.0m/s | -55.5°C | 5.7% | 119.8hPa | 2.7V | 02:27:00 | 01:07:39 | 00:00:00 | |
| DO3MHA-12 | 2026-08-31 10:39:45 | 48.12594 | 12.01447 | 71° | 40km/h | 15437m | 4.6m/s | -55.4°C | 5.7% | 120.0hPa | 2.7V | 02:27:00 | 01:07:38 | 00:00:00 | |
| DF7PN | 2026-08-31 10:39:44 | 48.12590 | 12.01433 | 67° | 42km/h | 15432m | 4.8m/s | -55.5°C | 2.4% | 120.1hPa | 2.6V | 00:00:00 | 00:00:00 | 00:00:00 | |
| DG1MJG | 2026-08-31 10:39:42 | 48.12586 | 12.01418 | 68° | 42km/h | 15427m | 5.1m/s | -55.5°C | 2.4% | 120.2hPa | 2.6V | 02:27:00 | 00:00:00 | 00:00:00 | |
| NBG1-10 | 2026-08-31 10:39:41 | 48.12578 | 12.01389 | 67° | 42km/h | 15417m | 5.8m/s | -55.4°C | 5.6% | 120.3hPa | 2.6V | 00:00:00 | 01:07:34 | 00:00:00 | |
| DO3MHA-11 | 2026-08-31 10:39:39 | 48.12571 | 12.01362 | 69° | 38km/h | 15406m | 5.9m/s | -55.4°C | 5.5% | 120.6hPa | 2.6V | 00:00:00 | 01:07:32 | 00:00:00 | |
| OE5MMP-10 | 2026-08-31 10:39:37 | 48.12564 | 12.01335 | 72° | 40km/h | 15395m | 4.3m/s | -55.6°C | 5.7% | 120.8hPa | 2.6V | 00:00:00 | 01:07:30 | 00:00:00 | |
| DO3MHA-12 | 2026-08-31 10:39:35 | 48.12557 | 12.01308 | 65° | 40km/h | 15383m | 5.4m/s | -55.8°C | 5.8% | 121.0hPa | 2.6V | 00:00:00 | 01:07:28 | 00:00:00 | |
| OE5DXL-15 | 2026-08-31 10:39:33 | 48.12549 | 12.01282 | 65° | 44km/h | 15374m | 5.0m/s | -55.9°C | 5.9% | 121.2hPa | 2.6V | 00:00:00 | 00:00:00 | 00:00:00 | |
| DO3MHA-11 | 2026-08-31 10:39:29 | 48.12530 | 12.01228 | 64° | 42km/h | 15356m | 3.4m/s | -55.8°C | 5.8% | 121.5hPa | 2.6V | 00:00:00 | 01:07:22 | 00:00:00 | |
| OE5DRO-10 | 2026-08-31 10:39:28 | 48.12526 | 12.01214 | 67° | 46km/h | 15351m | 5.8m/s | -55.8°C | 5.7% | 121.6hPa | 2.6V | 00:00:00 | 00:00:00 | 00:00:00 | |
| OE5MMP-10 | 2026-08-31 10:39:27 | 48.12521 | 12.01198 | 69° | 42km/h | 15346m | 4.1m/s | -55.7°C | 5.7% | 121.7hPa | 2.6V | 00:00:00 | 01:07:20 | 00:00:00 | |
| DO3MHA-12 | 2026-08-31 10:39:25 | 48.12513 | 12.01167 | 70° | 44km/h | 15337m | 3.9m/s | -55.6°C | 5.7% | 121.9hPa | 2.6V | 00:00:00 | 01:07:18 | 00:00:00 | |
| DK5PH-5 | 2026-08-31 10:39:24 | 48.12510 | 12.01152 | 72° | 47km/h | 15331m | 6.2m/s | -55.6°C | 5.7% | 122.0hPa | 2.6V | 00:00:00 | 01:07:17 | 00:00:00 | |
| DO3MHA-11 | 2026-08-31 10:39:19 | 48.12489 | 12.01081 | 60° | 47km/h | 15309m | 4.7m/s | -55.4°C | 5.6% | 122.4hPa | 2.6V | 02:27:00 | 01:07:12 | 00:00:00 | |
| OE5MMP-10 | 2026-08-31 10:39:17 | 48.12477 | 12.01051 | 61° | 47km/h | 15301m | 4.0m/s | -55.4°C | 5.6% | 122.6hPa | 2.6V | 02:27:00 | 01:07:10 | 00:00:00 | |
| DB0UT-7 | 2026-08-31 10:39:16 | 48.12471 | 12.01035 | 60° | 49km/h | 15296m | 6.1m/s | -55.4°C | 5.7% | 122.6hPa | 2.7V | 00:00:00 | 00:00:00 | 00:00:00 | |
| DO3MHA-12 | 2026-08-31 10:39:15 | 48.12465 | 12.01019 | 60° | 47km/h | 15291m | 3.9m/s | -55.3°C | 5.7% | 122.7hPa | 2.7V | 02:27:00 | 01:07:08 | 00:00:00 | |
| OE5WHR-10 | 2026-08-31 10:39:14 | 48.12458 | 12.01003 | 62° | 49km/h | 15286m | 4.6m/s | -55.3°C | 5.7% | 122.8hPa | 2.6V | 02:27:00 | 00:00:00 | 00:00:00 | |
| DF7PN | 2026-08-31 10:39:13 | 48.12453 | 12.00986 | 64° | 51km/h | 15281m | 4.7m/s | -55.3°C | 2.4% | 123.0hPa | 2.6V | 00:00:00 | 00:00:00 | 00:00:00 | |
| DG1MJG | 2026-08-31 10:39:11 | 48.12447 | 12.00968 | 66° | 51km/h | 15277m | 4.1m/s | -55.3°C | 2.5% | 123.1hPa | 2.6V | 02:28:00 | 00:00:00 | 00:00:00 | |
| DO3MHA-11 | 2026-08-31 10:39:09 | 48.12432 | 12.00920 | 68° | 47km/h | 15263m | 4.5m/s | -55.1°C | 5.7% | 123.3hPa | 2.6V | 00:00:00 | 01:07:02 | 00:00:00 | |
| NBG1-10 | 2026-08-31 10:39:08 | 48.12428 | 12.00905 | 70° | 53km/h | 15258m | 5.8m/s | -55.1°C | 5.7% | 123.4hPa | 2.6V | 02:27:00 | 01:07:01 | 00:00:00 | |
| OE5MMP-10 | 2026-08-31 10:39:07 | 48.12424 | 12.00889 | 70° | 49km/h | 15253m | 4.1m/s | -55.2°C | 5.7% | 123.5hPa | 2.6V | 00:00:00 | 01:07:00 | 00:00:00 | |
| DO3MHA-12 | 2026-08-31 10:39:05 | 48.12415 | 12.00858 | 63° | 51km/h | 15244m | 5.7m/s | -55.1°C | 5.6% | 123.7hPa | 2.6V | 00:00:00 | 01:06:58 | 00:00:00 | |
| OE5DXL-15 | 2026-08-31 10:39:03 | 48.12404 | 12.00829 | 59° | 55km/h | 15235m | 5.9m/s | -55.1°C | 5.5% | 123.8hPa | 2.6V | 00:00:00 | 00:00:00 | 00:00:00 | |
| S52SK | 2026-08-31 10:39:00 | 48.12384 | 12.00780 | 59° | 53km/h | 15220m | 5.9m/s | -55.1°C | 0% | 0hPa | 2.6V | 00:00:00 | 00:00:00 | 00:00:00 | |
| DO3MHA-11 | 2026-08-31 10:38:59 | 48.12377 | 12.00763 | 56° | 49km/h | 15214m | 4.3m/s | -55.1°C | 5.5% | 124.2hPa | 2.6V | 00:00:00 | 01:06:52 | 00:00:00 | |
| OE5MMP-10 | 2026-08-31 10:38:57 | 48.12362 | 12.00728 | 63° | 49km/h | 15204m | 6.2m/s | -55.2°C | 5.6% | 124.4hPa | 2.6V | 00:00:00 | 01:06:50 | 00:00:00 | |
| DO3MHA-12 | 2026-08-31 10:38:55 | 48.12352 | 12.00690 | 72° | 47km/h | 15193m | 4.8m/s | -55.2°C | 5.6% | 124.6hPa | 2.6V | 00:00:00 | 01:06:48 | 00:00:00 | |
| DK5PH-5 | 2026-08-31 10:38:54 | 48.12348 | 12.00672 | 73° | 58km/h | 15188m | 5.1m/s | -55.1°C | 5.6% | 124.8hPa | 2.6V | 00:00:00 | 01:06:47 | 00:00:00 | |
| OE5WHR-10 | 2026-08-31 10:38:53 | 48.12345 | 12.00656 | 72° | 55km/h | 15183m | 5.2m/s | -55.1°C | 5.6% | 124.9hPa | 2.6V | 00:00:00 | 00:00:00 | 00:00:00 | |
| OE5DRO-10 | 2026-08-31 10:38:50 | 48.12332 | 12.00611 | 67° | 58km/h | 15170m | 4.7m/s | -55.2°C | 5.8% | 125.1hPa | 2.6V | 00:00:00 | 00:00:00 | 00:00:00 | |
| DO3MHA-11 | 2026-08-31 10:38:49 | 48.12328 | 12.00594 | 69° | 57km/h | 15165m | 5.1m/s | -55.2°C | 5.7% | 125.2hPa | 2.6V | 02:28:00 | 01:06:42 | 00:00:00 | |
| OE5MMP-10 | 2026-08-31 10:38:47 | 48.12319 | 12.00557 | 73° | 58km/h | 15155m | 5.9m/s | -55.2°C | 5.7% | 125.4hPa | 2.6V | 02:28:00 | 01:06:40 | 00:00:00 | |
| DO3MHA-12 | 2026-08-31 10:38:45 | 48.12311 | 12.00518 | 73° | 60km/h | 15145m | 5.8m/s | -55.2°C | 5.7% | 125.6hPa | 2.7V | 02:28:00 | 01:06:38 | 00:00:00 | |
| DL6DJ-15 | 2026-08-31 10:38:43 | 48.12302 | 12.00476 | 70° | 58km/h | 15135m | 5.2m/s | -55.2°C | 2.5% | 125.8hPa | 2.6V | 00:00:00 | 00:00:00 | 00:00:00 | |
| DF7PN | 2026-08-31 10:38:42 | 48.12297 | 12.00454 | 71° | 58km/h | 15130m | 4.1m/s | -55.2°C | 2.5% | 126.0hPa | 2.6V | 00:00:00 | 00:00:00 | 00:00:00 | |
| DG1MJG | 2026-08-31 10:38:40 | 48.12292 | 12.00432 | 74° | 62km/h | 15126m | 3.7m/s | -55.2°C | 2.5% | 126.0hPa | 2.6V | 02:28:00 | 00:00:00 | 00:00:00 | |
| DO3MHA-11 | 2026-08-31 10:38:39 | 48.12283 | 12.00387 | 75° | 60km/h | 15117m | 3.8m/s | -55.1°C | 5.7% | 126.2hPa | 2.6V | 00:00:00 | 01:06:32 | 00:00:00 | |
| BAUMI2-15 | 2026-08-31 10:38:38 | 48.12279 | 12.00364 | 77° | 62km/h | 15112m | 5.8m/s | -55.1°C | 5.7% | 126.2hPa | 2.6V | 00:00:00 | 01:06:31 | 00:00:00 | |
| OE5MMP-10 | 2026-08-31 10:38:37 | 48.12276 | 12.00342 | 80° | 62km/h | 15107m | 4.0m/s | -55.1°C | 5.7% | 126.3hPa | 2.6V | 00:00:00 | 01:06:30 | 00:00:00 | |
| NBG1-10 | 2026-08-31 10:38:35 | 48.12271 | 12.00297 | 80° | 68km/h | 15098m | 5.3m/s | -55.2°C | 5.8% | 126.5hPa | 2.6V | 00:00:00 | 01:06:28 | 00:00:00 | |
| OE5DXL-15 | 2026-08-31 10:38:33 | 48.12265 | 12.00252 | 81° | 68km/h | 15089m | 5.6m/s | -55.2°C | 5.8% | 126.7hPa | 2.6V | 02:28:00 | 00:00:00 | 00:00:00 | |
| OE5WHR-10 | 2026-08-31 10:38:32 | 48.12263 | 12.00230 | 82° | 68km/h | 15084m | 3.9m/s | -55.2°C | 5.8% | 126.8hPa | 2.6V | 00:00:00 | 01:06:25 | 00:00:00 | |
| OE5DRO-10 | 2026-08-31 10:38:31 | 48.12260 | 12.00208 | 81° | 68km/h | 15080m | 4.9m/s | -55.2°C | 5.8% | 126.9hPa | 2.6V | 00:00:00 | 00:00:00 | 00:00:00 | |
| BAUMI2-15 | 2026-08-31 10:38:30 | 48.12252 | 12.00137 | 81° | 69km/h | 15067m | 5.3m/s | -55.1°C | 5.9% | 127.1hPa | 2.6V | 02:28:00 | 01:06:21 | 00:00:00 | |
| DN1GJH-1 | 2026-08-31 10:38:29 | 48.12252 | 12.00137 | 82° | 66km/h | 15067m | 5.3m/s | -55.2°C | 2.7% | 127.2hPa | 2.7V | 00:00:00 | 00:00:00 | 00:00:00 | |
| OE5MMP-10 | 2026-08-31 10:38:27 | 48.12250 | 12.00113 | 84° | 71km/h | 15062m | 4.1m/s | -55.1°C | 5.8% | 127.2hPa | 2.7V | 00:00:00 | 01:06:20 | 00:00:00 | |
| DO3MHA-12 | 2026-08-31 10:38:25 | 48.12245 | 12.00061 | 83° | 71km/h | 15053m | 4.6m/s | -55.1°C | 5.9% | 127.5hPa | 2.7V | 00:00:00 | 01:06:18 | 00:00:00 | |
| DK5PH-5 | 2026-08-31 10:38:24 | 48.12243 | 12.00034 | 84° | 69km/h | 15049m | 3.7m/s | -55.0°C | 5.9% | 127.5hPa | 2.7V | 02:28:00 | 01:06:17 | 00:00:00 | |
| DG1MFX-10 | 2026-08-31 10:38:21 | 48.12240 | 11.99979 | 87° | 73km/h | 15040m | 3.7m/s | -55.0°C | 2.6% | 127.8hPa | 2.6V | 02:29:00 | 00:00:00 | 00:00:00 | |
| DO3MHA-11 | 2026-08-31 10:38:19 | 48.12234 | 11.99897 | 83° | 66km/h | 15027m | 4.5m/s | -54.9°C | 5.7% | 128.0hPa | 2.6V | 02:28:00 | 01:06:12 | 00:00:00 | |
| OE5MMP-10 | 2026-08-31 10:38:17 | 48.12229 | 11.99847 | 81° | 68km/h | 15018m | 4.1m/s | -54.9°C | 5.7% | 128.1hPa | 2.6V | 02:28:00 | 01:06:10 | 00:00:00 | |
| DB0UT-7 | 2026-08-31 10:38:16 | 48.12226 | 11.99823 | 79° | 71km/h | 15013m | 5.0m/s | -54.9°C | 5.7% | 128.2hPa | 2.7V | 02:28:00 | 00:00:00 | 00:00:00 | |
| DO3MHA-12 | 2026-08-31 10:38:15 | 48.12223 | 11.99799 | 78° | 68km/h | 15008m | 4.0m/s | -54.8°C | 5.7% | 128.3hPa | 2.7V | 02:28:00 | 01:06:08 | 00:00:00 | |
| OE5DRO-10 | 2026-08-31 10:38:12 | 48.12212 | 11.99727 | 77° | 71km/h | 14996m | 5.1m/s | -54.8°C | 5.7% | 128.6hPa | 2.6V | 02:28:00 | 00:00:00 | 00:00:00 | |
| OE5WHR-10 | 2026-08-31 10:38:11 | 48.12208 | 11.99703 | 77° | 71km/h | 14991m | 3.6m/s | -54.7°C | 5.7% | 128.7hPa | 2.6V | 02:28:00 | 00:00:00 | 00:00:00 | |
| DG1MJG | 2026-08-31 10:38:10 | 48.12208 | 11.99703 | 77° | 68km/h | 14991m | 3.7m/s | -54.8°C | 2.5% | 128.8hPa | 2.6V | 02:29:00 | 00:00:00 | 00:00:00 | |
| DO3MHA-11 | 2026-08-31 10:38:09 | 48.12201 | 11.99652 | 79° | 71km/h | 14982m | 3.9m/s | -54.7°C | 5.8% | 128.9hPa | 2.6V | 00:00:00 | 01:06:02 | 00:00:00 | |
| OE5MMP-10 | 2026-08-31 10:38:07 | 48.12194 | 11.99599 | 80° | 71km/h | 14973m | 4.0m/s | -54.8°C | 5.9% | 129.1hPa | 2.6V | 00:00:00 | 01:06:00 | 00:00:00 | |
| DN1GJH-1 | 2026-08-31 10:38:06 | 48.12194 | 11.99599 | 80° | 73km/h | 14973m | 4.1m/s | -54.8°C | 2.7% | 129.1hPa | 2.6V | 00:00:00 | 00:00:00 | 00:00:00 | |
| DO3MHA-12 | 2026-08-31 10:38:05 | 48.12188 | 11.99545 | 82° | 71km/h | 14963m | 3.9m/s | -54.7°C | 5.9% | 129.2hPa | 2.6V | 00:00:00 | 01:05:58 | 00:00:00 | |
| DB0NH | 2026-08-31 10:38:04 | 48.12185 | 11.99519 | 81° | 73km/h | 14959m | 4.1m/s | -54.7°C | 5.9% | 129.3hPa | 2.6V | 00:00:00 | 01:05:57 | 00:00:00 | |
| OE5DXL-15 | 2026-08-31 10:38:03 | 48.12182 | 11.99492 | 80° | 75km/h | 14955m | 4.2m/s | -54.7°C | 5.8% | 129.4hPa | 2.6V | 00:00:00 | 00:00:00 | 00:00:00 | |
| NBG1-10 | 2026-08-31 10:38:02 | 48.12178 | 11.99466 | 81° | 75km/h | 14951m | 4.0m/s | -54.7°C | 5.8% | 129.5hPa | 2.6V | 00:00:00 | 01:05:55 | 00:00:00 | |
| DG1MFX-10 | 2026-08-31 10:38:00 | 48.12175 | 11.99440 | 81° | 69km/h | 14947m | 4.7m/s | -54.8°C | 2.6% | 129.6hPa | 2.6V | 02:29:00 | 00:00:00 | 00:00:00 | |
| OE5MMP-10 | 2026-08-31 10:37:58 | 48.12159 | 11.99337 | 76° | 73km/h | 14929m | 5.4m/s | -54.7°C | 5.7% | 129.9hPa | 2.6V | 00:00:00 | 01:05:50 | 00:00:00 | |
| PG1ADW-2 | 2026-08-31 10:37:56 | 48.12154 | 11.99311 | 75° | 77km/h | 14925m | 4.3m/s | -54.7°C | 5.7% | 130.0hPa | 2.6V | 02:29:00 | 00:00:00 | 00:00:00 | |
| DO3MHA-12 | 2026-08-31 10:37:55 | 48.12149 | 11.99286 | 74° | 73km/h | 14920m | 5.4m/s | -54.7°C | 5.7% | 130.1hPa | 2.6V | 00:00:00 | 01:05:48 | 00:00:00 | |
| DK5PH-5 | 2026-08-31 10:37:54 | 48.12144 | 11.99260 | 74° | 77km/h | 14915m | 4.0m/s | -54.6°C | 5.7% | 130.2hPa | 2.6V | 00:00:00 | 01:05:47 | 00:00:00 | |
| OE5DRO-10 | 2026-08-31 10:37:53 | 48.12140 | 11.99234 | 76° | 77km/h | 14910m | 5.5m/s | -54.6°C | 5.7% | 130.3hPa | 2.6V | 00:00:00 | 00:00:00 | 00:00:00 | |
| OE5WHR-10 | 2026-08-31 10:37:50 | 48.12126 | 11.99153 | 76° | 77km/h | 14897m | 4.2m/s | -54.6°C | 5.8% | 130.6hPa | 2.6V | 00:00:00 | 00:00:00 | 00:00:00 | |
| DO3MHA-11 | 2026-08-31 10:37:49 | 48.12121 | 11.99125 | 75° | 77km/h | 14893m | 4.0m/s | -54.6°C | 5.8% | 130.6hPa | 2.6V | 02:29:00 | 01:05:42 | 00:00:00 | |
| OE5MMP-10 | 2026-08-31 10:37:47 | 48.12111 | 11.99069 | 76° | 77km/h | 14884m | 3.2m/s | -54.5°C | 5.8% | 130.8hPa | 2.7V | 02:29:00 | 01:05:40 | 00:00:00 | |
| DB0UT-7 | 2026-08-31 10:37:46 | 48.12106 | 11.99043 | 74° | 78km/h | 14880m | 4.5m/s | -54.4°C | 5.8% | 130.9hPa | 2.6V | 00:00:00 | 01:05:39 | 00:00:00 | |
| DO3MHA-12 | 2026-08-31 10:37:45 | 48.12101 | 11.99016 | 72° | 78km/h | 14875m | 4.4m/s | -54.4°C | 5.9% | 131.0hPa | 2.6V | 02:29:00 | 01:05:38 | 00:00:00 | |
| DL6DJ-15 | 2026-08-31 10:37:41 | 48.12077 | 11.98907 | 71° | 77km/h | 14857m | 5.6m/s | -54.4°C | 2.6% | 131.4hPa | 2.6V | 00:00:00 | 00:00:00 | 00:00:00 | |
| DF7PN | 2026-08-31 10:37:40 | 48.12071 | 11.98879 | 72° | 78km/h | 14853m | 4.4m/s | -54.3°C | 2.6% | 131.5hPa | 2.6V | 00:00:00 | 00:00:00 | 00:00:00 | |
| DO3MHA-11 | 2026-08-31 10:37:39 | 48.12065 | 11.98850 | 74° | 78km/h | 14848m | 5.1m/s | -54.3°C | 5.7% | 131.6hPa | 2.6V | 00:00:00 | 01:05:32 | 00:00:00 | |
| OE5MMP-10 | 2026-08-31 10:37:37 | 48.12054 | 11.98792 | 76° | 77km/h | 14839m | 3.7m/s | -54.2°C | 5.7% | 131.8hPa | 2.6V | 00:00:00 | 01:05:30 | 00:00:00 | |
| DO3MHA-12 | 2026-08-31 10:37:35 | 48.12043 | 11.98734 | 73° | 77km/h | 14831m | 3.3m/s | -54.2°C | 5.7% | 131.9hPa | 2.6V | 00:00:00 | 01:05:28 | 00:00:00 | |
| DB0NH | 2026-08-31 10:37:34 | 48.12037 | 11.98706 | 73° | 78km/h | 14826m | 4.8m/s | -54.2°C | 5.6% | 132.0hPa | 2.6V | 02:29:00 | 01:05:27 | 00:00:00 | |
| OE5DXL-15 | 2026-08-31 10:37:33 | 48.12031 | 11.98677 | 73° | 80km/h | 14822m | 4.7m/s | -54.2°C | 5.6% | 132.1hPa | 2.7V | 00:00:00 | 00:00:00 | 00:00:00 | |
| BAUMI2-15 | 2026-08-31 10:37:31 | 48.12019 | 11.98623 | 72° | 77km/h | 14812m | 5.1m/s | -54.2°C | 5.6% | 132.3hPa | 2.7V | 00:00:00 | 01:05:24 | 00:00:00 | |
| DO3MHA-11 | 2026-08-31 10:37:29 | 48.12007 | 11.98569 | 73° | 78km/h | 14803m | 5.5m/s | -54.2°C | 5.7% | 132.5hPa | 2.7V | 00:00:00 | 01:05:22 | 00:00:00 | |
| OE5MMP-10 | 2026-08-31 10:37:27 | 48.11995 | 11.98516 | 73° | 78km/h | 14795m | 2.9m/s | -54.2°C | 5.7% | 132.7hPa | 2.7V | 00:00:00 | 01:05:20 | 00:00:00 | |
| DO3MHA-12 | 2026-08-31 10:37:25 | 48.11982 | 11.98460 | 70° | 78km/h | 14786m | 3.8m/s | -54.2°C | 5.7% | 132.9hPa | 2.7V | 00:00:00 | 01:05:18 | 00:00:00 | |
| DN1GJH-1 | 2026-08-31 10:37:24 | 48.11975 | 11.98432 | 69° | 82km/h | 14782m | 4.0m/s | -54.3°C | 2.6% | 133.0hPa | 2.7V | 00:00:00 | 00:00:00 | 00:00:00 | |
| DG1MFX-10 | 2026-08-31 10:37:20 | 48.11945 | 11.98320 | 69° | 80km/h | 14765m | 4.6m/s | -54.3°C | 2.7% | 133.4hPa | 2.7V | 02:30:00 | 00:00:00 | 00:00:00 | |
| DO3MHA-11 | 2026-08-31 10:37:19 | 48.11937 | 11.98292 | 69° | 80km/h | 14760m | 4.9m/s | -54.2°C | 5.9% | 133.4hPa | 2.7V | 02:29:00 | 01:05:12 | 00:00:00 | |
| OE5MMP-10 | 2026-08-31 10:37:17 | 48.11923 | 11.98238 | 68° | 80km/h | 14751m | 3.6m/s | -54.2°C | 6.0% | 133.6hPa | 2.6V | 02:29:00 | 01:05:10 | 00:00:00 | |
| DB0UT-7 | 2026-08-31 10:37:16 | 48.11915 | 11.98210 | 68° | 80km/h | 14747m | 5.3m/s | -54.2°C | 6.0% | 133.7hPa | 2.7V | 00:00:00 | 00:00:00 | 00:00:00 | |
| DO3MHA-12 | 2026-08-31 10:37:15 | 48.11907 | 11.98183 | 67° | 82km/h | 14742m | 3.8m/s | -54.1°C | 6.0% | 133.8hPa | 2.7V | 02:29:00 | 01:05:08 | 00:00:00 | |
| S52SK | 2026-08-31 10:37:11 | 48.11882 | 11.98102 | 64° | 82km/h | 14728m | 5.2m/s | -54.1°C | 0% | 0hPa | 2.6V | 02:30:00 | 00:00:00 | 00:00:00 | |
| DL6DJ-15 | 2026-08-31 10:37:10 | 48.11862 | 11.98046 | 62° | 84km/h | 14718m | 5.2m/s | -54.1°C | 2.6% | 134.3hPa | 2.6V | 00:00:00 | 00:00:00 | 00:00:00 | |
| DO3MHA-11 | 2026-08-31 10:37:09 | 48.11853 | 11.98018 | 62° | 80km/h | 14713m | 4.7m/s | -54.0°C | 5.6% | 134.4hPa | 2.6V | 00:00:00 | 01:05:02 | 00:00:00 | |
| OE5WHR-10 | 2026-08-31 10:37:08 | 48.11842 | 11.97990 | 62° | 80km/h | 14708m | 4.8m/s | -54.0°C | 5.5% | 134.4hPa | 2.6V | 02:29:00 | 00:00:00 | 00:00:00 | |
| OE5MMP-10 | 2026-08-31 10:37:07 | 48.11832 | 11.97961 | 62° | 80km/h | 14704m | 4.3m/s | -53.9°C | 5.5% | 134.6hPa | 2.6V | 00:00:00 | 01:05:00 | 00:00:00 | |
| DO3MHA-12 | 2026-08-31 10:37:05 | 48.11812 | 11.97904 | 63° | 78km/h | 14696m | 5.3m/s | -54.0°C | 5.5% | 134.7hPa | 2.6V | 00:00:00 | 01:04:58 | 00:00:00 | |
| DB0NH | 2026-08-31 10:37:04 | 48.11803 | 11.97877 | 64° | 80km/h | 14690m | 5.2m/s | -53.9°C | 5.6% | 134.9hPa | 2.6V | 00:00:00 | 01:04:57 | 00:00:00 | |
| OE5DXL-15 | 2026-08-31 10:37:03 | 48.11795 | 11.97851 | 66° | 80km/h | 14686m | 4.0m/s | -53.9°C | 5.6% | 134.9hPa | 2.6V | 02:29:00 | 00:00:00 | 00:00:00 | |
| DN1GJH-1 | 2026-08-31 10:37:01 | 48.11787 | 11.97825 | 68° | 75km/h | 14682m | 4.4m/s | -53.9°C | 2.5% | 135.1hPa | 2.7V | 00:00:00 | 00:00:00 | 00:00:00 | |
| S52SK | 2026-08-31 10:37:00 | 48.11780 | 11.97799 | 69° | 77km/h | 14677m | 5.4m/s | -53.9°C | 0% | 0hPa | 2.7V | 02:30:00 | 00:00:00 | 00:00:00 | |
| DO3MHA-11 | 2026-08-31 10:36:59 | 48.11765 | 11.97744 | 71° | 80km/h | 14667m | 4.4m/s | -53.8°C | 5.6% | 135.4hPa | 2.7V | 00:00:00 | 01:04:52 | 00:00:00 | |
| OE5MMP-10 | 2026-08-31 10:36:57 | 48.11753 | 11.97688 | 73° | 80km/h | 14657m | 4.2m/s | -53.8°C | 5.6% | 135.6hPa | 2.7V | 00:00:00 | 01:04:50 | 00:00:00 | |
| NBG1-10 | 2026-08-31 10:36:56 | 48.11747 | 11.97660 | 72° | 82km/h | 14652m | 5.8m/s | -53.8°C | 5.5% | 135.7hPa | 2.7V | 00:00:00 | 01:04:49 | 00:00:00 | |
| DO3MHA-12 | 2026-08-31 10:36:55 | 48.11740 | 11.97632 | 71° | 80km/h | 14647m | 4.3m/s | -53.7°C | 5.6% | 135.8hPa | 2.7V | 00:00:00 | 01:04:48 | 00:00:00 | |
| DK5PH-5 | 2026-08-31 10:36:54 | 48.11733 | 11.97603 | 70° | 80km/h | 14642m | 4.9m/s | -53.7°C | 5.5% | 135.8hPa | 2.7V | 02:30:00 | 01:04:47 | 00:00:00 | |
| PG1ADW-2 | 2026-08-31 10:36:52 | 48.11718 | 11.97545 | 68° | 80km/h | 14633m | 4.4m/s | -53.6°C | 5.4% | 136.1hPa | 2.7V | 00:00:00 | 00:00:00 | 00:00:00 | |
| DB0UT-7 | 2026-08-31 10:36:50 | 48.11675 | 11.97377 | 74° | 82km/h | 14603m | 4.8m/s | -53.4°C | 5.2% | 136.7hPa | 2.7V | 02:30:00 | 01:04:39 | 00:00:00 | |
| DO3MHA-12 | 2026-08-31 10:36:48 | 48.11670 | 11.97349 | 76° | 82km/h | 14598m | 4.5m/s | -53.4°C | 5.2% | 136.8hPa | 2.7V | 02:30:00 | 01:04:38 | 00:00:00 | |
| S52SK | 2026-08-31 10:36:44 | 48.11665 | 11.97320 | 78° | 78km/h | 14594m | 4.8m/s | 0°C | 0% | 0hPa | 2.7V | 02:30:00 | 00:00:00 | 00:00:00 | |
| DO3MHA-11 | 2026-08-31 10:36:39 | 48.11639 | 11.97166 | 74° | 80km/h | 14572m | 4.9m/s | -53.4°C | 5.3% | 137.4hPa | 2.7V | 00:00:00 | 01:04:32 | 00:00:00 | |
| DF7PN | 2026-08-31 10:36:38 | 48.11633 | 11.97135 | 73° | 82km/h | 14568m | 4.1m/s | -53.4°C | 2.4% | 137.5hPa | 2.7V | 00:00:00 | 00:00:00 | 00:00:00 | |
| OE5MMP-10 | 2026-08-31 10:36:37 | 48.11627 | 11.97105 | 75° | 80km/h | 14563m | 4.9m/s | -53.3°C | 5.3% | 137.6hPa | 2.7V | 00:00:00 | 01:04:30 | 00:00:00 | |
| DO3MHA-12 | 2026-08-31 10:36:35 | 48.11617 | 11.97046 | 76° | 80km/h | 14555m | 3.2m/s | -53.3°C | 5.3% | 137.8hPa | 2.7V | 00:00:00 | 01:04:28 | 00:00:00 | |
| DB0NH | 2026-08-31 10:36:34 | 48.11612 | 11.97017 | 77° | 78km/h | 14551m | 5.0m/s | -53.3°C | 5.3% | 137.8hPa | 2.7V | 00:00:00 | 01:04:27 | 00:00:00 | |
| OE5DXL-15 | 2026-08-31 10:36:33 | 48.11608 | 11.96990 | 79° | 78km/h | 14546m | 3.6m/s | -53.2°C | 5.3% | 137.9hPa | 2.7V | 00:00:00 | 01:04:26 | 00:00:00 | |
| PG1ADW-2 | 2026-08-31 10:36:32 | 48.11604 | 11.96962 | 80° | 80km/h | 14543m | 3.3m/s | -53.2°C | 5.4% | 138.0hPa | 2.7V | 00:00:00 | 00:00:00 | 00:00:00 | |
| DO3MHA-11 | 2026-08-31 10:36:29 | 48.11592 | 11.96873 | 78° | 82km/h | 14531m | 3.4m/s | -53.1°C | 5.2% | 138.3hPa | 2.7V | 00:00:00 | 01:04:22 | 00:00:00 | |
| OE5MMP-10 | 2026-08-31 10:36:27 | 48.11582 | 11.96812 | 76° | 82km/h | 14523m | 4.1m/s | -53.0°C | 5.2% | 138.4hPa | 2.7V | 00:00:00 | 01:04:20 | 00:00:00 | |
| OE5WHR-10 | 2026-08-31 10:36:26 | 48.11577 | 11.96781 | 77° | 78km/h | 14519m | 3.8m/s | -53.0°C | 5.2% | 138.5hPa | 2.7V | 00:00:00 | 01:04:19 | 00:00:00 | |
| DO3MHA-12 | 2026-08-31 10:36:25 | 48.11572 | 11.96750 | 77° | 80km/h | 14515m | 4.6m/s | -53.0°C | 5.1% | 138.6hPa | 2.7V | 00:00:00 | 01:04:18 | 00:00:00 | |
| DK5PH-5 | 2026-08-31 10:36:24 | 48.11567 | 11.96718 | 77° | 78km/h | 14510m | 3.5m/s | -53.0°C | 5.1% | 138.7hPa | 2.7V | 00:00:00 | 01:04:17 | 00:00:00 | |
| NBG1-10 | 2026-08-31 10:36:23 | 48.11562 | 11.96688 | 76° | 80km/h | 14506m | 4.7m/s | -53.0°C | 5.1% | 138.8hPa | 2.7V | 00:00:00 | 01:04:16 | 00:00:00 | |
| DN1GJH-1 | 2026-08-31 10:36:21 | 48.11540 | 11.96572 | 76° | 77km/h | 14489m | 4.8m/s | -53.0°C | 2.3% | 139.2hPa | 2.7V | 02:31:00 | 00:00:00 | 00:00:00 | |
| OE5DRO-10 | 2026-08-31 10:36:18 | 48.11535 | 11.96544 | 75° | 77km/h | 14484m | 4.3m/s | -53.0°C | 5.1% | 139.3hPa | 2.7V | 02:30:00 | 00:00:00 | 00:00:00 | |
| OE5MMP-10 | 2026-08-31 10:36:17 | 48.11530 | 11.96516 | 76° | 77km/h | 14480m | 3.9m/s | -53.0°C | 5.1% | 139.3hPa | 2.7V | 02:30:00 | 01:04:10 | 00:00:00 | |
| DB0UT-7 | 2026-08-31 10:36:16 | 48.11526 | 11.96487 | 78° | 82km/h | 14476m | 4.7m/s | -53.0°C | 5.2% | 139.5hPa | 2.6V | 00:00:00 | 00:00:00 | 00:00:00 | |
| DO3MHA-12 | 2026-08-31 10:36:15 | 48.11521 | 11.96459 | 79° | 77km/h | 14472m | 3.1m/s | -53.0°C | 5.2% | 139.5hPa | 2.6V | 02:30:00 | 01:04:08 | 00:00:00 | |
| PG1ADW-2 | 2026-08-31 10:36:12 | 48.11508 | 11.96373 | 74° | 80km/h | 14459m | 3.6m/s | -52.9°C | 5.3% | 139.8hPa | 2.7V | 02:30:00 | 01:04:05 | 00:00:00 | |
| DO3MHA-11 | 2026-08-31 10:36:09 | 48.11491 | 11.96289 | 73° | 77km/h | 14445m | 5.3m/s | -53.0°C | 5.3% | 140.1hPa | 2.7V | 00:00:00 | 01:04:02 | 00:00:00 | |
| DL6DJ-15 | 2026-08-31 10:36:08 | 48.11485 | 11.96261 | 72° | 77km/h | 14441m | 3.6m/s | -53.1°C | 2.4% | 140.2hPa | 2.7V | 00:00:00 | 00:00:00 | 00:00:00 | |
| OE5MMP-10 | 2026-08-31 10:36:07 | 48.11479 | 11.96233 | 74° | 77km/h | 14436m | 4.7m/s | -53.1°C | 5.2% | 140.3hPa | 2.7V | 00:00:00 | 01:04:00 | 00:00:00 | |
| DO3MHA-12 | 2026-08-31 10:36:05 | 48.11469 | 11.96177 | 77° | 80km/h | 14426m | 4.0m/s | -53.2°C | 5.1% | 140.5hPa | 2.7V | 00:00:00 | 01:03:58 | 00:00:00 | |
| DB0NH | 2026-08-31 10:36:04 | 48.11465 | 11.96149 | 77° | 86km/h | 14422m | 5.3m/s | -53.2°C | 5.1% | 140.6hPa | 2.7V | 02:30:00 | 01:03:57 | 00:00:00 | |
| DO3MHA-11 | 2026-08-31 10:35:59 | 48.11442 | 11.96009 | 78° | 86km/h | 14398m | 4.9m/s | -53.1°C | 5.3% | 141.2hPa | 2.7V | 00:00:00 | 01:03:52 | 00:00:00 | |
| DN1GJH-1 | 2026-08-31 10:35:58 | 48.11442 | 11.96009 | 78° | 80km/h | 14398m | 4.9m/s | -53.2°C | 2.5% | 141.2hPa | 2.7V | 02:31:00 | 00:00:00 | 00:00:00 | |
| OE5MMP-10 | 2026-08-31 10:35:57 | 48.11432 | 11.95947 | 76° | 84km/h | 14387m | 4.8m/s | -53.1°C | 5.4% | 141.4hPa | 2.7V | 00:00:00 | 01:03:50 | 00:00:00 | |
| DO3MHA-12 | 2026-08-31 10:35:55 | 48.11421 | 11.95882 | 77° | 84km/h | 14377m | 3.3m/s | -53.0°C | 5.4% | 141.6hPa | 2.7V | 00:00:00 | 01:03:48 | 00:00:00 | |
| DK5PH-5 | 2026-08-31 10:35:54 | 48.11416 | 11.95849 | 76° | 91km/h | 14373m | 5.5m/s | -53.0°C | 5.3% | 141.7hPa | 2.7V | 00:00:00 | 01:03:47 | 00:00:00 | |
| PG1ADW-2 | 2026-08-31 10:35:52 | 48.11404 | 11.95786 | 74° | 89km/h | 14362m | 4.5m/s | -52.8°C | 5.2% | 141.9hPa | 2.7V | 00:00:00 | 00:00:00 | 00:00:00 | |
| NBG1-10 | 2026-08-31 10:35:50 | 48.11394 | 11.95728 | 77° | 95km/h | 14351m | 4.6m/s | -52.8°C | 5.2% | 142.1hPa | 2.7V | 02:31:00 | 01:03:43 | 00:00:00 | |
| DO3MHA-11 | 2026-08-31 10:35:49 | 48.11389 | 11.95699 | 78° | 89km/h | 14347m | 3.5m/s | -52.8°C | 5.3% | 142.2hPa | 2.6V | 02:31:00 | 01:03:42 | 00:00:00 | |
| OE5MMP-10 | 2026-08-31 10:35:47 | 48.11380 | 11.95638 | 77° | 91km/h | 14337m | 5.4m/s | -52.8°C | 5.3% | 142.4hPa | 2.7V | 02:31:00 | 01:03:40 | 00:00:00 | |
| DB0UT-7 | 2026-08-31 10:35:46 | 48.11374 | 11.95605 | 76° | 97km/h | 14332m | 4.9m/s | -52.9°C | 5.3% | 142.6hPa | 2.6V | 00:00:00 | 01:03:39 | 00:00:00 | |
| DO3MHA-12 | 2026-08-31 10:35:45 | 48.11369 | 11.95572 | 77° | 93km/h | 14327m | 5.6m/s | -52.9°C | 5.3% | 142.7hPa | 2.6V | 02:31:00 | 01:03:38 | 00:00:00 | |
| OE5WHR-10 | 2026-08-31 10:35:44 | 48.11364 | 11.95538 | 78° | 95km/h | 14322m | 4.7m/s | -52.9°C | 5.3% | 142.8hPa | 2.7V | 00:00:00 | 00:00:00 | 00:00:00 | |
| OE5DRO-10 | 2026-08-31 10:35:40 | 48.11344 | 11.95400 | 80° | 97km/h | 14302m | 6.2m/s | -53.2°C | 5.3% | 143.2hPa | 2.7V | 00:00:00 | 00:00:00 | 00:00:00 | |
| DO3MHA-11 | 2026-08-31 10:35:39 | 48.11340 | 11.95365 | 82° | 95km/h | 14296m | 4.2m/s | -53.2°C | 5.3% | 143.4hPa | 2.7V | 00:00:00 | 01:03:32 | 00:00:00 | |
| DN1GJH-1 | 2026-08-31 10:35:38 | 48.11337 | 11.95331 | 82° | 91km/h | 14292m | 5.0m/s | -53.3°C | 2.6% | 143.5hPa | 2.7V | 02:31:00 | 00:00:00 | 00:00:00 | |
| DO8TBO-1 | 2026-08-31 10:35:37 | 48.11329 | 11.95264 | 79° | 102km/h | 14280m | 5.5m/s | -53.5°C | 5.6% | 143.8hPa | 2.7V | 00:00:00 | 01:03:29 | 00:00:00 | |
| DF7PN | 2026-08-31 10:35:36 | 48.11329 | 11.95264 | 78° | 91km/h | 14280m | 5.6m/s | -53.6°C | 2.6% | 143.8hPa | 2.7V | 00:00:00 | 00:00:00 | 00:00:00 | |
| DO3MHA-12 | 2026-08-31 10:35:35 | 48.11324 | 11.95230 | 78° | 97km/h | 14275m | 3.7m/s | -53.5°C | 5.6% | 143.8hPa | 2.7V | 00:00:00 | 01:03:28 | 00:00:00 | |
| DB0NH | 2026-08-31 10:35:34 | 48.11319 | 11.95194 | 78° | 102km/h | 14271m | 5.1m/s | -53.6°C | 5.6% | 143.9hPa | 2.7V | 00:00:00 | 01:03:27 | 00:00:00 | |
| OE5DXL-15 | 2026-08-31 10:35:33 | 48.11314 | 11.95158 | 79° | 104km/h | 14265m | 5.5m/s | -53.6°C | 5.6% | 144.1hPa | 2.7V | 02:31:00 | 00:00:00 | 00:00:00 | |
| PG1ADW-2 | 2026-08-31 10:35:32 | 48.11309 | 11.95121 | 79° | 100km/h | 14260m | 4.8m/s | -53.6°C | 5.7% | 144.2hPa | 2.6V | 00:00:00 | 00:00:00 | 00:00:00 | |
| DO3MHA-11 | 2026-08-31 10:35:29 | 48.11293 | 11.95013 | 78° | 99km/h | 14244m | 5.1m/s | -53.7°C | 5.8% | 144.5hPa | 2.6V | 00:00:00 | 01:03:22 | 00:00:00 | |
| OE5MMP-10 | 2026-08-31 10:35:27 | 48.11283 | 11.94941 | 78° | 100km/h | 14235m | 3.7m/s | -53.8°C | 5.8% | 144.8hPa | 2.6V | 00:00:00 | 01:03:20 | 00:00:00 | |
| DO3MHA-12 | 2026-08-31 10:35:25 | 48.11271 | 11.94869 | 76° | 102km/h | 14224m | 4.2m/s | -53.9°C | 5.9% | 145.0hPa | 2.6V | 00:00:00 | 01:03:18 | 00:00:00 | |
| DK5PH-5 | 2026-08-31 10:35:24 | 48.11265 | 11.94834 | 76° | 108km/h | 14220m | 4.9m/s | -53.9°C | 5.9% | 145.1hPa | 2.6V | 02:31:00 | 01:03:17 | 00:00:00 | |
| OE5WHR-10 | 2026-08-31 10:35:23 | 48.11259 | 11.94798 | 76° | 106km/h | 14215m | 4.9m/s | -53.9°C | 6.0% | 145.2hPa | 2.7V | 00:00:00 | 01:03:16 | 00:00:00 | |
| OE5DRO-10 | 2026-08-31 10:35:21 | 48.11245 | 11.94726 | 74° | 106km/h | 14206m | 5.6m/s | -53.9°C | 5.9% | 145.5hPa | 2.7V | 02:31:00 | 00:00:00 | 00:00:00 | |
| DO3MHA-11 | 2026-08-31 10:35:19 | 48.11230 | 11.94653 | 73° | 108km/h | 14195m | 5.8m/s | -53.9°C | 5.8% | 145.7hPa | 2.7V | 02:31:00 | 01:03:12 | 00:00:00 | |
| NBG1-10 | 2026-08-31 10:35:17 | 48.11214 | 11.94577 | 73° | 111km/h | 14185m | 4.7m/s | -53.9°C | 5.8% | 145.9hPa | 2.6V | 00:00:00 | 01:03:10 | 00:00:00 | |
| DB0UT-7 | 2026-08-31 10:35:16 | 48.11205 | 11.94539 | 72° | 111km/h | 14180m | 6.3m/s | -53.9°C | 5.9% | 146.0hPa | 2.6V | 02:31:00 | 00:00:00 | 00:00:00 | |
| DO3MHA-12 | 2026-08-31 10:35:15 | 48.11197 | 11.94500 | 72° | 108km/h | 14174m | 4.6m/s | -53.8°C | 5.9% | 146.1hPa | 2.7V | 02:31:00 | 01:03:08 | 00:00:00 | |
| PG1ADW-2 | 2026-08-31 10:35:12 | 48.11173 | 11.94384 | 74° | 110km/h | 14158m | 5.9m/s | -53.8°C | 6.0% | 146.5hPa | 2.7V | 02:31:00 | 00:00:00 | 00:00:00 | |
| DO3MHA-11 | 2026-08-31 10:35:09 | 48.11150 | 11.94266 | 76° | 110km/h | 14142m | 4.9m/s | -53.7°C | 6.0% | 146.9hPa | 2.7V | 00:00:00 | 01:03:02 | 00:00:00 | |
| OE5MMP-10 | 2026-08-31 10:35:07 | 48.11136 | 11.94187 | 75° | 110km/h | 14132m | 5.3m/s | -53.8°C | 6.0% | 147.1hPa | 2.7V | 00:00:00 | 01:03:00 | 00:00:00 | |
| DL6DJ-15 | 2026-08-31 10:35:06 | 48.11121 | 11.94109 | 75° | 106km/h | 14122m | 5.6m/s | -53.9°C | 3.0% | 147.4hPa | 2.7V | 00:00:00 | 00:00:00 | 00:00:00 | |
| DO3MHA-12 | 2026-08-31 10:35:05 | 48.11121 | 11.94108 | 76° | 111km/h | 14122m | 5.5m/s | -53.8°C | 6.1% | 147.3hPa | 2.7V | 00:00:00 | 01:02:58 | 00:00:00 | |
| DB0NH | 2026-08-31 10:35:04 | 48.11114 | 11.94069 | 76° | 115km/h | 14117m | 4.3m/s | -53.9°C | 6.1% | 147.4hPa | 2.7V | 00:00:00 | 01:02:57 | 00:00:00 | |
| OE5DXL-15 | 2026-08-31 10:35:03 | 48.11107 | 11.94030 | 75° | 115km/h | 14112m | 5.7m/s | -53.9°C | 6.0% | 147.6hPa | 2.7V | 00:00:00 | 00:00:00 | 00:00:00 | |
| OE5WHR-10 | 2026-08-31 10:35:02 | 48.11100 | 11.93990 | 76° | 115km/h | 14106m | 4.8m/s | -53.9°C | 6.0% | 147.7hPa | 2.7V | 02:31:00 | 00:00:00 | 00:00:00 | |
| BAUMI2-15 | 2026-08-31 10:35:01 | 48.11093 | 11.93950 | 77° | 113km/h | 14101m | 6.1m/s | -54.0°C | 6.0% | 147.8hPa | 2.7V | 00:00:00 | 01:02:54 | 00:00:00 | |
| DO3MHA-11 | 2026-08-31 10:34:59 | 48.11080 | 11.93868 | 77° | 115km/h | 14090m | 5.9m/s | -54.1°C | 6.2% | 148.0hPa | 2.7V | 00:00:00 | 01:02:52 | 00:00:00 | |
| DG1MFX-10 | 2026-08-31 10:34:58 | 48.11073 | 11.93827 | 76° | 113km/h | 14085m | 4.9m/s | -54.1°C | 3.2% | 148.3hPa | 2.7V | 02:32:00 | 00:00:00 | 00:00:00 | |
| OE5MMP-10 | 2026-08-31 10:34:57 | 48.11066 | 11.93786 | 76° | 115km/h | 14080m | 5.2m/s | -54.1°C | 6.2% | 148.3hPa | 2.7V | 00:00:00 | 01:02:50 | 00:00:00 | |
| DO3MHA-12 | 2026-08-31 10:34:55 | 48.11052 | 11.93703 | 76° | 115km/h | 14070m | 4.3m/s | -54.1°C | 6.4% | 148.6hPa | 2.7V | 00:00:00 | 01:02:48 | 00:00:00 | |
| DK5PH-5 | 2026-08-31 10:34:54 | 48.11045 | 11.93661 | 75° | 115km/h | 14064m | 6.1m/s | -54.1°C | 6.4% | 148.7hPa | 2.7V | 00:00:00 | 01:02:47 | 00:00:00 | |
| PG1ADW-2 | 2026-08-31 10:34:52 | 48.11027 | 11.93578 | 73° | 115km/h | 14053m | 5.3m/s | -54.1°C | 6.3% | 149.0hPa | 2.7V | 00:00:00 | 01:02:45 | 00:00:00 | |
| DO3MHA-11 | 2026-08-31 10:34:49 | 48.11001 | 11.93452 | 72° | 117km/h | 14037m | 6.4m/s | -54.2°C | 6.4% | 149.3hPa | 2.7V | 02:32:00 | 01:02:42 | 00:00:00 | |
| OE5MMP-10 | 2026-08-31 10:34:47 | 48.10982 | 11.93369 | 72° | 117km/h | 14027m | 5.3m/s | -54.3°C | 6.5% | 149.5hPa | 2.7V | 02:32:00 | 01:02:40 | 00:00:00 | |
| DB0UT-7 | 2026-08-31 10:34:46 | 48.10973 | 11.93327 | 74° | 113km/h | 14021m | 5.5m/s | -54.4°C | 6.6% | 149.7hPa | 2.7V | 00:00:00 | 01:02:39 | 00:00:00 | |
| DO3MHA-12 | 2026-08-31 10:34:45 | 48.10965 | 11.93285 | 74° | 117km/h | 14017m | 3.6m/s | -54.4°C | 6.5% | 149.8hPa | 2.7V | 02:32:00 | 01:02:38 | 00:00:00 | |
| NBG1-10 | 2026-08-31 10:34:44 | 48.10956 | 11.93243 | 73° | 113km/h | 14012m | 5.5m/s | -54.4°C | 6.5% | 149.9hPa | 2.7V | 00:00:00 | 01:02:37 | 00:00:00 | |
| OE5DRO-10 | 2026-08-31 10:34:43 | 48.10947 | 11.93202 | 72° | 115km/h | 14007m | 5.4m/s | -54.4°C | 6.5% | 150.0hPa | 2.7V | 00:00:00 | 00:00:00 | 00:00:00 | |
| OE5WHR-10 | 2026-08-31 10:34:41 | 48.10929 | 11.93118 | 72° | 113km/h | 13996m | 5.3m/s | -54.6°C | 6.6% | 150.3hPa | 2.7V | 00:00:00 | 00:00:00 | 00:00:00 | |
| DO3MHA-11 | 2026-08-31 10:34:39 | 48.10910 | 11.93034 | 71° | 113km/h | 13985m | 5.8m/s | -54.9°C | 7.0% | 150.5hPa | 2.7V | 00:00:00 | 01:02:32 | 00:00:00 | |
| OE5MMP-10 | 2026-08-31 10:34:37 | 48.10890 | 11.92952 | 71° | 113km/h | 13975m | 5.9m/s | -54.9°C | 7.0% | 150.7hPa | 2.7V | 00:00:00 | 01:02:30 | 00:00:00 | |
| DL6DJ-15 | 2026-08-31 10:34:35 | 48.10862 | 11.92829 | 70° | 111km/h | 13960m | 5.2m/s | -55.0°C | 3.8% | 151.1hPa | 2.7V | 00:00:00 | 00:00:00 | 00:00:00 | |
| DB0NH | 2026-08-31 10:34:34 | 48.10862 | 11.92829 | 71° | 113km/h | 13960m | 5.1m/s | -55.0°C | 7.1% | 151.1hPa | 2.7V | 02:32:00 | 01:02:27 | 00:00:00 | |
| OE5DXL-15 | 2026-08-31 10:34:33 | 48.10852 | 11.92790 | 71° | 115km/h | 13955m | 4.5m/s | -55.0°C | 7.1% | 151.2hPa | 2.7V | 00:00:00 | 00:00:00 | 00:00:00 | |
| PG1ADW-2 | 2026-08-31 10:34:32 | 48.10843 | 11.92750 | 71° | 113km/h | 13950m | 5.6m/s | -55.1°C | 7.3% | 151.4hPa | 2.7V | 00:00:00 | 00:00:00 | 00:00:00 | |
| DO3MHA-11 | 2026-08-31 10:34:29 | 48.10813 | 11.92631 | 69° | 113km/h | 13935m | 4.7m/s | -55.4°C | 7.5% | 151.7hPa | 2.7V | 00:00:00 | 01:02:22 | 00:00:00 | |
| BAUMI2-15 | 2026-08-31 10:34:28 | 48.10803 | 11.92591 | 69° | 113km/h | 13930m | 6.1m/s | -55.5°C | 7.5% | 151.8hPa | 2.7V | 02:32:00 | 01:02:21 | 00:00:00 | |
| OE5MMP-10 | 2026-08-31 10:34:27 | 48.10792 | 11.92550 | 70° | 113km/h | 13924m | 4.9m/s | -55.5°C | 7.6% | 152.0hPa | 2.7V | 00:00:00 | 01:02:20 | 00:00:00 | |
| DO3MHA-12 | 2026-08-31 10:34:25 | 48.10771 | 11.92469 | 69° | 113km/h | 13914m | 5.4m/s | -55.6°C | 7.8% | 152.3hPa | 2.7V | 00:00:00 | 01:02:18 | 00:00:00 | |
| DK5PH-5 | 2026-08-31 10:34:24 | 48.10761 | 11.92430 | 69° | 115km/h | 13909m | 4.1m/s | -55.5°C | 7.8% | 152.3hPa | 2.7V | 00:00:00 | 01:02:17 | 00:00:00 | |
| OE5WHR-10 | 2026-08-31 10:34:20 | 48.10720 | 11.92270 | 69° | 115km/h | 13889m | 5.3m/s | -55.8°C | 7.8% | 152.8hPa | 2.7V | 00:00:00 | 01:02:13 | 00:00:00 | |
| DO3MHA-11 | 2026-08-31 10:34:19 | 48.10710 | 11.92231 | 69° | 115km/h | 13884m | 4.5m/s | -55.8°C | 7.9% | 153.0hPa | 2.7V | 02:32:00 | 01:02:12 | 00:00:00 | |
| OE5MMP-10 | 2026-08-31 10:34:17 | 48.10690 | 11.92152 | 70° | 117km/h | 13873m | 5.0m/s | -56.0°C | 8.1% | 153.2hPa | 2.7V | 02:32:00 | 01:02:10 | 00:00:00 | |
| BAUMI2-15 | 2026-08-31 10:34:16 | 48.10680 | 11.92112 | 69° | 119km/h | 13867m | 6.1m/s | -56.0°C | 8.2% | 153.3hPa | 2.7V | 00:00:00 | 01:02:09 | 00:00:00 | |
| DO3MHA-12 | 2026-08-31 10:34:15 | 48.10669 | 11.92073 | 70° | 117km/h | 13862m | 4.1m/s | -56.0°C | 8.3% | 153.4hPa | 2.7V | 02:32:00 | 01:02:08 | 00:00:00 | |
| DN1GJH-1 | 2026-08-31 10:34:14 | 48.10669 | 11.92073 | 70° | 113km/h | 13862m | 4.1m/s | -56.1°C | 4.7% | 153.5hPa | 2.7V | 02:32:00 | 00:00:00 | 00:00:00 | |
| PG1ADW-2 | 2026-08-31 10:34:12 | 48.10640 | 11.91950 | 71° | 119km/h | 13846m | 5.8m/s | -56.1°C | 8.6% | 153.8hPa | 2.7V | 02:32:00 | 00:00:00 | 00:00:00 | |
| NBG1-10 | 2026-08-31 10:34:11 | 48.10630 | 11.91909 | 71° | 120km/h | 13841m | 4.7m/s | -56.1°C | 8.7% | 153.9hPa | 2.7V | 02:32:00 | 01:02:04 | 00:00:00 | |
| DO3MHA-11 | 2026-08-31 10:34:09 | 48.10610 | 11.91823 | 72° | 115km/h | 13831m | 3.9m/s | -56.1°C | 8.7% | 154.2hPa | 2.7V | 00:00:00 | 01:02:02 | 00:00:00 | |
| OE5MMP-10 | 2026-08-31 10:34:07 | 48.10591 | 11.91738 | 71° | 115km/h | 13820m | 4.6m/s | -56.1°C | 8.7% | 154.5hPa | 2.7V | 00:00:00 | 01:02:00 | 00:00:00 | |
| DB0UT-7 | 2026-08-31 10:34:06 | 48.10582 | 11.91697 | 72° | 124km/h | 13816m | 4.3m/s | -56.1°C | 8.5% | 154.6hPa | 2.7V | 00:00:00 | 00:00:00 | 00:00:00 | |
| DO3MHA-12 | 2026-08-31 10:34:05 | 48.10573 | 11.91656 | 73° | 117km/h | 13811m | 5.1m/s | -56.1°C | 8.5% | 154.6hPa | 2.7V | 00:00:00 | 01:01:58 | 00:00:00 | |
| DL6DJ-15 | 2026-08-31 10:34:04 | 48.10556 | 11.91574 | 73° | 111km/h | 13801m | 4.5m/s | -56.2°C | 5.1% | 154.9hPa | 2.7V | 00:00:00 | 00:00:00 | 00:00:00 | |
| DO3MHA-11 | 2026-08-31 10:33:59 | 48.10521 | 11.91410 | 73° | 120km/h | 13782m | 5.7m/s | -56.4°C | 9.9% | 155.3hPa | 2.7V | 00:00:00 | 01:01:52 | 00:00:00 | |
| OE5MMP-10 | 2026-08-31 10:33:57 | 48.10502 | 11.91323 | 72° | 120km/h | 13772m | 5.7m/s | -56.6°C | 10.5% | 155.6hPa | 2.7V | 00:00:00 | 01:01:50 | 00:00:00 | |
| DO3MHA-12 | 2026-08-31 10:33:55 | 48.10482 | 11.91233 | 72° | 119km/h | 13761m | 6.4m/s | -56.6°C | 10.8% | 155.8hPa | 2.7V | 00:00:00 | 01:01:48 | 00:00:00 | |
| DN1GJH-1 | 2026-08-31 10:33:54 | 48.10482 | 11.91233 | 73° | 126km/h | 13761m | 6.4m/s | -56.7°C | 0% | 0hPa | 2.7V | 02:33:00 | 00:00:00 | 00:00:00 | |
| PG1ADW-2 | 2026-08-31 10:33:52 | 48.10452 | 11.91101 | 70° | 130km/h | 13745m | 4.6m/s | -56.5°C | 10.5% | 156.3hPa | 2.7V | 00:00:00 | 00:00:00 | 00:00:00 | |
| DO3MHA-11 | 2026-08-31 10:33:49 | 48.10423 | 11.90978 | 72° | 126km/h | 13731m | 3.7m/s | -56.8°C | 10.7% | 156.6hPa | 2.7V | 02:33:00 | 01:01:42 | 00:00:00 | |
| OE5MMP-10 | 2026-08-31 10:33:47 | 48.10404 | 11.90897 | 71° | 131km/h | 13722m | 3.3m/s | -56.7°C | 10.8% | 156.9hPa | 2.7V | 02:33:00 | 01:01:40 | 00:00:00 | |
| DO3MHA-12 | 2026-08-31 10:33:45 | 48.10384 | 11.90812 | 72° | 135km/h | 13711m | 8.4m/s | -56.7°C | 10.8% | 157.0hPa | 2.7V | 02:33:00 | 01:01:38 | 00:00:00 | |
| DO3MHA-11 | 2026-08-31 10:33:39 | 48.10330 | 11.90516 | 73° | 137km/h | 13666m | 7.1m/s | -56.5°C | 11.9% | 158.2hPa | 2.7V | 00:00:00 | 01:01:32 | 00:00:00 | |
| NBG1-10 | 2026-08-31 10:33:38 | 48.10320 | 11.90466 | 72° | 144km/h | 13659m | 6.3m/s | -56.5°C | 12.1% | 158.4hPa | 2.7V | 00:00:00 | 01:01:31 | 00:00:00 | |
| OE5MMP-10 | 2026-08-31 10:33:37 | 48.10308 | 11.90416 | 71° | 137km/h | 13654m | 5.2m/s | -56.4°C | 12.2% | 158.5hPa | 2.7V | 00:00:00 | 01:01:30 | 00:00:00 | |
| DB0UT-7 | 2026-08-31 10:33:36 | 48.10297 | 11.90367 | 72° | 144km/h | 13648m | 6.4m/s | -56.4°C | 12.2% | 158.7hPa | 2.7V | 02:33:00 | 01:01:29 | 00:00:00 | |
| DO3MHA-12 | 2026-08-31 10:33:35 | 48.10286 | 11.90317 | 72° | 137km/h | 13642m | 5.1m/s | -56.4°C | 12.3% | 158.9hPa | 2.7V | 00:00:00 | 01:01:28 | 00:00:00 | |
| DL6DJ-15 | 2026-08-31 10:33:34 | 48.10255 | 11.90172 | 74° | 131km/h | 13628m | 4.4m/s | -56.5°C | 8.1% | 159.2hPa | 2.7V | 00:00:00 | 00:00:00 | 00:00:00 | |
| PG1ADW-2 | 2026-08-31 10:33:33 | 48.10255 | 11.90172 | 75° | 146km/h | 13628m | 4.3m/s | -56.5°C | 12.6% | 159.2hPa | 2.7V | 00:00:00 | 01:01:25 | 00:00:00 | |
| DF7PN | 2026-08-31 10:33:32 | 48.10247 | 11.90123 | 75° | 135km/h | 13623m | 4.7m/s | -56.5°C | 8.2% | 159.4hPa | 2.7V | 00:00:00 | 00:00:00 | 00:00:00 | |
| DO3MHA-11 | 2026-08-31 10:33:29 | 48.10228 | 11.90022 | 75° | 142km/h | 13615m | 4.7m/s | -56.5°C | 12.6% | 159.5hPa | 2.7V | 00:00:00 | 01:01:22 | 00:00:00 | |
| OE5MMP-10 | 2026-08-31 10:33:27 | 48.10208 | 11.89920 | 72° | 144km/h | 13603m | 5.5m/s | -56.6°C | 12.6% | 159.8hPa | 2.7V | 00:00:00 | 01:01:20 | 00:00:00 | |
| DO3MHA-12 | 2026-08-31 10:33:25 | 48.10184 | 11.89821 | 69° | 148km/h | 13593m | 5.0m/s | -56.5°C | 12.5% | 160.1hPa | 2.7V | 00:00:00 | 01:01:18 | 00:00:00 | |
| DH7VM-15 | 2026-08-31 10:33:21 | 48.10146 | 11.89672 | 71° | 142km/h | 13577m | 3.9m/s | -56.5°C | 8.3% | 160.6hPa | 2.7V | 00:00:00 | 00:00:00 | 00:00:00 | |
| DO3MHA-11 | 2026-08-31 10:33:19 | 48.10109 | 11.89515 | 70° | 153km/h | 13562m | 6.8m/s | -56.5°C | 13.0% | 160.9hPa | 2.7V | 02:33:00 | 01:01:12 | 00:00:00 | |
| OE5WHR-10 | 2026-08-31 10:33:17 | 48.10082 | 11.89406 | 70° | 153km/h | 13551m | 5.8m/s | -56.4°C | 13.1% | 161.1hPa | 2.7V | 00:00:00 | 01:01:10 | 00:00:00 | |
| DO3MHA-12 | 2026-08-31 10:33:15 | 48.10056 | 11.89296 | 71° | 151km/h | 13541m | 4.7m/s | -56.5°C | 13.2% | 161.4hPa | 2.7V | 02:33:00 | 01:01:08 | 00:00:00 | |
| DG1MFX-10 | 2026-08-31 10:33:14 | 48.10056 | 11.89296 | 71° | 155km/h | 13541m | 4.7m/s | -56.5°C | 8.8% | 161.4hPa | 2.7V | 02:34:00 | 00:00:00 | 00:00:00 | |
| DN1GJH-1 | 2026-08-31 10:33:13 | 48.10042 | 11.89241 | 70° | 155km/h | 13536m | 6.2m/s | 0°C | 0% | 0hPa | 2.7V | 00:00:00 | 00:00:00 | 00:00:00 | |
| PG1ADW-2 | 2026-08-31 10:33:12 | 48.10015 | 11.89134 | 69° | 153km/h | 13525m | 6.4m/s | -57.0°C | 14.1% | 161.8hPa | 2.7V | 02:33:00 | 00:00:00 | 00:00:00 | |
| DO3MHA-11 | 2026-08-31 10:33:09 | 48.09974 | 11.88976 | 69° | 155km/h | 13511m | 4.9m/s | -57.1°C | 14.5% | 162.2hPa | 2.7V | 00:00:00 | 01:01:02 | 00:00:00 | |
| OE5DRO-10 | 2026-08-31 10:33:08 | 48.09960 | 11.88923 | 69° | 153km/h | 13507m | 3.4m/s | -57.1°C | 14.4% | 162.3hPa | 2.7V | 00:00:00 | 00:00:00 | 00:00:00 | |
| OE5MMP-10 | 2026-08-31 10:33:07 | 48.09947 | 11.88870 | 70° | 155km/h | 13503m | 5.0m/s | -57.2°C | 14.5% | 162.4hPa | 2.7V | 00:00:00 | 01:01:00 | 00:00:00 | |
| NBG1-10 | 2026-08-31 10:33:06 | 48.09921 | 11.88762 | 71° | 151km/h | 13495m | 3.6m/s | -57.2°C | 14.1% | 162.6hPa | 2.7V | 00:00:00 | 01:00:58 | 00:00:00 | |
| OE5DXL-15 | 2026-08-31 10:33:03 | 48.09895 | 11.88650 | 71° | 151km/h | 13486m | 3.5m/s | -57.1°C | 13.9% | 162.8hPa | 2.7V | 00:00:00 | 00:00:00 | 00:00:00 | |
| DL6DJ-15 | 2026-08-31 10:33:01 | 48.09868 | 11.88537 | 71° | 157km/h | 13478m | 4.0m/s | -57.1°C | 9.4% | 163.1hPa | 2.7V | 00:00:00 | 00:00:00 | 00:00:00 | |
| DF7PN | 2026-08-31 10:33:00 | 48.09855 | 11.88480 | 70° | 155km/h | 13474m | 3.4m/s | -57.1°C | 9.5% | 163.2hPa | 2.7V | 00:00:00 | 00:00:00 | 00:00:00 | |
| DO3MHA-11 | 2026-08-31 10:32:59 | 48.09842 | 11.88425 | 70° | 151km/h | 13470m | 4.9m/s | -57.0°C | 14.4% | 163.3hPa | 2.7V | 00:00:00 | 01:00:52 | 00:00:00 | |
| OE5MMP-10 | 2026-08-31 10:32:57 | 48.09814 | 11.88316 | 69° | 151km/h | 13461m | 4.5m/s | -57.0°C | 14.3% | 163.5hPa | 2.7V | 00:00:00 | 01:00:50 | 00:00:00 | |
| OE5WHR-10 | 2026-08-31 10:32:56 | 48.09800 | 11.88262 | 69° | 151km/h | 13457m | 4.4m/s | -56.9°C | 14.2% | 163.7hPa | 2.7V | 02:34:00 | 00:00:00 | 00:00:00 | |
| DO3MHA-12 | 2026-08-31 10:32:55 | 48.09786 | 11.88209 | 68° | 151km/h | 13452m | 5.1m/s | -56.9°C | 14.2% | 163.8hPa | 2.7V | 00:00:00 | 01:00:48 | 00:00:00 | |
| DK5PH-5 | 2026-08-31 10:32:54 | 48.09771 | 11.88156 | 68° | 150km/h | 13447m | 4.0m/s | -56.9°C | 14.2% | 163.8hPa | 2.7V | 00:00:00 | 01:00:47 | 00:00:00 | |
| DN1GJH-1 | 2026-08-31 10:32:53 | 48.09771 | 11.88156 | 69° | 151km/h | 13447m | 4.1m/s | 0°C | 0% | 0hPa | 2.7V | 00:00:00 | 00:00:00 | 00:00:00 | |
| PG1ADW-2 | 2026-08-31 10:32:52 | 48.09742 | 11.88050 | 69° | 150km/h | 13439m | 3.9m/s | -56.9°C | 14.1% | 164.1hPa | 2.7V | 00:00:00 | 00:00:00 | 00:00:00 | |
| DO3MHA-11 | 2026-08-31 10:32:49 | 48.09699 | 11.87892 | 68° | 151km/h | 13425m | 4.9m/s | -56.9°C | 14.2% | 164.5hPa | 2.7V | 02:34:00 | 01:00:42 | 00:00:00 | |
| OE5MMP-10 | 2026-08-31 10:32:47 | 48.09670 | 11.87787 | 68° | 151km/h | 13416m | 4.7m/s | -56.8°C | 14.3% | 164.7hPa | 2.7V | 02:34:00 | 01:00:40 | 00:00:00 | |
| DO3MHA-12 | 2026-08-31 10:32:45 | 48.09641 | 11.87682 | 69° | 151km/h | 13407m | 5.2m/s | -56.8°C | 14.4% | 164.9hPa | 2.7V | 02:34:00 | 01:00:38 | 00:00:00 | |
| DO3MHA-11 | 2026-08-31 10:32:39 | 48.09557 | 11.87363 | 70° | 148km/h | 13381m | 4.0m/s | -56.9°C | 14.7% | 165.6hPa | 2.7V | 00:00:00 | 01:00:32 | 00:00:00 | |
| OE5MMP-10 | 2026-08-31 10:32:37 | 48.09529 | 11.87257 | 68° | 146km/h | 13373m | 3.2m/s | -56.9°C | 14.9% | 165.8hPa | 2.7V | 00:00:00 | 01:00:30 | 00:00:00 | |
| DO3MHA-12 | 2026-08-31 10:32:36 | 48.09501 | 11.87152 | 69° | 146km/h | 13365m | 4.2m/s | -57.0°C | 15.1% | 166.0hPa | 2.7V | 00:00:00 | 01:00:28 | 00:00:00 | |
| OE5WHR-10 | 2026-08-31 10:32:35 | 48.09501 | 11.87152 | 69° | 144km/h | 13365m | 4.2m/s | -57.0°C | 15.1% | 166.0hPa | 2.7V | 00:00:00 | 00:00:00 | 00:00:00 | |
| DG1MFX-10 | 2026-08-31 10:32:34 | 48.09501 | 11.87152 | 69° | 148km/h | 13365m | 4.2m/s | -57.0°C | 10.3% | 166.1hPa | 2.7V | 02:34:00 | 00:00:00 | 00:00:00 | |
| OE5DXL-15 | 2026-08-31 10:32:33 | 48.09473 | 11.87050 | 68° | 144km/h | 13356m | 4.8m/s | -57.2°C | 15.4% | 166.3hPa | 2.7V | 02:34:00 | 00:00:00 | 00:00:00 | |
| NBG1-10 | 2026-08-31 10:32:32 | 48.09459 | 11.86999 | 68° | 144km/h | 13351m | 3.7m/s | -57.2°C | 15.3% | 166.4hPa | 2.7V | 02:34:00 | 01:00:25 | 00:00:00 | |
| DF7PN | 2026-08-31 10:32:30 | 48.09418 | 11.86848 | 67° | 146km/h | 13338m | 4.8m/s | -57.2°C | 10.3% | 166.8hPa | 2.7V | 00:00:00 | 00:00:00 | 00:00:00 | |
| DO3MHA-11 | 2026-08-31 10:32:29 | 48.09418 | 11.86848 | 68° | 144km/h | 13339m | 4.8m/s | -57.1°C | 15.2% | 166.7hPa | 2.7V | 00:00:00 | 01:00:22 | 00:00:00 | |
| OE5MMP-10 | 2026-08-31 10:32:27 | 48.09390 | 11.86745 | 69° | 144km/h | 13330m | 4.9m/s | -57.1°C | 15.0% | 166.9hPa | 2.7V | 00:00:00 | 01:00:20 | 00:00:00 | |
| DO3MHA-12 | 2026-08-31 10:32:25 | 48.09361 | 11.86641 | 68° | 142km/h | 13321m | 4.6m/s | -57.0°C | 15.1% | 167.2hPa | 2.7V | 00:00:00 | 01:00:18 | 00:00:00 | |
| DK5PH-5 | 2026-08-31 10:32:24 | 48.09347 | 11.86590 | 66° | 144km/h | 13317m | 3.8m/s | -56.9°C | 15.0% | 167.3hPa | 2.7V | 02:34:00 | 01:00:17 | 00:00:00 | |
| DO3MHA-11 | 2026-08-31 10:32:19 | 48.09273 | 11.86346 | 66° | 146km/h | 13295m | 3.8m/s | -56.8°C | 15.1% | 167.9hPa | 2.7V | 02:34:00 | 01:00:12 | 00:00:00 | |
| OE5MMP-10 | 2026-08-31 10:32:17 | 48.09244 | 11.86248 | 67° | 148km/h | 13287m | 4.3m/s | -56.6°C | 15.0% | 168.1hPa | 2.7V | 02:34:00 | 01:00:10 | 00:00:00 | |
| DO3MHA-12 | 2026-08-31 10:32:15 | 48.09215 | 11.86147 | 67° | 146km/h | 13280m | 4.7m/s | -56.6°C | 14.9% | 168.3hPa | 2.7V | 02:34:00 | 01:00:08 | 00:00:00 | |
| OE5WHR-10 | 2026-08-31 10:32:14 | 48.09201 | 11.86096 | 67° | 144km/h | 13275m | 4.5m/s | -56.5°C | 14.7% | 168.4hPa | 2.7V | 00:00:00 | 01:00:07 | 00:00:00 | |
| DG1MFX-10 | 2026-08-31 10:32:13 | 48.09201 | 11.86096 | 67° | 148km/h | 13275m | 4.6m/s | -56.6°C | 10.0% | 168.5hPa | 2.7V | 02:35:00 | 00:00:00 | 00:00:00 | |
| PG1ADW-2 | 2026-08-31 10:32:12 | 48.09170 | 11.85994 | 67° | 144km/h | 13266m | 4.8m/s | -56.5°C | 14.5% | 168.6hPa | 2.7V | 02:34:00 | 01:00:05 | 00:00:00 | |
| OE5DRO-10 | 2026-08-31 10:32:11 | 48.09156 | 11.85943 | 67° | 144km/h | 13262m | 3.7m/s | -56.5°C | 14.5% | 168.7hPa | 2.7V | 00:00:00 | 00:00:00 | 00:00:00 | |
| DO3MHA-11 | 2026-08-31 10:32:09 | 48.09125 | 11.85840 | 67° | 142km/h | 13254m | 3.9m/s | -56.4°C | 14.5% | 169.0hPa | 2.7V | 00:00:00 | 01:00:02 | 00:00:00 | |
| OE5MMP-10 | 2026-08-31 10:32:07 | 48.09095 | 11.85740 | 67° | 141km/h | 13245m | 3.6m/s | -56.3°C | 14.5% | 169.2hPa | 2.7V | 00:00:00 | 01:00:00 | 00:00:00 | |
| DB0UT-7 | 2026-08-31 10:32:06 | 48.09081 | 11.85691 | 66° | 142km/h | 13241m | 4.2m/s | -56.4°C | 14.6% | 169.3hPa | 2.7V | 02:34:00 | 00:00:00 | 00:00:00 | |
| DO3MHA-12 | 2026-08-31 10:32:05 | 48.09066 | 11.85644 | 65° | 142km/h | 13237m | 3.9m/s | -56.3°C | 14.8% | 169.5hPa | 2.7V | 00:00:00 | 00:59:58 | 00:00:00 | |
| OE5DXL-15 | 2026-08-31 10:32:03 | 48.09036 | 11.85550 | 66° | 144km/h | 13229m | 4.7m/s | -56.3°C | 14.9% | 169.6hPa | 2.7V | 00:00:00 | 00:00:00 | 00:00:00 | |
| DL6DJ-15 | 2026-08-31 10:31:59 | 48.08978 | 11.85354 | 66° | 144km/h | 13213m | 4.3m/s | -56.5°C | 10.3% | 170.1hPa | 2.7V | 00:00:00 | 00:00:00 | 00:00:00 | |
| DF7PN | 2026-08-31 10:31:58 | 48.08964 | 11.85304 | 67° | 146km/h | 13208m | 4.4m/s | -56.5°C | 10.5% | 170.3hPa | 2.7V | 00:00:00 | 00:00:00 | 00:00:00 | |
| OE5MMP-10 | 2026-08-31 10:31:57 | 48.08949 | 11.85253 | 68° | 142km/h | 13205m | 3.4m/s | -56.5°C | 15.4% | 170.3hPa | 2.7V | 00:00:00 | 00:59:50 | 00:00:00 | |
| DO3MHA-12 | 2026-08-31 10:31:55 | 48.08920 | 11.85153 | 66° | 142km/h | 13196m | 3.6m/s | -56.5°C | 15.3% | 170.5hPa | 2.7V | 00:00:00 | 00:59:48 | 00:00:00 | |
| DK5PH-5 | 2026-08-31 10:31:54 | 48.08905 | 11.85103 | 66° | 144km/h | 13192m | 4.8m/s | -56.5°C | 15.2% | 170.6hPa | 2.7V | 00:00:00 | 00:59:47 | 00:00:00 | |
| OE5WHR-10 | 2026-08-31 10:31:53 | 48.08889 | 11.85053 | 66° | 144km/h | 13187m | 3.7m/s | -56.6°C | 15.3% | 170.8hPa | 2.7V | 02:35:00 | 00:00:00 | 00:00:00 | |
| DG1MFX-10 | 2026-08-31 10:31:52 | 48.08889 | 11.85053 | 66° | 144km/h | 13187m | 3.8m/s | -56.6°C | 10.6% | 170.8hPa | 2.7V | 02:35:00 | 00:00:00 | 00:00:00 | |
| DO3MHA-11 | 2026-08-31 10:31:49 | 48.08829 | 11.84861 | 66° | 144km/h | 13173m | 4.4m/s | -56.6°C | 15.7% | 171.2hPa | 2.7V | 02:35:00 | 00:59:42 | 00:00:00 | |
| OE5MMP-10 | 2026-08-31 10:31:47 | 48.08799 | 11.84764 | 67° | 144km/h | 13165m | 3.4m/s | -56.4°C | 15.8% | 171.4hPa | 2.7V | 02:35:00 | 00:59:40 | 00:00:00 | |
| DO3MHA-12 | 2026-08-31 10:31:45 | 48.08769 | 11.84664 | 66° | 144km/h | 13156m | 4.0m/s | -56.4°C | 16.0% | 171.7hPa | 2.7V | 02:35:00 | 00:59:38 | 00:00:00 | |
| DO3MHA-11 | 2026-08-31 10:31:39 | 48.08680 | 11.84363 | 67° | 144km/h | 13130m | 4.4m/s | -56.5°C | 16.3% | 172.3hPa | 2.7V | 00:00:00 | 00:59:32 | 00:00:00 | |
| OE5MMP-10 | 2026-08-31 10:31:37 | 48.08650 | 11.84263 | 66° | 144km/h | 13121m | 4.2m/s | -56.5°C | 16.6% | 172.6hPa | 2.7V | 00:00:00 | 00:59:30 | 00:00:00 | |
| DB0UT-7 | 2026-08-31 10:31:36 | 48.08635 | 11.84214 | 66° | 148km/h | 13117m | 3.1m/s | -56.5°C | 16.6% | 172.7hPa | 2.7V | 00:00:00 | 00:59:29 | 00:00:00 | |
| DO3MHA-12 | 2026-08-31 10:31:35 | 48.08620 | 11.84164 | 66° | 144km/h | 13113m | 4.8m/s | -56.5°C | 16.7% | 172.8hPa | 2.7V | 00:00:00 | 00:59:28 | 00:00:00 | |
| OE5DRO-10 | 2026-08-31 10:31:34 | 48.08591 | 11.84065 | 67° | 146km/h | 13105m | 4.0m/s | -56.4°C | 16.7% | 173.0hPa | 2.7V | 02:35:00 | 00:00:00 | 00:00:00 | |
| OE5DXL-15 | 2026-08-31 10:31:33 | 48.08591 | 11.84065 | 67° | 148km/h | 13105m | 4.0m/s | -56.4°C | 16.7% | 173.0hPa | 2.7V | 00:00:00 | 00:00:00 | 00:00:00 | |
| OE5WHR-10 | 2026-08-31 10:31:32 | 48.08576 | 11.84016 | 66° | 148km/h | 13101m | 4.6m/s | -56.5°C | 16.9% | 173.2hPa | 2.7V | 00:00:00 | 00:00:00 | 00:00:00 | |
| DO3MHA-11 | 2026-08-31 10:31:29 | 48.08531 | 11.83865 | 67° | 146km/h | 13087m | 4.0m/s | -56.6°C | 17.2% | 173.5hPa | 2.7V | 00:00:00 | 00:59:22 | 00:00:00 | |
| DL6DJ-15 | 2026-08-31 10:31:28 | 48.08517 | 11.83815 | 66° | 146km/h | 13082m | 5.2m/s | -56.7°C | 12.2% | 173.7hPa | 2.7V | 00:00:00 | 00:00:00 | 00:00:00 | |
| OE5MMP-10 | 2026-08-31 10:31:27 | 48.08502 | 11.83764 | 67° | 148km/h | 13078m | 3.3m/s | -56.6°C | 17.4% | 173.8hPa | 2.7V | 00:00:00 | 00:59:20 | 00:00:00 | |
| NBG1-10 | 2026-08-31 10:31:26 | 48.08487 | 11.83714 | 68° | 151km/h | 13074m | 5.4m/s | -56.6°C | 17.2% | 173.8hPa | 2.7V | 00:00:00 | 00:59:19 | 00:00:00 | |
| DO3MHA-12 | 2026-08-31 10:31:25 | 48.08473 | 11.83663 | 68° | 148km/h | 13069m | 4.0m/s | -56.6°C | 17.2% | 174.0hPa | 2.7V | 00:00:00 | 00:59:18 | 00:00:00 | |
| DK5PH-5 | 2026-08-31 10:31:24 | 48.08459 | 11.83612 | 68° | 151km/h | 13064m | 5.3m/s | -56.6°C | 17.2% | 174.1hPa | 2.7V | 00:00:00 | 00:59:17 | 00:00:00 | |
| DO3MHA-11 | 2026-08-31 10:31:19 | 48.08387 | 11.83353 | 67° | 148km/h | 13042m | 4.7m/s | -56.6°C | 17.1% | 174.7hPa | 2.7V | 02:35:00 | 00:59:12 | 00:00:00 | |
| OE5MMP-10 | 2026-08-31 10:31:17 | 48.08358 | 11.83250 | 68° | 148km/h | 13034m | 4.8m/s | -56.6°C | 17.0% | 174.9hPa | 2.7V | 02:35:00 | 00:59:10 | 00:00:00 | |
| DO3MHA-12 | 2026-08-31 10:31:15 | 48.08330 | 11.83146 | 70° | 150km/h | 13026m | 3.5m/s | -56.5°C | 16.6% | 175.2hPa | 2.7V | 02:35:00 | 00:59:08 | 00:00:00 | |
| OE5DRO-10 | 2026-08-31 10:31:14 | 48.08317 | 11.83093 | 69° | 153km/h | 13022m | 4.3m/s | -56.5°C | 16.4% | 175.3hPa | 2.7V | 00:00:00 | 00:00:00 | 00:00:00 | |
| PG1ADW-2 | 2026-08-31 10:31:12 | 48.08290 | 11.82990 | 70° | 153km/h | 13014m | 5.2m/s | -56.4°C | 16.0% | 175.5hPa | 2.7V | 02:35:00 | 00:00:00 | 00:00:00 | |
| OE5WHR-10 | 2026-08-31 10:31:11 | 48.08278 | 11.82938 | 70° | 155km/h | 13009m | 4.1m/s | -56.4°C | 16.0% | 175.7hPa | 2.7V | 00:00:00 | 00:59:04 | 00:00:00 | |
| DO3MHA-11 | 2026-08-31 10:31:09 | 48.08251 | 11.82834 | 70° | 153km/h | 13000m | 3.2m/s | -56.4°C | 16.3% | 175.9hPa | 2.7V | 00:00:00 | 00:59:02 | 00:00:00 | |
| DO8TBO-1 | 2026-08-31 10:31:07 | 48.08198 | 11.82616 | 71° | 157km/h | 12983m | 4.9m/s | -56.3°C | 16.1% | 176.4hPa | 2.7V | 00:00:00 | 00:58:58 | 00:00:00 | |
| DG1MJG | 2026-08-31 10:31:06 | 48.08198 | 11.82616 | 71° | 155km/h | 12983m | 5.0m/s | -56.4°C | 11.2% | 176.4hPa | 2.7V | 02:36:00 | 00:00:00 | 00:00:00 | |
| OE5DXL-15 | 2026-08-31 10:31:03 | 48.08172 | 11.82506 | 71° | 159km/h | 12974m | 4.6m/s | -56.3°C | 16.2% | 176.6hPa | 2.7V | 02:35:00 | 00:00:00 | 00:00:00 | |
| DL6DJ-15 | 2026-08-31 10:30:57 | 48.08095 | 11.82176 | 70° | 157km/h | 12949m | 3.6m/s | -56.3°C | 11.8% | 177.4hPa | 2.7V | 00:00:00 | 00:00:00 | 00:00:00 | |
| DF7PN | 2026-08-31 10:30:56 | 48.08081 | 11.82120 | 69° | 157km/h | 12945m | 4.5m/s | -56.4°C | 11.8% | 177.5hPa | 2.7V | 00:00:00 | 00:00:00 | 00:00:00 | |
| DO3MHA-12 | 2026-08-31 10:30:55 | 48.08067 | 11.82064 | 70° | 157km/h | 12941m | 3.6m/s | -56.3°C | 16.8% | 177.6hPa | 2.7V | 00:00:00 | 00:58:48 | 00:00:00 | |
| DK5PH-5 | 2026-08-31 10:30:54 | 48.08053 | 11.82007 | 71° | 159km/h | 12936m | 4.6m/s | -56.3°C | 16.8% | 177.7hPa | 2.7V | 02:36:00 | 00:58:47 | 00:00:00 | |
| NBG1-10 | 2026-08-31 10:30:53 | 48.08040 | 11.81951 | 71° | 159km/h | 12933m | 3.0m/s | -56.3°C | 16.9% | 177.8hPa | 2.7V | 02:36:00 | 00:58:46 | 00:00:00 | |
| PG1ADW-2 | 2026-08-31 10:30:52 | 48.08026 | 11.81895 | 71° | 159km/h | 12929m | 4.5m/s | -56.3°C | 16.8% | 177.9hPa | 2.7V | 00:00:00 | 00:58:45 | 00:00:00 | |
| DG1MFX-10 | 2026-08-31 10:30:51 | 48.08027 | 11.81895 | 71° | 157km/h | 12929m | 4.5m/s | -56.3°C | 11.8% | 178.0hPa | 2.7V | 02:36:00 | 00:00:00 | 00:00:00 | |
| OE5WHR-10 | 2026-08-31 10:30:50 | 48.07999 | 11.81785 | 70° | 161km/h | 12920m | 4.2m/s | -56.3°C | 16.7% | 178.2hPa | 2.7V | 02:36:00 | 00:00:00 | 00:00:00 | |
| DO3MHA-11 | 2026-08-31 10:30:49 | 48.07984 | 11.81730 | 70° | 157km/h | 12916m | 4.1m/s | -56.3°C | 16.8% | 178.3hPa | 2.7V | 02:36:00 | 00:58:42 | 00:00:00 | |
| OE5MMP-10 | 2026-08-31 10:30:47 | 48.07956 | 11.81620 | 68° | 159km/h | 12907m | 4.9m/s | -56.2°C | 16.7% | 178.5hPa | 2.7V | 02:36:00 | 00:58:40 | 00:00:00 | |
| DO3MHA-12 | 2026-08-31 10:30:45 | 48.07926 | 11.81511 | 69° | 161km/h | 12898m | 5.0m/s | -56.2°C | 16.7% | 178.8hPa | 2.7V | 02:36:00 | 00:58:38 | 00:00:00 | |
| DO3MHA-11 | 2026-08-31 10:30:39 | 48.07835 | 11.81176 | 68° | 162km/h | 12872m | 5.2m/s | -56.2°C | 16.6% | 179.5hPa | 2.7V | 00:00:00 | 00:58:32 | 00:00:00 | |
| OE5MMP-10 | 2026-08-31 10:30:37 | 48.07804 | 11.81062 | 69° | 161km/h | 12863m | 4.9m/s | -56.1°C | 16.5% | 179.8hPa | 2.7V | 00:00:00 | 00:58:30 | 00:00:00 | |
| DB0UT-7 | 2026-08-31 10:30:36 | 48.07788 | 11.81005 | 69° | 161km/h | 12859m | 3.4m/s | -56.1°C | 16.4% | 179.9hPa | 2.7V | 02:36:00 | 00:58:29 | 00:00:00 | |
| DO3MHA-12 | 2026-08-31 10:30:35 | 48.07773 | 11.80947 | 68° | 161km/h | 12854m | 5.3m/s | -56.1°C | 16.3% | 180.0hPa | 2.7V | 00:00:00 | 00:58:28 | 00:00:00 | |
| DB0NH | 2026-08-31 10:30:33 | 48.07741 | 11.80833 | 69° | 161km/h | 12846m | 4.9m/s | -56.2°C | 16.4% | 180.2hPa | 2.7V | 00:00:00 | 00:58:26 | 00:00:00 | |
| PG1ADW-2 | 2026-08-31 10:30:32 | 48.07726 | 11.80776 | 68° | 159km/h | 12842m | 3.7m/s | -56.1°C | 16.4% | 180.4hPa | 2.7V | 00:00:00 | 00:00:00 | 00:00:00 | |
| DG1MFX-10 | 2026-08-31 10:30:31 | 48.07726 | 11.80776 | 69° | 161km/h | 12842m | 3.7m/s | -56.2°C | 11.5% | 180.4hPa | 2.7V | 02:37:00 | 00:00:00 | 00:00:00 | |
| DO3MHA-11 | 2026-08-31 10:30:29 | 48.07680 | 11.80610 | 68° | 159km/h | 12828m | 5.1m/s | -56.0°C | 16.7% | 180.8hPa | 2.7V | 00:00:00 | 00:58:22 | 00:00:00 | |
| OE5MMP-10 | 2026-08-31 10:30:27 | 48.07649 | 11.80501 | 67° | 159km/h | 12819m | 5.2m/s | -56.0°C | 16.6% | 181.0hPa | 2.7V | 00:00:00 | 00:58:20 | 00:00:00 | |
| DL6DJ-15 | 2026-08-31 10:30:26 | 48.07632 | 11.80446 | 65° | 157km/h | 12814m | 3.5m/s | -56.0°C | 11.5% | 181.2hPa | 2.7V | 00:00:00 | 00:00:00 | 00:00:00 | |
| DO3MHA-12 | 2026-08-31 10:30:25 | 48.07616 | 11.80391 | 66° | 159km/h | 12810m | 4.3m/s | -55.9°C | 16.3% | 181.2hPa | 2.7V | 00:00:00 | 00:58:18 | 00:00:00 | |
| DK5PH-5 | 2026-08-31 10:30:24 | 48.07599 | 11.80336 | 67° | 161km/h | 12806m | 3.9m/s | -55.9°C | 16.2% | 181.4hPa | 2.7V | 00:00:00 | 00:58:17 | 00:00:00 | |
| NBG1-10 | 2026-08-31 10:30:20 | 48.07533 | 11.80115 | 67° | 161km/h | 12789m | 5.5m/s | -55.9°C | 15.8% | 181.9hPa | 2.7V | 00:00:00 | 00:58:13 | 00:00:00 | |
| DO3MHA-11 | 2026-08-31 10:30:19 | 48.07517 | 11.80060 | 67° | 159km/h | 12785m | 3.6m/s | -55.8°C | 15.6% | 182.0hPa | 2.7V | 02:36:00 | 00:58:12 | 00:00:00 | |
| OE5MMP-10 | 2026-08-31 10:30:17 | 48.07485 | 11.79951 | 67° | 161km/h | 12776m | 4.3m/s | -55.8°C | 15.7% | 182.2hPa | 2.7V | 02:36:00 | 00:58:10 | 00:00:00 | |
| DO3MHA-12 | 2026-08-31 10:30:15 | 48.07453 | 11.79842 | 68° | 161km/h | 12767m | 3.3m/s | -55.8°C | 15.9% | 182.5hPa | 2.7V | 02:36:00 | 00:58:08 | 00:00:00 | |
| PG1ADW-2 | 2026-08-31 10:30:12 | 48.07407 | 11.79676 | 68° | 161km/h | 12754m | 4.8m/s | -55.6°C | 15.9% | 182.9hPa | 2.7V | 02:36:00 | 00:00:00 | 00:00:00 | |
| DG1MFX-10 | 2026-08-31 10:30:10 | 48.07391 | 11.79620 | 69° | 161km/h | 12750m | 3.8m/s | -55.6°C | 11.2% | 183.1hPa | 2.7V | 02:37:00 | 00:00:00 | 00:00:00 | |
| DO3MHA-11 | 2026-08-31 10:30:09 | 48.07360 | 11.79508 | 68° | 159km/h | 12742m | 4.0m/s | -55.5°C | 16.0% | 183.2hPa | 2.7V | 00:00:00 | 00:58:02 | 00:00:00 | |
| OE5WHR-10 | 2026-08-31 10:30:08 | 48.07344 | 11.79451 | 68° | 161km/h | 12737m | 5.3m/s | -55.5°C | 15.9% | 183.4hPa | 2.7V | 00:00:00 | 00:58:01 | 00:00:00 | |
| OE5MMP-10 | 2026-08-31 10:30:07 | 48.07328 | 11.79395 | 68° | 159km/h | 12733m | 2.9m/s | -55.4°C | 15.8% | 183.5hPa | 2.7V | 00:00:00 | 00:58:00 | 00:00:00 | |
| DB0UT-7 | 2026-08-31 10:30:06 | 48.07312 | 11.79340 | 67° | 161km/h | 12729m | 4.6m/s | -55.4°C | 15.5% | 183.6hPa | 2.7V | 00:00:00 | 00:00:00 | 00:00:00 | |
| DO3MHA-12 | 2026-08-31 10:30:05 | 48.07296 | 11.79285 | 66° | 159km/h | 12724m | 3.8m/s | -55.4°C | 15.3% | 183.8hPa | 2.7V | 00:00:00 | 00:57:58 | 00:00:00 | |
| OE5DXL-15 | 2026-08-31 10:30:03 | 48.07264 | 11.79177 | 67° | 161km/h | 12717m | 4.5m/s | -55.4°C | 15.3% | 184.0hPa | 2.7V | 00:00:00 | 00:00:00 | 00:00:00 | |
| DG1MJG | 2026-08-31 10:30:02 | 48.07264 | 11.79177 | 68° | 155km/h | 12717m | 4.6m/s | -55.4°C | 10.7% | 184.0hPa | 2.7V | 02:37:00 | 00:00:00 | 00:00:00 | |
| DO3MHA-11 | 2026-08-31 10:29:59 | 48.07203 | 11.78956 | 69° | 162km/h | 12700m | 5.1m/s | -55.2°C | 15.6% | 184.4hPa | 2.7V | 00:00:00 | 00:57:52 | 00:00:00 | |
| OE5DRO-10 | 2026-08-31 10:29:58 | 48.07188 | 11.78899 | 70° | 162km/h | 12696m | 3.4m/s | -55.2°C | 15.6% | 184.6hPa | 2.7V | 00:00:00 | 00:00:00 | 00:00:00 | |
| OE5MMP-10 | 2026-08-31 10:29:57 | 48.07173 | 11.78842 | 69° | 162km/h | 12691m | 5.4m/s | -55.2°C | 15.6% | 184.7hPa | 2.7V | 00:00:00 | 00:57:50 | 00:00:00 | |
| DO3MHA-12 | 2026-08-31 10:29:55 | 48.07142 | 11.78727 | 69° | 161km/h | 12682m | 5.3m/s | -55.2°C | 16.1% | 185.0hPa | 2.7V | 00:00:00 | 00:57:48 | 00:00:00 | |
| DK5PH-5 | 2026-08-31 10:29:54 | 48.07127 | 11.78669 | 69° | 162km/h | 12678m | 3.8m/s | -55.2°C | 16.2% | 185.1hPa | 2.7V | 00:00:00 | 00:57:47 | 00:00:00 | |
| PG1ADW-2 | 2026-08-31 10:29:52 | 48.07097 | 11.78554 | 68° | 161km/h | 12669m | 3.6m/s | -55.1°C | 16.4% | 185.4hPa | 2.7V | 00:00:00 | 00:00:00 | 00:00:00 | |
| DO3MHA-11 | 2026-08-31 10:29:49 | 48.07052 | 11.78385 | 69° | 161km/h | 12657m | 2.8m/s | -55.1°C | 16.6% | 185.7hPa | 2.7V | 02:37:00 | 00:57:42 | 00:00:00 | |
| NBG1-10 | 2026-08-31 10:29:47 | 48.07023 | 11.78275 | 69° | 162km/h | 12649m | 3.9m/s | -55.0°C | 16.7% | 185.9hPa | 2.7V | 00:00:00 | 00:57:40 | 00:00:00 | |
| DO3MHA-12 | 2026-08-31 10:29:45 | 48.06995 | 11.78162 | 70° | 162km/h | 12640m | 2.7m/s | -55.0°C | 16.9% | 186.2hPa | 2.7V | 02:37:00 | 00:57:38 | 00:00:00 | |
| DH7VM-15 | 2026-08-31 10:29:42 | 48.06965 | 11.78047 | 69° | 162km/h | 12633m | 4.5m/s | -55.0°C | 12.0% | 186.5hPa | 2.7V | 00:00:00 | 00:00:00 | 00:00:00 | |
| DO3MHA-11 | 2026-08-31 10:29:39 | 48.06899 | 11.77824 | 66° | 164km/h | 12617m | 4.0m/s | -55.1°C | 16.7% | 186.9hPa | 2.7V | 00:00:00 | 00:57:32 | 00:00:00 | |
| OE5MMP-10 | 2026-08-31 10:29:37 | 48.06866 | 11.77712 | 67° | 164km/h | 12609m | 3.6m/s | -55.1°C | 17.1% | 187.2hPa | 2.7V | 00:00:00 | 00:57:30 | 00:00:00 | |
| DB0UT-7 | 2026-08-31 10:29:36 | 48.06850 | 11.77656 | 68° | 164km/h | 12605m | 4.5m/s | -55.0°C | 17.1% | 187.3hPa | 2.7V | 00:00:00 | 00:57:29 | 00:00:00 | |
| DO3MHA-12 | 2026-08-31 10:29:35 | 48.06834 | 11.77599 | 68° | 164km/h | 12601m | 3.4m/s | -55.1°C | 17.2% | 187.4hPa | 2.7V | 00:00:00 | 00:57:28 | 00:00:00 | |
| OE5DXL-15 | 2026-08-31 10:29:33 | 48.06803 | 11.77484 | 69° | 164km/h | 12592m | 3.6m/s | -55.1°C | 17.4% | 187.6hPa | 2.7V | 02:37:00 | 00:00:00 | 00:00:00 | |
| PG1ADW-2 | 2026-08-31 10:29:32 | 48.06787 | 11.77426 | 69° | 164km/h | 12588m | 4.7m/s | -55.1°C | 17.3% | 187.8hPa | 2.7V | 00:00:00 | 00:57:25 | 00:00:00 | |
| DG1MJG | 2026-08-31 10:29:31 | 48.06787 | 11.77426 | 70° | 164km/h | 12588m | 4.7m/s | -55.1°C | 12.5% | 187.8hPa | 2.7V | 02:37:00 | 00:00:00 | 00:00:00 | |
| DB0NH | 2026-08-31 10:29:29 | 48.06742 | 11.77252 | 69° | 164km/h | 12576m | 3.5m/s | -55.0°C | 17.4% | 188.1hPa | 2.7V | 00:00:00 | 00:57:22 | 00:00:00 | |
| OE5MMP-10 | 2026-08-31 10:29:27 | 48.06711 | 11.77138 | 68° | 162km/h | 12567m | 3.6m/s | -55.0°C | 17.4% | 188.4hPa | 2.7V | 00:00:00 | 00:57:20 | 00:00:00 | |
| OE5WHR-10 | 2026-08-31 10:29:26 | 48.06695 | 11.77081 | 68° | 164km/h | 12563m | 4.9m/s | -55.0°C | 17.3% | 188.5hPa | 2.7V | 00:00:00 | 00:00:00 | 00:00:00 | |
| DO3MHA-12 | 2026-08-31 10:29:25 | 48.06680 | 11.77025 | 68° | 162km/h | 12559m | 3.9m/s | -55.0°C | 17.5% | 188.6hPa | 2.7V | 00:00:00 | 00:57:18 | 00:00:00 | |
| DK5PH-5 | 2026-08-31 10:29:24 | 48.06664 | 11.76968 | 67° | 164km/h | 12554m | 5.0m/s | -55.0°C | 17.6% | 188.8hPa | 2.7V | 02:37:00 | 00:57:17 | 00:00:00 | |
| DF7PN | 2026-08-31 10:29:23 | 48.06648 | 11.76912 | 67° | 161km/h | 12550m | 4.0m/s | -55.0°C | 12.8% | 188.9hPa | 2.7V | 00:00:00 | 00:00:00 | 00:00:00 | |
| DH7VM-15 | 2026-08-31 10:29:22 | 48.06631 | 11.76856 | 68° | 162km/h | 12545m | 5.1m/s | -55.0°C | 12.8% | 189.1hPa | 2.7V | 00:00:00 | 00:00:00 | 00:00:00 | |
| OE5DRO-10 | 2026-08-31 10:29:20 | 48.06599 | 11.76742 | 68° | 164km/h | 12537m | 5.0m/s | -54.9°C | 17.9% | 189.2hPa | 2.7V | 00:00:00 | 00:00:00 | 00:00:00 | |
| DO3MHA-11 | 2026-08-31 10:29:19 | 48.06584 | 11.76686 | 68° | 164km/h | 12533m | 3.2m/s | -54.9°C | 17.9% | 189.4hPa | 2.7V | 02:37:00 | 00:57:12 | 00:00:00 | |
| OE5MMP-10 | 2026-08-31 10:29:17 | 48.06552 | 11.76571 | 68° | 164km/h | 12525m | 3.9m/s | -54.9°C | 18.0% | 189.6hPa | 2.7V | 02:37:00 | 00:57:10 | 00:00:00 | |
| DO3MHA-12 | 2026-08-31 10:29:15 | 48.06521 | 11.76455 | 69° | 164km/h | 12515m | 3.6m/s | -54.8°C | 18.1% | 189.9hPa | 2.7V | 02:37:00 | 00:57:08 | 00:00:00 | |
| NBG1-10 | 2026-08-31 10:29:14 | 48.06505 | 11.76398 | 68° | 164km/h | 12511m | 5.1m/s | -54.8°C | 18.0% | 190.0hPa | 2.7V | 02:37:00 | 00:57:07 | 00:00:00 | |
| PG1ADW-2 | 2026-08-31 10:29:12 | 48.06474 | 11.76283 | 69° | 164km/h | 12503m | 4.8m/s | -54.8°C | 18.0% | 190.2hPa | 2.7V | 02:37:00 | 00:00:00 | 00:00:00 | |
| DO3MHA-11 | 2026-08-31 10:29:09 | 48.06429 | 11.76111 | 69° | 164km/h | 12490m | 3.8m/s | -54.7°C | 18.1% | 190.6hPa | 2.7V | 00:00:00 | 00:57:02 | 00:00:00 | |
| DG1MFX-10 | 2026-08-31 10:29:08 | 48.06429 | 11.76111 | 69° | 164km/h | 12490m | 3.8m/s | -54.7°C | 13.3% | 190.6hPa | 2.7V | 02:37:00 | 00:00:00 | 00:00:00 | |
| OE5MMP-10 | 2026-08-31 10:29:07 | 48.06397 | 11.75996 | 68° | 164km/h | 12482m | 3.4m/s | -54.7°C | 18.3% | 190.9hPa | 2.7V | 00:00:00 | 00:57:00 | 00:00:00 | |
| DB0UT-7 | 2026-08-31 10:29:06 | 48.06382 | 11.75939 | 68° | 164km/h | 12477m | 4.8m/s | -54.7°C | 18.4% | 191.0hPa | 2.7V | 02:37:00 | 00:00:00 | 00:00:00 | |
| OE5WHR-10 | 2026-08-31 10:29:05 | 48.06366 | 11.75882 | 68° | 164km/h | 12473m | 4.0m/s | -54.6°C | 18.5% | 191.1hPa | 2.7V | 00:00:00 | 00:56:58 | 00:00:00 | |
| OE5DXL-15 | 2026-08-31 10:29:03 | 48.06334 | 11.75767 | 68° | 164km/h | 12464m | 3.1m/s | -54.6°C | 18.8% | 191.3hPa | 2.7V | 00:00:00 | 00:00:00 | 00:00:00 | |
| DL6DJ-15 | 2026-08-31 10:28:53 | 48.06179 | 11.75190 | 68° | 164km/h | 12421m | 4.1m/s | -54.6°C | 14.8% | 192.7hPa | 2.7V | 00:00:00 | 00:00:00 | 00:00:00 | |
| PG1ADW-2 | 2026-08-31 10:28:52 | 48.06164 | 11.75132 | 69° | 164km/h | 12417m | 4.3m/s | -54.5°C | 19.9% | 192.7hPa | 2.7V | 00:00:00 | 00:00:00 | 00:00:00 | |
| DO3MHA-11 | 2026-08-31 10:28:49 | 48.06116 | 11.74960 | 68° | 164km/h | 12404m | 4.7m/s | -54.5°C | 20.3% | 193.1hPa | 2.7V | 02:38:00 | 00:56:42 | 00:00:00 | |
| DG1MFX-10 | 2026-08-31 10:28:48 | 48.06116 | 11.74960 | 69° | 164km/h | 12404m | 4.7m/s | -54.6°C | 15.2% | 193.2hPa | 2.7V | 02:38:00 | 00:00:00 | 00:00:00 | |
| OE5MMP-10 | 2026-08-31 10:28:47 | 48.06085 | 11.74845 | 69° | 164km/h | 12395m | 4.7m/s | -54.6°C | 20.4% | 193.3hPa | 2.7V | 02:38:00 | 00:56:40 | 00:00:00 | |
| DO3MHA-12 | 2026-08-31 10:28:45 | 48.06055 | 11.74732 | 69° | 166km/h | 12387m | 4.3m/s | -54.8°C | 21.2% | 193.6hPa | 2.7V | 02:38:00 | 00:56:38 | 00:00:00 | |
| OE5WHR-10 | 2026-08-31 10:28:44 | 48.06040 | 11.74674 | 70° | 164km/h | 12383m | 3.9m/s | -54.8°C | 21.4% | 193.8hPa | 2.7V | 02:38:00 | 00:00:00 | 00:00:00 | |
| NBG1-10 | 2026-08-31 10:28:41 | 48.05997 | 11.74500 | 71° | 162km/h | 12370m | 4.9m/s | -54.9°C | 21.3% | 194.2hPa | 2.7V | 00:00:00 | 00:56:34 | 00:00:00 | |
| DO3MHA-11 | 2026-08-31 10:28:39 | 48.05969 | 11.74381 | 70° | 164km/h | 12361m | 5.3m/s | -55.0°C | 21.7% | 194.4hPa | 2.7V | 00:00:00 | 00:56:32 | 00:00:00 | |
| OE5MMP-10 | 2026-08-31 10:28:37 | 48.05938 | 11.74263 | 70° | 162km/h | 12353m | 4.2m/s | -55.0°C | 21.9% | 194.7hPa | 2.7V | 00:00:00 | 00:56:30 | 00:00:00 | |
| DB0UT-7 | 2026-08-31 10:28:36 | 48.05923 | 11.74203 | 70° | 162km/h | 12349m | 3.6m/s | -54.9°C | 21.9% | 194.8hPa | 2.7V | 00:00:00 | 00:56:29 | 00:00:00 | |
| DO3MHA-12 | 2026-08-31 10:28:35 | 48.05908 | 11.74144 | 70° | 162km/h | 12346m | 2.9m/s | -55.0°C | 22.0% | 194.9hPa | 2.7V | 00:00:00 | 00:56:28 | 00:00:00 | |
| OE5DXL-15 | 2026-08-31 10:28:33 | 48.05879 | 11.74030 | 69° | 161km/h | 12337m | 4.1m/s | -54.9°C | 22.1% | 195.2hPa | 2.7V | 00:00:00 | 00:00:00 | 00:00:00 | |
| PG1ADW-2 | 2026-08-31 10:28:32 | 48.05864 | 11.73974 | 69° | 161km/h | 12333m | 4.2m/s | -54.9°C | 22.2% | 195.2hPa | 2.7V | 00:00:00 | 00:00:00 | 00:00:00 | |
| DG1MJG | 2026-08-31 10:28:30 | 48.05849 | 11.73918 | 69° | 161km/h | 12328m | 5.4m/s | -54.9°C | 17.1% | 195.5hPa | 2.7V | 02:38:00 | 00:00:00 | 00:00:00 | |
| OE5MMP-10 | 2026-08-31 10:28:27 | 48.05790 | 11.73690 | 70° | 162km/h | 12310m | 4.8m/s | -54.8°C | 22.8% | 196.0hPa | 2.7V | 00:00:00 | 00:56:20 | 00:00:00 | |
| DO3MHA-12 | 2026-08-31 10:28:25 | 48.05761 | 11.73575 | 70° | 161km/h | 12301m | 5.2m/s | -55.0°C | 23.2% | 196.2hPa | 2.7V | 00:00:00 | 00:56:18 | 00:00:00 | |
| DK5PH-5 | 2026-08-31 10:28:24 | 48.05747 | 11.73517 | 70° | 162km/h | 12297m | 3.8m/s | -55.0°C | 23.2% | 196.4hPa | 2.7V | 00:00:00 | 00:56:17 | 00:00:00 | |
| OE5WHR-10 | 2026-08-31 10:28:23 | 48.05732 | 11.73460 | 70° | 161km/h | 12293m | 4.2m/s | -55.0°C | 23.0% | 196.5hPa | 2.7V | 00:00:00 | 00:00:00 | 00:00:00 | |
| OE5DRO-10 | 2026-08-31 10:28:22 | 48.05717 | 11.73402 | 69° | 161km/h | 12289m | 3.7m/s | -55.0°C | 22.9% | 196.6hPa | 2.7V | 00:00:00 | 00:00:00 | 00:00:00 | |
| DF7PN | 2026-08-31 10:28:21 | 48.05702 | 11.73345 | 68° | 161km/h | 12284m | 4.5m/s | -55.0°C | 17.2% | 196.8hPa | 2.7V | 00:00:00 | 00:00:00 | 00:00:00 | |
| DO3MHA-11 | 2026-08-31 10:28:19 | 48.05672 | 11.73234 | 68° | 161km/h | 12276m | 4.2m/s | -54.9°C | 22.8% | 197.0hPa | 2.7V | 02:38:00 | 00:56:12 | 00:00:00 | |
| OE5MMP-10 | 2026-08-31 10:28:17 | 48.05642 | 11.73122 | 69° | 162km/h | 12269m | 3.3m/s | -54.8°C | 23.0% | 197.2hPa | 2.7V | 02:38:00 | 00:56:10 | 00:00:00 | |
| DO3MHA-12 | 2026-08-31 10:28:15 | 48.05613 | 11.73010 | 70° | 162km/h | 12261m | 3.3m/s | -54.8°C | 23.2% | 197.5hPa | 2.7V | 02:38:00 | 00:56:08 | 00:00:00 | |
| DB0NH | 2026-08-31 10:28:13 | 48.05586 | 11.72895 | 72° | 162km/h | 12252m | 3.2m/s | -54.7°C | 23.3% | 197.8hPa | 2.7V | 02:38:00 | 00:56:06 | 00:00:00 | |
| PG1ADW-2 | 2026-08-31 10:28:12 | 48.05573 | 11.72837 | 72° | 162km/h | 12248m | 4.8m/s | -54.8°C | 23.3% | 197.9hPa | 2.7V | 02:38:00 | 00:56:05 | 00:00:00 | |
| DO3MHA-11 | 2026-08-31 10:28:09 | 48.05534 | 11.72662 | 71° | 161km/h | 12236m | 3.8m/s | -54.7°C | 23.4% | 198.2hPa | 2.7V | 00:00:00 | 00:56:02 | 00:00:00 | |
| NBG1-10 | 2026-08-31 10:28:08 | 48.05520 | 11.72603 | 71° | 162km/h | 12231m | 4.5m/s | -54.7°C | 23.4% | 198.4hPa | 2.7V | 00:00:00 | 00:56:01 | 00:00:00 | |
| OE5MMP-10 | 2026-08-31 10:28:07 | 48.05506 | 11.72546 | 71° | 161km/h | 12227m | 4.0m/s | -54.6°C | 23.3% | 198.6hPa | 2.7V | 00:00:00 | 00:56:00 | 00:00:00 | |
| DB0UT-7 | 2026-08-31 10:28:06 | 48.05493 | 11.72489 | 71° | 162km/h | 12223m | 4.2m/s | -54.6°C | 23.1% | 198.7hPa | 2.7V | 00:00:00 | 00:00:00 | 00:00:00 | |
| DO3MHA-12 | 2026-08-31 10:28:05 | 48.05479 | 11.72432 | 70° | 162km/h | 12219m | 4.8m/s | -54.6°C | 23.0% | 198.8hPa | 2.7V | 00:00:00 | 00:55:58 | 00:00:00 | |
| OE5DXL-15 | 2026-08-31 10:28:03 | 48.05450 | 11.72319 | 70° | 162km/h | 12210m | 4.9m/s | -54.6°C | 22.9% | 199.0hPa | 2.7V | 02:38:00 | 00:00:00 | 00:00:00 | |
| DL6DJ-15 | 2026-08-31 10:27:51 | 48.05272 | 11.71566 | 69° | 159km/h | 12158m | 4.8m/s | -54.3°C | 18.0% | 200.7hPa | 2.7V | 00:00:00 | 00:00:00 | 00:00:00 | |
| DF7PN | 2026-08-31 10:27:50 | 48.05258 | 11.71510 | 69° | 157km/h | 12154m | 3.7m/s | -54.2°C | 18.3% | 200.9hPa | 2.7V | 00:00:00 | 00:00:00 | 00:00:00 | |
| DO3MHA-11 | 2026-08-31 10:27:49 | 48.05258 | 11.71510 | 70° | 162km/h | 12154m | 3.7m/s | -54.2°C | 23.9% | 200.8hPa | 2.7V | 02:39:00 | 00:55:42 | 00:00:00 | |
| OE5MMP-10 | 2026-08-31 10:27:47 | 48.05230 | 11.71397 | 70° | 162km/h | 12145m | 3.6m/s | -54.1°C | 24.3% | 201.1hPa | 2.7V | 02:39:00 | 00:55:40 | 00:00:00 | |
| DO3MHA-12 | 2026-08-31 10:27:45 | 48.05203 | 11.71281 | 71° | 162km/h | 12137m | 3.8m/s | -54.1°C | 24.5% | 201.3hPa | 2.7V | 02:39:00 | 00:55:38 | 00:00:00 | |
| OE5DRO-10 | 2026-08-31 10:27:44 | 48.05189 | 11.71223 | 71° | 162km/h | 12133m | 4.4m/s | -54.1°C | 24.5% | 201.4hPa | 2.7V | 02:39:00 | 00:00:00 | 00:00:00 | |
| OE5WHR-10 | 2026-08-31 10:27:41 | 48.05146 | 11.71049 | 70° | 161km/h | 12121m | 3.6m/s | -54.0°C | 24.6% | 201.8hPa | 2.7V | 02:39:00 | 00:00:00 | 00:00:00 | |
| PG1ADW-2 | 2026-08-31 10:27:40 | 48.05131 | 11.70992 | 69° | 161km/h | 12116m | 4.8m/s | -54.0°C | 24.6% | 202.0hPa | 2.7V | 00:00:00 | 00:00:00 | 00:00:00 | |
| DO3MHA-11 | 2026-08-31 10:27:39 | 48.05116 | 11.70934 | 69° | 161km/h | 12112m | 3.9m/s | -54.0°C | 24.4% | 202.1hPa | 2.7V | 00:00:00 | 00:55:32 | 00:00:00 | |
| OE5MMP-10 | 2026-08-31 10:27:37 | 48.05086 | 11.70821 | 69° | 161km/h | 12103m | 3.5m/s | -54.0°C | 24.1% | 202.4hPa | 2.7V | 00:00:00 | 00:55:30 | 00:00:00 | |
| DB0UT-7 | 2026-08-31 10:27:36 | 48.05071 | 11.70764 | 69° | 162km/h | 12098m | 5.5m/s | -53.9°C | 24.2% | 202.5hPa | 2.7V | 02:39:00 | 00:55:29 | 00:00:00 | |
| DO3MHA-12 | 2026-08-31 10:27:35 | 48.05055 | 11.70708 | 69° | 161km/h | 12094m | 3.7m/s | -53.9°C | 24.5% | 202.6hPa | 2.7V | 00:00:00 | 00:55:28 | 00:00:00 | |
| OE5DXL-15 | 2026-08-31 10:27:33 | 48.05026 | 11.70597 | 70° | 162km/h | 12085m | 3.6m/s | -53.8°C | 24.6% | 202.9hPa | 2.7V | 00:00:00 | 00:00:00 | 00:00:00 | |
| DO3MHA-11 | 2026-08-31 10:27:29 | 48.04969 | 11.70370 | 70° | 162km/h | 12068m | 4.8m/s | -53.7°C | 24.8% | 203.4hPa | 2.7V | 00:00:00 | 00:55:22 | 00:00:00 | |
| DG1MJG | 2026-08-31 10:27:28 | 48.04969 | 11.70370 | 71° | 162km/h | 12068m | 4.9m/s | -53.7°C | 19.3% | 203.5hPa | 2.7V | 02:39:00 | 00:00:00 | 00:00:00 | |
| OE5MMP-10 | 2026-08-31 10:27:27 | 48.04940 | 11.70256 | 69° | 162km/h | 12059m | 4.8m/s | -53.6°C | 25.1% | 203.7hPa | 2.7V | 00:00:00 | 00:55:20 | 00:00:00 | |
| DO3MHA-12 | 2026-08-31 10:27:25 | 48.04910 | 11.70141 | 69° | 162km/h | 12050m | 4.2m/s | -53.6°C | 25.3% | 204.0hPa | 2.7V | 00:00:00 | 00:55:18 | 00:00:00 | |
| DL6DJ-15 | 2026-08-31 10:27:20 | 48.04823 | 11.69798 | 70° | 162km/h | 12025m | 4.0m/s | -53.6°C | 19.8% | 204.8hPa | 2.7V | 00:00:00 | 00:00:00 | 00:00:00 | |
| DF7PN | 2026-08-31 10:27:19 | 48.04823 | 11.69798 | 70° | 162km/h | 12025m | 4.0m/s | -53.6°C | 19.8% | 204.8hPa | 2.7V | 00:00:00 | 00:00:00 | 00:00:00 | |
| PG1ADW-2 | 2026-08-31 10:27:18 | 48.04810 | 11.69740 | 71° | 162km/h | 12021m | 4.1m/s | -53.5°C | 25.6% | 204.9hPa | 2.7V | 00:00:00 | 00:00:00 | 00:00:00 | |
| OE5MMP-10 | 2026-08-31 10:27:17 | 48.04796 | 11.69682 | 71° | 162km/h | 12017m | 4.2m/s | -53.5°C | 25.9% | 205.0hPa | 2.7V | 02:39:00 | 00:55:10 | 00:00:00 | |
| DH7VM-15 | 2026-08-31 10:27:16 | 48.04796 | 11.69682 | 71° | 162km/h | 12017m | 4.2m/s | -53.6°C | 20.3% | 205.0hPa | 2.7V | 00:00:00 | 00:00:00 | 00:00:00 | |
| DO3MHA-12 | 2026-08-31 10:27:15 | 48.04768 | 11.69568 | 70° | 162km/h | 12009m | 3.9m/s | -53.6°C | 26.1% | 205.3hPa | 2.7V | 02:39:00 | 00:55:08 | 00:00:00 | |
| DO3MHA-11 | 2026-08-31 10:27:09 | 48.04679 | 11.69227 | 70° | 162km/h | 11984m | 3.8m/s | -53.5°C | 26.5% | 206.1hPa | 2.7V | 00:00:00 | 00:55:02 | 00:00:00 | |
| OE5MMP-10 | 2026-08-31 10:27:07 | 48.04651 | 11.69110 | 71° | 162km/h | 11975m | 3.9m/s | -53.5°C | 26.3% | 206.3hPa | 2.7V | 00:00:00 | 00:55:00 | 00:00:00 | |
| DB0UT-7 | 2026-08-31 10:27:06 | 48.04638 | 11.69052 | 71° | 164km/h | 11971m | 4.2m/s | -53.5°C | 26.2% | 206.5hPa | 2.7V | 00:00:00 | 00:00:00 | 00:00:00 | |
| DO3MHA-12 | 2026-08-31 10:27:05 | 48.04624 | 11.68994 | 71° | 162km/h | 11967m | 4.1m/s | -53.5°C | 26.3% | 206.6hPa | 2.7V | 00:00:00 | 00:54:58 | 00:00:00 | |
| DG1MFX-10 | 2026-08-31 10:27:04 | 48.04624 | 11.68994 | 72° | 164km/h | 11967m | 4.1m/s | -53.5°C | 20.7% | 206.7hPa | 2.7V | 02:40:00 | 00:00:00 | 00:00:00 | |
| OE5DXL-15 | 2026-08-31 10:27:03 | 48.04597 | 11.68878 | 71° | 164km/h | 11958m | 4.3m/s | -53.4°C | 26.3% | 207.0hPa | 2.7V | 00:00:00 | 00:00:00 | 00:00:00 | |
| DL6DJ-15 | 2026-08-31 10:26:49 | 48.04381 | 11.68012 | 68° | 162km/h | 11896m | 4.7m/s | -53.0°C | 20.9% | 209.0hPa | 2.7V | 00:00:00 | 00:00:00 | 00:00:00 | |
| DF7PN | 2026-08-31 10:26:48 | 48.04366 | 11.67954 | 68° | 162km/h | 11892m | 3.4m/s | -52.9°C | 20.8% | 209.1hPa | 2.7V | 00:00:00 | 00:00:00 | 00:00:00 | |
| OE5MMP-10 | 2026-08-31 10:26:47 | 48.04366 | 11.67954 | 69° | 164km/h | 11892m | 3.3m/s | -52.9°C | 26.4% | 209.1hPa | 2.7V | 02:40:00 | 00:54:40 | 00:00:00 | |
| DO3MHA-12 | 2026-08-31 10:26:45 | 48.04335 | 11.67840 | 69° | 164km/h | 11883m | 4.5m/s | -52.9°C | 26.1% | 209.4hPa | 2.7V | 02:40:00 | 00:54:38 | 00:00:00 | |
| DG1MFX-10 | 2026-08-31 10:26:43 | 48.04321 | 11.67783 | 70° | 162km/h | 11879m | 4.3m/s | -52.9°C | 20.7% | 209.6hPa | 2.7V | 02:40:00 | 00:00:00 | 00:00:00 | |
| DO3MHA-11 | 2026-08-31 10:26:39 | 48.04245 | 11.67495 | 69° | 166km/h | 11857m | 4.0m/s | -52.7°C | 26.6% | 210.2hPa | 2.7V | 00:00:00 | 00:54:32 | 00:00:00 | |
| OE5WHR-10 | 2026-08-31 10:26:38 | 48.04230 | 11.67436 | 69° | 164km/h | 11853m | 4.0m/s | -52.7°C | 26.8% | 210.3hPa | 2.7V | 02:40:00 | 00:00:00 | 00:00:00 | |
| OE5MMP-10 | 2026-08-31 10:26:37 | 48.04215 | 11.67377 | 70° | 164km/h | 11849m | 3.4m/s | -52.7°C | 26.8% | 210.4hPa | 2.7V | 00:00:00 | 00:54:30 | 00:00:00 | |
| DB0UT-7 | 2026-08-31 10:26:36 | 48.04200 | 11.67318 | 70° | 164km/h | 11845m | 4.4m/s | -52.8°C | 27.4% | 210.6hPa | 2.7V | 00:00:00 | 00:54:29 | 00:00:00 | |
| DO3MHA-12 | 2026-08-31 10:26:35 | 48.04186 | 11.67259 | 70° | 164km/h | 11842m | 3.1m/s | -52.8°C | 28.0% | 210.7hPa | 2.7V | 00:00:00 | 00:54:28 | 00:00:00 | |
| DO8TBO-1 | 2026-08-31 10:26:34 | 48.04156 | 11.67142 | 69° | 164km/h | 11834m | 3.7m/s | -52.9°C | 28.8% | 211.0hPa | 2.7V | 00:00:00 | 00:54:26 | 00:00:00 | |
| OE5DXL-15 | 2026-08-31 10:26:33 | 48.04156 | 11.67142 | 69° | 164km/h | 11834m | 3.7m/s | -52.9°C | 28.7% | 211.0hPa | 2.7V | 02:40:00 | 00:00:00 | 00:00:00 | |
| DO3MHA-11 | 2026-08-31 10:26:29 | 48.04094 | 11.66912 | 68° | 164km/h | 11816m | 3.5m/s | -53.0°C | 30.2% | 211.5hPa | 2.7V | 00:00:00 | 00:54:22 | 00:00:00 | |
| OE5MMP-10 | 2026-08-31 10:26:27 | 48.04064 | 11.66797 | 70° | 164km/h | 11807m | 3.9m/s | -53.0°C | 30.6% | 211.8hPa | 2.7V | 00:00:00 | 00:54:20 | 00:00:00 | |
| BAUMI2-15 | 2026-08-31 10:26:26 | 48.04050 | 11.66740 | 70° | 162km/h | 11803m | 3.2m/s | -52.9°C | 30.5% | 211.9hPa | 2.7V | 00:00:00 | 00:54:19 | 00:00:00 | |
| DO3MHA-12 | 2026-08-31 10:26:25 | 48.04036 | 11.66683 | 70° | 164km/h | 11799m | 4.8m/s | -53.0°C | 30.6% | 212.1hPa | 2.7V | 00:00:00 | 00:54:18 | 00:00:00 | |
| DG1MFX-10 | 2026-08-31 10:26:23 | 48.04021 | 11.66625 | 71° | 164km/h | 11795m | 3.9m/s | -53.0°C | 24.6% | 212.3hPa | 2.7V | 02:41:00 | 00:00:00 | 00:00:00 | |
| DK5PH-5 | 2026-08-31 10:26:20 | 48.03964 | 11.66388 | 70° | 164km/h | 11778m | 4.0m/s | 0°C | 0% | 0hPa | 2.7V | 00:00:00 | 00:54:13 | 00:00:00 | |
| DO3MHA-11 | 2026-08-31 10:26:19 | 48.03949 | 11.66329 | 70° | 164km/h | 11774m | 4.6m/s | -52.9°C | 30.2% | 212.9hPa | 2.7V | 02:40:00 | 00:54:12 | 00:00:00 | |
| DL6DJ-15 | 2026-08-31 10:26:18 | 48.03919 | 11.66214 | 68° | 162km/h | 11764m | 5.0m/s | -52.8°C | 24.0% | 213.3hPa | 2.7V | 00:00:00 | 00:00:00 | 00:00:00 | |
| DF7PN | 2026-08-31 10:26:17 | 48.03904 | 11.66157 | 67° | 162km/h | 11760m | 4.3m/s | -52.7°C | 24.3% | 213.4hPa | 2.7V | 00:00:00 | 00:00:00 | 00:00:00 | |
| DO3MHA-12 | 2026-08-31 10:26:15 | 48.03889 | 11.66100 | 69° | 164km/h | 11756m | 3.4m/s | -52.6°C | 30.4% | 213.5hPa | 2.7V | 02:40:00 | 00:54:08 | 00:00:00 | |
| BAUMI2-15 | 2026-08-31 10:26:14 | 48.03873 | 11.66043 | 69° | 166km/h | 11752m | 4.5m/s | -52.6°C | 30.7% | 213.6hPa | 2.7V | 00:00:00 | 00:54:07 | 00:00:00 | |
| DO3MHA-11 | 2026-08-31 10:26:09 | 48.03797 | 11.65750 | 69° | 162km/h | 11730m | 3.9m/s | -52.5°C | 32.9% | 214.4hPa | 2.7V | 00:00:00 | 00:54:02 | 00:00:00 | |
| BAUMI2-15 | 2026-08-31 10:26:08 | 48.03781 | 11.65692 | 69° | 162km/h | 11726m | 4.7m/s | -52.5°C | 33.2% | 214.5hPa | 2.7V | 02:40:00 | 00:54:01 | 00:00:00 | |
| OE5MMP-10 | 2026-08-31 10:26:07 | 48.03766 | 11.65634 | 69° | 162km/h | 11722m | 3.3m/s | -52.5°C | 33.3% | 214.6hPa | 2.7V | 00:00:00 | 00:54:00 | 00:00:00 | |
| DB0UT-7 | 2026-08-31 10:26:06 | 48.03751 | 11.65577 | 69° | 162km/h | 11717m | 5.2m/s | -52.5°C | 33.2% | 214.7hPa | 2.7V | 02:40:00 | 00:00:00 | 00:00:00 | |
| DO3MHA-12 | 2026-08-31 10:26:05 | 48.03736 | 11.65520 | 70° | 162km/h | 11713m | 3.8m/s | -52.5°C | 33.2% | 214.9hPa | 2.7V | 00:00:00 | 00:53:58 | 00:00:00 | |
| DO8TBO-1 | 2026-08-31 10:26:04 | 48.03707 | 11.65408 | 69° | 162km/h | 11703m | 3.8m/s | -52.4°C | 33.0% | 215.3hPa | 2.7V | 00:00:00 | 00:53:56 | 00:00:00 | |
| OE5DXL-15 | 2026-08-31 10:26:03 | 48.03707 | 11.65408 | 69° | 162km/h | 11703m | 3.8m/s | -52.4°C | 33.0% | 215.3hPa | 2.7V | 00:00:00 | 00:00:00 | 00:00:00 | |
| DG1MFX-10 | 2026-08-31 10:26:02 | 48.03707 | 11.65408 | 69° | 159km/h | 11703m | 3.9m/s | -52.4°C | 26.8% | 215.3hPa | 2.7V | 02:41:00 | 00:00:00 | 00:00:00 | |
| DF7PN | 2026-08-31 10:25:46 | 48.03443 | 11.64379 | 68° | 161km/h | 11628m | 3.4m/s | -52.2°C | 28.9% | 217.8hPa | 2.7V | 00:00:00 | 00:00:00 | 00:00:00 | |
| BAUMI2-15 | 2026-08-31 10:25:45 | 48.03443 | 11.64379 | 69° | 162km/h | 11628m | 3.3m/s | -52.1°C | 35.3% | 217.8hPa | 2.7V | 02:41:00 | 00:53:38 | 00:00:00 | |
| DG1MFX-10 | 2026-08-31 10:25:41 | 48.03398 | 11.64206 | 69° | 164km/h | 11615m | 4.8m/s | -52.2°C | 30.3% | 218.3hPa | 2.7V | 02:41:00 | 00:00:00 | 00:00:00 | |
| BAUMI2-15 | 2026-08-31 10:25:40 | 48.03367 | 11.64090 | 69° | 164km/h | 11606m | 4.4m/s | -52.2°C | 37.4% | 218.5hPa | 2.7V | 00:00:00 | 00:53:33 | 00:00:00 | |
| DO3MHA-11 | 2026-08-31 10:25:39 | 48.03351 | 11.64032 | 70° | 162km/h | 11602m | 4.1m/s | -52.2°C | 37.5% | 218.7hPa | 2.7V | 00:00:00 | 00:53:32 | 00:00:00 | |
| PG1ADW-2 | 2026-08-31 10:25:38 | 48.03336 | 11.63975 | 69° | 162km/h | 11598m | 4.3m/s | -52.2°C | 37.4% | 218.8hPa | 2.7V | 00:00:00 | 00:00:00 | 00:00:00 | |
| OE5MMP-10 | 2026-08-31 10:25:37 | 48.03321 | 11.63917 | 69° | 162km/h | 11594m | 4.2m/s | -52.3°C | 38.0% | 218.9hPa | 2.7V | 00:00:00 | 00:53:30 | 00:00:00 | |
| DB0UT-7 | 2026-08-31 10:25:36 | 48.03307 | 11.63860 | 70° | 162km/h | 11589m | 4.7m/s | -52.3°C | 38.7% | 219.1hPa | 2.7V | 00:00:00 | 00:53:29 | 00:00:00 | |
| OE5WHR-10 | 2026-08-31 10:25:35 | 48.03292 | 11.63803 | 70° | 164km/h | 11585m | 4.3m/s | -52.3°C | 39.4% | 219.2hPa | 2.7V | 02:41:00 | 00:00:00 | 00:00:00 | |
| OE5DXL-15 | 2026-08-31 10:25:33 | 48.03263 | 11.63690 | 69° | 162km/h | 11576m | 4.0m/s | -52.3°C | 40.5% | 219.6hPa | 2.7V | 00:00:00 | 00:00:00 | 00:00:00 | |
| OE5DRO-10 | 2026-08-31 10:25:31 | 48.03234 | 11.63576 | 70° | 164km/h | 11567m | 4.1m/s | -52.3°C | 41.9% | 219.8hPa | 2.7V | 00:00:00 | 00:00:00 | 00:00:00 | |
| BAUMI2-15 | 2026-08-31 10:25:30 | 48.03219 | 11.63519 | 70° | 164km/h | 11563m | 4.8m/s | -52.4°C | 42.5% | 220.0hPa | 2.7V | 02:41:00 | 00:53:23 | 00:00:00 | |
| DO3MHA-11 | 2026-08-31 10:25:29 | 48.03205 | 11.63461 | 70° | 164km/h | 11558m | 4.0m/s | -52.4°C | 42.7% | 220.1hPa | 2.7V | 00:00:00 | 00:53:22 | 00:00:00 | |
| OE5MMP-10 | 2026-08-31 10:25:27 | 48.03176 | 11.63346 | 71° | 164km/h | 11549m | 4.0m/s | -52.4°C | 43.7% | 220.5hPa | 2.7V | 00:00:00 | 00:53:20 | 00:00:00 | |
| DG1MJG | 2026-08-31 10:25:26 | 48.03176 | 11.63346 | 72° | 164km/h | 11549m | 4.1m/s | -52.4°C | 36.4% | 220.5hPa | 2.7V | 02:42:00 | 00:00:00 | 00:00:00 | |
| DO3MHA-12 | 2026-08-31 10:25:25 | 48.03148 | 11.63229 | 71° | 164km/h | 11541m | 4.6m/s | -52.4°C | 44.3% | 220.8hPa | 2.7V | 00:00:00 | 00:53:18 | 00:00:00 | |
| BAUMI2-15 | 2026-08-31 10:25:24 | 48.03134 | 11.63171 | 71° | 164km/h | 11537m | 3.8m/s | -52.4°C | 44.6% | 220.8hPa | 2.7V | 00:00:00 | 00:53:17 | 00:00:00 | |
| NBG1-10 | 2026-08-31 10:25:23 | 48.03121 | 11.63112 | 71° | 164km/h | 11532m | 4.4m/s | -52.4°C | 45.2% | 221.0hPa | 2.7V | 00:00:00 | 00:53:16 | 00:00:00 | |
| DG1MFX-10 | 2026-08-31 10:25:20 | 48.03092 | 11.62996 | 70° | 164km/h | 11525m | 4.7m/s | -52.4°C | 37.9% | 221.4hPa | 2.7V | 02:42:00 | 00:00:00 | 00:00:00 | |
| DO3MHA-11 | 2026-08-31 10:25:19 | 48.03062 | 11.62881 | 69° | 164km/h | 11516m | 5.2m/s | -52.3°C | 46.0% | 221.7hPa | 2.7V | 02:41:00 | 00:53:12 | 00:00:00 | |
| PG1ADW-2 | 2026-08-31 10:25:18 | 48.03047 | 11.62823 | 69° | 164km/h | 11511m | 3.6m/s | -52.3°C | 46.2% | 221.8hPa | 2.7V | 00:00:00 | 00:53:11 | 00:00:00 | |
| OE5MMP-10 | 2026-08-31 10:25:17 | 48.03032 | 11.62764 | 69° | 162km/h | 11507m | 5.4m/s | -52.3°C | 46.5% | 221.9hPa | 2.7V | 02:41:00 | 00:53:10 | 00:00:00 | |
| DO3MHA-12 | 2026-08-31 10:25:15 | 48.03001 | 11.62649 | 70° | 162km/h | 11498m | 5.0m/s | -52.3°C | 47.2% | 222.2hPa | 2.7V | 02:41:00 | 00:53:08 | 00:00:00 | |
| OE5WHR-10 | 2026-08-31 10:25:14 | 48.02987 | 11.62590 | 71° | 164km/h | 11494m | 3.0m/s | -52.3°C | 48.0% | 222.4hPa | 2.7V | 00:00:00 | 00:00:00 | 00:00:00 | |
| OE5DRO-10 | 2026-08-31 10:25:12 | 48.02959 | 11.62474 | 70° | 164km/h | 11485m | 4.4m/s | -52.3°C | 49.3% | 222.7hPa | 2.7V | 00:00:00 | 00:00:00 | 00:00:00 | |
| BAUMI2-15 | 2026-08-31 10:25:11 | 48.02945 | 11.62418 | 70° | 161km/h | 11482m | 3.1m/s | -52.3°C | 49.6% | 222.8hPa | 2.7V | 00:00:00 | 00:53:04 | 00:00:00 | |
| DO3MHA-11 | 2026-08-31 10:25:09 | 48.02916 | 11.62304 | 69° | 164km/h | 11473m | 3.9m/s | -52.3°C | 50.8% | 223.0hPa | 2.7V | 00:00:00 | 00:53:02 | 00:00:00 | |
| OE5MMP-10 | 2026-08-31 10:25:07 | 48.02886 | 11.62190 | 68° | 164km/h | 11465m | 4.3m/s | -52.3°C | 51.9% | 223.3hPa | 2.7V | 00:00:00 | 00:53:00 | 00:00:00 | |
| DB0UT-7 | 2026-08-31 10:25:06 | 48.02870 | 11.62134 | 68° | 164km/h | 11460m | 4.6m/s | -52.3°C | 52.3% | 223.5hPa | 2.7V | 00:00:00 | 00:00:00 | 00:00:00 | |
| DO3MHA-12 | 2026-08-31 10:25:05 | 48.02854 | 11.62077 | 68° | 166km/h | 11456m | 3.8m/s | -52.3°C | 52.6% | 223.7hPa | 2.7V | 00:00:00 | 00:52:58 | 00:00:00 | |
| OE5DXL-15 | 2026-08-31 10:25:03 | 48.02821 | 11.61962 | 67° | 162km/h | 11448m | 4.4m/s | -52.3°C | 51.5% | 224.0hPa | 2.7V | 02:41:00 | 00:00:00 | 00:00:00 | |
| DG1MFX-10 | 2026-08-31 10:25:00 | 48.02788 | 11.61847 | 68° | 166km/h | 11439m | 4.5m/s | -52.4°C | 43.1% | 224.3hPa | 2.7V | 02:42:00 | 00:00:00 | 00:00:00 | |
| DO3MHA-11 | 2026-08-31 10:24:59 | 48.02754 | 11.61733 | 67° | 164km/h | 11431m | 3.7m/s | -52.2°C | 51.3% | 224.6hPa | 2.7V | 00:00:00 | 00:52:52 | 00:00:00 | |
| PG1ADW-2 | 2026-08-31 10:24:58 | 48.02738 | 11.61676 | 67° | 162km/h | 11427m | 4.3m/s | -52.1°C | 51.0% | 224.7hPa | 2.7V | 02:42:00 | 00:00:00 | 00:00:00 | |
| OE5MMP-10 | 2026-08-31 10:24:57 | 48.02722 | 11.61618 | 68° | 164km/h | 11422m | 4.1m/s | -52.1°C | 51.3% | 224.9hPa | 2.7V | 00:00:00 | 00:52:50 | 00:00:00 | |
| DO3MHA-12 | 2026-08-31 10:24:55 | 48.02690 | 11.61504 | 68° | 164km/h | 11413m | 4.3m/s | -52.1°C | 51.1% | 225.1hPa | 2.7V | 00:00:00 | 00:52:48 | 00:00:00 | |
| DO8TBO-1 | 2026-08-31 10:24:54 | 48.02659 | 11.61390 | 69° | 162km/h | 11405m | 4.5m/s | -52.0°C | 50.9% | 225.5hPa | 2.7V | 00:00:00 | 00:52:46 | 00:00:00 | |
| OE5WHR-10 | 2026-08-31 10:24:53 | 48.02659 | 11.61390 | 69° | 162km/h | 11405m | 4.5m/s | -52.0°C | 50.9% | 225.5hPa | 2.7V | 00:00:00 | 00:52:46 | 00:00:00 | |
| NBG1-10 | 2026-08-31 10:24:50 | 48.02612 | 11.61219 | 68° | 162km/h | 11392m | 4.0m/s | -51.9°C | 50.0% | 225.9hPa | 2.7V | 00:00:00 | 00:52:43 | 00:00:00 | |
| DO3MHA-11 | 2026-08-31 10:24:49 | 48.02597 | 11.61162 | 68° | 162km/h | 11387m | 4.2m/s | -51.8°C | 49.9% | 226.1hPa | 2.7V | 02:42:00 | 00:52:42 | 00:00:00 | |
| OE5MMP-10 | 2026-08-31 10:24:47 | 48.02564 | 11.61047 | 67° | 162km/h | 11379m | 3.8m/s | -51.8°C | 50.7% | 226.4hPa | 2.7V | 02:42:00 | 00:52:40 | 00:00:00 | |
| DO3MHA-12 | 2026-08-31 10:24:45 | 48.02532 | 11.60933 | 68° | 162km/h | 11370m | 4.2m/s | -51.6°C | 50.6% | 226.7hPa | 2.7V | 02:42:00 | 00:52:38 | 00:00:00 | |
| DL6DJ-15 | 2026-08-31 10:24:44 | 48.02516 | 11.60877 | 67° | 162km/h | 11365m | 4.4m/s | -51.7°C | 42.7% | 226.9hPa | 2.7V | 00:00:00 | 00:00:00 | 00:00:00 | |
| DF7PN | 2026-08-31 10:24:43 | 48.02500 | 11.60820 | 66° | 161km/h | 11361m | 4.3m/s | -51.6°C | 42.6% | 227.1hPa | 2.7V | 00:00:00 | 00:00:00 | 00:00:00 | |
| DO3MHA-11 | 2026-08-31 10:24:39 | 48.02435 | 11.60595 | 67° | 162km/h | 11345m | 4.8m/s | -51.4°C | 51.7% | 227.6hPa | 2.7V | 00:00:00 | 00:52:32 | 00:00:00 | |
| PG1ADW-2 | 2026-08-31 10:24:38 | 48.02418 | 11.60540 | 66° | 161km/h | 11341m | 4.1m/s | -51.4°C | 52.0% | 227.8hPa | 2.7V | 00:00:00 | 00:00:00 | 00:00:00 | |
| OE5MMP-10 | 2026-08-31 10:24:37 | 48.02402 | 11.60485 | 67° | 162km/h | 11336m | 5.0m/s | -51.4°C | 52.1% | 227.9hPa | 2.7V | 00:00:00 | 00:52:30 | 00:00:00 | |
| DB0UT-7 | 2026-08-31 10:24:36 | 48.02385 | 11.60429 | 67° | 161km/h | 11332m | 3.6m/s | -51.4°C | 51.9% | 228.1hPa | 2.7V | 02:42:00 | 00:52:29 | 00:00:00 | |
| DO3MHA-12 | 2026-08-31 10:24:35 | 48.02369 | 11.60374 | 67° | 162km/h | 11327m | 4.9m/s | -51.4°C | 51.6% | 228.3hPa | 2.7V | 00:00:00 | 00:52:28 | 00:00:00 | |
| OE5DRO-10 | 2026-08-31 10:24:34 | 48.02353 | 11.60319 | 67° | 162km/h | 11323m | 3.7m/s | -51.4°C | 51.1% | 228.4hPa | 2.7V | 00:00:00 | 00:00:00 | 00:00:00 | |
| OE5DXL-15 | 2026-08-31 10:24:33 | 48.02337 | 11.60263 | 67° | 161km/h | 11319m | 5.0m/s | -51.5°C | 50.6% | 228.6hPa | 2.7V | 00:00:00 | 00:00:00 | 00:00:00 | |
| OE5WHR-10 | 2026-08-31 10:24:32 | 48.02320 | 11.60206 | 67° | 161km/h | 11314m | 3.8m/s | -51.5°C | 50.3% | 228.7hPa | 2.7V | 02:42:00 | 00:00:00 | 00:00:00 | |
| DO3MHA-11 | 2026-08-31 10:24:29 | 48.02269 | 11.60035 | 66° | 161km/h | 11300m | 5.0m/s | -51.5°C | 49.9% | 229.2hPa | 2.7V | 00:00:00 | 00:52:22 | 00:00:00 | |
| OE5MMP-10 | 2026-08-31 10:24:27 | 48.02234 | 11.59922 | 66° | 161km/h | 11291m | 4.5m/s | -51.4°C | 50.5% | 229.5hPa | 2.7V | 00:00:00 | 00:52:20 | 00:00:00 | |
| DO3MHA-12 | 2026-08-31 10:24:25 | 48.02201 | 11.59812 | 67° | 161km/h | 11282m | 5.1m/s | -51.4°C | 52.7% | 229.8hPa | 2.7V | 00:00:00 | 00:52:18 | 00:00:00 | |
| DO8TBO-1 | 2026-08-31 10:24:24 | 48.02186 | 11.59756 | 67° | 159km/h | 11278m | 3.2m/s | -51.3°C | 53.4% | 230.0hPa | 2.7V | 00:00:00 | 00:52:17 | 00:00:00 | |
| DO3MHA-11 | 2026-08-31 10:24:19 | 48.02105 | 11.59482 | 66° | 161km/h | 11255m | 5.8m/s | -51.2°C | 53.5% | 230.8hPa | 2.7V | 02:42:00 | 00:52:12 | 00:00:00 | |
| PG1ADW-2 | 2026-08-31 10:24:18 | 48.02088 | 11.59426 | 67° | 161km/h | 11250m | 4.2m/s | -51.1°C | 53.0% | 231.0hPa | 2.7V | 00:00:00 | 00:00:00 | 00:00:00 | |
| OE5MMP-10 | 2026-08-31 10:24:17 | 48.02072 | 11.59369 | 67° | 159km/h | 11245m | 4.8m/s | -51.1°C | 53.1% | 231.2hPa | 2.7V | 02:42:00 | 00:52:10 | 00:00:00 | |
| DO3MHA-12 | 2026-08-31 10:24:15 | 48.02040 | 11.59256 | 67° | 159km/h | 11237m | 5.0m/s | -51.1°C | 53.1% | 231.4hPa | 2.7V | 02:42:00 | 00:52:08 | 00:00:00 | |
| DL6DJ-15 | 2026-08-31 10:24:13 | 48.02008 | 11.59145 | 66° | 157km/h | 11228m | 4.3m/s | -51.1°C | 45.1% | 231.8hPa | 2.7V | 00:00:00 | 00:00:00 | 00:00:00 | |
| OE5WHR-10 | 2026-08-31 10:24:11 | 48.01977 | 11.59036 | 68° | 159km/h | 11219m | 4.5m/s | -51.1°C | 53.8% | 232.1hPa | 2.7V | 00:00:00 | 00:00:00 | 00:00:00 | |
| DO3MHA-11 | 2026-08-31 10:24:09 | 48.01946 | 11.58926 | 68° | 161km/h | 11210m | 4.3m/s | -51.1°C | 52.7% | 232.4hPa | 2.7V | 00:00:00 | 00:52:02 | 00:00:00 | |
| OE5MMP-10 | 2026-08-31 10:24:07 | 48.01915 | 11.58816 | 68° | 161km/h | 11201m | 4.7m/s | -51.0°C | 52.2% | 232.7hPa | 2.7V | 00:00:00 | 00:52:00 | 00:00:00 | |
| DB0UT-7 | 2026-08-31 10:24:06 | 48.01899 | 11.58761 | 67° | 159km/h | 11197m | 4.1m/s | -50.9°C | 51.7% | 232.9hPa | 2.7V | 00:00:00 | 00:00:00 | 00:00:00 | |
| DO3MHA-12 | 2026-08-31 10:24:05 | 48.01884 | 11.58706 | 68° | 161km/h | 11192m | 4.7m/s | -50.9°C | 50.9% | 233.0hPa | 2.7V | 00:00:00 | 00:51:58 | 00:00:00 | |
| OE5DXL-15 | 2026-08-31 10:24:03 | 48.01851 | 11.58594 | 67° | 159km/h | 11183m | 4.5m/s | -50.8°C | 50.1% | 233.4hPa | 2.7V | 00:00:00 | 00:00:00 | 00:00:00 | |
| DO3MHA-11 | 2026-08-31 10:23:59 | 48.01786 | 11.58372 | 67° | 159km/h | 11165m | 4.3m/s | -50.6°C | 48.2% | 234.0hPa | 2.7V | 00:00:00 | 00:51:52 | 00:00:00 | |
| PG1ADW-2 | 2026-08-31 10:23:58 | 48.01770 | 11.58317 | 66° | 159km/h | 11161m | 4.6m/s | -50.6°C | 47.7% | 234.2hPa | 2.7V | 02:43:00 | 00:51:51 | 00:00:00 | |
| OE5MMP-10 | 2026-08-31 10:23:57 | 48.01753 | 11.58262 | 66° | 159km/h | 11156m | 3.7m/s | -50.6°C | 47.3% | 234.4hPa | 2.7V | 00:00:00 | 00:51:50 | 00:00:00 | |
| OE5DRO-10 | 2026-08-31 10:23:56 | 48.01736 | 11.58208 | 66° | 159km/h | 11152m | 4.9m/s | -50.5°C | 47.0% | 234.5hPa | 2.7V | 02:43:00 | 00:00:00 | 00:00:00 | |
| DO3MHA-12 | 2026-08-31 10:23:55 | 48.01720 | 11.58153 | 66° | 159km/h | 11147m | 4.0m/s | -50.5°C | 46.3% | 234.7hPa | 2.7V | 00:00:00 | 00:51:48 | 00:00:00 | |
| DG1MJG | 2026-08-31 10:23:53 | 48.01703 | 11.58099 | 67° | 157km/h | 11143m | 5.0m/s | -50.5°C | 39.3% | 234.9hPa | 2.7V | 02:43:00 | 00:00:00 | 00:00:00 | |
| OE5WHR-10 | 2026-08-31 10:23:50 | 48.01637 | 11.57880 | 66° | 159km/h | 11124m | 6.0m/s | -50.2°C | 44.9% | 235.5hPa | 2.7V | 00:00:00 | 00:51:43 | 00:00:00 | |
| DO3MHA-11 | 2026-08-31 10:23:49 | 48.01621 | 11.57826 | 66° | 159km/h | 11119m | 4.5m/s | -50.2°C | 44.4% | 235.7hPa | 2.7V | 02:43:00 | 00:51:42 | 00:00:00 | |
| OE5MMP-10 | 2026-08-31 10:23:47 | 48.01587 | 11.57716 | 65° | 159km/h | 11109m | 4.6m/s | -50.1°C | 43.2% | 236.0hPa | 2.7V | 02:43:00 | 00:51:40 | 00:00:00 | |
| DO3MHA-12 | 2026-08-31 10:23:45 | 48.01552 | 11.57607 | 64° | 159km/h | 11100m | 4.0m/s | -50.0°C | 41.8% | 236.4hPa | 2.7V | 02:43:00 | 00:51:38 | 00:00:00 | |
| NBG1-10 | 2026-08-31 10:23:44 | 48.01534 | 11.57553 | 64° | 157km/h | 11095m | 5.7m/s | -50.0°C | 41.3% | 236.6hPa | 2.7V | 00:00:00 | 00:51:37 | 00:00:00 | |
| DL6DJ-15 | 2026-08-31 10:23:42 | 48.01498 | 11.57445 | 63° | 157km/h | 11086m | 5.3m/s | -50.0°C | 33.5% | 237.0hPa | 2.7V | 00:00:00 | 00:00:00 | 00:00:00 | |
| DF7PN | 2026-08-31 10:23:41 | 48.01481 | 11.57391 | 64° | 157km/h | 11081m | 4.2m/s | -49.9°C | 33.0% | 237.1hPa | 2.7V | 00:00:00 | 00:00:00 | 00:00:00 | |
| DO3MHA-11 | 2026-08-31 10:23:39 | 48.01447 | 11.57282 | 67° | 159km/h | 11072m | 4.1m/s | -49.8°C | 38.3% | 237.5hPa | 2.7V | 00:00:00 | 00:51:32 | 00:00:00 | |
| PG1ADW-2 | 2026-08-31 10:23:38 | 48.01431 | 11.57227 | 67° | 157km/h | 11067m | 5.6m/s | -49.7°C | 37.7% | 237.6hPa | 2.7V | 00:00:00 | 00:00:00 | 00:00:00 | |
| OE5MMP-10 | 2026-08-31 10:23:37 | 48.01416 | 11.57173 | 68° | 159km/h | 11062m | 3.6m/s | -49.7°C | 37.6% | 237.7hPa | 2.7V | 00:00:00 | 00:51:30 | 00:00:00 | |
| DB0UT-7 | 2026-08-31 10:23:36 | 48.01401 | 11.57118 | 68° | 157km/h | 11058m | 5.4m/s | -49.7°C | 37.4% | 237.9hPa | 2.7V | 00:00:00 | 00:51:29 | 00:00:00 | |
| DO3MHA-12 | 2026-08-31 10:23:35 | 48.01385 | 11.57063 | 68° | 159km/h | 11053m | 4.1m/s | -49.6°C | 37.3% | 238.1hPa | 2.7V | 00:00:00 | 00:51:28 | 00:00:00 | |
| OE5DXL-15 | 2026-08-31 10:23:33 | 48.01354 | 11.56953 | 67° | 157km/h | 11043m | 4.6m/s | -49.5°C | 37.2% | 238.5hPa | 2.7V | 02:43:00 | 00:00:00 | 00:00:00 | |
| DO3MHA-11 | 2026-08-31 10:23:29 | 48.01288 | 11.56734 | 66° | 157km/h | 11024m | 4.4m/s | -49.3°C | 37.1% | 239.1hPa | 2.7V | 00:00:00 | 00:51:22 | 00:00:00 | |
| OE5MMP-10 | 2026-08-31 10:23:27 | 48.01253 | 11.56625 | 66° | 157km/h | 11015m | 4.5m/s | -49.3°C | 37.5% | 239.5hPa | 2.7V | 00:00:00 | 00:51:20 | 00:00:00 | |
| DO3MHA-12 | 2026-08-31 10:23:25 | 48.01220 | 11.56516 | 66° | 155km/h | 11005m | 5.3m/s | -49.3°C | 37.3% | 239.8hPa | 2.7V | 00:00:00 | 00:51:18 | 00:00:00 | |
| DG1MJG | 2026-08-31 10:23:23 | 48.01204 | 11.56462 | 67° | 155km/h | 11001m | 3.8m/s | -49.3°C | 31.2% | 240.1hPa | 2.7V | 02:43:00 | 00:00:00 | 00:00:00 | |
| DO3MHA-11 | 2026-08-31 10:23:19 | 48.01126 | 11.56192 | 67° | 157km/h | 10976m | 5.6m/s | -49.1°C | 37.7% | 240.9hPa | 2.7V | 02:43:00 | 00:51:12 | 00:00:00 | |
| OE5DRO-10 | 2026-08-31 10:23:18 | 48.01110 | 11.56138 | 67° | 157km/h | 10972m | 4.2m/s | -49.0°C | 37.4% | 241.0hPa | 2.7V | 00:00:00 | 00:00:00 | 00:00:00 | |
| OE5MMP-10 | 2026-08-31 10:23:17 | 48.01095 | 11.56084 | 67° | 157km/h | 10967m | 5.4m/s | -49.0°C | 37.4% | 241.2hPa | 2.7V | 02:43:00 | 00:51:10 | 00:00:00 | |
| DG1MFX-10 | 2026-08-31 10:23:16 | 48.01095 | 11.56084 | 67° | 155km/h | 10967m | 5.4m/s | -49.1°C | 31.4% | 241.3hPa | 2.7V | 02:43:00 | 00:00:00 | 00:00:00 | |
| DO3MHA-12 | 2026-08-31 10:23:15 | 48.01062 | 11.55977 | 66° | 155km/h | 10957m | 5.4m/s | -48.9°C | 37.8% | 241.6hPa | 2.7V | 02:43:00 | 00:51:08 | 00:00:00 | |
| DO8TBO-1 | 2026-08-31 10:23:13 | 48.00995 | 11.55762 | 66° | 157km/h | 10937m | 4.9m/s | -48.7°C | 37.7% | 242.3hPa | 2.7V | 00:00:00 | 00:51:04 | 00:00:00 | |
| DL6DJ-15 | 2026-08-31 10:23:11 | 48.00995 | 11.55763 | 65° | 157km/h | 10937m | 4.9m/s | -48.8°C | 31.7% | 242.4hPa | 2.7V | 00:00:00 | 00:00:00 | 00:00:00 | |
| NBG1-10 | 2026-08-31 10:23:10 | 48.00978 | 11.55708 | 66° | 157km/h | 10933m | 3.2m/s | -48.7°C | 37.5% | 242.4hPa | 2.7V | 00:00:00 | 00:51:03 | 00:00:00 | |
| DO3MHA-11 | 2026-08-31 10:23:09 | 48.00962 | 11.55655 | 67° | 157km/h | 10929m | 5.0m/s | -48.7°C | 37.0% | 242.6hPa | 2.7V | 00:00:00 | 00:51:02 | 00:00:00 | |
| OE5MMP-10 | 2026-08-31 10:23:07 | 48.00931 | 11.55549 | 67° | 157km/h | 10921m | 3.8m/s | -48.7°C | 36.3% | 243.0hPa | 2.7V | 00:00:00 | 00:51:00 | 00:00:00 | |
| DB0UT-7 | 2026-08-31 10:23:06 | 48.00916 | 11.55495 | 67° | 157km/h | 10916m | 4.9m/s | -48.6°C | 36.1% | 243.1hPa | 2.7V | 02:43:00 | 00:00:00 | 00:00:00 | |
| DO3MHA-12 | 2026-08-31 10:23:05 | 48.00900 | 11.55441 | 66° | 159km/h | 10912m | 4.3m/s | -48.6°C | 35.8% | 243.2hPa | 2.7V | 00:00:00 | 00:50:58 | 00:00:00 | |
| OE5DXL-15 | 2026-08-31 10:23:03 | 48.00867 | 11.55334 | 66° | 157km/h | 10902m | 4.6m/s | -48.5°C | 36.0% | 243.6hPa | 2.7V | 00:00:00 | 00:00:00 | 00:00:00 | |
| BAUMI2-15 | 2026-08-31 10:23:01 | 48.00832 | 11.55226 | 65° | 159km/h | 10892m | 4.2m/s | -48.4°C | 36.7% | 244.0hPa | 2.7V | 02:43:00 | 00:50:54 | 00:00:00 | |
| DO3MHA-11 | 2026-08-31 10:22:59 | 48.00799 | 11.55117 | 66° | 157km/h | 10883m | 3.4m/s | -48.3°C | 37.4% | 244.3hPa | 2.7V | 00:00:00 | 00:50:52 | 00:00:00 | |
| PG1ADW-2 | 2026-08-31 10:22:58 | 48.00782 | 11.55063 | 67° | 157km/h | 10878m | 5.4m/s | 0°C | 0% | 0hPa | 2.7V | 02:44:00 | 00:00:00 | 00:00:00 | |
| OE5MMP-10 | 2026-08-31 10:22:56 | 48.00751 | 11.54953 | 68° | 157km/h | 10869m | 5.1m/s | -48.2°C | 37.2% | 0hPa | 2.7V | 00:00:00 | 00:50:49 | 00:00:00 | |
| DO3MHA-12 | 2026-08-31 10:22:55 | 48.00736 | 11.54899 | 67° | 157km/h | 10864m | 4.6m/s | -48.2°C | 37.3% | 245.1hPa | 2.7V | 00:00:00 | 00:50:48 | 00:00:00 | |
| DG1MJG | 2026-08-31 10:22:53 | 48.00720 | 11.54845 | 68° | 155km/h | 10859m | 4.4m/s | -48.2°C | 31.3% | 245.2hPa | 2.7V | 02:44:00 | 00:00:00 | 00:00:00 | |
| BAUMI2-15 | 2026-08-31 10:22:51 | 48.00673 | 11.54684 | 66° | 157km/h | 10845m | 4.9m/s | -48.1°C | 36.8% | 245.8hPa | 2.7V | 00:00:00 | 00:50:44 | 00:00:00 | |
| DO3MHA-11 | 2026-08-31 10:22:49 | 48.00639 | 11.54577 | 65° | 157km/h | 10835m | 4.9m/s | -48.0°C | 36.5% | 246.1hPa | 2.7V | 02:44:00 | 00:50:42 | 00:00:00 | |
| OE5MMP-10 | 2026-08-31 10:22:46 | 48.00588 | 11.54415 | 66° | 157km/h | 10821m | 4.4m/s | 0°C | 0% | 0hPa | 2.7V | 02:44:00 | 00:50:39 | 00:00:00 | |
| DO3MHA-12 | 2026-08-31 10:22:45 | 48.00571 | 11.54360 | 66° | 157km/h | 10816m | 5.1m/s | -47.9°C | 37.0% | 246.8hPa | 2.7V | 02:44:00 | 00:50:38 | 00:00:00 | |
| BAUMI2-15 | 2026-08-31 10:22:41 | 48.00505 | 11.54145 | 67° | 155km/h | 10800m | 3.7m/s | -47.7°C | 37.1% | 247.4hPa | 2.7V | 00:00:00 | 00:50:34 | 00:00:00 | |
| OE5DRO-10 | 2026-08-31 10:22:40 | 48.00490 | 11.54091 | 67° | 157km/h | 10795m | 5.1m/s | -47.7°C | 37.2% | 247.6hPa | 2.7V | 00:00:00 | 00:00:00 | 00:00:00 | |
| DO3MHA-11 | 2026-08-31 10:22:39 | 48.00475 | 11.54037 | 68° | 157km/h | 10791m | 3.7m/s | -47.7°C | 37.6% | 247.8hPa | 2.7V | 00:00:00 | 00:50:32 | 00:00:00 | |
| PG1ADW-2 | 2026-08-31 10:22:38 | 48.00460 | 11.53982 | 68° | 157km/h | 10787m | 4.4m/s | 0°C | 0% | 0hPa | 2.7V | 00:00:00 | 00:50:31 | 00:00:00 | |
| NBG1-10 | 2026-08-31 10:22:37 | 48.00445 | 11.53929 | 68° | 157km/h | 10782m | 4.6m/s | -47.6°C | 37.8% | 248.1hPa | 2.7V | 02:44:00 | 00:50:30 | 00:00:00 | |
| OE5MMP-10 | 2026-08-31 10:22:36 | 48.00429 | 11.53875 | 67° | 157km/h | 10777m | 4.5m/s | 0°C | 0% | 0hPa | 2.7V | 00:00:00 | 00:50:29 | 00:00:00 | |
| DG1MFX-10 | 2026-08-31 10:22:35 | 48.00430 | 11.53875 | 68° | 155km/h | 10777m | 4.5m/s | -47.6°C | 32.2% | 248.3hPa | 2.7V | 02:44:00 | 00:00:00 | 00:00:00 | |
| OE5DXL-15 | 2026-08-31 10:22:33 | 48.00382 | 11.53713 | 67° | 155km/h | 10763m | 5.0m/s | -47.5°C | 38.1% | 248.8hPa | 2.7V | 00:00:00 | 00:00:00 | 00:00:00 | |
| BAUMI2-15 | 2026-08-31 10:22:31 | 48.00350 | 11.53605 | 67° | 157km/h | 10754m | 4.8m/s | -47.4°C | 38.1% | 249.1hPa | 2.7V | 02:44:00 | 00:50:24 | 00:00:00 | |
| DO3MHA-11 | 2026-08-31 10:22:29 | 48.00318 | 11.53497 | 67° | 157km/h | 10745m | 4.3m/s | -47.3°C | 37.9% | 249.5hPa | 2.7V | 00:00:00 | 00:50:22 | 00:00:00 | |
| BAUMI2-15 | 2026-08-31 10:22:26 | 48.00270 | 11.53334 | 67° | 157km/h | 10731m | 4.6m/s | -47.2°C | 37.8% | 250.0hPa | 2.7V | 00:00:00 | 00:50:19 | 00:00:00 | |
| DO3MHA-12 | 2026-08-31 10:22:25 | 48.00255 | 11.53280 | 67° | 157km/h | 10726m | 4.9m/s | -47.3°C | 38.3% | 250.2hPa | 2.7V | 00:00:00 | 00:50:18 | 00:00:00 | |
| DG1MJG | 2026-08-31 10:22:22 | 48.00223 | 11.53171 | 68° | 157km/h | 10717m | 4.5m/s | -47.3°C | 33.5% | 250.6hPa | 2.7V | 02:44:00 | 00:00:00 | 00:00:00 | |
| BAUMI2-15 | 2026-08-31 10:22:21 | 48.00193 | 11.53062 | 68° | 157km/h | 10709m | 3.9m/s | -47.2°C | 40.5% | 250.9hPa | 2.7V | 00:00:00 | 00:50:14 | 00:00:00 | |
| DO3MHA-11 | 2026-08-31 10:22:19 | 48.00161 | 11.52953 | 67° | 155km/h | 10700m | 3.8m/s | -47.1°C | 40.7% | 251.2hPa | 2.7V | 02:44:00 | 00:50:12 | 00:00:00 | |
| PG1ADW-2 | 2026-08-31 10:22:18 | 48.00145 | 11.52899 | 67° | 155km/h | 10696m | 5.1m/s | 0°C | 0% | 0hPa | 2.7V | 00:00:00 | 00:00:00 | 00:00:00 | |
| OE5MMP-10 | 2026-08-31 10:22:16 | 48.00114 | 11.52790 | 68° | 155km/h | 10687m | 5.5m/s | 0°C | 0% | 0hPa | 2.7V | 02:44:00 | 00:50:09 | 00:00:00 | |
| DO3MHA-12 | 2026-08-31 10:22:15 | 48.00099 | 11.52737 | 68° | 155km/h | 10682m | 4.4m/s | -47.0°C | 41.3% | 251.9hPa | 2.7V | 02:44:00 | 00:50:08 | 00:00:00 | |
| DG1MFX-10 | 2026-08-31 10:22:14 | 48.00099 | 11.52736 | 69° | 153km/h | 10682m | 4.4m/s | -47.0°C | 35.3% | 252.0hPa | 2.7V | 02:45:00 | 00:00:00 | 00:00:00 | |
| DO3MHA-11 | 2026-08-31 10:22:09 | 48.00012 | 11.52413 | 67° | 155km/h | 10653m | 4.9m/s | -46.9°C | 41.5% | 253.0hPa | 2.7V | 00:00:00 | 00:50:02 | 00:00:00 | |
| OE5MMP-10 | 2026-08-31 10:22:06 | 47.99964 | 11.52252 | 67° | 155km/h | 10640m | 5.1m/s | 0°C | 0% | 0hPa | 2.7V | 00:00:00 | 00:49:59 | 00:00:00 | |
| DO3MHA-12 | 2026-08-31 10:22:05 | 47.99948 | 11.52198 | 67° | 155km/h | 10635m | 3.6m/s | -46.7°C | 43.4% | 253.7hPa | 2.7V | 00:00:00 | 00:49:58 | 00:00:00 | |
| NBG1-10 | 2026-08-31 10:22:04 | 47.99932 | 11.52143 | 67° | 153km/h | 10631m | 5.1m/s | -46.7°C | 43.9% | 253.9hPa | 2.7V | 00:00:00 | 00:49:57 | 00:00:00 | |
| OE5DXL-15 | 2026-08-31 10:22:02 | 47.99902 | 11.52035 | 69° | 153km/h | 10621m | 4.6m/s | -46.6°C | 44.9% | 254.3hPa | 2.7V | 02:44:00 | 00:00:00 | 00:00:00 | |
| BAUMI2-15 | 2026-08-31 10:22:01 | 47.99888 | 11.51981 | 69° | 153km/h | 10617m | 3.6m/s | -46.6°C | 45.0% | 254.4hPa | 2.7V | 02:44:00 | 00:49:54 | 00:00:00 | |
| DO3MHA-11 | 2026-08-31 10:21:59 | 47.99858 | 11.51873 | 68° | 155km/h | 10608m | 4.2m/s | -46.5°C | 45.4% | 254.8hPa | 2.7V | 00:00:00 | 00:49:52 | 00:00:00 | |
| PG1ADW-2 | 2026-08-31 10:21:58 | 47.99844 | 11.51819 | 69° | 153km/h | 10603m | 5.5m/s | 0°C | 0% | 0hPa | 2.7V | 00:00:00 | 00:00:00 | 00:00:00 | |
| BAUMI2-15 | 2026-08-31 10:21:56 | 47.99814 | 11.51712 | 68° | 155km/h | 10594m | 5.3m/s | -46.5°C | 46.0% | 255.2hPa | 2.7V | 00:00:00 | 00:49:49 | 00:00:00 | |
| DO3MHA-12 | 2026-08-31 10:21:55 | 47.99799 | 11.51659 | 67° | 153km/h | 10589m | 3.7m/s | -46.4°C | 46.3% | 255.5hPa | 2.7V | 00:00:00 | 00:49:48 | 00:00:00 | |
| DG1MFX-10 | 2026-08-31 10:21:53 | 47.99784 | 11.51606 | 67° | 155km/h | 10585m | 4.7m/s | -46.5°C | 40.4% | 255.7hPa | 2.7V | 02:45:00 | 00:00:00 | 00:00:00 | |
| BAUMI2-15 | 2026-08-31 10:21:51 | 47.99737 | 11.51444 | 67° | 153km/h | 10572m | 5.0m/s | -46.3°C | 46.6% | 256.1hPa | 2.7V | 00:00:00 | 00:49:44 | 00:00:00 | |
| DO3MHA-11 | 2026-08-31 10:21:49 | 47.99706 | 11.51337 | 67° | 151km/h | 10563m | 6.2m/s | -46.2°C | 46.0% | 256.4hPa | 2.7V | 02:45:00 | 00:49:42 | 00:00:00 | |
| OE5MMP-10 | 2026-08-31 10:21:46 | 47.99660 | 11.51178 | 68° | 151km/h | 10548m | 4.1m/s | 0°C | 0% | 0hPa | 2.7V | 00:00:00 | 00:49:39 | 00:00:00 | |
| DO3MHA-12 | 2026-08-31 10:21:45 | 47.99646 | 11.51125 | 69° | 151km/h | 10543m | 5.7m/s | -46.1°C | 46.0% | 257.2hPa | 2.7V | 02:45:00 | 00:49:38 | 00:00:00 | |
| OE5DRO-10 | 2026-08-31 10:21:43 | 47.99619 | 11.51019 | 70° | 151km/h | 10534m | 4.9m/s | -46.0°C | 46.0% | 257.5hPa | 2.7V | 00:00:00 | 00:00:00 | 00:00:00 | |
| BAUMI2-15 | 2026-08-31 10:21:41 | 47.99592 | 11.50914 | 70° | 151km/h | 10525m | 4.6m/s | 0°C | 0% | 0hPa | 2.7V | 00:00:00 | 00:49:34 | 00:00:00 | |
| DO3MHA-11 | 2026-08-31 10:21:39 | 47.99565 | 11.50807 | 70° | 153km/h | 10517m | 3.7m/s | -45.9°C | 48.0% | 258.2hPa | 2.7V | 00:00:00 | 00:49:32 | 00:00:00 | |
| DL6DJ-15 | 2026-08-31 10:21:38 | 47.99551 | 11.50753 | 68° | 151km/h | 10512m | 5.0m/s | -45.9°C | 41.5% | 258.4hPa | 2.7V | 00:00:00 | 00:00:00 | 00:00:00 | |
| DB0UT-7 | 2026-08-31 10:21:36 | 47.99521 | 11.50647 | 67° | 151km/h | 10503m | 5.0m/s | -45.8°C | 47.2% | 258.7hPa | 2.7V | 02:45:00 | 00:49:29 | 00:00:00 | |
| DO3MHA-12 | 2026-08-31 10:21:35 | 47.99506 | 11.50594 | 68° | 153km/h | 10499m | 4.0m/s | -45.8°C | 46.9% | 258.9hPa | 2.7V | 00:00:00 | 00:49:28 | 00:00:00 | |
| DG1MFX-10 | 2026-08-31 10:21:33 | 47.99491 | 11.50541 | 68° | 151km/h | 10495m | 4.5m/s | -45.8°C | 40.3% | 259.1hPa | 2.7V | 02:45:00 | 00:00:00 | 00:00:00 | |
| OE5DXL-15 | 2026-08-31 10:21:32 | 47.99461 | 11.50436 | 67° | 151km/h | 10486m | 4.0m/s | -45.7°C | 46.4% | 259.4hPa | 2.7V | 00:00:00 | 00:00:00 | 00:00:00 | |
| NBG1-10 | 2026-08-31 10:21:31 | 47.99446 | 11.50383 | 67° | 151km/h | 10482m | 4.7m/s | -45.6°C | 46.4% | 259.6hPa | 2.7V | 00:00:00 | 00:49:24 | 00:00:00 | |
| DO3MHA-11 | 2026-08-31 10:21:29 | 47.99416 | 11.50276 | 68° | 153km/h | 10473m | 5.4m/s | -45.6°C | 46.0% | 260.0hPa | 2.7V | 00:00:00 | 00:49:22 | 00:00:00 | |
| BAUMI2-15 | 2026-08-31 10:21:26 | 47.99371 | 11.50116 | 68° | 153km/h | 10458m | 3.8m/s | 0°C | 0% | 0hPa | 2.7V | 00:00:00 | 00:49:19 | 00:00:00 | |
| DO3MHA-12 | 2026-08-31 10:21:25 | 47.99356 | 11.50063 | 68° | 153km/h | 10453m | 5.4m/s | -45.5°C | 44.5% | 260.6hPa | 2.7V | 00:00:00 | 00:49:18 | 00:00:00 | |
| OE5DRO-10 | 2026-08-31 10:21:24 | 47.99342 | 11.50010 | 68° | 151km/h | 10449m | 4.0m/s | -45.5°C | 43.6% | 260.8hPa | 2.7V | 00:00:00 | 00:00:00 | 00:00:00 | |
| BAUMI2-15 | 2026-08-31 10:21:21 | 47.99297 | 11.49851 | 68° | 153km/h | 10435m | 4.3m/s | 0°C | 0% | 0hPa | 2.7V | 00:00:00 | 00:49:14 | 00:00:00 | |
| DO3MHA-11 | 2026-08-31 10:21:19 | 47.99268 | 11.49745 | 69° | 151km/h | 10426m | 4.1m/s | -45.4°C | 39.5% | 261.7hPa | 2.7V | 02:45:00 | 00:49:12 | 00:00:00 | |
| BAUMI2-15 | 2026-08-31 10:21:16 | 47.99225 | 11.49584 | 69° | 151km/h | 10413m | 4.7m/s | 0°C | 0% | 0hPa | 2.7V | 02:45:00 | 00:49:09 | 00:00:00 | |
| DO3MHA-12 | 2026-08-31 10:21:15 | 47.99211 | 11.49531 | 68° | 151km/h | 10408m | 4.6m/s | -45.2°C | 39.5% | 262.4hPa | 2.7V | 02:45:00 | 00:49:08 | 00:00:00 | |
| DG1MFX-10 | 2026-08-31 10:21:12 | 47.99180 | 11.49426 | 68° | 153km/h | 10399m | 4.8m/s | -45.2°C | 33.6% | 262.8hPa | 2.7V | 02:46:00 | 00:00:00 | 00:00:00 | |
| BAUMI2-15 | 2026-08-31 10:21:11 | 47.99150 | 11.49320 | 67° | 151km/h | 10390m | 4.6m/s | 0°C | 0% | 0hPa | 2.7V | 00:00:00 | 00:49:04 | 00:00:00 | |
| DO8TBO-1 | 2026-08-31 10:21:09 | 47.99089 | 11.49111 | 67° | 146km/h | 10373m | 4.5m/s | -45.0°C | 39.3% | 263.8hPa | 2.7V | 00:00:00 | 00:49:00 | 00:00:00 | |
| DL6DJ-15 | 2026-08-31 10:21:07 | 47.99074 | 11.49059 | 67° | 148km/h | 10369m | 4.5m/s | -45.1°C | 34.2% | 264.0hPa | 2.7V | 00:00:00 | 00:00:00 | 00:00:00 | |
| BAUMI2-15 | 2026-08-31 10:21:06 | 47.99074 | 11.49059 | 68° | 144km/h | 10369m | 4.4m/s | 0°C | 0% | 0hPa | 2.7V | 00:00:00 | 00:48:59 | 00:00:00 | |
| DO3MHA-12 | 2026-08-31 10:21:05 | 47.99059 | 11.49007 | 68° | 146km/h | 10364m | 4.2m/s | -45.0°C | 40.0% | 264.2hPa | 2.7V | 00:00:00 | 00:48:58 | 00:00:00 | |
| OE5DXL-15 | 2026-08-31 10:21:02 | 47.99016 | 11.48852 | 68° | 144km/h | 10351m | 4.7m/s | -45.0°C | 40.5% | 264.7hPa | 2.7V | 00:00:00 | 00:00:00 | 00:00:00 | |
| DO3MHA-11 | 2026-08-31 10:20:59 | 47.98974 | 11.48699 | 68° | 146km/h | 10338m | 5.1m/s | -44.9°C | 41.2% | 265.2hPa | 2.7V | 00:00:00 | 00:48:52 | 00:00:00 | |
| NBG1-10 | 2026-08-31 10:20:58 | 47.98960 | 11.48649 | 68° | 144km/h | 10334m | 3.3m/s | -44.8°C | 41.4% | 265.5hPa | 2.7V | 02:46:00 | 00:48:51 | 00:00:00 | |
| DO3MHA-12 | 2026-08-31 10:20:55 | 47.98918 | 11.48497 | 68° | 144km/h | 10321m | 5.4m/s | -44.7°C | 41.6% | 266.0hPa | 2.7V | 00:00:00 | 00:48:48 | 00:00:00 | |
| DG1MJG | 2026-08-31 10:20:51 | 47.98875 | 11.48345 | 68° | 146km/h | 10307m | 4.7m/s | -44.7°C | 36.4% | 266.5hPa | 2.7V | 02:46:00 | 00:00:00 | 00:00:00 | |
| DO3MHA-11 | 2026-08-31 10:20:49 | 47.98832 | 11.48195 | 68° | 144km/h | 10293m | 5.0m/s | -44.5°C | 43.2% | 267.0hPa | 2.7V | 02:46:00 | 00:48:42 | 00:00:00 | |
| OE5DRO-10 | 2026-08-31 10:20:46 | 47.98790 | 11.48044 | 68° | 144km/h | 10278m | 4.3m/s | -44.5°C | 44.3% | 267.6hPa | 2.7V | 00:00:00 | 00:00:00 | 00:00:00 | |
| DO3MHA-12 | 2026-08-31 10:20:45 | 47.98776 | 11.47994 | 68° | 144km/h | 10274m | 5.0m/s | -44.4°C | 44.4% | 267.8hPa | 2.7V | 02:46:00 | 00:48:38 | 00:00:00 | |
| DO3MHA-11 | 2026-08-31 10:20:39 | 47.98692 | 11.47694 | 68° | 144km/h | 10245m | 5.5m/s | -44.3°C | 44.7% | 268.9hPa | 2.7V | 00:00:00 | 00:48:32 | 00:00:00 | |
| DB0UT-7 | 2026-08-31 10:20:36 | 47.98650 | 11.47542 | 68° | 144km/h | 10232m | 4.2m/s | -44.1°C | 44.9% | 269.4hPa | 2.7V | 00:00:00 | 00:48:29 | 00:00:00 | |
| OE5DXL-15 | 2026-08-31 10:20:32 | 47.98594 | 11.47341 | 68° | 142km/h | 10213m | 3.7m/s | -44.0°C | 44.5% | 270.1hPa | 2.7V | 02:46:00 | 00:00:00 | 00:00:00 | |
| DG1MFX-10 | 2026-08-31 10:20:30 | 47.98580 | 11.47291 | 68° | 142km/h | 10208m | 4.9m/s | -44.1°C | 38.5% | 270.4hPa | 2.9V | 02:47:00 | 00:00:00 | 00:00:00 | |
| DO3MHA-11 | 2026-08-31 10:20:29 | 47.98551 | 11.47193 | 67° | 144km/h | 10199m | 5.0m/s | -43.9°C | 44.6% | 270.7hPa | 2.9V | 00:00:00 | 00:48:22 | 00:00:00 | |
| OE5DRO-10 | 2026-08-31 10:20:27 | 47.98524 | 11.47094 | 68° | 142km/h | 10190m | 4.4m/s | -43.8°C | 44.9% | 271.1hPa | 2.9V | 00:00:00 | 00:00:00 | 00:00:00 | |
| NBG1-10 | 2026-08-31 10:20:25 | 47.98496 | 11.46994 | 69° | 144km/h | 10181m | 4.7m/s | -43.7°C | 45.2% | 271.4hPa | 2.9V | 00:00:00 | 00:48:18 | 00:00:00 | |
| DG1MJG | 2026-08-31 10:20:20 | 47.98443 | 11.46791 | 70° | 146km/h | 10163m | 3.3m/s | -43.6°C | 40.3% | 272.2hPa | 2.9V | 02:47:00 | 00:00:00 | 00:00:00 | |
| DO3MHA-11 | 2026-08-31 10:20:19 | 47.98416 | 11.46688 | 69° | 142km/h | 10154m | 4.1m/s | -43.5°C | 46.1% | 272.5hPa | 2.9V | 02:46:00 | 00:48:12 | 00:00:00 | |
| DO3MHA-12 | 2026-08-31 10:20:15 | 47.98362 | 11.46489 | 68° | 142km/h | 10136m | 4.6m/s | -43.4°C | 45.9% | 273.3hPa | 2.9V | 02:46:00 | 00:48:08 | 00:00:00 | |
| DG1MFX-10 | 2026-08-31 10:20:10 | 47.98308 | 11.46292 | 70° | 142km/h | 10120m | 3.6m/s | -43.3°C | 40.3% | 274.0hPa | 2.9V | 02:47:00 | 00:00:00 | 00:00:00 | |
| DO3MHA-11 | 2026-08-31 10:20:09 | 47.98282 | 11.46192 | 69° | 144km/h | 10111m | 4.0m/s | -43.2°C | 45.5% | 274.3hPa | 2.9V | 00:00:00 | 00:48:02 | 00:00:00 | |
| OE5DRO-10 | 2026-08-31 10:20:08 | 47.98269 | 11.46141 | 69° | 144km/h | 10107m | 4.3m/s | -43.2°C | 45.3% | 274.5hPa | 2.9V | 02:46:00 | 00:00:00 | 00:00:00 | |
| DO3MHA-12 | 2026-08-31 10:20:05 | 47.98229 | 11.45989 | 69° | 144km/h | 10094m | 4.6m/s | -43.1°C | 45.6% | 275.0hPa | 2.7V | 00:00:00 | 00:47:58 | 00:00:00 | |
| OE5DXL-15 | 2026-08-31 10:20:02 | 47.98190 | 11.45837 | 69° | 142km/h | 10081m | 4.3m/s | -43.1°C | 47.1% | 275.6hPa | 2.7V | 00:00:00 | 00:00:00 | 00:00:00 | |
| DO3MHA-11 | 2026-08-31 10:19:59 | 47.98151 | 11.45684 | 70° | 144km/h | 10067m | 4.6m/s | -43.0°C | 49.9% | 276.1hPa | 2.7V | 00:00:00 | 00:47:52 | 00:00:00 | |
| DB0UT-7 | 2026-08-31 10:19:58 | 47.98138 | 11.45634 | 70° | 142km/h | 10063m | 3.7m/s | -43.0°C | 49.8% | 276.3hPa | 2.7V | 02:47:00 | 00:00:00 | 00:00:00 | |
| DO3MHA-12 | 2026-08-31 10:19:55 | 47.98100 | 11.45482 | 70° | 144km/h | 10050m | 3.9m/s | -42.9°C | 50.0% | 276.9hPa | 2.9V | 00:00:00 | 00:47:48 | 00:00:00 | |
| OE5WHR-10 | 2026-08-31 10:19:54 | 47.98087 | 11.45431 | 70° | 142km/h | 10046m | 3.6m/s | -42.9°C | 49.6% | 277.0hPa | 2.9V | 00:00:00 | 00:47:47 | 00:00:00 | |
| NBG1-10 | 2026-08-31 10:19:52 | 47.98061 | 11.45328 | 70° | 142km/h | 10037m | 3.5m/s | -42.8°C | 49.3% | 277.4hPa | 2.9V | 00:00:00 | 00:47:45 | 00:00:00 | |
| DO3MHA-11 | 2026-08-31 10:19:49 | 47.98023 | 11.45173 | 70° | 142km/h | 10024m | 5.3m/s | -42.7°C | 49.1% | 277.9hPa | 2.9V | 02:47:00 | 00:47:42 | 00:00:00 | |
| OE5DRO-10 | 2026-08-31 10:19:48 | 47.98009 | 11.45122 | 69° | 141km/h | 10019m | 3.5m/s | -42.7°C | 49.0% | 278.2hPa | 2.9V | 00:00:00 | 00:00:00 | 00:00:00 | |
| DO3MHA-11 | 2026-08-31 10:19:39 | 47.97891 | 11.44677 | 68° | 141km/h | 9980m | 3.7m/s | -42.3°C | 47.0% | 279.8hPa | 2.9V | 00:00:00 | 00:47:32 | 00:00:00 | |
| DO3MHA-12 | 2026-08-31 10:19:35 | 47.97838 | 11.44478 | 69° | 139km/h | 9963m | 3.6m/s | -42.2°C | 46.3% | 280.5hPa | 2.9V | 00:00:00 | 00:47:28 | 00:00:00 | |
| DL6DJ-15 | 2026-08-31 10:19:34 | 47.97812 | 11.44378 | 69° | 141km/h | 9954m | 4.3m/s | -42.2°C | 40.2% | 281.0hPa | 2.9V | 00:00:00 | 00:00:00 | 00:00:00 | |
| OE5WHR-10 | 2026-08-31 10:19:33 | 47.97812 | 11.44377 | 70° | 141km/h | 9954m | 4.3m/s | -42.1°C | 45.7% | 280.9hPa | 2.9V | 02:47:00 | 00:00:00 | 00:00:00 | |
| OE5DXL-15 | 2026-08-31 10:19:32 | 47.97799 | 11.44328 | 69° | 142km/h | 9950m | 4.6m/s | -42.1°C | 45.7% | 281.0hPa | 2.9V | 00:00:00 | 00:00:00 | 00:00:00 | |
| DO3MHA-11 | 2026-08-31 10:19:29 | 47.97760 | 11.44183 | 68° | 141km/h | 9936m | 3.4m/s | -42.0°C | 45.9% | 281.6hPa | 2.9V | 00:00:00 | 00:47:22 | 00:00:00 | |
| DB0UT-7 | 2026-08-31 10:19:28 | 47.97747 | 11.44135 | 68° | 142km/h | 9932m | 4.6m/s | -42.0°C | 46.4% | 281.8hPa | 2.9V | 00:00:00 | 00:47:21 | 00:00:00 | |
| DO3MHA-12 | 2026-08-31 10:19:25 | 47.97707 | 11.43991 | 68° | 144km/h | 9919m | 5.0m/s | -41.8°C | 46.8% | 282.3hPa | 2.9V | 00:00:00 | 00:47:18 | 00:00:00 | |
| DH7VM-15 | 2026-08-31 10:19:20 | 47.97652 | 11.43793 | 70° | 146km/h | 9902m | 3.4m/s | -41.7°C | 0% | 0hPa | 2.9V | 00:00:00 | 00:00:00 | 00:00:00 | |
| DO3MHA-12 | 2026-08-31 10:19:15 | 47.97576 | 11.43484 | 70° | 144km/h | 9874m | 7.2m/s | -41.5°C | 44.6% | 284.2hPa | 2.9V | 02:47:00 | 00:47:08 | 00:00:00 | |
| OE5WHR-10 | 2026-08-31 10:19:12 | 47.97535 | 11.43340 | 65° | 142km/h | 9851m | 6.5m/s | -41.2°C | 43.5% | 285.2hPa | 2.7V | 00:00:00 | 00:00:00 | 00:00:00 | |
| OE5DRO-10 | 2026-08-31 10:19:10 | 47.97501 | 11.43239 | 63° | 141km/h | 9839m | 5.4m/s | -41.1°C | 43.2% | 285.7hPa | 2.7V | 02:47:00 | 00:00:00 | 00:00:00 | |
| DO3MHA-11 | 2026-08-31 10:19:09 | 47.97484 | 11.43190 | 62° | 141km/h | 9835m | 2.6m/s | -41.0°C | 42.9% | 285.9hPa | 2.9V | 00:00:00 | 00:47:02 | 00:00:00 | |
| DO8TBO-1 | 2026-08-31 10:19:07 | 47.97434 | 11.43045 | 65° | 137km/h | 9818m | 7.6m/s | -40.9°C | 42.3% | 286.6hPa | 2.9V | 02:47:00 | 00:46:59 | 00:00:00 | |
| DO3MHA-12 | 2026-08-31 10:19:05 | 47.97419 | 11.42996 | 66° | 139km/h | 9811m | 5.9m/s | -40.9°C | 43.2% | 286.8hPa | 2.9V | 00:00:00 | 00:46:58 | 00:00:00 | |
| DL6DJ-15 | 2026-08-31 10:19:03 | 47.97375 | 11.42855 | 65° | 135km/h | 9794m | 4.8m/s | -40.9°C | 40.1% | 287.6hPa | 2.9V | 00:00:00 | 00:00:00 | 00:00:00 | |
| OE5DXL-15 | 2026-08-31 10:19:02 | 47.97375 | 11.42855 | 66° | 137km/h | 9794m | 4.8m/s | -40.8°C | 45.4% | 287.6hPa | 2.9V | 02:47:00 | 00:00:00 | 00:00:00 | |
| DO3MHA-11 | 2026-08-31 10:18:59 | 47.97332 | 11.42712 | 67° | 137km/h | 9779m | 6.1m/s | -40.8°C | 46.2% | 288.2hPa | 2.9V | 00:00:00 | 00:46:52 | 00:00:00 | |
| BAUMI2-15 | 2026-08-31 10:18:58 | 47.97318 | 11.42664 | 66° | 139km/h | 9773m | 5.3m/s | 0°C | 0% | 0hPa | 2.9V | 02:48:00 | 00:46:51 | 00:00:00 | |
| DO3MHA-12 | 2026-08-31 10:18:55 | 47.97272 | 11.42523 | 64° | 135km/h | 9760m | 3.7m/s | -40.7°C | 46.7% | 289.0hPa | 2.9V | 00:00:00 | 00:46:48 | 00:00:00 | |
| BAUMI2-15 | 2026-08-31 10:18:53 | 47.97241 | 11.42430 | 64° | 135km/h | 9751m | 3.3m/s | 0°C | 0% | 0hPa | 2.9V | 00:00:00 | 00:46:46 | 00:00:00 | |
| OE5DRO-10 | 2026-08-31 10:18:51 | 47.97209 | 11.42338 | 63° | 135km/h | 9743m | 2.6m/s | -40.6°C | 45.8% | 289.8hPa | 2.9V | 00:00:00 | 00:00:00 | 00:00:00 | |
| DO3MHA-11 | 2026-08-31 10:18:49 | 47.97178 | 11.42248 | 64° | 135km/h | 9735m | 3.5m/s | -40.5°C | 45.3% | 290.1hPa | 2.9V | 02:48:00 | 00:46:42 | 00:00:00 | |
| BAUMI2-15 | 2026-08-31 10:18:48 | 47.97163 | 11.42203 | 64° | 133km/h | 9731m | 3.8m/s | 0°C | 0% | 0hPa | 2.7V | 00:00:00 | 00:46:41 | 00:00:00 | |
| NBG1-10 | 2026-08-31 10:18:46 | 47.97134 | 11.42113 | 66° | 137km/h | 9723m | 3.7m/s | -40.4°C | 44.4% | 290.7hPa | 2.7V | 00:00:00 | 00:46:39 | 00:00:00 | |
| DO3MHA-12 | 2026-08-31 10:18:45 | 47.97121 | 11.42067 | 67° | 137km/h | 9719m | 4.7m/s | -40.4°C | 43.8% | 290.8hPa | 2.7V | 02:48:00 | 00:46:38 | 00:00:00 | |
| OE5WHR-10 | 2026-08-31 10:18:44 | 47.97107 | 11.42020 | 67° | 137km/h | 9714m | 3.8m/s | -40.3°C | 43.3% | 291.0hPa | 2.9V | 00:00:00 | 00:46:37 | 00:00:00 | |
| BAUMI2-15 | 2026-08-31 10:18:43 | 47.97094 | 11.41973 | 67° | 137km/h | 9710m | 4.2m/s | 0°C | 0% | 0hPa | 2.9V | 02:48:00 | 00:46:36 | 00:00:00 | |
| DO3MHA-11 | 2026-08-31 10:18:39 | 47.97039 | 11.41782 | 67° | 137km/h | 9693m | 4.7m/s | -40.2°C | 42.0% | 291.9hPa | 2.9V | 00:00:00 | 00:46:32 | 00:00:00 | |
| BAUMI2-15 | 2026-08-31 10:18:38 | 47.97025 | 11.41734 | 67° | 137km/h | 9689m | 2.9m/s | 0°C | 0% | 0hPa | 2.9V | 00:00:00 | 00:46:31 | 00:00:00 | |
| DO8TBO-1 | 2026-08-31 10:18:37 | 47.96985 | 11.41592 | 67° | 137km/h | 9677m | 4.8m/s | -40.0°C | 41.0% | 292.6hPa | 2.9V | 00:00:00 | 00:46:28 | 00:00:00 | |
| DO3MHA-12 | 2026-08-31 10:18:35 | 47.96985 | 11.41592 | 67° | 137km/h | 9677m | 4.8m/s | -40.0°C | 41.0% | 292.6hPa | 2.9V | 00:00:00 | 00:46:28 | 00:00:00 | |
| BAUMI2-15 | 2026-08-31 10:18:33 | 47.96957 | 11.41499 | 67° | 137km/h | 9669m | 3.9m/s | 0°C | 0% | 0hPa | 2.9V | 00:00:00 | 00:46:26 | 00:00:00 | |
| DL6DJ-15 | 2026-08-31 10:18:32 | 47.96931 | 11.41404 | 67° | 137km/h | 9661m | 3.2m/s | -39.9°C | 34.7% | 293.3hPa | 2.9V | 00:00:00 | 00:00:00 | 00:00:00 | |
| DF7PN | 2026-08-31 10:18:31 | 47.96917 | 11.41356 | 67° | 139km/h | 9657m | 4.9m/s | 0°C | -1.0% | -1.0hPa | 2.9V | 00:00:00 | 00:00:00 | 00:00:00 | |
| DO3MHA-11 | 2026-08-31 10:18:29 | 47.96904 | 11.41307 | 68° | 135km/h | 9653m | 3.6m/s | -39.8°C | 38.2% | 293.6hPa | 2.9V | 00:00:00 | 00:46:22 | 00:00:00 | |
| DB0UT-7 | 2026-08-31 10:18:28 | 47.96890 | 11.41259 | 68° | 135km/h | 9648m | 5.6m/s | -39.8°C | 38.0% | 293.8hPa | 2.9V | 02:48:00 | 00:46:21 | 00:00:00 | |
| DG1MFX-10 | 2026-08-31 10:18:26 | 47.96876 | 11.41211 | 68° | 137km/h | 9643m | 4.6m/s | -39.7°C | 33.2% | 294.1hPa | 2.7V | 02:48:00 | 00:00:00 | 00:00:00 | |
| DO3MHA-12 | 2026-08-31 10:18:25 | 47.96848 | 11.41117 | 66° | 135km/h | 9634m | 3.9m/s | -39.6°C | 36.9% | 294.4hPa | 2.7V | 00:00:00 | 00:46:18 | 00:00:00 | |
| BAUMI2-15 | 2026-08-31 10:18:23 | 47.96820 | 11.41025 | 66° | 135km/h | 9626m | 3.5m/s | 0°C | 0% | 0hPa | 2.7V | 00:00:00 | 00:46:16 | 00:00:00 | |
| OE5WHR-10 | 2026-08-31 10:18:22 | 47.96806 | 11.40979 | 66° | 137km/h | 9621m | 4.8m/s | 0°C | 0% | 0hPa | 2.7V | 02:48:00 | 00:00:00 | 00:00:00 | |
| DO3MHA-11 | 2026-08-31 10:18:19 | 47.96765 | 11.40839 | 67° | 137km/h | 9609m | 4.2m/s | -39.4°C | 36.3% | 295.5hPa | 2.7V | 02:48:00 | 00:46:12 | 00:00:00 | |
| BAUMI2-15 | 2026-08-31 10:18:18 | 47.96751 | 11.40792 | 67° | 139km/h | 9604m | 4.2m/s | 0°C | 0% | 0hPa | 2.9V | 00:00:00 | 00:46:11 | 00:00:00 | |
| DG1MJG | 2026-08-31 10:18:17 | 47.96751 | 11.40792 | 67° | 137km/h | 9604m | 4.2m/s | -39.4°C | 32.0% | 295.8hPa | 2.9V | 02:48:00 | 00:00:00 | 00:00:00 | |
| DO3MHA-12 | 2026-08-31 10:18:15 | 47.96709 | 11.40649 | 67° | 135km/h | 9592m | 3.7m/s | -39.3°C | 36.1% | 296.3hPa | 2.9V | 02:48:00 | 00:46:08 | 00:00:00 | |
| OE5DRO-10 | 2026-08-31 10:18:13 | 47.96681 | 11.40553 | 66° | 135km/h | 9584m | 3.6m/s | -39.2°C | 35.2% | 296.6hPa | 2.7V | 02:48:00 | 00:00:00 | 00:00:00 | |
| BAUMI2-15 | 2026-08-31 10:18:12 | 47.96667 | 11.40506 | 66° | 135km/h | 9580m | 4.9m/s | 0°C | 0% | 0hPa | 2.9V | 02:48:00 | 00:46:05 | 00:00:00 | |
| DO3MHA-11 | 2026-08-31 10:18:09 | 47.96624 | 11.40367 | 66° | 135km/h | 9568m | 3.2m/s | -39.0°C | 34.8% | 297.3hPa | 2.9V | 00:00:00 | 00:46:02 | 00:00:00 | |
| DO8TBO-1 | 2026-08-31 10:18:07 | 47.96596 | 11.40275 | 66° | 135km/h | 9559m | 3.8m/s | -38.9°C | 34.5% | 297.7hPa | 2.9V | 00:00:00 | 00:46:00 | 00:00:00 | |
| BAUMI2-15 | 2026-08-31 10:18:06 | 47.96582 | 11.40229 | 66° | 135km/h | 9555m | 4.8m/s | 0°C | 0% | 0hPa | 2.9V | 00:00:00 | 00:45:59 | 00:00:00 | |
| DO3MHA-12 | 2026-08-31 10:18:05 | 47.96568 | 11.40183 | 67° | 135km/h | 9551m | 4.0m/s | -38.9°C | 34.0% | 298.1hPa | 2.9V | 00:00:00 | 00:45:58 | 00:00:00 | |
| DF7PN | 2026-08-31 10:18:00 | 47.96485 | 11.39904 | 66° | 133km/h | 9526m | 4.0m/s | 0°C | -1.0% | -1.0hPa | 2.9V | 00:00:00 | 00:00:00 | 00:00:00 | |
| DO3MHA-11 | 2026-08-31 10:17:59 | 47.96485 | 11.39904 | 67° | 135km/h | 9526m | 3.9m/s | -38.7°C | 30.0% | 299.1hPa | 2.9V | 00:00:00 | 00:45:52 | 00:00:00 | |
| DB0UT-7 | 2026-08-31 10:17:58 | 47.96471 | 11.39858 | 66° | 135km/h | 9521m | 4.7m/s | -38.7°C | 30.0% | 299.3hPa | 2.9V | 00:00:00 | 00:00:00 | 00:00:00 | |
| BAUMI2-15 | 2026-08-31 10:17:56 | 47.96443 | 11.39766 | 67° | 135km/h | 9513m | 4.0m/s | 0°C | 0% | 0hPa | 2.9V | 00:00:00 | 00:45:49 | 00:00:00 | |
| DO3MHA-12 | 2026-08-31 10:17:55 | 47.96430 | 11.39720 | 67° | 135km/h | 9509m | 4.3m/s | -38.6°C | 30.1% | 299.9hPa | 2.9V | 00:00:00 | 00:45:48 | 00:00:00 | |
| OE5DRO-10 | 2026-08-31 10:17:54 | 47.96416 | 11.39673 | 67° | 135km/h | 9505m | 3.6m/s | -38.5°C | 30.1% | 300.1hPa | 2.9V | 00:00:00 | 00:00:00 | 00:00:00 | |
| DO3MHA-11 | 2026-08-31 10:17:49 | 47.96350 | 11.39436 | 68° | 135km/h | 9484m | 4.8m/s | -38.4°C | 29.5% | 300.9hPa | 2.9V | 02:49:00 | 00:45:42 | 00:00:00 | |
| BAUMI2-15 | 2026-08-31 10:17:46 | 47.96310 | 11.39296 | 67° | 135km/h | 9472m | 3.5m/s | 0°C | 0% | 0hPa | 2.9V | 00:00:00 | 00:45:39 | 00:00:00 | |
| DO3MHA-12 | 2026-08-31 10:17:45 | 47.96297 | 11.39249 | 67° | 135km/h | 9469m | 4.0m/s | -38.2°C | 29.0% | 301.7hPa | 2.9V | 02:49:00 | 00:45:38 | 00:00:00 | |
| BAUMI2-15 | 2026-08-31 10:17:41 | 47.96243 | 11.39061 | 68° | 135km/h | 9452m | 4.9m/s | 0°C | 0% | 0hPa | 2.7V | 00:00:00 | 00:45:34 | 00:00:00 | |
| OE5WHR-10 | 2026-08-31 10:17:40 | 47.96230 | 11.39014 | 69° | 135km/h | 9448m | 3.5m/s | 0°C | 0% | 0hPa | 2.7V | 00:00:00 | 00:45:33 | 00:00:00 | |
| DO3MHA-11 | 2026-08-31 10:17:39 | 47.96217 | 11.38966 | 68° | 135km/h | 9444m | 5.0m/s | -38.0°C | 28.1% | 302.8hPa | 2.7V | 00:00:00 | 00:45:32 | 00:00:00 | |
| BAUMI2-15 | 2026-08-31 10:17:36 | 47.96178 | 11.38824 | 68° | 133km/h | 9431m | 3.4m/s | 0°C | 0% | 0hPa | 2.7V | 00:00:00 | 00:45:29 | 00:00:00 | |
| DO3MHA-12 | 2026-08-31 10:17:35 | 47.96165 | 11.38777 | 68° | 133km/h | 9427m | 5.0m/s | -37.8°C | 27.5% | 303.5hPa | 2.7V | 00:00:00 | 00:45:28 | 00:00:00 | |
| OE5DXL-15 | 2026-08-31 10:17:32 | 47.96125 | 11.38638 | 67° | 135km/h | 9414m | 3.4m/s | -37.7°C | 26.7% | 304.1hPa | 2.7V | 02:49:00 | 00:00:00 | 00:00:00 | |
| BAUMI2-15 | 2026-08-31 10:17:31 | 47.96111 | 11.38592 | 66° | 131km/h | 9410m | 4.4m/s | 0°C | 0% | 0hPa | 2.7V | 00:00:00 | 00:45:24 | 00:00:00 | |
| DO3MHA-11 | 2026-08-31 10:17:29 | 47.96084 | 11.38501 | 67° | 135km/h | 9403m | 4.0m/s | -37.6°C | 25.4% | 304.6hPa | 2.7V | 00:00:00 | 00:45:22 | 00:00:00 | |
| DB0UT-7 | 2026-08-31 10:17:28 | 47.96070 | 11.38456 | 67° | 135km/h | 9399m | 3.0m/s | -37.6°C | 25.0% | 304.8hPa | 2.7V | 00:00:00 | 00:45:21 | 00:00:00 | |
| BAUMI2-15 | 2026-08-31 10:17:26 | 47.96043 | 11.38365 | 67° | 133km/h | 9392m | 3.5m/s | 0°C | 0% | 0hPa | 2.7V | 00:00:00 | 00:45:19 | 00:00:00 | |
| DO3MHA-12 | 2026-08-31 10:17:25 | 47.96030 | 11.38319 | 68° | 137km/h | 9388m | 4.8m/s | -37.5°C | 23.6% | 305.3hPa | 2.7V | 00:00:00 | 00:45:18 | 00:00:00 | |
| DG1MFX-10 | 2026-08-31 10:17:24 | 47.96030 | 11.38319 | 69° | 133km/h | 9388m | 4.9m/s | -37.5°C | 20.5% | 305.3hPa | 2.7V | 02:49:00 | 00:00:00 | 00:00:00 | |
| BAUMI2-15 | 2026-08-31 10:17:21 | 47.95979 | 11.38127 | 69° | 137km/h | 9373m | 3.3m/s | 0°C | 0% | 0hPa | 2.7V | 00:00:00 | 00:45:14 | 00:00:00 | |
| DO3MHA-11 | 2026-08-31 10:17:19 | 47.95953 | 11.38032 | 69° | 135km/h | 9365m | 3.2m/s | -37.3°C | 22.7% | 306.3hPa | 2.7V | 02:49:00 | 00:45:12 | 00:00:00 | |
| OE5DRO-10 | 2026-08-31 10:17:16 | 47.95913 | 11.37890 | 67° | 135km/h | 9354m | 4.5m/s | -37.2°C | 21.6% | 306.8hPa | 2.9V | 02:49:00 | 00:00:00 | 00:00:00 | |
| DO3MHA-12 | 2026-08-31 10:17:15 | 47.95900 | 11.37844 | 67° | 135km/h | 9350m | 3.4m/s | -37.2°C | 21.3% | 307.0hPa | 2.7V | 02:49:00 | 00:45:08 | 00:00:00 | |
| DH7VM-15 | 2026-08-31 10:17:11 | 47.95859 | 11.37705 | 68° | 135km/h | 9337m | 4.8m/s | -37.2°C | 0% | 0hPa | 2.9V | 00:00:00 | 00:00:00 | 00:00:00 | |
| DO3MHA-11 | 2026-08-31 10:17:09 | 47.95820 | 11.37563 | 68° | 135km/h | 9325m | 4.0m/s | -37.1°C | 20.3% | 308.1hPa | 2.9V | 00:00:00 | 00:45:02 | 00:00:00 | |
| NBG1-10 | 2026-08-31 10:17:07 | 47.95793 | 11.37468 | 68° | 133km/h | 9316m | 3.5m/s | -37.0°C | 20.2% | 308.5hPa | 2.9V | 00:00:00 | 00:45:00 | 00:00:00 | |
| DO3MHA-12 | 2026-08-31 10:17:05 | 47.95767 | 11.37374 | 67° | 133km/h | 9308m | 3.2m/s | -36.9°C | 20.0% | 308.8hPa | 2.9V | 00:00:00 | 00:44:58 | 00:00:00 | |
| DG1MFX-10 | 2026-08-31 10:17:03 | 47.95753 | 11.37327 | 68° | 135km/h | 9304m | 5.1m/s | -37.0°C | 17.0% | 309.0hPa | 2.9V | 02:50:00 | 00:00:00 | 00:00:00 | |
| OE5DXL-15 | 2026-08-31 10:17:02 | 47.95727 | 11.37233 | 68° | 131km/h | 9295m | 5.2m/s | -36.9°C | 19.5% | 309.3hPa | 2.9V | 00:00:00 | 00:00:00 | 00:00:00 | |
| DO3MHA-11 | 2026-08-31 10:16:59 | 47.95690 | 11.37093 | 70° | 133km/h | 9281m | 3.9m/s | -36.8°C | 18.9% | 310.0hPa | 2.9V | 00:00:00 | 00:44:52 | 00:00:00 | |
| DB0UT-7 | 2026-08-31 10:16:58 | 47.95678 | 11.37046 | 70° | 131km/h | 9277m | 5.0m/s | -36.8°C | 18.6% | 310.2hPa | 2.9V | 02:50:00 | 00:00:00 | 00:00:00 | |
| OE5DRO-10 | 2026-08-31 10:16:57 | 47.95666 | 11.36999 | 70° | 131km/h | 9273m | 3.6m/s | -36.8°C | 18.5% | 310.4hPa | 2.7V | 00:00:00 | 00:00:00 | 00:00:00 | |
| DO3MHA-12 | 2026-08-31 10:16:55 | 47.95642 | 11.36905 | 70° | 133km/h | 9264m | 4.0m/s | 0°C | 0% | 0hPa | 2.7V | 00:00:00 | 00:44:48 | 00:00:00 | |
| DO3MHA-11 | 2026-08-31 10:16:49 | 47.95569 | 11.36623 | 70° | 131km/h | 9238m | 4.2m/s | -36.5°C | 17.6% | 311.9hPa | 2.7V | 02:50:00 | 00:44:42 | 00:00:00 | |
| DG1MJG | 2026-08-31 10:16:46 | 47.95545 | 11.36530 | 71° | 131km/h | 9228m | 4.7m/s | -36.5°C | 14.9% | 312.3hPa | 2.9V | 02:50:00 | 00:00:00 | 00:00:00 | |
| DO3MHA-12 | 2026-08-31 10:16:45 | 47.95523 | 11.36437 | 71° | 131km/h | 9220m | 4.8m/s | -36.4°C | 17.3% | 312.7hPa | 2.9V | 02:50:00 | 00:44:38 | 00:00:00 | |
| DG1MFX-10 | 2026-08-31 10:16:43 | 47.95512 | 11.36392 | 71° | 128km/h | 9216m | 3.8m/s | -36.4°C | 14.7% | 312.9hPa | 2.9V | 02:50:00 | 00:00:00 | 00:00:00 | |
| DO3MHA-11 | 2026-08-31 10:16:39 | 47.95456 | 11.36161 | 70° | 131km/h | 9195m | 4.4m/s | -36.3°C | 14.0% | 313.8hPa | 2.9V | 00:00:00 | 00:44:32 | 00:00:00 | |
| OE5DRO-10 | 2026-08-31 10:16:38 | 47.95445 | 11.36114 | 69° | 130km/h | 9191m | 3.3m/s | -36.3°C | 13.1% | 314.0hPa | 2.9V | 00:00:00 | 00:00:00 | 00:00:00 | |
| DO3MHA-12 | 2026-08-31 10:16:35 | 47.95408 | 11.35975 | 68° | 130km/h | 9178m | 4.7m/s | -36.2°C | 11.6% | 314.5hPa | 2.9V | 00:00:00 | 00:44:28 | 00:00:00 | |
| NBG1-10 | 2026-08-31 10:16:34 | 47.95395 | 11.35929 | 68° | 128km/h | 9174m | 3.6m/s | -36.2°C | 11.3% | 314.8hPa | 2.9V | 00:00:00 | 00:44:27 | 00:00:00 | |
| OE5DXL-15 | 2026-08-31 10:16:32 | 47.95369 | 11.35838 | 68° | 128km/h | 9166m | 3.0m/s | -36.1°C | 10.7% | 315.2hPa | 2.9V | 00:00:00 | 00:00:00 | 00:00:00 | |
| DO3MHA-11 | 2026-08-31 10:16:29 | 47.95330 | 11.35702 | 68° | 128km/h | 9154m | 4.8m/s | -36.1°C | 10.2% | 315.7hPa | 2.9V | 00:00:00 | 00:44:22 | 00:00:00 | |
| DB0UT-7 | 2026-08-31 10:16:28 | 47.95318 | 11.35658 | 68° | 126km/h | 9150m | 3.5m/s | -36.0°C | 10.2% | 315.9hPa | 2.9V | 00:00:00 | 00:44:21 | 00:00:00 | |
| DL6DJ-15 | 2026-08-31 10:16:27 | 47.95306 | 11.35613 | 67° | 128km/h | 9146m | 4.8m/s | -36.1°C | 8.4% | 316.1hPa | 2.9V | 00:00:00 | 00:00:00 | 00:00:00 | |
| DO3MHA-12 | 2026-08-31 10:16:25 | 47.95281 | 11.35523 | 68° | 128km/h | 9138m | 3.3m/s | -36.0°C | 10.7% | 316.4hPa | 2.9V | 00:00:00 | 00:44:18 | 00:00:00 | |
| DG1MFX-10 | 2026-08-31 10:16:23 | 47.95269 | 11.35478 | 69° | 128km/h | 9134m | 4.6m/s | -36.1°C | 9.2% | 316.6hPa | 2.9V | 02:50:00 | 00:00:00 | 00:00:00 | |
| DO3MHA-11 | 2026-08-31 10:16:19 | 47.95207 | 11.35257 | 67° | 128km/h | 9113m | 3.3m/s | -35.9°C | 12.1% | 317.5hPa | 2.9V | 02:50:00 | 00:44:12 | 00:00:00 | |
| DO3MHA-12 | 2026-08-31 10:16:15 | 47.95154 | 11.35080 | 67° | 126km/h | 9098m | 3.3m/s | -35.8°C | 12.3% | 318.2hPa | 2.9V | 02:50:00 | 00:44:08 | 00:00:00 | |
| DO3MHA-11 | 2026-08-31 10:16:09 | 47.95085 | 11.34816 | 69° | 126km/h | 9075m | 4.3m/s | -35.6°C | 12.7% | 319.3hPa | 2.7V | 00:00:00 | 00:44:02 | 00:00:00 | |
| DO3MHA-12 | 2026-08-31 10:16:05 | 47.95035 | 11.34642 | 66° | 124km/h | 9059m | 3.5m/s | -35.6°C | 12.8% | 320.0hPa | 2.7V | 00:00:00 | 00:43:58 | 00:00:00 | |
| DG1MFX-10 | 2026-08-31 10:16:02 | 47.95008 | 11.34556 | 66° | 126km/h | 9051m | 4.0m/s | -35.6°C | 10.8% | 320.4hPa | 2.7V | 02:51:00 | 00:00:00 | 00:00:00 | |
| DL6DJ-15 | 2026-08-31 10:15:56 | 47.94919 | 11.34257 | 66° | 124km/h | 9023m | 3.6m/s | -35.4°C | 10.9% | 321.8hPa | 2.7V | 00:00:00 | 00:00:00 | 00:00:00 | |
| DO3MHA-12 | 2026-08-31 10:15:55 | 47.94906 | 11.34214 | 66° | 122km/h | 9019m | 3.9m/s | -35.4°C | 12.9% | 321.8hPa | 2.7V | 00:00:00 | 00:43:48 | 00:00:00 | |
| OE5WHR-10 | 2026-08-31 10:15:51 | 47.94855 | 11.34046 | 65° | 120km/h | 9003m | 4.0m/s | 0°C | 0% | 0hPa | 2.7V | 00:00:00 | 00:00:00 | 00:00:00 | |
| DO3MHA-11 | 2026-08-31 10:15:49 | 47.94827 | 11.33963 | 64° | 122km/h | 8995m | 4.3m/s | -35.2°C | 13.0% | 323.0hPa | 2.7V | 02:51:00 | 00:43:42 | 00:00:00 | |
| DO3MHA-12 | 2026-08-31 10:15:45 | 47.94772 | 11.33796 | 64° | 119km/h | 8978m | 4.4m/s | -35.2°C | 13.0% | 323.8hPa | 2.9V | 02:51:00 | 00:43:38 | 00:00:00 | |
| DG1MJG | 2026-08-31 10:15:44 | 47.94772 | 11.33796 | 65° | 124km/h | 8978m | 4.4m/s | -35.2°C | 11.0% | 323.8hPa | 2.9V | 02:51:00 | 00:00:00 | 00:00:00 | |
| DG1MFX-10 | 2026-08-31 10:15:42 | 47.94745 | 11.33712 | 66° | 122km/h | 8970m | 4.1m/s | -35.2°C | 11.2% | 324.2hPa | 2.9V | 02:51:00 | 00:00:00 | 00:00:00 | |
| OE5DRO-10 | 2026-08-31 10:15:41 | 47.94719 | 11.33631 | 66° | 117km/h | 8962m | 4.2m/s | -35.1°C | 13.4% | 324.6hPa | 2.9V | 00:00:00 | 00:00:00 | 00:00:00 | |
| DO3MHA-11 | 2026-08-31 10:15:39 | 47.94694 | 11.33550 | 64° | 117km/h | 8953m | 4.6m/s | -35.1°C | 13.5% | 324.9hPa | 2.9V | 00:00:00 | 00:43:32 | 00:00:00 | |
| DO3MHA-12 | 2026-08-31 10:15:35 | 47.94640 | 11.33394 | 63° | 117km/h | 8937m | 3.6m/s | -34.9°C | 14.3% | 325.7hPa | 2.9V | 00:00:00 | 00:43:28 | 00:00:00 | |
| OE5DXL-15 | 2026-08-31 10:15:31 | 47.94587 | 11.33236 | 65° | 115km/h | 8921m | 3.5m/s | -34.8°C | 14.6% | 326.5hPa | 2.9V | 00:00:00 | 00:00:00 | 00:00:00 | |
| OE5WHR-10 | 2026-08-31 10:15:30 | 47.94575 | 11.33196 | 65° | 115km/h | 8917m | 4.3m/s | 0°C | 0% | 0hPa | 2.9V | 00:00:00 | 00:43:23 | 00:00:00 | |
| DO3MHA-11 | 2026-08-31 10:15:29 | 47.94562 | 11.33157 | 66° | 115km/h | 8913m | 2.8m/s | -34.8°C | 14.5% | 326.9hPa | 2.9V | 00:00:00 | 00:43:22 | 00:00:00 | |
| NBG1-10 | 2026-08-31 10:15:28 | 47.94550 | 11.33118 | 66° | 115km/h | 8909m | 4.9m/s | -34.8°C | 14.4% | 327.1hPa | 2.9V | 00:00:00 | 00:43:21 | 00:00:00 | |
| DO3MHA-12 | 2026-08-31 10:15:25 | 47.94513 | 11.33000 | 65° | 115km/h | 8896m | 3.9m/s | -34.8°C | 14.6% | 327.6hPa | 2.9V | 00:00:00 | 00:43:18 | 00:00:00 | |
| OE5DRO-10 | 2026-08-31 10:15:22 | 47.94476 | 11.32882 | 66° | 115km/h | 8883m | 4.6m/s | -34.6°C | 14.5% | 328.3hPa | 2.9V | 02:51:00 | 00:00:00 | 00:00:00 | |
| DG1MFX-10 | 2026-08-31 10:15:21 | 47.94476 | 11.32882 | 66° | 115km/h | 8883m | 4.6m/s | -34.7°C | 12.4% | 328.3hPa | 2.9V | 02:52:00 | 00:00:00 | 00:00:00 | |
| DO3MHA-11 | 2026-08-31 10:15:19 | 47.94440 | 11.32762 | 67° | 115km/h | 8871m | 3.7m/s | -34.6°C | 14.6% | 328.8hPa | 2.9V | 02:51:00 | 00:43:12 | 00:00:00 | |
| DO3MHA-12 | 2026-08-31 10:15:15 | 47.94393 | 11.32603 | 66° | 115km/h | 8855m | 3.8m/s | -34.4°C | 14.3% | 329.5hPa | 2.7V | 02:51:00 | 00:43:08 | 00:00:00 | |
| DG1MJG | 2026-08-31 10:15:14 | 47.94393 | 11.32603 | 66° | 113km/h | 8855m | 3.8m/s | -34.5°C | 12.2% | 329.6hPa | 2.7V | 02:52:00 | 00:00:00 | 00:00:00 | |
| DO3MHA-11 | 2026-08-31 10:15:09 | 47.94323 | 11.32369 | 68° | 115km/h | 8830m | 3.6m/s | -34.3°C | 13.8% | 330.7hPa | 2.7V | 00:00:00 | 00:43:02 | 00:00:00 | |
| DO3MHA-12 | 2026-08-31 10:15:05 | 47.94278 | 11.32207 | 68° | 113km/h | 8814m | 3.7m/s | -34.1°C | 14.4% | 331.5hPa | 2.7V | 00:00:00 | 00:42:58 | 00:00:00 | |
| DL6DJ-15 | 2026-08-31 10:14:54 | 47.94152 | 11.31773 | 67° | 115km/h | 8768m | 4.7m/s | -33.9°C | 12.8% | 333.7hPa | 2.7V | 00:00:00 | 00:00:00 | 00:00:00 | |
| DO3MHA-11 | 2026-08-31 10:14:49 | 47.94098 | 11.31571 | 69° | 115km/h | 8746m | 4.8m/s | -33.7°C | 14.3% | 334.7hPa | 2.7V | 02:52:00 | 00:42:42 | 00:00:00 | |
| DO3MHA-12 | 2026-08-31 10:14:45 | 47.94057 | 11.31409 | 70° | 115km/h | 8729m | 3.9m/s | -33.6°C | 14.9% | 335.5hPa | 2.9V | 02:52:00 | 00:42:38 | 00:00:00 | |
| OE5DRO-10 | 2026-08-31 10:14:44 | 47.94046 | 11.31369 | 70° | 115km/h | 8725m | 3.9m/s | -33.5°C | 15.0% | 335.7hPa | 2.9V | 00:00:00 | 00:00:00 | 00:00:00 | |
| DO3MHA-11 | 2026-08-31 10:14:39 | 47.93994 | 11.31166 | 70° | 115km/h | 8704m | 4.9m/s | -33.4°C | 14.1% | 336.7hPa | 2.9V | 00:00:00 | 00:42:32 | 00:00:00 | |
| DO3MHA-12 | 2026-08-31 10:14:35 | 47.93953 | 11.31004 | 70° | 113km/h | 8687m | 5.1m/s | -33.3°C | 12.0% | 337.5hPa | 2.9V | 00:00:00 | 00:42:28 | 00:00:00 | |
| DO8TBO-1 | 2026-08-31 10:14:34 | 47.93932 | 11.30924 | 69° | 108km/h | 8678m | 4.9m/s | 0°C | 0% | 0hPa | 2.9V | 02:52:00 | 00:42:26 | 00:00:00 | |
| OE5DXL-15 | 2026-08-31 10:14:31 | 47.93911 | 11.30844 | 69° | 113km/h | 8670m | 4.4m/s | -33.2°C | 10.4% | 338.3hPa | 2.9V | 02:52:00 | 00:42:24 | 00:00:00 | |
| DO3MHA-11 | 2026-08-31 10:14:29 | 47.93890 | 11.30764 | 69° | 113km/h | 8662m | 4.5m/s | -33.2°C | 10.2% | 338.7hPa | 2.9V | 00:00:00 | 00:42:22 | 00:00:00 | |
| DB0UT-7 | 2026-08-31 10:14:28 | 47.93879 | 11.30725 | 68° | 113km/h | 8657m | 3.9m/s | -33.1°C | 10.0% | 338.9hPa | 2.9V | 00:00:00 | 00:42:21 | 00:00:00 | |
| DO3MHA-12 | 2026-08-31 10:14:25 | 47.93846 | 11.30605 | 69° | 113km/h | 8644m | 5.1m/s | -33.0°C | 9.1% | 339.5hPa | 2.9V | 00:00:00 | 00:42:18 | 00:00:00 | |
| DH7VM-15 | 2026-08-31 10:14:24 | 47.93847 | 11.30605 | 69° | 115km/h | 8644m | 5.2m/s | -33.1°C | 0% | 0hPa | 2.9V | 00:00:00 | 00:00:00 | 00:00:00 | |
| DL6DJ-15 | 2026-08-31 10:14:23 | 47.93825 | 11.30524 | 68° | 113km/h | 8636m | 4.8m/s | -33.0°C | 6.8% | 339.9hPa | 2.9V | 00:00:00 | 00:00:00 | 00:00:00 | |
| NBG1-10 | 2026-08-31 10:14:22 | 47.93815 | 11.30485 | 69° | 111km/h | 8631m | 4.0m/s | -32.9°C | 7.8% | 340.0hPa | 2.9V | 02:52:00 | 00:42:15 | 00:00:00 | |
| DO3MHA-11 | 2026-08-31 10:14:19 | 47.93784 | 11.30366 | 69° | 113km/h | 8619m | 4.7m/s | -32.8°C | 6.9% | 340.7hPa | 2.7V | 02:52:00 | 00:42:12 | 00:00:00 | |
| DO3MHA-12 | 2026-08-31 10:14:15 | 47.93741 | 11.30208 | 68° | 113km/h | 8603m | 4.4m/s | -32.8°C | 6.5% | 341.5hPa | 2.9V | 02:52:00 | 00:42:08 | 00:00:00 | |
| DG1MJG | 2026-08-31 10:14:13 | 47.93730 | 11.30168 | 68° | 113km/h | 8599m | 4.0m/s | -32.8°C | 5.2% | 341.8hPa | 2.9V | 02:53:00 | 00:00:00 | 00:00:00 | |
| DO3MHA-11 | 2026-08-31 10:14:09 | 47.93675 | 11.29970 | 68° | 111km/h | 8579m | 3.5m/s | -32.7°C | 6.9% | 342.6hPa | 2.9V | 00:00:00 | 00:42:02 | 00:00:00 | |
| OE5DRO-10 | 2026-08-31 10:14:06 | 47.93642 | 11.29853 | 69° | 108km/h | 8567m | 4.8m/s | -32.6°C | 6.9% | 343.3hPa | 2.9V | 00:00:00 | 00:00:00 | 00:00:00 | |
| DO3MHA-12 | 2026-08-31 10:14:05 | 47.93632 | 11.29814 | 69° | 111km/h | 8562m | 4.2m/s | -32.6°C | 6.9% | 343.4hPa | 2.9V | 00:00:00 | 00:41:58 | 00:00:00 | |
| DL6DJ-15 | 2026-08-31 10:13:52 | 47.93494 | 11.29316 | 67° | 106km/h | 8508m | 3.3m/s | -32.3°C | 5.1% | 346.2hPa | 2.9V | 00:00:00 | 00:00:00 | 00:00:00 | |
| DO3MHA-11 | 2026-08-31 10:13:49 | 47.93465 | 11.29206 | 69° | 104km/h | 8497m | 3.3m/s | -32.2°C | 6.5% | 346.7hPa | 2.9V | 02:53:00 | 00:41:42 | 00:00:00 | |
| OE5DRO-10 | 2026-08-31 10:13:47 | 47.93445 | 11.29135 | 66° | 104km/h | 8489m | 3.7m/s | -32.1°C | 6.5% | 347.0hPa | 2.9V | 00:00:00 | 00:00:00 | 00:00:00 | |
| DO3MHA-12 | 2026-08-31 10:13:45 | 47.93422 | 11.29064 | 64° | 106km/h | 8481m | 4.5m/s | -32.0°C | 6.5% | 347.5hPa | 2.9V | 02:53:00 | 00:41:38 | 00:00:00 | |
| DG1MJG | 2026-08-31 10:13:43 | 47.93410 | 11.29027 | 65° | 106km/h | 8476m | 5.2m/s | -32.1°C | 5.2% | 347.8hPa | 2.9V | 02:54:00 | 00:00:00 | 00:00:00 | |
| DO3MHA-11 | 2026-08-31 10:13:39 | 47.93353 | 11.28847 | 65° | 102km/h | 8454m | 4.2m/s | -32.1°C | 6.9% | 348.9hPa | 2.9V | 00:00:00 | 00:41:32 | 00:00:00 | |
| DG1MFX-10 | 2026-08-31 10:13:38 | 47.93353 | 11.28847 | 66° | 110km/h | 8454m | 4.2m/s | -32.1°C | 5.6% | 348.9hPa | 2.9V | 02:54:00 | 00:00:00 | 00:00:00 | |
| DO3MHA-12 | 2026-08-31 10:13:35 | 47.93311 | 11.28700 | 71° | 99km/h | 8438m | 4.9m/s | -32.1°C | 7.1% | 349.6hPa | 2.9V | 00:00:00 | 00:41:28 | 00:00:00 | |
| OE5DXL-15 | 2026-08-31 10:13:30 | 47.93265 | 11.28525 | 66° | 99km/h | 8415m | 4.5m/s | -31.9°C | 7.3% | 350.7hPa | 2.9V | 00:00:00 | 00:00:00 | 00:00:00 | |
| DO3MHA-11 | 2026-08-31 10:13:29 | 47.93255 | 11.28491 | 66° | 97km/h | 8410m | 6.0m/s | -31.9°C | 7.3% | 351.0hPa | 2.9V | 00:00:00 | 00:41:22 | 00:00:00 | |
| DB0UT-7 | 2026-08-31 10:13:28 | 47.93245 | 11.28458 | 67° | 99km/h | 8405m | 4.2m/s | -31.8°C | 7.5% | 351.3hPa | 2.9V | 00:00:00 | 00:41:21 | 00:00:00 | |
| DO3MHA-12 | 2026-08-31 10:13:25 | 47.93215 | 11.28357 | 67° | 99km/h | 8393m | 3.3m/s | -31.8°C | 7.7% | 351.9hPa | 2.9V | 00:00:00 | 00:41:18 | 00:00:00 | |
| DL6DJ-15 | 2026-08-31 10:13:21 | 47.93174 | 11.28224 | 64° | 99km/h | 8375m | 3.6m/s | -31.8°C | 6.4% | 352.8hPa | 2.9V | 00:00:00 | 00:00:00 | 00:00:00 | |
| DO3MHA-11 | 2026-08-31 10:13:19 | 47.93152 | 11.28158 | 64° | 99km/h | 8367m | 2.9m/s | -31.6°C | 7.6% | 353.2hPa | 2.9V | 02:53:00 | 00:41:12 | 00:00:00 | |
| DG1MFX-10 | 2026-08-31 10:13:18 | 47.93152 | 11.28158 | 64° | 99km/h | 8367m | 3.0m/s | -31.7°C | 6.3% | 353.2hPa | 2.9V | 02:54:00 | 00:00:00 | 00:00:00 | |
| NBG1-10 | 2026-08-31 10:13:16 | 47.93119 | 11.28058 | 65° | 99km/h | 8355m | 5.0m/s | -31.6°C | 7.8% | 353.8hPa | 2.9V | 00:00:00 | 00:41:09 | 00:00:00 | |
| DO3MHA-12 | 2026-08-31 10:13:15 | 47.93108 | 11.28024 | 66° | 97km/h | 8350m | 3.5m/s | -31.6°C | 7.9% | 354.0hPa | 2.9V | 02:53:00 | 00:41:08 | 00:00:00 | |
| DG1MJG | 2026-08-31 10:13:12 | 47.93088 | 11.27957 | 67° | 99km/h | 8342m | 3.3m/s | -31.5°C | 6.7% | 354.5hPa | 2.7V | 02:54:00 | 00:00:00 | 00:00:00 | |
| DO3MHA-11 | 2026-08-31 10:13:09 | 47.93049 | 11.27823 | 67° | 99km/h | 8325m | 3.2m/s | -31.4°C | 8.4% | 355.2hPa | 2.7V | 00:00:00 | 00:41:02 | 00:00:00 | |
| DO3MHA-12 | 2026-08-31 10:13:05 | 47.93008 | 11.27688 | 66° | 99km/h | 8309m | 3.8m/s | -31.3°C | 8.7% | 356.0hPa | 2.7V | 00:00:00 | 00:40:58 | 00:00:00 | |
| DL6DJ-15 | 2026-08-31 10:12:50 | 47.92859 | 11.27184 | 66° | 95km/h | 8246m | 4.6m/s | -30.9°C | 8.0% | 359.2hPa | 2.7V | 00:00:00 | 00:00:00 | 00:00:00 | |
| DO3MHA-11 | 2026-08-31 10:12:49 | 47.92849 | 11.27151 | 67° | 97km/h | 8242m | 3.5m/s | -30.8°C | 9.6% | 359.3hPa | 2.7V | 02:54:00 | 00:40:42 | 00:00:00 | |
| DO3MHA-12 | 2026-08-31 10:12:45 | 47.92808 | 11.27018 | 66° | 97km/h | 8227m | 4.2m/s | -30.7°C | 9.9% | 360.1hPa | 2.9V | 02:54:00 | 00:40:38 | 00:00:00 | |
| NBG1-10 | 2026-08-31 10:12:43 | 47.92787 | 11.26951 | 66° | 97km/h | 8219m | 4.0m/s | -30.6°C | 10.0% | 360.5hPa | 2.7V | 02:54:00 | 00:40:36 | 00:00:00 | |
| OE5WHR-10 | 2026-08-31 10:12:41 | 47.92767 | 11.26883 | 66° | 95km/h | 8211m | 4.4m/s | 0°C | 0% | 0hPa | 2.9V | 00:00:00 | 00:40:34 | 00:00:00 | |
| DO3MHA-11 | 2026-08-31 10:12:39 | 47.92747 | 11.26817 | 66° | 95km/h | 8204m | 3.3m/s | -30.5°C | 10.1% | 361.3hPa | 2.9V | 00:00:00 | 00:40:32 | 00:00:00 | |
| DG1MFX-10 | 2026-08-31 10:12:38 | 47.92746 | 11.26817 | 67° | 97km/h | 8204m | 3.3m/s | -30.6°C | 8.7% | 361.3hPa | 2.9V | 02:54:00 | 00:00:00 | 00:00:00 | |
| DO3MHA-12 | 2026-08-31 10:12:35 | 47.92707 | 11.26685 | 67° | 95km/h | 8189m | 4.0m/s | -30.4°C | 10.3% | 362.1hPa | 2.9V | 00:00:00 | 00:40:28 | 00:00:00 | |
| OE5DRO-10 | 2026-08-31 10:12:31 | 47.92668 | 11.26553 | 67° | 95km/h | 8174m | 2.7m/s | -30.3°C | 10.4% | 362.8hPa | 2.9V | 00:00:00 | 00:00:00 | 00:00:00 | |
| DO3MHA-11 | 2026-08-31 10:12:29 | 47.92649 | 11.26487 | 67° | 97km/h | 8166m | 4.4m/s | -30.2°C | 10.2% | 363.3hPa | 2.9V | 00:00:00 | 00:40:22 | 00:00:00 | |
| DB0UT-7 | 2026-08-31 10:12:28 | 47.92640 | 11.26455 | 66° | 95km/h | 8161m | 4.1m/s | -30.2°C | 10.1% | 363.4hPa | 2.9V | 02:54:00 | 00:40:21 | 00:00:00 | |
| DO3MHA-12 | 2026-08-31 10:12:25 | 47.92609 | 11.26356 | 66° | 97km/h | 8150m | 3.0m/s | -30.1°C | 10.0% | 364.1hPa | 2.9V | 00:00:00 | 00:40:18 | 00:00:00 | |
| DO3MHA-11 | 2026-08-31 10:12:19 | 47.92548 | 11.26158 | 67° | 95km/h | 8126m | 2.9m/s | -29.8°C | 9.8% | 365.4hPa | 2.9V | 02:54:00 | 00:40:12 | 00:00:00 | |
| DG1MFX-10 | 2026-08-31 10:12:17 | 47.92538 | 11.26125 | 68° | 97km/h | 8122m | 4.5m/s | -29.9°C | 8.4% | 365.6hPa | 2.9V | 02:54:00 | 00:00:00 | 00:00:00 | |
| DO3MHA-12 | 2026-08-31 10:12:15 | 47.92510 | 11.26026 | 67° | 95km/h | 8111m | 4.1m/s | -29.7°C | 9.4% | 366.1hPa | 2.9V | 02:54:00 | 00:40:08 | 00:00:00 | |
| DB0NH | 2026-08-31 10:12:12 | 47.92479 | 11.25928 | 64° | 95km/h | 8098m | 2.9m/s | -29.6°C | 9.3% | 366.8hPa | 2.9V | 00:00:00 | 00:40:05 | 00:00:00 | |
| NBG1-10 | 2026-08-31 10:12:10 | 47.92457 | 11.25864 | 64° | 95km/h | 8090m | 3.0m/s | -29.5°C | 9.2% | 367.2hPa | 2.9V | 00:00:00 | 00:40:03 | 00:00:00 | |
| DO3MHA-11 | 2026-08-31 10:12:09 | 47.92446 | 11.25832 | 64° | 95km/h | 8087m | 4.5m/s | -29.5°C | 9.3% | 367.4hPa | 2.9V | 00:00:00 | 00:40:02 | 00:00:00 | |
| DO3MHA-12 | 2026-08-31 10:12:05 | 47.92406 | 11.25703 | 66° | 95km/h | 8071m | 4.5m/s | -29.4°C | 9.6% | 368.2hPa | 2.9V | 00:00:00 | 00:39:58 | 00:00:00 | |
| DL6DJ-15 | 2026-08-31 10:11:48 | 47.92222 | 11.25083 | 66° | 95km/h | 7998m | 3.2m/s | -29.0°C | 8.9% | 372.0hPa | 2.9V | 00:00:00 | 00:00:00 | 00:00:00 | |
| DO3MHA-12 | 2026-08-31 10:11:45 | 47.92212 | 11.25050 | 66° | 95km/h | 7994m | 3.8m/s | -28.9°C | 10.4% | 372.2hPa | 2.9V | 02:55:00 | 00:39:38 | 00:00:00 | |
| OE5DRO-10 | 2026-08-31 10:11:44 | 47.92201 | 11.25017 | 66° | 95km/h | 7991m | 2.8m/s | -28.9°C | 10.5% | 372.3hPa | 2.9V | 00:00:00 | 00:00:00 | 00:00:00 | |
| DB0NH | 2026-08-31 10:11:42 | 47.92181 | 11.24951 | 65° | 95km/h | 7984m | 3.2m/s | -28.9°C | 10.7% | 372.7hPa | 2.9V | 02:55:00 | 00:39:35 | 00:00:00 | |
| DO8TBO-1 | 2026-08-31 10:11:41 | 47.92171 | 11.24919 | 66° | 95km/h | 7980m | 3.9m/s | 0°C | 0% | 0hPa | 2.9V | 00:00:00 | 00:39:34 | 00:00:00 | |
| DO3MHA-11 | 2026-08-31 10:11:39 | 47.92151 | 11.24854 | 67° | 95km/h | 7973m | 3.4m/s | -28.8°C | 10.9% | 373.3hPa | 2.9V | 00:00:00 | 00:39:32 | 00:00:00 | |
| NBG1-10 | 2026-08-31 10:11:37 | 47.92133 | 11.24789 | 69° | 95km/h | 7965m | 2.5m/s | -28.8°C | 11.2% | 373.7hPa | 2.9V | 00:00:00 | 00:39:30 | 00:00:00 | |
| DG1MFX-10 | 2026-08-31 10:11:36 | 47.92133 | 11.24789 | 70° | 93km/h | 7965m | 2.6m/s | -28.9°C | 9.8% | 373.7hPa | 2.9V | 02:55:00 | 00:00:00 | 00:00:00 | |
| DO3MHA-12 | 2026-08-31 10:11:35 | 47.92116 | 11.24723 | 69° | 97km/h | 7958m | 3.4m/s | -28.8°C | 11.7% | 374.0hPa | 2.9V | 00:00:00 | 00:39:28 | 00:00:00 | |
| DO3MHA-11 | 2026-08-31 10:11:29 | 47.92058 | 11.24524 | 66° | 95km/h | 7935m | 4.0m/s | -28.7°C | 12.3% | 375.3hPa | 2.9V | 00:00:00 | 00:39:22 | 00:00:00 | |
| DB0UT-7 | 2026-08-31 10:11:28 | 47.92048 | 11.24492 | 66° | 95km/h | 7931m | 3.7m/s | -28.7°C | 12.3% | 375.4hPa | 2.9V | 00:00:00 | 00:39:21 | 00:00:00 | |
| DO3MHA-12 | 2026-08-31 10:11:25 | 47.92018 | 11.24393 | 67° | 97km/h | 7920m | 3.8m/s | -28.7°C | 12.5% | 376.1hPa | 2.9V | 00:00:00 | 00:39:18 | 00:00:00 | |
| DO3MHA-11 | 2026-08-31 10:11:19 | 47.91962 | 11.24192 | 69° | 95km/h | 7898m | 4.0m/s | -28.6°C | 12.4% | 377.2hPa | 2.9V | 02:55:00 | 00:39:12 | 00:00:00 | |
| DL6DJ-15 | 2026-08-31 10:11:17 | 47.91936 | 11.24091 | 68° | 95km/h | 7886m | 4.2m/s | -28.6°C | 10.7% | 377.8hPa | 2.9V | 00:00:00 | 00:00:00 | 00:00:00 | |
| DO3MHA-12 | 2026-08-31 10:11:15 | 47.91927 | 11.24058 | 69° | 95km/h | 7883m | 3.1m/s | -28.5°C | 12.2% | 378.0hPa | 2.9V | 02:55:00 | 00:39:08 | 00:00:00 | |
| DB0NH | 2026-08-31 10:11:12 | 47.91899 | 11.23959 | 67° | 93km/h | 7871m | 4.4m/s | -28.4°C | 12.2% | 378.7hPa | 2.9V | 00:00:00 | 00:39:05 | 00:00:00 | |
| DO8TBO-1 | 2026-08-31 10:11:10 | 47.91880 | 11.23895 | 67° | 93km/h | 7864m | 3.7m/s | 0°C | 0% | 0hPa | 2.9V | 00:00:00 | 00:39:03 | 00:00:00 | |
| DO3MHA-11 | 2026-08-31 10:11:09 | 47.91871 | 11.23862 | 67° | 95km/h | 7860m | 3.3m/s | -28.4°C | 12.2% | 379.2hPa | 2.9V | 00:00:00 | 00:39:02 | 00:00:00 | |
| DG1MJG | 2026-08-31 10:11:08 | 47.91871 | 11.23862 | 67° | 93km/h | 7860m | 3.3m/s | -28.4°C | 10.8% | 379.3hPa | 2.9V | 02:56:00 | 00:00:00 | 00:00:00 | |
| OE5DRO-10 | 2026-08-31 10:11:06 | 47.91843 | 11.23763 | 70° | 93km/h | 7850m | 3.9m/s | -28.3°C | 12.3% | 379.7hPa | 2.9V | 02:55:00 | 00:00:00 | 00:00:00 | |
| DO3MHA-12 | 2026-08-31 10:11:05 | 47.91834 | 11.23729 | 70° | 93km/h | 7847m | 2.7m/s | -28.3°C | 12.2% | 379.9hPa | 2.9V | 00:00:00 | 00:38:58 | 00:00:00 | |
| NBG1-10 | 2026-08-31 10:11:04 | 47.91826 | 11.23696 | 69° | 93km/h | 7843m | 4.3m/s | -28.3°C | 12.1% | 380.0hPa | 2.9V | 02:55:00 | 00:38:57 | 00:00:00 | |
| DL6DJ-15 | 2026-08-31 10:10:46 | 47.91662 | 11.23073 | 70° | 95km/h | 7774m | 3.3m/s | -27.8°C | 9.8% | 383.9hPa | 2.9V | 00:00:00 | 00:00:00 | 00:00:00 | |
| DO3MHA-12 | 2026-08-31 10:10:45 | 47.91662 | 11.23073 | 71° | 91km/h | 7774m | 3.2m/s | -27.7°C | 11.1% | 383.9hPa | 2.9V | 02:56:00 | 00:38:38 | 00:00:00 | |
| OE5DRO-10 | 2026-08-31 10:10:43 | 47.91645 | 11.23007 | 70° | 91km/h | 7766m | 3.3m/s | -27.7°C | 10.9% | 384.3hPa | 2.9V | 00:00:00 | 00:00:00 | 00:00:00 | |
| DB0NH | 2026-08-31 10:10:42 | 47.91637 | 11.22975 | 69° | 93km/h | 7763m | 3.5m/s | -27.7°C | 10.9% | 384.4hPa | 2.9V | 00:00:00 | 00:38:35 | 00:00:00 | |
| DO8TBO-1 | 2026-08-31 10:10:40 | 47.91620 | 11.22912 | 68° | 89km/h | 7756m | 3.7m/s | 0°C | 0% | 0hPa | 2.9V | 00:00:00 | 00:38:33 | 00:00:00 | |
| DO3MHA-11 | 2026-08-31 10:10:39 | 47.91611 | 11.22881 | 68° | 93km/h | 7753m | 2.9m/s | -27.6°C | 11.0% | 385.0hPa | 2.9V | 00:00:00 | 00:38:32 | 00:00:00 | |
| DG1MJG | 2026-08-31 10:10:38 | 47.91611 | 11.22881 | 69° | 89km/h | 7753m | 3.0m/s | -27.7°C | 9.7% | 385.0hPa | 2.9V | 02:56:00 | 00:00:00 | 00:00:00 | |
| DO3MHA-12 | 2026-08-31 10:10:35 | 47.91578 | 11.22752 | 71° | 93km/h | 7739m | 4.1m/s | -27.5°C | 11.3% | 385.7hPa | 2.9V | 00:00:00 | 00:38:28 | 00:00:00 | |
| DG1MFX-10 | 2026-08-31 10:10:34 | 47.91578 | 11.22752 | 71° | 93km/h | 7739m | 4.1m/s | -27.6°C | 9.9% | 385.7hPa | 2.9V | 00:00:00 | 00:00:00 | 00:00:00 | |
| OE5WHR-10 | 2026-08-31 10:10:32 | 47.91555 | 11.22652 | 71° | 93km/h | 7730m | 3.5m/s | 0°C | 0% | 0hPa | 2.9V | 00:00:00 | 00:00:00 | 00:00:00 | |
| DO3MHA-11 | 2026-08-31 10:10:29 | 47.91531 | 11.22552 | 72° | 93km/h | 7720m | 3.0m/s | -27.4°C | 12.2% | 386.9hPa | 2.9V | 00:00:00 | 00:38:22 | 00:00:00 | |
| DB0UT-7 | 2026-08-31 10:10:28 | 47.91523 | 11.22519 | 71° | 93km/h | 7716m | 4.4m/s | -27.4°C | 12.2% | 387.0hPa | 2.9V | 00:00:00 | 00:38:21 | 00:00:00 | |
| NBG1-10 | 2026-08-31 10:10:27 | 47.91515 | 11.22486 | 70° | 93km/h | 7713m | 2.9m/s | -27.3°C | 12.3% | 387.2hPa | 2.9V | 00:00:00 | 00:38:20 | 00:00:00 | |
| DO3MHA-12 | 2026-08-31 10:10:25 | 47.91498 | 11.22420 | 70° | 93km/h | 7706m | 3.0m/s | -27.3°C | 12.2% | 387.6hPa | 2.9V | 00:00:00 | 00:38:18 | 00:00:00 | |
| DO3MHA-12 | 2026-08-31 10:10:15 | 47.91417 | 11.22093 | 71° | 93km/h | 7670m | 2.3m/s | -26.9°C | 11.9% | 389.5hPa | 2.9V | 02:56:00 | 00:38:08 | 00:00:00 | |
| DG1MFX-10 | 2026-08-31 10:10:12 | 47.91402 | 11.22029 | 73° | 91km/h | 7664m | 2.7m/s | -26.9°C | 10.6% | 389.9hPa | 2.9V | 02:57:00 | 00:00:00 | 00:00:00 | |
| DB0NH | 2026-08-31 10:10:11 | 47.91387 | 11.21963 | 70° | 93km/h | 7657m | 2.9m/s | -26.8°C | 12.0% | 390.2hPa | 2.9V | 02:56:00 | 00:38:04 | 00:00:00 | |
| DO3MHA-11 | 2026-08-31 10:10:09 | 47.91370 | 11.21898 | 70° | 93km/h | 7650m | 3.1m/s | -26.8°C | 12.1% | 390.6hPa | 2.9V | 00:00:00 | 00:38:02 | 00:00:00 | |
| DG1MJG | 2026-08-31 10:10:07 | 47.91362 | 11.21865 | 70° | 93km/h | 7646m | 4.3m/s | -26.9°C | 10.7% | 390.8hPa | 2.9V | 02:57:00 | 00:00:00 | 00:00:00 | |
| DO3MHA-12 | 2026-08-31 10:10:05 | 47.91337 | 11.21766 | 72° | 91km/h | 7637m | 2.6m/s | -26.7°C | 12.2% | 391.3hPa | 2.9V | 00:00:00 | 00:37:58 | 00:00:00 | |
| DO3MHA-11 | 2026-08-31 10:09:59 | 47.91292 | 11.21567 | 71° | 93km/h | 7618m | 4.5m/s | -26.6°C | 11.8% | 392.3hPa | 2.9V | 00:00:00 | 00:37:52 | 00:00:00 | |
| DB0UT-7 | 2026-08-31 10:09:58 | 47.91284 | 11.21535 | 71° | 93km/h | 7614m | 3.1m/s | -26.5°C | 11.6% | 392.5hPa | 2.9V | 00:00:00 | 00:00:00 | 00:00:00 | |
| DO3MHA-12 | 2026-08-31 10:09:55 | 47.91261 | 11.21439 | 70° | 93km/h | 7604m | 3.3m/s | -26.4°C | 11.6% | 393.1hPa | 2.9V | 00:00:00 | 00:37:48 | 00:00:00 | |
| NBG1-10 | 2026-08-31 10:09:54 | 47.91253 | 11.21407 | 70° | 93km/h | 7600m | 4.4m/s | -26.4°C | 11.5% | 393.3hPa | 2.9V | 00:00:00 | 00:37:47 | 00:00:00 | |
| DG1MFX-10 | 2026-08-31 10:09:52 | 47.91245 | 11.21374 | 71° | 93km/h | 7597m | 3.0m/s | -26.4°C | 10.0% | 393.5hPa | 2.9V | 02:57:00 | 00:00:00 | 00:00:00 | |
| DO3MHA-11 | 2026-08-31 10:09:49 | 47.91212 | 11.21239 | 71° | 93km/h | 7583m | 2.6m/s | -26.2°C | 11.1% | 394.2hPa | 2.9V | 02:57:00 | 00:37:42 | 00:00:00 | |
| DO3MHA-12 | 2026-08-31 10:09:45 | 47.91181 | 11.21108 | 72° | 93km/h | 7569m | 2.8m/s | -26.1°C | 10.6% | 394.8hPa | 2.9V | 02:57:00 | 00:37:38 | 00:00:00 | |
| DL6DJ-15 | 2026-08-31 10:09:44 | 47.91165 | 11.21043 | 70° | 91km/h | 7561m | 2.7m/s | -26.1°C | 9.2% | 395.4hPa | 2.9V | 00:00:00 | 00:00:00 | 00:00:00 | |
| DB0NH | 2026-08-31 10:09:41 | 47.91150 | 11.20978 | 71° | 93km/h | 7554m | 3.5m/s | -26.0°C | 10.3% | 395.7hPa | 2.9V | 00:00:00 | 00:37:34 | 00:00:00 | |
| DO3MHA-11 | 2026-08-31 10:09:39 | 47.91134 | 11.20911 | 71° | 93km/h | 7547m | 2.3m/s | -26.0°C | 10.1% | 396.1hPa | 2.9V | 00:00:00 | 00:37:32 | 00:00:00 | |
| DG1MJG | 2026-08-31 10:09:37 | 47.91126 | 11.20877 | 72° | 95km/h | 7544m | 3.9m/s | -26.0°C | 8.8% | 396.2hPa | 2.9V | 02:57:00 | 00:00:00 | 00:00:00 | |
| OE5DRO-10 | 2026-08-31 10:09:36 | 47.91110 | 11.20810 | 71° | 93km/h | 7538m | 3.8m/s | 0°C | 0% | 0hPa | 2.9V | 02:57:00 | 00:00:00 | 00:00:00 | |
| DO3MHA-12 | 2026-08-31 10:09:35 | 47.91103 | 11.20777 | 71° | 93km/h | 7534m | 2.6m/s | -25.9°C | 10.2% | 396.7hPa | 2.9V | 00:00:00 | 00:37:28 | 00:00:00 | |
| DG1MFX-10 | 2026-08-31 10:09:31 | 47.91080 | 11.20679 | 71° | 93km/h | 7524m | 4.5m/s | -25.9°C | 9.5% | 397.3hPa | 2.9V | 02:57:00 | 00:00:00 | 00:00:00 | |
| DO3MHA-11 | 2026-08-31 10:09:29 | 47.91055 | 11.20581 | 70° | 93km/h | 7515m | 3.0m/s | -25.9°C | 11.5% | 397.8hPa | 2.9V | 00:00:00 | 00:37:22 | 00:00:00 | |
| OE5DXL-15 | 2026-08-31 10:09:28 | 47.91046 | 11.20549 | 69° | 93km/h | 7511m | 3.6m/s | -25.9°C | 12.1% | 398.0hPa | 2.9V | 00:00:00 | 00:00:00 | 00:00:00 | |
| DO3MHA-12 | 2026-08-31 10:09:25 | 47.91021 | 11.20451 | 70° | 93km/h | 7502m | 3.2m/s | -25.8°C | 13.8% | 398.5hPa | 2.9V | 00:00:00 | 00:37:18 | 00:00:00 | |
| NBG1-10 | 2026-08-31 10:09:21 | 47.90987 | 11.20319 | 71° | 91km/h | 7488m | 3.3m/s | -25.8°C | 14.6% | 399.3hPa | 2.9V | 02:57:00 | 00:37:14 | 00:00:00 | |
| DO3MHA-11 | 2026-08-31 10:09:19 | 47.90971 | 11.20253 | 70° | 93km/h | 7482m | 3.2m/s | -25.8°C | 14.1% | 399.6hPa | 2.9V | 02:57:00 | 00:37:12 | 00:00:00 | |
| DO3MHA-12 | 2026-08-31 10:09:15 | 47.90937 | 11.20125 | 68° | 93km/h | 7469m | 2.6m/s | -25.7°C | 14.3% | 400.3hPa | 2.9V | 02:57:00 | 00:37:08 | 00:00:00 | |
| DL6DJ-15 | 2026-08-31 10:09:13 | 47.90910 | 11.20029 | 66° | 93km/h | 7459m | 3.8m/s | -25.7°C | 13.1% | 400.9hPa | 2.9V | 00:00:00 | 00:00:00 | 00:00:00 | |
| DB0NH | 2026-08-31 10:09:10 | 47.90891 | 11.19964 | 67° | 73km/h | 7453m | 3.0m/s | -25.6°C | 14.5% | 401.3hPa | 2.9V | 00:00:00 | 00:37:03 | 00:00:00 | |
| DO3MHA-11 | 2026-08-31 10:09:09 | 47.90882 | 11.19932 | 68° | 91km/h | 7450m | 3.4m/s | -25.6°C | 14.4% | 401.4hPa | 2.9V | 00:00:00 | 00:37:02 | 00:00:00 | |
| DG1MJG | 2026-08-31 10:09:06 | 47.90863 | 11.19868 | 67° | 91km/h | 7444m | 3.5m/s | -25.6°C | 12.8% | 401.8hPa | 2.9V | 02:58:00 | 00:00:00 | 00:00:00 | |
| DO3MHA-11 | 2026-08-31 10:08:59 | 47.90791 | 11.19613 | 68° | 91km/h | 7416m | 2.5m/s | -25.3°C | 13.9% | 403.3hPa | 2.9V | 00:00:00 | 00:36:52 | 00:00:00 | |
| OE5DXL-15 | 2026-08-31 10:08:58 | 47.90782 | 11.19581 | 69° | 89km/h | 7413m | 3.9m/s | -25.3°C | 13.9% | 403.5hPa | 2.9V | 00:00:00 | 00:00:00 | 00:00:00 | |
| DO3MHA-12 | 2026-08-31 10:08:55 | 47.90756 | 11.19484 | 68° | 89km/h | 7402m | 3.3m/s | -25.2°C | 14.0% | 404.1hPa | 2.9V | 00:00:00 | 00:36:48 | 00:00:00 | |
| OE5DRO-10 | 2026-08-31 10:08:50 | 47.90712 | 11.19329 | 67° | 88km/h | 7384m | 3.7m/s | 0°C | 0% | 0hPa | 2.9V | 00:00:00 | 00:00:00 | 00:00:00 | |
| DO3MHA-11 | 2026-08-31 10:08:49 | 47.90703 | 11.19298 | 67° | 89km/h | 7381m | 3.4m/s | -25.0°C | 14.0% | 405.3hPa | 2.9V | 02:58:00 | 00:36:42 | 00:00:00 | |
| NBG1-10 | 2026-08-31 10:08:48 | 47.90693 | 11.19267 | 67° | 89km/h | 7377m | 3.5m/s | -25.0°C | 14.0% | 405.5hPa | 2.9V | 00:00:00 | 00:36:41 | 00:00:00 | |
| DO3MHA-12 | 2026-08-31 10:08:45 | 47.90668 | 11.19173 | 69° | 89km/h | 7366m | 4.4m/s | -25.0°C | 14.0% | 406.0hPa | 2.9V | 02:58:00 | 00:36:38 | 00:00:00 | |
| DL6DJ-15 | 2026-08-31 10:08:42 | 47.90635 | 11.19046 | 68° | 89km/h | 7352m | 3.9m/s | -24.9°C | 12.9% | 406.9hPa | 2.9V | 00:00:00 | 00:00:00 | 00:00:00 | |
| DO3MHA-11 | 2026-08-31 10:08:39 | 47.90618 | 11.18984 | 68° | 89km/h | 7346m | 2.7m/s | -24.7°C | 14.5% | 407.3hPa | 2.9V | 00:00:00 | 00:36:32 | 00:00:00 | |
| DG1MJG | 2026-08-31 10:08:36 | 47.90601 | 11.18921 | 68° | 91km/h | 7339m | 3.2m/s | -24.8°C | 13.2% | 407.7hPa | 2.9V | 02:59:00 | 00:00:00 | 00:00:00 | |
| DO3MHA-12 | 2026-08-31 10:08:35 | 47.90583 | 11.18859 | 68° | 88km/h | 7331m | 2.9m/s | -24.7°C | 14.7% | 408.0hPa | 2.9V | 00:00:00 | 00:36:28 | 00:00:00 | |
| DO3MHA-11 | 2026-08-31 10:08:29 | 47.90532 | 11.18676 | 68° | 89km/h | 7310m | 3.2m/s | -24.5°C | 15.1% | 409.2hPa | 2.9V | 00:00:00 | 00:36:22 | 00:00:00 | |
| DB0UT-7 | 2026-08-31 10:08:28 | 47.90523 | 11.18645 | 68° | 89km/h | 7307m | 3.3m/s | -24.5°C | 15.1% | 409.5hPa | 2.9V | 00:00:00 | 00:36:21 | 00:00:00 | |
| OE5DXL-15 | 2026-08-31 10:08:27 | 47.90515 | 11.18614 | 68° | 89km/h | 7304m | 3.1m/s | -24.4°C | 14.9% | 409.6hPa | 2.9V | 02:58:00 | 00:00:00 | 00:00:00 | |
| DO3MHA-12 | 2026-08-31 10:08:25 | 47.90498 | 11.18551 | 69° | 89km/h | 7297m | 3.5m/s | -24.4°C | 14.6% | 410.0hPa | 2.9V | 00:00:00 | 00:36:18 | 00:00:00 | |
| DO3MHA-11 | 2026-08-31 10:08:19 | 47.90450 | 11.18360 | 70° | 89km/h | 7277m | 2.7m/s | -24.2°C | 13.8% | 411.1hPa | 2.9V | 02:58:00 | 00:36:12 | 00:00:00 | |
| DO3MHA-12 | 2026-08-31 10:08:15 | 47.90416 | 11.18235 | 69° | 91km/h | 7264m | 3.3m/s | -24.1°C | 13.4% | 411.9hPa | 2.9V | 02:58:00 | 00:36:08 | 00:00:00 | |
| DL6DJ-15 | 2026-08-31 10:08:11 | 47.90372 | 11.18081 | 66° | 89km/h | 7245m | 3.7m/s | -24.0°C | 11.5% | 412.9hPa | 2.9V | 00:00:00 | 00:00:00 | 00:00:00 | |
| DO3MHA-11 | 2026-08-31 10:08:09 | 47.90363 | 11.18049 | 68° | 89km/h | 7242m | 3.3m/s | -24.0°C | 12.6% | 413.1hPa | 2.9V | 00:00:00 | 00:36:02 | 00:00:00 | |
| DG1MFX-10 | 2026-08-31 10:08:08 | 47.90363 | 11.18049 | 69° | 91km/h | 7242m | 3.4m/s | -24.0°C | 11.3% | 413.1hPa | 2.9V | 02:59:00 | 00:00:00 | 00:00:00 | |
| DG1MJG | 2026-08-31 10:08:06 | 47.90346 | 11.17984 | 70° | 91km/h | 7236m | 2.4m/s | -23.9°C | 11.0% | 413.5hPa | 2.9V | 02:59:00 | 00:00:00 | 00:00:00 | |
| DO3MHA-12 | 2026-08-31 10:08:05 | 47.90328 | 11.17920 | 68° | 89km/h | 7230m | 2.5m/s | -23.8°C | 12.0% | 413.8hPa | 2.9V | 00:00:00 | 00:35:58 | 00:00:00 | |
| DO3MHA-11 | 2026-08-31 10:07:59 | 47.90277 | 11.17736 | 68° | 89km/h | 7209m | 3.4m/s | -23.7°C | 12.0% | 415.0hPa | 2.9V | 00:00:00 | 00:35:52 | 00:00:00 | |
| OE3JTB-15 | 2026-08-31 10:07:57 | 47.90260 | 11.17673 | 70° | 88km/h | 7202m | 2.5m/s | 0°C | 0% | 0hPa | 2.9V | 02:59:00 | 00:00:00 | 00:00:00 | |
| OE5DXL-15 | 2026-08-31 10:07:56 | 47.90251 | 11.17640 | 70° | 88km/h | 7199m | 3.4m/s | -23.6°C | 11.9% | 415.6hPa | 2.9V | 00:00:00 | 00:00:00 | 00:00:00 | |
| DO3MHA-12 | 2026-08-31 10:07:55 | 47.90243 | 11.17608 | 71° | 86km/h | 7196m | 3.1m/s | -23.6°C | 11.9% | 415.8hPa | 2.9V | 00:00:00 | 00:35:48 | 00:00:00 | |
| DO3MHA-11 | 2026-08-31 10:07:49 | 47.90194 | 11.17426 | 67° | 86km/h | 7173m | 3.6m/s | -23.4°C | 11.7% | 417.0hPa | 2.9V | 02:59:00 | 00:35:42 | 00:00:00 | |
| DG1MFX-10 | 2026-08-31 10:07:47 | 47.90186 | 11.17397 | 69° | 84km/h | 7170m | 4.0m/s | -23.4°C | 10.6% | 417.1hPa | 2.9V | 03:00:00 | 00:00:00 | 00:00:00 | |
| DO3MHA-12 | 2026-08-31 10:07:45 | 47.90161 | 11.17309 | 68° | 88km/h | 7158m | 4.0m/s | -23.3°C | 11.8% | 417.9hPa | 2.9V | 02:59:00 | 00:35:38 | 00:00:00 | |
| NBG1-10 | 2026-08-31 10:07:42 | 47.90136 | 11.17219 | 68° | 86km/h | 7146m | 3.5m/s | -23.3°C | 11.8% | 418.6hPa | 2.9V | 02:59:00 | 00:35:35 | 00:00:00 | |
| DO3MHA-11 | 2026-08-31 10:07:39 | 47.90111 | 11.17126 | 70° | 89km/h | 7135m | 3.2m/s | -23.2°C | 11.2% | 419.1hPa | 2.9V | 00:00:00 | 00:35:32 | 00:00:00 | |
| DO3MHA-12 | 2026-08-31 10:07:35 | 47.90078 | 11.17000 | 68° | 88km/h | 7120m | 3.8m/s | -23.1°C | 10.8% | 419.9hPa | 2.9V | 00:00:00 | 00:35:28 | 00:00:00 | |
| DO3MHA-11 | 2026-08-31 10:07:29 | 47.90026 | 11.16816 | 67° | 84km/h | 7099m | 2.6m/s | -23.0°C | 11.4% | 421.2hPa | 2.9V | 00:00:00 | 00:35:22 | 00:00:00 | |
| DB0UT-7 | 2026-08-31 10:07:28 | 47.90017 | 11.16786 | 68° | 86km/h | 7096m | 4.2m/s | -23.0°C | 11.6% | 421.5hPa | 2.9V | 00:00:00 | 00:35:21 | 00:00:00 | |
| DG1MFX-10 | 2026-08-31 10:07:27 | 47.90017 | 11.16786 | 68° | 86km/h | 7096m | 4.2m/s | -23.1°C | 10.5% | 421.5hPa | 2.9V | 03:00:00 | 00:00:00 | 00:00:00 | |
| OE5DXL-15 | 2026-08-31 10:07:26 | 47.90001 | 11.16727 | 68° | 86km/h | 7088m | 4.0m/s | -22.9°C | 11.6% | 421.9hPa | 2.9V | 00:00:00 | 00:00:00 | 00:00:00 | |
| DO3MHA-12 | 2026-08-31 10:07:25 | 47.89992 | 11.16698 | 68° | 84km/h | 7084m | 3.8m/s | -22.9°C | 11.7% | 422.1hPa | 2.9V | 00:00:00 | 00:35:18 | 00:00:00 | |
| DO3MHA-11 | 2026-08-31 10:07:19 | 47.89946 | 11.16521 | 69° | 86km/h | 7061m | 4.9m/s | -22.7°C | 11.7% | 423.4hPa | 2.9V | 02:59:00 | 00:35:12 | 00:00:00 | |
| DO3MHA-12 | 2026-08-31 10:07:15 | 47.89915 | 11.16401 | 69° | 86km/h | 7045m | 4.5m/s | -22.5°C | 11.8% | 424.4hPa | 2.9V | 02:59:00 | 00:35:08 | 00:00:00 | |
| DO3MHA-11 | 2026-08-31 10:07:09 | 47.89868 | 11.16221 | 71° | 88km/h | 7021m | 5.2m/s | -22.4°C | 12.0% | 425.6hPa | 2.9V | 00:00:00 | 00:35:02 | 00:00:00 | |
| DL6DJ-15 | 2026-08-31 10:07:08 | 47.89861 | 11.16191 | 70° | 86km/h | 7017m | 3.8m/s | -22.4°C | 11.0% | 426.0hPa | 2.9V | 00:00:00 | 00:00:00 | 00:00:00 | |
| DG1MFX-10 | 2026-08-31 10:07:06 | 47.89853 | 11.16160 | 71° | 88km/h | 7013m | 4.1m/s | -22.4°C | 11.3% | 426.2hPa | 2.9V | 03:00:00 | 00:00:00 | 00:00:00 | |
| DO3MHA-12 | 2026-08-31 10:07:05 | 47.89838 | 11.16099 | 70° | 88km/h | 7005m | 4.0m/s | -22.3°C | 12.7% | 426.7hPa | 2.9V | 00:00:00 | 00:34:58 | 00:00:00 | |
| DG1MJG | 2026-08-31 10:07:04 | 47.89838 | 11.16099 | 70° | 88km/h | 7005m | 4.0m/s | -22.4°C | 11.6% | 426.7hPa | 2.9V | 03:00:00 | 00:00:00 | 00:00:00 | |
| DO3MHA-11 | 2026-08-31 10:06:59 | 47.89786 | 11.15918 | 67° | 86km/h | 6983m | 3.6m/s | -22.2°C | 12.9% | 427.9hPa | 2.9V | 00:00:00 | 00:34:52 | 00:00:00 | |
| OE5DXL-15 | 2026-08-31 10:06:55 | 47.89751 | 11.15799 | 67° | 86km/h | 6966m | 2.9m/s | -22.1°C | 13.0% | 428.9hPa | 2.9V | 00:00:00 | 00:00:00 | 00:00:00 | |
| DO3MHA-12 | 2026-08-31 10:06:54 | 47.89743 | 11.15770 | 67° | 86km/h | 6962m | 4.5m/s | -22.1°C | 12.9% | 429.1hPa | 2.9V | 00:00:00 | 00:34:47 | 00:00:00 | |
| DO3MHA-11 | 2026-08-31 10:06:49 | 47.89696 | 11.15622 | 65° | 86km/h | 6944m | 4.0m/s | -21.9°C | 13.0% | 430.2hPa | 2.9V | 00:00:00 | 00:34:42 | 00:00:00 | |
| DG1MFX-10 | 2026-08-31 10:06:45 | 47.89669 | 11.15534 | 66° | 86km/h | 6933m | 3.2m/s | -21.9°C | 11.8% | 431.0hPa | 2.9V | 03:00:00 | 00:00:00 | 00:00:00 | |
| OE5DRO-10 | 2026-08-31 10:06:43 | 47.89641 | 11.15445 | 66° | 86km/h | 6921m | 4.3m/s | 0°C | 0% | 0hPa | 2.9V | 00:00:00 | 00:00:00 | 00:00:00 | |
| DO3MHA-11 | 2026-08-31 10:06:39 | 47.89603 | 11.15328 | 65° | 84km/h | 6904m | 3.9m/s | -21.6°C | 12.8% | 432.7hPa | 2.9V | 03:00:00 | 00:34:32 | 00:00:00 | |
| DO3MHA-12 | 2026-08-31 10:06:35 | 47.89566 | 11.15215 | 66° | 86km/h | 6887m | 3.4m/s | -21.4°C | 12.8% | 433.7hPa | 2.9V | 00:00:00 | 00:34:28 | 00:00:00 | |
| DG1MJG | 2026-08-31 10:06:34 | 47.89566 | 11.15215 | 66° | 82km/h | 6887m | 3.4m/s | -21.5°C | 11.6% | 433.7hPa | 2.9V | 03:00:00 | 00:00:00 | 00:00:00 | |
| DO3MHA-11 | 2026-08-31 10:06:29 | 47.89510 | 11.15042 | 64° | 86km/h | 6861m | 3.7m/s | -21.2°C | 12.5% | 435.1hPa | 2.9V | 00:00:00 | 00:34:22 | 00:00:00 | |
| DB0UT-7 | 2026-08-31 10:06:28 | 47.89500 | 11.15013 | 64° | 84km/h | 6857m | 4.3m/s | -21.2°C | 12.5% | 435.4hPa | 2.9V | 00:00:00 | 00:34:21 | 00:00:00 | |
| OE5DXL-15 | 2026-08-31 10:06:26 | 47.89480 | 11.14954 | 63° | 84km/h | 6849m | 4.6m/s | -21.1°C | 12.3% | 435.9hPa | 2.9V | 00:00:00 | 00:00:00 | 00:00:00 | |
| DO3MHA-12 | 2026-08-31 10:06:25 | 47.89471 | 11.14925 | 64° | 84km/h | 6844m | 4.1m/s | -21.1°C | 12.2% | 436.1hPa | 2.9V | 03:00:00 | 00:34:18 | 00:00:00 | |
| OE5DRO-10 | 2026-08-31 10:06:24 | 47.89461 | 11.14896 | 63° | 82km/h | 6840m | 3.7m/s | 0°C | 0% | 0hPa | 2.9V | 03:00:00 | 00:00:00 | 00:00:00 | |
| DO3MHA-11 | 2026-08-31 10:06:19 | 47.89412 | 11.14754 | 65° | 84km/h | 6819m | 4.5m/s | -20.9°C | 11.7% | 437.6hPa | 2.9V | 00:00:00 | 00:34:12 | 00:00:00 | |
| DO3MHA-12 | 2026-08-31 10:06:15 | 47.89376 | 11.14641 | 65° | 84km/h | 6800m | 5.0m/s | -20.7°C | 11.5% | 438.7hPa | 2.9V | 00:00:00 | 00:34:08 | 00:00:00 | |
| DO3MHA-11 | 2026-08-31 10:06:09 | 47.89321 | 11.14467 | 65° | 82km/h | 6774m | 5.4m/s | -20.6°C | 11.9% | 440.3hPa | 2.9V | 00:00:00 | 00:34:02 | 00:00:00 | |
| DL6DJ-15 | 2026-08-31 10:06:06 | 47.89293 | 11.14382 | 64° | 82km/h | 6760m | 4.5m/s | -20.6°C | 11.3% | 441.2hPa | 2.9V | 00:00:00 | 00:00:00 | 00:00:00 | |
| DO3MHA-12 | 2026-08-31 10:06:05 | 47.89284 | 11.14353 | 66° | 82km/h | 6756m | 4.3m/s | -20.5°C | 12.5% | 441.4hPa | 2.9V | 00:00:00 | 00:33:58 | 00:00:00 | |
| DG1MFX-10 | 2026-08-31 10:06:04 | 47.89284 | 11.14353 | 66° | 84km/h | 6756m | 4.3m/s | -20.5°C | 11.5% | 441.4hPa | 2.9V | 03:01:00 | 00:00:00 | 00:00:00 | |
| DG1MJG | 2026-08-31 10:06:03 | 47.89275 | 11.14325 | 66° | 82km/h | 6752m | 4.9m/s | -20.5°C | 11.8% | 441.7hPa | 2.9V | 03:01:00 | 00:00:00 | 00:00:00 | |
| DO3MHA-11 | 2026-08-31 10:05:59 | 47.89232 | 11.14186 | 65° | 82km/h | 6730m | 3.5m/s | -20.3°C | 14.0% | 443.0hPa | 2.9V | 03:00:00 | 00:33:52 | 00:00:00 | |
| DB0UT-7 | 2026-08-31 10:05:58 | 47.89223 | 11.14158 | 65° | 77km/h | 6726m | 4.2m/s | -20.3°C | 14.2% | 443.2hPa | 2.9V | 00:00:00 | 00:00:00 | 00:00:00 | |
| OE5DXL-15 | 2026-08-31 10:05:56 | 47.89205 | 11.14102 | 65° | 77km/h | 6717m | 5.1m/s | -20.3°C | 14.5% | 443.8hPa | 2.9V | 03:01:00 | 00:00:00 | 00:00:00 | |
| DO3MHA-12 | 2026-08-31 10:05:55 | 47.89196 | 11.14074 | 64° | 80km/h | 6713m | 3.9m/s | -20.2°C | 14.7% | 444.0hPa | 2.9V | 00:00:00 | 00:33:48 | 00:00:00 | |
| NBG1-10 | 2026-08-31 10:05:52 | 47.89168 | 11.13992 | 63° | 77km/h | 6699m | 3.9m/s | -20.1°C | 14.8% | 444.9hPa | 2.9V | 00:00:00 | 00:33:45 | 00:00:00 | |
| DO3MHA-11 | 2026-08-31 10:05:49 | 47.89140 | 11.13912 | 63° | 77km/h | 6686m | 5.0m/s | -20.0°C | 15.1% | 445.6hPa | 2.7V | 00:00:00 | 00:33:42 | 00:00:00 | |
| DO3MHA-12 | 2026-08-31 10:05:45 | 47.89103 | 11.13806 | 64° | 75km/h | 6668m | 5.3m/s | -19.9°C | 15.1% | 446.7hPa | 2.9V | 03:01:00 | 00:33:38 | 00:00:00 | |
| DG1MFX-10 | 2026-08-31 10:05:43 | 47.89095 | 11.13780 | 65° | 77km/h | 6663m | 3.8m/s | -19.9°C | 14.0% | 447.0hPa | 2.9V | 03:01:00 | 00:00:00 | 00:00:00 | |
| DO3MHA-11 | 2026-08-31 10:05:39 | 47.89053 | 11.13654 | 64° | 75km/h | 6639m | 4.8m/s | -19.7°C | 15.5% | 448.4hPa | 2.9V | 00:00:00 | 00:33:32 | 00:00:00 | |
| DO3MHA-12 | 2026-08-31 10:05:35 | 47.89018 | 11.13554 | 62° | 75km/h | 6621m | 3.9m/s | -19.5°C | 15.4% | 449.6hPa | 2.9V | 00:00:00 | 00:33:28 | 00:00:00 | |
| DG1MJG | 2026-08-31 10:05:33 | 47.89009 | 11.13529 | 63° | 75km/h | 6616m | 5.6m/s | -19.5°C | 14.2% | 449.9hPa | 2.9V | 03:01:00 | 00:00:00 | 00:00:00 | |
| OE5DRO-10 | 2026-08-31 10:05:30 | 47.88975 | 11.13429 | 65° | 69km/h | 6596m | 5.0m/s | 0°C | 0% | 0hPa | 2.9V | 00:00:00 | 00:00:00 | 00:00:00 | |
| DO3MHA-11 | 2026-08-31 10:05:29 | 47.88966 | 11.13403 | 65° | 75km/h | 6592m | 3.4m/s | -19.3°C | 15.7% | 451.2hPa | 2.9V | 00:00:00 | 00:33:22 | 00:00:00 | |
| DB0UT-7 | 2026-08-31 10:05:28 | 47.88958 | 11.13377 | 65° | 71km/h | 6588m | 5.2m/s | -19.3°C | 15.7% | 451.5hPa | 2.9V | 03:01:00 | 00:33:21 | 00:00:00 | |
| OE5DXL-15 | 2026-08-31 10:05:26 | 47.88940 | 11.13326 | 64° | 71km/h | 6578m | 5.4m/s | -19.3°C | 15.9% | 452.2hPa | 2.9V | 00:00:00 | 00:00:00 | 00:00:00 | |
| DO3MHA-12 | 2026-08-31 10:05:25 | 47.88932 | 11.13301 | 64° | 71km/h | 6573m | 4.9m/s | -19.2°C | 16.1% | 452.4hPa | 2.9V | 00:00:00 | 00:33:18 | 00:00:00 | |
| DG1MFX-10 | 2026-08-31 10:05:23 | 47.88924 | 11.13276 | 64° | 73km/h | 6568m | 4.5m/s | -19.2°C | 15.1% | 452.7hPa | 2.9V | 03:01:00 | 00:00:00 | 00:00:00 | |
| DO3MHA-11 | 2026-08-31 10:05:19 | 47.88881 | 11.13156 | 62° | 71km/h | 6544m | 5.5m/s | -19.0°C | 17.8% | 454.2hPa | 2.9V | 03:01:00 | 00:33:12 | 00:00:00 | |
| DO3MHA-12 | 2026-08-31 10:05:15 | 47.88848 | 11.13061 | 64° | 71km/h | 6525m | 3.6m/s | -18.9°C | 17.5% | 455.2hPa | 2.9V | 00:00:00 | 00:33:08 | 00:00:00 | |
| DO3MHA-11 | 2026-08-31 10:05:09 | 47.88801 | 11.12917 | 65° | 71km/h | 6496m | 4.7m/s | -18.6°C | 16.5% | 457.2hPa | 2.9V | 00:00:00 | 00:33:02 | 00:00:00 | |
| DL6DJ-15 | 2026-08-31 10:05:04 | 47.88763 | 11.12797 | 64° | 71km/h | 6470m | 5.9m/s | -18.5°C | 15.1% | 458.7hPa | 2.9V | 00:00:00 | 00:00:00 | 00:00:00 | |
| DG1MFX-10 | 2026-08-31 10:05:02 | 47.88755 | 11.12773 | 66° | 71km/h | 6465m | 4.5m/s | -18.4°C | 15.1% | 459.1hPa | 2.9V | 03:02:00 | 00:00:00 | 00:00:00 | |
| DO3MHA-11 | 2026-08-31 10:04:59 | 47.88726 | 11.12673 | 68° | 69km/h | 6447m | 4.5m/s | -18.2°C | 16.1% | 460.2hPa | 2.9V | 00:00:00 | 00:32:52 | 00:00:00 | |
| DB0UT-7 | 2026-08-31 10:04:58 | 47.88719 | 11.12649 | 67° | 68km/h | 6442m | 4.6m/s | -18.2°C | 16.0% | 460.5hPa | 2.9V | 00:00:00 | 00:00:00 | 00:00:00 | |
| OE5DXL-15 | 2026-08-31 10:04:56 | 47.88705 | 11.12601 | 67° | 68km/h | 6433m | 4.6m/s | -18.1°C | 16.0% | 461.0hPa | 2.9V | 00:00:00 | 00:00:00 | 00:00:00 | |
| DO3MHA-12 | 2026-08-31 10:04:55 | 47.88698 | 11.12577 | 67° | 69km/h | 6429m | 4.3m/s | -18.1°C | 15.9% | 461.3hPa | 2.9V | 00:00:00 | 00:32:48 | 00:00:00 | |
| DO3MHA-11 | 2026-08-31 10:04:49 | 47.88654 | 11.12433 | 66° | 69km/h | 6398m | 5.8m/s | -17.8°C | 16.0% | 463.1hPa | 2.9V | 00:00:00 | 00:32:42 | 00:00:00 | |
| NBG1-10 | 2026-08-31 10:04:46 | 47.88632 | 11.12361 | 64° | 66km/h | 6384m | 4.3m/s | -17.6°C | 16.0% | 464.1hPa | 2.9V | 00:00:00 | 00:32:39 | 00:00:00 | |
| DO3MHA-12 | 2026-08-31 10:04:45 | 47.88624 | 11.12338 | 64° | 68km/h | 6379m | 4.5m/s | -17.6°C | 16.0% | 464.4hPa | 2.9V | 00:00:00 | 00:32:38 | 00:00:00 | |
| DG1MFX-10 | 2026-08-31 10:04:42 | 47.88608 | 11.12293 | 63° | 68km/h | 6370m | 4.4m/s | -17.6°C | 14.9% | 465.0hPa | 2.9V | 03:02:00 | 00:00:00 | 00:00:00 | |
| DO3MHA-11 | 2026-08-31 10:04:39 | 47.88579 | 11.12202 | 65° | 66km/h | 6352m | 5.5m/s | -17.4°C | 15.8% | 466.2hPa | 2.9V | 03:02:00 | 00:32:32 | 00:00:00 | |
| DO3MHA-12 | 2026-08-31 10:04:35 | 47.88550 | 11.12106 | 67° | 64km/h | 6333m | 4.9m/s | -17.2°C | 15.7% | 467.3hPa | 2.9V | 00:00:00 | 00:32:28 | 00:00:00 | |
| DG1MJG | 2026-08-31 10:04:31 | 47.88530 | 11.12039 | 65° | 64km/h | 6318m | 4.4m/s | -17.1°C | 14.6% | 468.2hPa | 2.9V | 03:02:00 | 00:00:00 | 00:00:00 | |
| DO3MHA-11 | 2026-08-31 10:04:29 | 47.88508 | 11.11976 | 63° | 66km/h | 6304m | 5.1m/s | -16.9°C | 15.4% | 469.1hPa | 2.9V | 00:00:00 | 00:32:22 | 00:00:00 | |
| DB0UT-7 | 2026-08-31 10:04:28 | 47.88501 | 11.11955 | 63° | 66km/h | 6300m | 4.7m/s | 0°C | 0% | 0hPa | 2.9V | 00:00:00 | 00:32:21 | 00:00:00 | |
| DO3MHA-12 | 2026-08-31 10:04:25 | 47.88479 | 11.11889 | 66° | 68km/h | 6284m | 4.1m/s | -16.8°C | 15.3% | 470.3hPa | 2.9V | 03:02:00 | 00:32:18 | 00:00:00 | |
| OE5DRO-10 | 2026-08-31 10:04:23 | 47.88464 | 11.11843 | 67° | 66km/h | 6274m | 4.6m/s | 0°C | 0% | 0hPa | 2.9V | 00:00:00 | 00:00:00 | 00:00:00 | |
| DG1MFX-10 | 2026-08-31 10:04:21 | 47.88458 | 11.11819 | 68° | 68km/h | 6269m | 5.6m/s | -16.7°C | 14.1% | 471.2hPa | 2.9V | 03:03:00 | 00:00:00 | 00:00:00 | |
| DO3MHA-11 | 2026-08-31 10:04:19 | 47.88437 | 11.11749 | 65° | 66km/h | 6254m | 3.8m/s | -16.5°C | 15.0% | 472.2hPa | 2.9V | 00:00:00 | 00:32:12 | 00:00:00 | |
| DO3MHA-12 | 2026-08-31 10:04:15 | 47.88409 | 11.11658 | 65° | 66km/h | 6233m | 4.7m/s | -16.4°C | 14.9% | 473.5hPa | 2.9V | 00:00:00 | 00:32:08 | 00:00:00 | |
| NBG1-10 | 2026-08-31 10:04:10 | 47.88373 | 11.11549 | 65° | 66km/h | 6210m | 5.4m/s | -16.2°C | 14.8% | 475.1hPa | 2.9V | 03:02:00 | 00:32:03 | 00:00:00 | |
| DO3MHA-11 | 2026-08-31 10:04:09 | 47.88366 | 11.11527 | 65° | 66km/h | 6205m | 4.5m/s | -16.1°C | 14.8% | 475.4hPa | 2.9V | 00:00:00 | 00:32:02 | 00:00:00 | |
| DO3MHA-12 | 2026-08-31 10:04:05 | 47.88338 | 11.11436 | 67° | 68km/h | 6185m | 4.3m/s | -16.0°C | 14.9% | 476.6hPa | 2.9V | 00:00:00 | 00:31:58 | 00:00:00 | |
| OE5DRO-10 | 2026-08-31 10:04:03 | 47.88324 | 11.11391 | 66° | 68km/h | 6175m | 3.7m/s | 0°C | 0% | 0hPa | 2.9V | 00:00:00 | 00:00:00 | 00:00:00 | |
| DL6DJ-15 | 2026-08-31 10:04:02 | 47.88317 | 11.11369 | 66° | 66km/h | 6171m | 5.3m/s | -16.0°C | 14.0% | 477.5hPa | 2.9V | 00:00:00 | 00:00:00 | 00:00:00 | |
| DG1MFX-10 | 2026-08-31 10:04:01 | 47.88317 | 11.11369 | 68° | 68km/h | 6171m | 5.3m/s | -16.0°C | 14.0% | 477.5hPa | 2.9V | 03:03:00 | 00:00:00 | 00:00:00 | |
| DO3MHA-11 | 2026-08-31 10:03:59 | 47.88298 | 11.11299 | 68° | 68km/h | 6156m | 4.5m/s | -15.8°C | 15.1% | 478.5hPa | 2.9V | 03:02:00 | 00:31:52 | 00:00:00 | |
| DB0UT-7 | 2026-08-31 10:03:58 | 47.88291 | 11.11275 | 68° | 66km/h | 6151m | 5.9m/s | 0°C | 0% | 0hPa | 2.9V | 00:00:00 | 00:00:00 | 00:00:00 | |
| OE5DXL-15 | 2026-08-31 10:03:56 | 47.88277 | 11.11227 | 66° | 66km/h | 6141m | 5.1m/s | -15.7°C | 15.1% | 479.4hPa | 2.9V | 03:03:00 | 00:00:00 | 00:00:00 | |
| DO3MHA-12 | 2026-08-31 10:03:55 | 47.88270 | 11.11203 | 65° | 68km/h | 6137m | 4.5m/s | -15.7°C | 15.2% | 479.7hPa | 2.9V | 00:00:00 | 00:31:48 | 00:00:00 | |
| DO3MHA-11 | 2026-08-31 10:03:49 | 47.88231 | 11.11064 | 69° | 66km/h | 6108m | 5.5m/s | -15.6°C | 16.6% | 481.5hPa | 2.9V | 00:00:00 | 00:31:42 | 00:00:00 | |
| DO3MHA-12 | 2026-08-31 10:03:45 | 47.88206 | 11.10971 | 69° | 66km/h | 6088m | 5.4m/s | -15.4°C | 16.9% | 482.7hPa | 2.9V | 03:03:00 | 00:31:38 | 00:00:00 | |
| DG1MFX-10 | 2026-08-31 10:03:40 | 47.88181 | 11.10878 | 70° | 66km/h | 6069m | 5.3m/s | -15.3°C | 16.0% | 484.1hPa | 2.9V | 03:03:00 | 00:00:00 | 00:00:00 | |
| DO3MHA-11 | 2026-08-31 10:03:39 | 47.88170 | 11.10832 | 70° | 66km/h | 6059m | 5.8m/s | -15.2°C | 17.2% | 484.7hPa | 2.9V | 00:00:00 | 00:31:32 | 00:00:00 | |
| NBG1-10 | 2026-08-31 10:03:37 | 47.88159 | 11.10787 | 72° | 64km/h | 6048m | 5.9m/s | -15.2°C | 17.6% | 485.3hPa | 2.9V | 00:00:00 | 00:31:30 | 00:00:00 | |
| DO3MHA-12 | 2026-08-31 10:03:35 | 47.88149 | 11.10739 | 73° | 66km/h | 6038m | 5.2m/s | -15.1°C | 17.7% | 485.9hPa | 2.9V | 00:00:00 | 00:31:28 | 00:00:00 | |
| DG1MJG | 2026-08-31 10:03:30 | 47.88127 | 11.10645 | 69° | 66km/h | 6019m | 6.2m/s | -15.0°C | 17.0% | 487.4hPa | 2.9V | 03:04:00 | 00:00:00 | 00:00:00 | |
| DO3MHA-11 | 2026-08-31 10:03:29 | 47.88114 | 11.10600 | 67° | 66km/h | 6008m | 5.9m/s | -14.9°C | 18.3% | 487.9hPa | 2.9V | 00:00:00 | 00:31:22 | 00:00:00 | |
| DB0UT-7 | 2026-08-31 10:03:28 | 47.88107 | 11.10577 | 66° | 64km/h | 6003m | 4.6m/s | 0°C | 0% | 0hPa | 2.9V | 00:00:00 | 00:31:21 | 00:00:00 | |
| DO3MHA-12 | 2026-08-31 10:03:25 | 47.88089 | 11.10509 | 70° | 64km/h | 5988m | 5.2m/s | -14.7°C | 18.3% | 489.3hPa | 2.9V | 00:00:00 | 00:31:18 | 00:00:00 | |
| DB0ND-19 | 2026-08-31 10:03:24 | 47.88083 | 11.10487 | 68° | 64km/h | 5983m | 4.3m/s | 0°C | -1.0% | -1.0hPa | 2.9V | 00:00:00 | 00:00:00 | 00:00:00 | |
| DO3MHA-11 | 2026-08-31 10:03:19 | 47.88053 | 11.10373 | 69° | 64km/h | 5958m | 5.0m/s | -14.5°C | 18.1% | 491.2hPa | 2.9V | 03:03:00 | 00:31:12 | 00:00:00 | |
| DO3MHA-12 | 2026-08-31 10:03:15 | 47.88030 | 11.10283 | 70° | 62km/h | 5937m | 4.4m/s | -14.4°C | 18.3% | 492.6hPa | 2.9V | 00:00:00 | 00:31:08 | 00:00:00 | |
| DO3MHA-11 | 2026-08-31 10:03:09 | 47.87997 | 11.10151 | 68° | 64km/h | 5909m | 4.0m/s | -14.1°C | 18.5% | 494.4hPa | 2.9V | 00:00:00 | 00:31:02 | 00:00:00 | |
| DO3MHA-12 | 2026-08-31 10:03:05 | 47.87969 | 11.10065 | 65° | 64km/h | 5889m | 5.3m/s | -14.0°C | 18.3% | 495.7hPa | 2.9V | 03:03:00 | 00:30:58 | 00:00:00 | |
| NBG1-10 | 2026-08-31 10:03:04 | 47.87962 | 11.10042 | 66° | 62km/h | 5885m | 3.6m/s | -13.9°C | 18.4% | 496.1hPa | 2.9V | 00:00:00 | 00:30:57 | 00:00:00 | |
| DO3MHA-11 | 2026-08-31 10:02:59 | 47.87931 | 11.09932 | 69° | 58km/h | 5859m | 5.7m/s | -13.7°C | 18.1% | 497.6hPa | 2.9V | 00:00:00 | 00:30:52 | 00:00:00 | |
| DG1MFX-10 | 2026-08-31 10:02:58 | 47.87931 | 11.09932 | 69° | 62km/h | 5859m | 5.7m/s | -13.8°C | 17.2% | 497.7hPa | 2.9V | 03:04:00 | 00:00:00 | 00:00:00 | |
| DO3MHA-12 | 2026-08-31 10:02:55 | 47.87907 | 11.09847 | 66° | 58km/h | 5840m | 6.5m/s | -13.6°C | 18.1% | 499.0hPa | 2.9V | 00:00:00 | 00:30:48 | 00:00:00 | |
| DO3MHA-11 | 2026-08-31 10:02:49 | 47.87873 | 11.09729 | 69° | 64km/h | 5806m | 5.8m/s | -13.2°C | 17.7% | 501.1hPa | 2.9V | 00:00:00 | 00:30:42 | 00:00:00 | |
| DO3MHA-12 | 2026-08-31 10:02:45 | 47.87852 | 11.09640 | 69° | 66km/h | 5784m | 6.5m/s | -13.0°C | 17.5% | 502.5hPa | 2.9V | 00:00:00 | 00:30:38 | 00:00:00 | |
| DO3MHA-11 | 2026-08-31 10:02:39 | 47.87802 | 11.09513 | 53° | 62km/h | 5751m | 5.3m/s | -12.7°C | 17.1% | 504.8hPa | 2.9V | 03:04:00 | 00:30:32 | 00:00:00 | |
| DG1MFX-10 | 2026-08-31 10:02:38 | 47.87802 | 11.09513 | 54° | 68km/h | 5751m | 5.4m/s | -12.7°C | 16.2% | 504.8hPa | 2.9V | 03:05:00 | 00:00:00 | 00:00:00 | |
| DO3MHA-12 | 2026-08-31 10:02:35 | 47.87762 | 11.09431 | 61° | 57km/h | 5730m | 6.0m/s | -12.5°C | 16.8% | 506.1hPa | 2.9V | 00:00:00 | 00:30:28 | 00:00:00 | |
| NBG1-10 | 2026-08-31 10:02:31 | 47.87750 | 11.09349 | 65° | 58km/h | 5701m | 5.9m/s | -12.3°C | 16.3% | 508.0hPa | 2.9V | 00:00:00 | 00:30:24 | 00:00:00 | |
| DO3MHA-11 | 2026-08-31 10:02:29 | 47.87723 | 11.09313 | 68° | 58km/h | 5689m | 4.2m/s | -12.1°C | 16.2% | 508.8hPa | 2.9V | 00:00:00 | 00:30:22 | 00:00:00 | |
| OE5DXL-15 | 2026-08-31 10:02:25 | 47.87697 | 11.09244 | 58° | 60km/h | 5671m | 5.3m/s | -12.0°C | 15.5% | 510.0hPa | 2.9V | 00:00:00 | 00:00:00 | 00:00:00 | |
| DO3MHA-11 | 2026-08-31 10:02:19 | 47.87647 | 11.09120 | 57° | 58km/h | 5632m | 4.4m/s | -11.6°C | 14.7% | 512.5hPa | 2.9V | 00:00:00 | 00:30:12 | 00:00:00 | |
| DG1MFX-10 | 2026-08-31 10:02:17 | 47.87638 | 11.09101 | 58° | 62km/h | 5627m | 5.7m/s | -11.6°C | 13.7% | 512.9hPa | 2.9V | 03:05:00 | 00:00:00 | 00:00:00 | |
| DO3MHA-12 | 2026-08-31 10:02:15 | 47.87615 | 11.09045 | 59° | 57km/h | 5613m | 4.4m/s | -11.4°C | 14.6% | 513.8hPa | 2.9V | 00:00:00 | 00:30:08 | 00:00:00 | |
| DO3MHA-11 | 2026-08-31 10:02:09 | 47.87573 | 11.08934 | 59° | 58km/h | 5588m | 3.3m/s | -11.2°C | 12.9% | 515.7hPa | 2.9V | 00:00:00 | 00:30:02 | 00:00:00 | |
| DO3MHA-12 | 2026-08-31 10:02:05 | 47.87542 | 11.08859 | 59° | 58km/h | 5569m | 5.6m/s | -11.0°C | 11.8% | 516.9hPa | 2.9V | 00:00:00 | 00:29:58 | 00:00:00 | |
| DL6DJ-15 | 2026-08-31 10:01:58 | 47.87471 | 11.08690 | 56° | 58km/h | 5527m | 5.4m/s | -10.7°C | 10.7% | 519.7hPa | 2.9V | 00:00:00 | 00:00:00 | 00:00:00 | |
| DG1MFX-10 | 2026-08-31 10:01:56 | 47.87479 | 11.08709 | 56° | 58km/h | 5532m | 4.1m/s | -10.7°C | 10.9% | 519.4hPa | 2.9V | 03:05:00 | 00:00:00 | 00:00:00 | |
| OE5DXL-15 | 2026-08-31 10:01:55 | 47.87463 | 11.08672 | 57° | 57km/h | 5523m | 3.7m/s | -10.6°C | 11.4% | 520.0hPa | 2.9V | 03:05:00 | 00:00:00 | 00:00:00 | |
| DO3MHA-11 | 2026-08-31 10:01:49 | 47.87420 | 11.08563 | 63° | 58km/h | 5496m | 4.4m/s | -10.3°C | 12.2% | 521.9hPa | 2.9V | 00:00:00 | 00:29:42 | 00:00:00 | |
| DO3MHA-12 | 2026-08-31 10:01:45 | 47.87392 | 11.08487 | 59° | 58km/h | 5478m | 3.3m/s | -10.2°C | 13.0% | 522.9hPa | 2.9V | 03:05:00 | 00:29:38 | 00:00:00 | |
| DO3MHA-11 | 2026-08-31 10:01:39 | 47.87344 | 11.08378 | 59° | 58km/h | 5450m | 4.6m/s | -10.0°C | 12.2% | 524.8hPa | 2.9V | 00:00:00 | 00:29:32 | 00:00:00 | |
| DO3MHA-12 | 2026-08-31 10:01:35 | 47.87315 | 11.08303 | 61° | 58km/h | 5433m | 4.1m/s | -9.8°C | 12.2% | 526.1hPa | 2.9V | 00:00:00 | 00:29:28 | 00:00:00 | |
| DO3MHA-11 | 2026-08-31 10:01:29 | 47.87271 | 11.08188 | 62° | 57km/h | 5407m | 3.2m/s | -9.5°C | 11.7% | 527.8hPa | 2.9V | 00:00:00 | 00:29:22 | 00:00:00 | |
| DG1MJG | 2026-08-31 10:01:28 | 47.87271 | 11.08188 | 63° | 58km/h | 5407m | 3.3m/s | -9.6°C | 11.2% | 527.8hPa | 2.9V | 03:05:00 | 00:00:00 | 00:00:00 | |
| DL6DJ-15 | 2026-08-31 10:01:27 | 47.87250 | 11.08132 | 60° | 55km/h | 5394m | 4.3m/s | -9.5°C | 10.9% | 528.7hPa | 2.9V | 00:00:00 | 00:00:00 | 00:00:00 | |
| DO3MHA-12 | 2026-08-31 10:01:25 | 47.87244 | 11.08114 | 63° | 57km/h | 5390m | 3.8m/s | -9.4°C | 11.5% | 528.9hPa | 2.9V | 00:00:00 | 00:29:18 | 00:00:00 | |
| DO3MHA-11 | 2026-08-31 10:01:19 | 47.87203 | 11.08002 | 62° | 57km/h | 5365m | 3.8m/s | -9.1°C | 10.4% | 530.7hPa | 2.9V | 03:05:00 | 00:29:12 | 00:00:00 | |
| DO3MHA-12 | 2026-08-31 10:01:15 | 47.87176 | 11.07926 | 62° | 57km/h | 5349m | 5.6m/s | -9.0°C | 10.1% | 531.8hPa | 2.7V | 00:00:00 | 00:29:08 | 00:00:00 | |
| DO3MHA-11 | 2026-08-31 10:01:09 | 47.87134 | 11.07813 | 62° | 58km/h | 5323m | 4.6m/s | -8.8°C | 9.4% | 533.7hPa | 2.7V | 00:00:00 | 00:29:02 | 00:00:00 | |
| DO3MHA-12 | 2026-08-31 10:01:05 | 47.87106 | 11.07737 | 61° | 58km/h | 5306m | 5.0m/s | -8.6°C | 9.3% | 534.7hPa | 2.7V | 03:05:00 | 00:28:58 | 00:00:00 | |
| DL6DJ-15 | 2026-08-31 10:00:56 | 47.87033 | 11.07546 | 61° | 55km/h | 5262m | 3.9m/s | -8.3°C | 8.8% | 537.9hPa | 2.9V | 00:00:00 | 00:00:00 | 00:00:00 | |
| DO3MHA-12 | 2026-08-31 10:00:55 | 47.87032 | 11.07546 | 62° | 58km/h | 5262m | 3.8m/s | -8.3°C | 9.3% | 537.8hPa | 2.9V | 00:00:00 | 00:28:48 | 00:00:00 | |
| NBG1-10 | 2026-08-31 10:00:52 | 47.87012 | 11.07491 | 63° | 58km/h | 5248m | 5.1m/s | -8.1°C | 9.3% | 538.7hPa | 2.9V | 00:00:00 | 00:28:45 | 00:00:00 | |
| DO3MHA-11 | 2026-08-31 10:00:49 | 47.86993 | 11.07434 | 65° | 58km/h | 5236m | 3.7m/s | -8.0°C | 9.3% | 539.6hPa | 2.9V | 00:00:00 | 00:28:42 | 00:00:00 | |
| DO3MHA-12 | 2026-08-31 10:00:45 | 47.86967 | 11.07351 | 66° | 58km/h | 5218m | 3.5m/s | -7.9°C | 9.3% | 540.7hPa | 2.9V | 00:00:00 | 00:28:38 | 00:00:00 | |
| DO3MHA-11 | 2026-08-31 10:00:39 | 47.86928 | 11.07234 | 64° | 57km/h | 5191m | 4.3m/s | -7.6°C | 9.2% | 542.6hPa | 2.9V | 03:06:00 | 00:28:32 | 00:00:00 | |
| DO3MHA-12 | 2026-08-31 10:00:35 | 47.86904 | 11.07156 | 66° | 57km/h | 5173m | 4.0m/s | -7.5°C | 9.3% | 543.8hPa | 2.9V | 00:00:00 | 00:28:28 | 00:00:00 | |
| DO3MHA-11 | 2026-08-31 10:00:29 | 47.86868 | 11.07040 | 65° | 58km/h | 5149m | 3.7m/s | -7.3°C | 9.8% | 545.6hPa | 2.9V | 00:00:00 | 00:28:22 | 00:00:00 | |
| DG1MJG | 2026-08-31 10:00:26 | 47.86856 | 11.07002 | 65° | 57km/h | 5140m | 3.7m/s | -7.3°C | 9.3% | 546.3hPa | 2.9V | 03:06:00 | 00:00:00 | 00:00:00 | |
| OE5DXL-15 | 2026-08-31 10:00:25 | 47.86843 | 11.06963 | 64° | 57km/h | 5131m | 4.5m/s | -7.1°C | 9.4% | 546.9hPa | 2.9V | 00:00:00 | 00:00:00 | 00:00:00 | |
| DL6DJ-15 | 2026-08-31 10:00:24 | 47.86836 | 11.06944 | 63° | 57km/h | 5127m | 4.0m/s | -7.1°C | 9.0% | 547.3hPa | 2.9V | 00:00:00 | 00:00:00 | 00:00:00 | |
| DO3MHA-11 | 2026-08-31 10:00:19 | 47.86805 | 11.06844 | 67° | 57km/h | 5105m | 4.6m/s | -6.9°C | 9.3% | 548.7hPa | 2.9V | 00:00:00 | 00:28:12 | 00:00:00 | |
| DO3MHA-12 | 2026-08-31 10:00:15 | 47.86782 | 11.06766 | 66° | 58km/h | 5088m | 5.3m/s | -6.8°C | 9.8% | 549.9hPa | 2.9V | 00:00:00 | 00:28:08 | 00:00:00 | |
| DO3MHA-11 | 2026-08-31 10:00:09 | 47.86748 | 11.06646 | 69° | 58km/h | 5064m | 5.2m/s | -6.6°C | 10.4% | 551.6hPa | 2.9V | 00:00:00 | 00:28:02 | 00:00:00 | |
| DG1MFX-10 | 2026-08-31 10:00:08 | 47.86749 | 11.06646 | 70° | 58km/h | 5064m | 5.2m/s | -6.6°C | 0% | 551.7hPa | 2.9V | 03:07:00 | 00:00:00 | 00:00:00 | |
| DO3MHA-12 | 2026-08-31 10:00:05 | 47.86724 | 11.06562 | 67° | 57km/h | 5047m | 3.1m/s | -6.4°C | 10.3% | 552.8hPa | 2.9V | 00:00:00 | 00:27:58 | 00:00:00 | |
| DL6DJ-15 | 2026-08-31 09:59:53 | 47.86658 | 11.06329 | 67° | 57km/h | 4998m | 3.8m/s | -6.0°C | 9.8% | 556.3hPa | 2.9V | 00:00:00 | 00:00:00 | 00:00:00 | |
| DO3MHA-11 | 2026-08-31 09:59:49 | 47.86636 | 11.06248 | 70° | 58km/h | 4982m | 4.0m/s | -5.8°C | 10.2% | 557.5hPa | 2.9V | 00:00:00 | 00:27:42 | 00:00:00 | |
| DG1MFX-10 | 2026-08-31 09:59:48 | 47.86636 | 11.06248 | 71° | 58km/h | 4982m | 4.0m/s | -5.9°C | 0% | 557.5hPa | 2.9V | 03:07:00 | 00:00:00 | 00:00:00 | |
| NBG1-10 | 2026-08-31 09:59:46 | 47.86621 | 11.06187 | 71° | 58km/h | 4970m | 4.1m/s | -5.7°C | 10.4% | 558.4hPa | 2.9V | 03:07:00 | 00:27:39 | 00:00:00 | |
| DO3MHA-12 | 2026-08-31 09:59:45 | 47.86616 | 11.06167 | 70° | 58km/h | 4966m | 3.7m/s | -5.7°C | 10.4% | 558.6hPa | 2.9V | 03:07:00 | 00:27:38 | 00:00:00 | |
| DO3MHA-11 | 2026-08-31 09:59:39 | 47.86585 | 11.06045 | 69° | 58km/h | 4939m | 5.0m/s | -5.5°C | 10.4% | 560.6hPa | 2.9V | 00:00:00 | 00:27:32 | 00:00:00 | |
| DO3MHA-12 | 2026-08-31 09:59:35 | 47.86565 | 11.05963 | 72° | 58km/h | 4923m | 5.2m/s | -5.4°C | 10.4% | 561.6hPa | 2.9V | 00:00:00 | 00:27:28 | 00:00:00 | |
| DO3MHA-11 | 2026-08-31 09:59:29 | 47.86535 | 11.05841 | 70° | 58km/h | 4898m | 3.6m/s | -5.2°C | 10.7% | 563.4hPa | 2.9V | 00:00:00 | 00:27:22 | 00:00:00 | |
| DG1MFX-10 | 2026-08-31 09:59:28 | 47.86535 | 11.05841 | 70° | 58km/h | 4898m | 3.7m/s | -5.2°C | 0% | 563.5hPa | 2.9V | 03:07:00 | 00:00:00 | 00:00:00 | |
| DG1MJG | 2026-08-31 09:59:26 | 47.86525 | 11.05800 | 71° | 57km/h | 4890m | 3.0m/s | 0°C | 0% | 0hPa | 2.9V | 00:00:00 | 00:00:00 | 00:00:00 | |
| OE5DXL-15 | 2026-08-31 09:59:25 | 47.86515 | 11.05759 | 70° | 60km/h | 4881m | 3.8m/s | -5.0°C | 10.8% | 564.7hPa | 2.9V | 00:00:00 | 00:00:00 | 00:00:00 | |
| DL6DJ-15 | 2026-08-31 09:59:22 | 47.86500 | 11.05698 | 70° | 58km/h | 4867m | 5.8m/s | -5.0°C | 10.3% | 565.6hPa | 2.9V | 00:00:00 | 00:00:00 | 00:00:00 | |
| DO3MHA-11 | 2026-08-31 09:59:19 | 47.86486 | 11.05634 | 73° | 58km/h | 4854m | 4.8m/s | -4.8°C | 10.4% | 566.5hPa | 2.9V | 03:07:00 | 00:27:12 | 00:00:00 | |
| DO3MHA-12 | 2026-08-31 09:59:15 | 47.86469 | 11.05547 | 75° | 58km/h | 4837m | 4.2m/s | -4.7°C | 10.2% | 567.8hPa | 2.9V | 00:00:00 | 00:27:08 | 00:00:00 | |
| NBG1-10 | 2026-08-31 09:59:13 | 47.86461 | 11.05505 | 74° | 60km/h | 4830m | 5.0m/s | -4.6°C | 10.0% | 568.4hPa | 2.9V | 00:00:00 | 00:27:06 | 00:00:00 | |
| DO3MHA-11 | 2026-08-31 09:59:09 | 47.86445 | 11.05420 | 75° | 60km/h | 4811m | 5.6m/s | -4.5°C | 9.8% | 569.8hPa | 2.7V | 00:00:00 | 00:27:02 | 00:00:00 | |
| DG1MFX-10 | 2026-08-31 09:59:07 | 47.86440 | 11.05398 | 74° | 60km/h | 4807m | 3.8m/s | -4.5°C | 0% | 570.0hPa | 2.7V | 03:08:00 | 00:00:00 | 00:00:00 | |
| DO3MHA-12 | 2026-08-31 09:59:05 | 47.86426 | 11.05334 | 72° | 62km/h | 4794m | 5.1m/s | -4.3°C | 9.9% | 571.0hPa | 2.7V | 03:07:00 | 00:26:58 | 00:00:00 | |
| DL6DJ-15 | 2026-08-31 09:58:51 | 47.86363 | 11.05026 | 72° | 58km/h | 4735m | 4.5m/s | -3.9°C | 9.1% | 575.3hPa | 2.9V | 00:00:00 | 00:00:00 | 00:00:00 | |
| DO3MHA-11 | 2026-08-31 09:58:49 | 47.86354 | 11.04983 | 73° | 60km/h | 4728m | 4.6m/s | -3.8°C | 9.3% | 575.8hPa | 2.9V | 00:00:00 | 00:26:42 | 00:00:00 | |
| DG1MFX-10 | 2026-08-31 09:58:46 | 47.86345 | 11.04939 | 75° | 62km/h | 4720m | 5.0m/s | -3.8°C | 0% | 576.4hPa | 2.9V | 03:08:00 | 00:00:00 | 00:00:00 | |
| DO3MHA-12 | 2026-08-31 09:58:45 | 47.86336 | 11.04894 | 76° | 62km/h | 4712m | 5.6m/s | -3.7°C | 8.2% | 577.0hPa | 2.9V | 00:00:00 | 00:26:38 | 00:00:00 | |
| NBG1-10 | 2026-08-31 09:58:40 | 47.86317 | 11.04783 | 75° | 64km/h | 4692m | 3.4m/s | -3.5°C | 8.0% | 578.5hPa | 2.9V | 00:00:00 | 00:26:33 | 00:00:00 | |
| DO3MHA-11 | 2026-08-31 09:58:39 | 47.86312 | 11.04761 | 74° | 64km/h | 4688m | 3.9m/s | -3.5°C | 8.0% | 578.8hPa | 2.9V | 03:08:00 | 00:26:32 | 00:00:00 | |
| DO3MHA-12 | 2026-08-31 09:58:35 | 47.86295 | 11.04671 | 74° | 62km/h | 4672m | 5.0m/s | -3.4°C | 7.8% | 580.1hPa | 2.9V | 00:00:00 | 00:26:28 | 00:00:00 | |
| DO3MHA-11 | 2026-08-31 09:58:29 | 47.86267 | 11.04534 | 73° | 62km/h | 4648m | 3.7m/s | -3.2°C | 7.6% | 581.9hPa | 2.9V | 00:00:00 | 00:26:22 | 00:00:00 | |
| DO3MHA-12 | 2026-08-31 09:58:25 | 47.86249 | 11.04445 | 74° | 64km/h | 4632m | 3.5m/s | -3.2°C | 7.9% | 583.1hPa | 2.9V | 03:08:00 | 00:26:18 | 00:00:00 | |
| DG1MFX-10 | 2026-08-31 09:58:24 | 47.86245 | 11.04422 | 76° | 60km/h | 4628m | 5.2m/s | 0°C | 0% | 583.4hPa | 2.9V | 00:00:00 | 00:00:00 | 00:00:00 | |
| DL6DJ-15 | 2026-08-31 09:58:20 | 47.86229 | 11.04331 | 75° | 66km/h | 4613m | 3.6m/s | -3.2°C | 7.7% | 584.5hPa | 2.9V | 00:00:00 | 00:00:00 | 00:00:00 | |
| DO3MHA-11 | 2026-08-31 09:58:19 | 47.86225 | 11.04306 | 77° | 66km/h | 4610m | 3.5m/s | -3.1°C | 8.0% | 584.8hPa | 2.9V | 00:00:00 | 00:26:12 | 00:00:00 | |
| DO3MHA-12 | 2026-08-31 09:58:15 | 47.86209 | 11.04208 | 79° | 66km/h | 4595m | 3.5m/s | -3.0°C | 7.3% | 585.9hPa | 2.9V | 00:00:00 | 00:26:08 | 00:00:00 | |
| DO3MHA-11 | 2026-08-31 09:58:09 | 47.86187 | 11.04066 | 77° | 69km/h | 4574m | 4.1m/s | -2.9°C | 7.5% | 587.5hPa | 2.9V | 00:00:00 | 00:26:02 | 00:00:00 | |
| NBG1-10 | 2026-08-31 09:58:07 | 47.86179 | 11.04016 | 79° | 68km/h | 4567m | 4.4m/s | -2.8°C | 7.3% | 588.2hPa | 2.9V | 00:00:00 | 00:26:00 | 00:00:00 | |
| DO3MHA-12 | 2026-08-31 09:58:05 | 47.86173 | 11.03965 | 79° | 69km/h | 4559m | 3.6m/s | -2.8°C | 7.3% | 588.6hPa | 2.9V | 00:00:00 | 00:25:58 | 00:00:00 | |
| DG1MFX-10 | 2026-08-31 09:58:02 | 47.86165 | 11.03915 | 76° | 69km/h | 4549m | 5.5m/s | 0°C | 0% | 589.4hPa | 2.9V | 00:00:00 | 00:00:00 | 00:00:00 | |
| DO3MHA-11 | 2026-08-31 09:57:59 | 47.86149 | 11.03813 | 79° | 68km/h | 4527m | 7.3m/s | -2.7°C | 7.8% | 590.7hPa | 2.9V | 03:08:00 | 00:25:52 | 00:00:00 | |
| DO3MHA-12 | 2026-08-31 09:57:55 | 47.86134 | 11.03710 | 79° | 68km/h | 4505m | 5.3m/s | -2.6°C | 7.6% | 592.3hPa | 2.9V | 00:00:00 | 00:25:48 | 00:00:00 | |
| DO3MHA-11 | 2026-08-31 09:57:49 | 47.86116 | 11.03563 | 81° | 68km/h | 4478m | 4.4m/s | -2.5°C | 8.6% | 594.3hPa | 2.9V | 00:00:00 | 00:25:42 | 00:00:00 | |
| DB0NH | 2026-08-31 09:57:48 | 47.86114 | 11.03538 | 80° | 64km/h | 4474m | 3.4m/s | -2.6°C | 8.8% | 594.6hPa | 2.9V | 00:00:00 | 00:25:41 | 00:00:00 | |
| DO3MHA-12 | 2026-08-31 09:57:45 | 47.86103 | 11.03463 | 78° | 66km/h | 4463m | 3.7m/s | -2.6°C | 9.3% | 595.4hPa | 2.9V | 03:09:00 | 00:25:38 | 00:00:00 | |
| DB0ND-19 | 2026-08-31 09:57:42 | 47.86082 | 11.03317 | 79° | 62km/h | 4440m | 2.9m/s | 0°C | -1.0% | -1.0hPa | 2.9V | 00:00:00 | 00:00:00 | 00:00:00 | |
| DO3MHA-11 | 2026-08-31 09:57:39 | 47.86082 | 11.03317 | 80° | 64km/h | 4441m | 2.8m/s | -2.6°C | 10.0% | 597.0hPa | 2.9V | 00:00:00 | 00:25:32 | 00:00:00 | |
| DO3MHA-12 | 2026-08-31 09:57:35 | 47.86070 | 11.03222 | 79° | 64km/h | 4427m | 3.4m/s | -2.5°C | 9.4% | 598.2hPa | 2.9V | 00:00:00 | 00:25:28 | 00:00:00 | |
| NBG1-10 | 2026-08-31 09:57:34 | 47.86066 | 11.03198 | 78° | 64km/h | 4423m | 4.7m/s | -2.5°C | 9.4% | 598.3hPa | 2.9V | 03:09:00 | 00:25:27 | 00:00:00 | |
| DO3MHA-11 | 2026-08-31 09:57:29 | 47.86048 | 11.03082 | 76° | 62km/h | 4404m | 3.3m/s | -2.5°C | 8.9% | 599.8hPa | 2.9V | 00:00:00 | 00:25:22 | 00:00:00 | |
| DO3MHA-12 | 2026-08-31 09:57:25 | 47.86034 | 11.02989 | 81° | 64km/h | 4389m | 3.6m/s | -2.6°C | 8.9% | 600.9hPa | 2.9V | 00:00:00 | 00:25:18 | 00:00:00 | |
| DO3MHA-11 | 2026-08-31 09:57:19 | 47.86020 | 11.02849 | 80° | 64km/h | 4369m | 3.5m/s | -2.5°C | 8.9% | 602.6hPa | 2.9V | 03:09:00 | 00:25:12 | 00:00:00 | |
| DB0NH | 2026-08-31 09:57:18 | 47.86018 | 11.02826 | 80° | 64km/h | 4365m | 3.5m/s | -2.5°C | 8.9% | 602.8hPa | 2.9V | 00:00:00 | 00:25:11 | 00:00:00 | |
| DO3MHA-12 | 2026-08-31 09:57:15 | 47.86008 | 11.02755 | 81° | 64km/h | 4354m | 3.6m/s | -2.4°C | 9.0% | 603.6hPa | 2.9V | 00:00:00 | 00:25:08 | 00:00:00 | |
| DO3MHA-11 | 2026-08-31 09:57:09 | 47.85995 | 11.02610 | 82° | 64km/h | 4331m | 4.4m/s | -2.2°C | 9.0% | 605.4hPa | 2.9V | 00:00:00 | 00:25:02 | 00:00:00 | |
| DO3MHA-12 | 2026-08-31 09:57:05 | 47.85984 | 11.02516 | 80° | 62km/h | 4317m | 4.8m/s | -2.1°C | 8.4% | 606.4hPa | 2.9V | 03:09:00 | 00:24:58 | 00:00:00 | |
| DL6DJ-15 | 2026-08-31 09:56:47 | 47.85934 | 11.02090 | 82° | 68km/h | 4253m | 5.4m/s | -1.9°C | 7.5% | 611.4hPa | 2.9V | 00:00:00 | 00:00:00 | 00:00:00 | |
| DO3MHA-12 | 2026-08-31 09:56:45 | 47.85930 | 11.02040 | 83° | 66km/h | 4244m | 4.3m/s | -1.8°C | 8.6% | 612.0hPa | 2.9V | 00:00:00 | 00:24:38 | 00:00:00 | |
| DO3MHA-11 | 2026-08-31 09:56:39 | 47.85912 | 11.01895 | 82° | 66km/h | 4222m | 4.7m/s | -1.7°C | 8.6% | 613.6hPa | 2.9V | 03:10:00 | 00:24:32 | 00:00:00 | |
| DO3MHA-12 | 2026-08-31 09:56:35 | 47.85902 | 11.01797 | 81° | 64km/h | 4207m | 2.9m/s | -1.6°C | 7.2% | 614.8hPa | 2.9V | 00:00:00 | 00:24:28 | 00:00:00 | |
| DO3MHA-11 | 2026-08-31 09:56:29 | 47.85890 | 11.01652 | 84° | 66km/h | 4188m | 2.7m/s | -1.4°C | 7.8% | 616.5hPa | 2.9V | 00:00:00 | 00:24:22 | 00:00:00 | |
| NBG1-10 | 2026-08-31 09:56:28 | 47.85888 | 11.01628 | 85° | 64km/h | 4184m | 4.4m/s | -1.4°C | 7.9% | 616.7hPa | 2.9V | 00:00:00 | 00:24:21 | 00:00:00 | |
| DO3MHA-12 | 2026-08-31 09:56:25 | 47.85883 | 11.01557 | 85° | 66km/h | 4173m | 2.5m/s | -1.3°C | 7.5% | 617.6hPa | 2.9V | 03:10:00 | 00:24:18 | 00:00:00 | |
| DO3MHA-11 | 2026-08-31 09:56:19 | 47.85872 | 11.01408 | 85° | 60km/h | 4154m | 3.3m/s | -1.2°C | 6.9% | 619.1hPa | 2.9V | 00:00:00 | 00:24:12 | 00:00:00 | |
| DB0NH | 2026-08-31 09:56:18 | 47.85870 | 11.01383 | 86° | 62km/h | 4150m | 3.5m/s | -1.2°C | 6.5% | 619.4hPa | 2.9V | 00:00:00 | 00:24:11 | 00:00:00 | |
| DG1MJG | 2026-08-31 09:56:17 | 47.85870 | 11.01383 | 86° | 66km/h | 4150m | 3.5m/s | -1.2°C | 6.3% | 619.5hPa | 2.9V | 03:11:00 | 00:00:00 | 00:00:00 | |
| DL6DJ-15 | 2026-08-31 09:56:16 | 47.85868 | 11.01336 | 86° | 60km/h | 4143m | 3.0m/s | -1.2°C | 6.2% | 620.0hPa | 2.9V | 00:00:00 | 00:00:00 | 00:00:00 | |
| DO3MHA-12 | 2026-08-31 09:56:15 | 47.85867 | 11.01314 | 86° | 60km/h | 4140m | 4.2m/s | -1.2°C | 6.1% | 620.2hPa | 2.9V | 00:00:00 | 00:24:08 | 00:00:00 | |
| DO3MHA-11 | 2026-08-31 09:56:09 | 47.85858 | 11.01181 | 83° | 62km/h | 4119m | 5.6m/s | -1.2°C | 6.0% | 621.8hPa | 2.9V | 00:00:00 | 00:24:02 | 00:00:00 | |
| DG1MFX-10 | 2026-08-31 09:56:08 | 47.85858 | 11.01181 | 83° | 62km/h | 4119m | 5.7m/s | 0°C | 0% | 0hPa | 2.9V | 03:11:00 | 00:00:00 | 00:00:00 | |
| DO3MHA-12 | 2026-08-31 09:56:05 | 47.85853 | 11.01087 | 84° | 64km/h | 4102m | 2.8m/s | -1.1°C | 6.6% | 623.1hPa | 2.9V | 00:00:00 | 00:23:58 | 00:00:00 | |
| DO3MHA-11 | 2026-08-31 09:55:59 | 47.85837 | 11.00947 | 80° | 64km/h | 4081m | 2.0m/s | -1.1°C | 7.1% | 624.8hPa | 2.9V | 03:10:00 | 00:23:52 | 00:00:00 | |
| NBG1-10 | 2026-08-31 09:55:55 | 47.85827 | 11.00851 | 83° | 71km/h | 4068m | 3.9m/s | -1.0°C | 7.4% | 625.8hPa | 2.9V | 00:00:00 | 00:23:48 | 00:00:00 | |
| DO3MHA-11 | 2026-08-31 09:55:49 | 47.85814 | 11.00707 | 82° | 68km/h | 4047m | 3.6m/s | -1.3°C | 9.3% | 627.5hPa | 2.9V | 00:00:00 | 00:23:42 | 00:00:00 | |
| DB0NH | 2026-08-31 09:55:48 | 47.85811 | 11.00683 | 82° | 71km/h | 4044m | 2.9m/s | 0°C | 0% | 0hPa | 2.9V | 00:00:00 | 00:23:41 | 00:00:00 | |
| DG1MJG | 2026-08-31 09:55:46 | 47.85809 | 11.00659 | 83° | 66km/h | 4040m | 4.2m/s | -1.3°C | 9.5% | 628.1hPa | 2.9V | 03:11:00 | 00:00:00 | 00:00:00 | |
| DO3MHA-12 | 2026-08-31 09:55:45 | 47.85804 | 11.00609 | 83° | 69km/h | 4033m | 3.8m/s | -1.4°C | 11.4% | 628.6hPa | 2.9V | 03:11:00 | 00:23:38 | 00:00:00 | |
| DG1MFX-10 | 2026-08-31 09:55:41 | 47.85797 | 11.00533 | 83° | 69km/h | 4023m | 3.4m/s | 0°C | 0% | 0hPa | 2.9V | 00:00:00 | 00:00:00 | 00:00:00 | |
| DO3MHA-11 | 2026-08-31 09:55:39 | 47.85790 | 11.00454 | 82° | 71km/h | 4013m | 3.1m/s | -1.2°C | 12.3% | 630.3hPa | 2.9V | 00:00:00 | 00:23:32 | 00:00:00 | |
| DO3MHA-12 | 2026-08-31 09:55:35 | 47.85782 | 11.00354 | 83° | 73km/h | 4001m | 3.0m/s | -1.2°C | 12.2% | 631.2hPa | 2.9V | 00:00:00 | 00:23:28 | 00:00:00 | |
| DO3MHA-11 | 2026-08-31 09:55:29 | 47.85767 | 11.00184 | 81° | 71km/h | 3976m | 6.6m/s | -1.4°C | 13.8% | 633.3hPa | 2.9V | 00:00:00 | 00:23:22 | 00:00:00 | |
| DO3MHA-12 | 2026-08-31 09:55:25 | 47.85751 | 11.00080 | 78° | 75km/h | 3959m | 4.1m/s | -1.8°C | 29.5% | 634.5hPa | 2.9V | 00:00:00 | 00:23:18 | 00:00:00 | |
| DG1MFX-10 | 2026-08-31 09:55:20 | 47.85742 | 10.99978 | 86° | 75km/h | 3944m | 5.9m/s | 0°C | 0% | 0hPa | 2.9V | 00:00:00 | 00:00:00 | 00:00:00 | |
| DO3MHA-11 | 2026-08-31 09:55:19 | 47.85738 | 10.99919 | 83° | 84km/h | 3931m | 6.4m/s | -2.0°C | 43.1% | 636.9hPa | 2.9V | 03:11:00 | 00:23:12 | 00:00:00 | |
| NBG1-10 | 2026-08-31 09:55:18 | 47.85735 | 10.99888 | 82° | 86km/h | 3926m | 3.9m/s | -2.1°C | 57.2% | 637.3hPa | 2.9V | 03:11:00 | 00:23:11 | 00:00:00 | |
| DO3MHA-12 | 2026-08-31 09:55:15 | 47.85725 | 10.99794 | 82° | 84km/h | 3916m | 3.7m/s | -2.3°C | 70.0% | 638.0hPa | 2.9V | 00:00:00 | 00:23:08 | 00:00:00 | |
| DG1MJG | 2026-08-31 09:55:14 | 47.85725 | 10.99794 | 82° | 84km/h | 3916m | 3.7m/s | -2.3°C | 68.3% | 638.0hPa | 2.9V | 03:11:00 | 00:00:00 | 00:00:00 | |
| DO3MHA-11 | 2026-08-31 09:55:09 | 47.85706 | 10.99608 | 81° | 86km/h | 3898m | 3.9m/s | -2.4°C | 88.2% | 639.5hPa | 2.9V | 00:00:00 | 00:23:02 | 00:00:00 | |
| DO3MHA-12 | 2026-08-31 09:55:05 | 47.85690 | 10.99482 | 80° | 86km/h | 3885m | 2.2m/s | -2.2°C | 84.2% | 640.7hPa | 2.9V | 03:11:00 | 00:22:58 | 00:00:00 | |
| DO3MHA-11 | 2026-08-31 09:54:59 | 47.85665 | 10.99290 | 78° | 86km/h | 3866m | 2.9m/s | -2.1°C | 85.2% | 642.1hPa | 2.9V | 00:00:00 | 00:22:52 | 00:00:00 | |
| DO3MHA-12 | 2026-08-31 09:54:55 | 47.85645 | 10.99167 | 77° | 88km/h | 3853m | 3.7m/s | -2.0°C | 87.3% | 643.0hPa | 2.9V | 00:00:00 | 00:22:48 | 00:00:00 | |
| DO3MHA-11 | 2026-08-31 09:54:49 | 47.85623 | 10.98972 | 84° | 84km/h | 3835m | 2.9m/s | -1.9°C | 89.2% | 644.5hPa | 2.9V | 00:00:00 | 00:22:42 | 00:00:00 | |
| DB0NH | 2026-08-31 09:54:43 | 47.85604 | 10.98782 | 72° | 80km/h | 3817m | 5.0m/s | 0°C | 0% | 0hPa | 2.9V | 00:00:00 | 00:22:36 | 00:00:00 | |
| DO3MHA-11 | 2026-08-31 09:54:39 | 47.85575 | 10.98665 | 74° | 88km/h | 3797m | 3.5m/s | -1.6°C | 91.8% | 647.6hPa | 2.9V | 03:12:00 | 00:22:32 | 00:00:00 | |
| DO3MHA-12 | 2026-08-31 09:54:35 | 47.85553 | 10.98539 | 77° | 88km/h | 3776m | 3.5m/s | -1.4°C | 91.8% | 649.3hPa | 2.9V | 00:00:00 | 00:22:28 | 00:00:00 | |
| DO3MHA-11 | 2026-08-31 09:54:29 | 47.85514 | 10.98348 | 70° | 80km/h | 3755m | 3.1m/s | -1.2°C | 90.5% | 650.9hPa | 2.9V | 00:00:00 | 00:22:22 | 00:00:00 | |
| OE5DXL-15 | 2026-08-31 09:54:25 | 47.85490 | 10.98225 | 79° | 82km/h | 3743m | 4.8m/s | -1.1°C | 88.8% | 651.9hPa | 2.9V | 00:00:00 | 00:00:00 | 00:00:00 | |
| DO3MHA-11 | 2026-08-31 09:54:19 | 47.85462 | 10.98055 | 77° | 84km/h | 3713m | 5.0m/s | -0.8°C | 86.8% | 654.3hPa | 2.9V | 00:00:00 | 00:22:12 | 00:00:00 | |
| DO3MHA-12 | 2026-08-31 09:54:15 | 47.85442 | 10.97930 | 75° | 84km/h | 3695m | 3.8m/s | -0.6°C | 86.0% | 656.0hPa | 2.9V | 00:00:00 | 00:22:08 | 00:00:00 | |
| DG1MJG | 2026-08-31 09:54:13 | 47.85436 | 10.97900 | 76° | 80km/h | 3691m | 4.7m/s | -0.6°C | 83.7% | 656.4hPa | 2.9V | 03:12:00 | 00:00:00 | 00:00:00 | |
| NBG1-10 | 2026-08-31 09:54:11 | 47.85420 | 10.97811 | 74° | 84km/h | 3679m | 2.1m/s | -0.4°C | 85.3% | 657.2hPa | 2.9V | 00:00:00 | 00:22:04 | 00:00:00 | |
| DO3MHA-11 | 2026-08-31 09:54:09 | 47.85408 | 10.97751 | 73° | 86km/h | 3671m | 4.6m/s | -0.4°C | 84.8% | 657.9hPa | 2.9V | 00:00:00 | 00:22:02 | 00:00:00 | |
| DO3MHA-12 | 2026-08-31 09:54:05 | 47.85379 | 10.97628 | 73° | 84km/h | 3655m | 3.1m/s | -0.2°C | 83.8% | 659.2hPa | 2.9V | 00:00:00 | 00:21:58 | 00:00:00 | |
| DO3MHA-11 | 2026-08-31 09:53:59 | 47.85341 | 10.97446 | 71° | 84km/h | 3634m | 3.0m/s | -0.0°C | 82.5% | 661.0hPa | 2.9V | 03:12:00 | 00:21:52 | 00:00:00 | |
| OE5DXL-15 | 2026-08-31 09:53:55 | 47.85314 | 10.97327 | 73° | 84km/h | 3619m | 3.3m/s | 0.1°C | 81.9% | 662.2hPa | 2.9V | 03:13:00 | 00:00:00 | 00:00:00 | |
| DO3MHA-11 | 2026-08-31 09:53:49 | 47.85278 | 10.97145 | 75° | 84km/h | 3595m | 4.8m/s | 0.3°C | 80.5% | 664.3hPa | 2.9V | 00:00:00 | 00:21:42 | 00:00:00 | |
| DO3MHA-12 | 2026-08-31 09:53:45 | 47.85254 | 10.97024 | 75° | 84km/h | 3577m | 3.6m/s | 0.4°C | 79.9% | 665.7hPa | 2.9V | 03:13:00 | 00:21:38 | 00:00:00 | |
| DG1MJG | 2026-08-31 09:53:42 | 47.85242 | 10.96963 | 75° | 86km/h | 3568m | 2.8m/s | 0.6°C | 77.9% | 666.5hPa | 2.9V | 03:13:00 | 00:00:00 | 00:00:00 | |
| DO3MHA-11 | 2026-08-31 09:53:39 | 47.85218 | 10.96845 | 69° | 82km/h | 3553m | 2.6m/s | 0.7°C | 79.1% | 667.7hPa | 2.9V | 00:00:00 | 00:21:32 | 00:00:00 | |
| NBG1-10 | 2026-08-31 09:53:38 | 47.85209 | 10.96817 | 66° | 84km/h | 3548m | 5.7m/s | 0.7°C | 79.0% | 668.0hPa | 2.9V | 00:00:00 | 00:21:31 | 00:00:00 | |
| DO3MHA-12 | 2026-08-31 09:53:35 | 47.85183 | 10.96727 | 68° | 84km/h | 3536m | 3.6m/s | 0.7°C | 80.6% | 668.9hPa | 2.9V | 00:00:00 | 00:21:28 | 00:00:00 | |
| DO3MHA-11 | 2026-08-31 09:53:29 | 47.85135 | 10.96558 | 67° | 86km/h | 3505m | 4.5m/s | 1.0°C | 79.9% | 671.4hPa | 2.9V | 00:00:00 | 00:21:22 | 00:00:00 | |
| DO3MHA-12 | 2026-08-31 09:53:25 | 47.85107 | 10.96432 | 77° | 84km/h | 3485m | 6.9m/s | 1.0°C | 80.3% | 673.0hPa | 2.9V | 00:00:00 | 00:21:18 | 00:00:00 | |
| DO3MHA-11 | 2026-08-31 09:53:19 | 47.85075 | 10.96247 | 77° | 82km/h | 3452m | 3.1m/s | 1.2°C | 82.5% | 675.8hPa | 2.9V | 03:13:00 | 00:21:12 | 00:00:00 | |
| DO3MHA-12 | 2026-08-31 09:53:15 | 47.85053 | 10.96127 | 75° | 80km/h | 3436m | 4.2m/s | 1.3°C | 82.8% | 677.3hPa | 2.9V | 00:00:00 | 00:21:08 | 00:00:00 | |
| DG1MJG | 2026-08-31 09:53:11 | 47.85037 | 10.96041 | 75° | 80km/h | 3424m | 3.0m/s | 1.4°C | 80.4% | 678.3hPa | 2.9V | 03:14:00 | 00:00:00 | 00:00:00 | |
| DO3MHA-11 | 2026-08-31 09:53:09 | 47.85020 | 10.95952 | 75° | 82km/h | 3414m | 4.3m/s | 1.5°C | 72.0% | 679.1hPa | 2.9V | 00:00:00 | 00:21:02 | 00:00:00 | |
| NBG1-10 | 2026-08-31 09:53:05 | 47.84998 | 10.95834 | 76° | 78km/h | 3398m | 4.1m/s | 1.6°C | 68.4% | 680.5hPa | 2.9V | 03:13:00 | 00:20:58 | 00:00:00 | |
| DO3MHA-11 | 2026-08-31 09:52:59 | 47.84971 | 10.95649 | 77° | 78km/h | 3375m | 3.9m/s | 1.4°C | 46.6% | 682.3hPa | 2.9V | 00:00:00 | 00:20:52 | 00:00:00 | |
| DO3MHA-12 | 2026-08-31 09:52:55 | 47.84947 | 10.95528 | 71° | 75km/h | 3361m | 3.0m/s | 1.4°C | 38.7% | 683.7hPa | 2.9V | 00:00:00 | 00:20:48 | 00:00:00 | |
| DO3MHA-11 | 2026-08-31 09:52:49 | 47.84915 | 10.95369 | 83° | 75km/h | 3337m | 4.5m/s | 1.6°C | 36.1% | 685.7hPa | 2.9V | 00:00:00 | 00:20:42 | 00:00:00 | |
| DO3MHA-12 | 2026-08-31 09:52:45 | 47.84899 | 10.95258 | 71° | 75km/h | 3314m | 5.8m/s | 1.7°C | 32.1% | 687.7hPa | 2.9V | 00:00:00 | 00:20:38 | 00:00:00 | |
| DG1MJG | 2026-08-31 09:52:40 | 47.84872 | 10.95154 | 72° | 75km/h | 3294m | 4.1m/s | 1.9°C | 29.7% | 689.4hPa | 2.9V | 03:14:00 | 00:00:00 | 00:00:00 | |
| DO3MHA-11 | 2026-08-31 09:52:39 | 47.84861 | 10.95101 | 75° | 78km/h | 3285m | 3.6m/s | 1.9°C | 30.0% | 690.2hPa | 2.9V | 03:14:00 | 00:20:32 | 00:00:00 | |
| DO3MHA-12 | 2026-08-31 09:52:35 | 47.84841 | 10.94989 | 74° | 77km/h | 3267m | 4.6m/s | 2.0°C | 30.0% | 691.8hPa | 2.9V | 00:00:00 | 00:20:28 | 00:00:00 | |
| NBG1-10 | 2026-08-31 09:52:32 | 47.84818 | 10.94905 | 63° | 66km/h | 3253m | 4.4m/s | 2.1°C | 30.5% | 693.1hPa | 2.9V | 00:00:00 | 00:20:25 | 00:00:00 | |
| DO3MHA-11 | 2026-08-31 09:52:29 | 47.84793 | 10.94827 | 69° | 68km/h | 3232m | 6.7m/s | 2.2°C | 29.5% | 694.8hPa | 2.9V | 00:00:00 | 00:20:22 | 00:00:00 | |
| OE5DXL-15 | 2026-08-31 09:52:25 | 47.84776 | 10.94726 | 79° | 64km/h | 3207m | 4.4m/s | 0°C | 0% | 0hPa | 2.9V | 00:00:00 | 00:20:18 | 00:00:00 | |
| DO3MHA-11 | 2026-08-31 09:52:19 | 47.84737 | 10.94586 | 67° | 64km/h | 3173m | 4.6m/s | 2.5°C | 25.7% | 699.9hPa | 2.9V | 00:00:00 | 00:20:12 | 00:00:00 | |
| DO3MHA-12 | 2026-08-31 09:52:15 | 47.84712 | 10.94494 | 66° | 64km/h | 3149m | 5.2m/s | 2.7°C | 25.1% | 701.9hPa | 2.9V | 00:00:00 | 00:20:08 | 00:00:00 | |
| DG1MJG | 2026-08-31 09:52:10 | 47.84688 | 10.94406 | 75° | 62km/h | 3127m | 6.5m/s | 2.9°C | 24.4% | 703.9hPa | 2.9V | 03:15:00 | 00:00:00 | 00:00:00 | |
| DO3MHA-11 | 2026-08-31 09:52:09 | 47.84681 | 10.94361 | 77° | 64km/h | 3116m | 5.6m/s | 2.9°C | 24.7% | 704.8hPa | 2.9V | 00:00:00 | 00:20:02 | 00:00:00 | |
| DO3MHA-12 | 2026-08-31 09:52:05 | 47.84663 | 10.94264 | 73° | 60km/h | 3095m | 5.3m/s | 3.0°C | 24.3% | 706.5hPa | 2.9V | 00:00:00 | 00:19:58 | 00:00:00 | |
| DO3MHA-11 | 2026-08-31 09:51:59 | 47.84634 | 10.94135 | 73° | 60km/h | 3067m | 2.9m/s | 3.2°C | 24.5% | 709.2hPa | 2.9V | 03:14:00 | 00:19:52 | 00:00:00 | |
| DO3MHA-12 | 2026-08-31 09:51:55 | 47.84616 | 10.94050 | 73° | 60km/h | 3050m | 3.6m/s | 3.2°C | 22.5% | 710.6hPa | 2.9V | 00:00:00 | 00:19:48 | 00:00:00 | |
| DO3MHA-11 | 2026-08-31 09:51:49 | 47.84593 | 10.93918 | 75° | 58km/h | 3023m | 4.6m/s | 3.4°C | 19.3% | 712.9hPa | 2.9V | 00:00:00 | 00:19:42 | 00:00:00 | |
| DO3MHA-12 | 2026-08-31 09:51:45 | 47.84575 | 10.93833 | 72° | 57km/h | 3004m | 4.0m/s | 3.5°C | 21.1% | 714.5hPa | 2.9V | 03:15:00 | 00:19:38 | 00:00:00 | |
| DO3MHA-11 | 2026-08-31 09:51:39 | 47.84549 | 10.93710 | 75° | 51km/h | 2977m | 4.9m/s | 3.5°C | 23.1% | 716.9hPa | 2.9V | 00:00:00 | 00:19:32 | 00:00:00 | |
| DO3MHA-12 | 2026-08-31 09:51:35 | 47.84538 | 10.93630 | 84° | 55km/h | 2958m | 3.7m/s | 3.7°C | 23.4% | 718.6hPa | 2.9V | 00:00:00 | 00:19:28 | 00:00:00 | |
| DO3MHA-11 | 2026-08-31 09:51:29 | 47.84530 | 10.93519 | 85° | 68km/h | 2933m | 6.2m/s | 3.7°C | 32.8% | 721.0hPa | 2.9V | 00:00:00 | 00:19:22 | 00:00:00 | |
| NBG1-10 | 2026-08-31 09:51:26 | 47.84521 | 10.93449 | 75° | 64km/h | 2915m | 9.8m/s | 0°C | 0% | 0hPa | 2.9V | 00:00:00 | 00:19:19 | 00:00:00 | |
| DO3MHA-12 | 2026-08-31 09:51:25 | 47.84516 | 10.93425 | 73° | 66km/h | 2905m | 10.7m/s | 4.0°C | 29.2% | 723.3hPa | 2.9V | 00:00:00 | 00:19:18 | 00:00:00 | |
| DO3MHA-11 | 2026-08-31 09:51:19 | 47.84480 | 10.93274 | 79° | 60km/h | 2867m | 4.1m/s | 4.2°C | 38.0% | 726.9hPa | 2.9V | 03:15:00 | 00:19:12 | 00:00:00 | |
| DO3MHA-12 | 2026-08-31 09:51:15 | 47.84468 | 10.93193 | 68° | 64km/h | 2846m | 4.8m/s | 4.4°C | 37.1% | 728.9hPa | 2.9V | 00:00:00 | 00:19:08 | 00:00:00 | |
| DO3MHA-11 | 2026-08-31 09:51:09 | 47.84432 | 10.93064 | 78° | 62km/h | 2809m | 4.4m/s | 4.8°C | 37.9% | 732.0hPa | 2.9V | 00:00:00 | 00:19:02 | 00:00:00 | |
| DO3MHA-12 | 2026-08-31 09:51:05 | 47.84413 | 10.92966 | 68° | 62km/h | 2783m | 5.9m/s | 4.9°C | 43.7% | 734.3hPa | 2.9V | 03:15:00 | 00:18:58 | 00:00:00 | |
| DO3MHA-11 | 2026-08-31 09:50:59 | 47.84380 | 10.92847 | 76° | 64km/h | 2750m | 4.4m/s | 5.0°C | 57.0% | 737.2hPa | 2.9V | 00:00:00 | 00:18:52 | 00:00:00 | |
| DO3MHA-12 | 2026-08-31 09:50:55 | 47.84356 | 10.92750 | 63° | 66km/h | 2730m | 4.6m/s | 5.1°C | 58.0% | 739.2hPa | 2.9V | 00:00:00 | 00:18:48 | 00:00:00 | |
| NBG1-10 | 2026-08-31 09:50:53 | 47.84341 | 10.92708 | 64° | 60km/h | 2719m | 5.8m/s | 0°C | 0% | 0hPa | 2.9V | 00:00:00 | 00:18:46 | 00:00:00 | |
| DO3MHA-11 | 2026-08-31 09:50:49 | 47.84323 | 10.92620 | 76° | 62km/h | 2697m | 4.5m/s | 5.4°C | 59.7% | 742.1hPa | 2.9V | 00:00:00 | 00:18:42 | 00:00:00 | |
| DO3MHA-12 | 2026-08-31 09:50:45 | 47.84295 | 10.92522 | 59° | 58km/h | 2677m | 5.0m/s | 5.6°C | 58.1% | 744.0hPa | 2.9V | 00:00:00 | 00:18:38 | 00:00:00 | |
| DO3MHA-11 | 2026-08-31 09:50:39 | 47.84261 | 10.92408 | 72° | 64km/h | 2646m | 4.8m/s | 5.8°C | 66.6% | 746.8hPa | 2.9V | 03:16:00 | 00:18:32 | 00:00:00 | |
| DO3MHA-12 | 2026-08-31 09:50:35 | 47.84236 | 10.92323 | 66° | 64km/h | 2622m | 3.5m/s | 6.0°C | 66.6% | 749.0hPa | 2.9V | 00:00:00 | 00:18:28 | 00:00:00 | |
| DO3MHA-11 | 2026-08-31 09:50:29 | 47.84202 | 10.92180 | 75° | 58km/h | 2597m | 4.1m/s | 6.2°C | 65.7% | 751.3hPa | 2.9V | 00:00:00 | 00:18:22 | 00:00:00 | |
| DO3MHA-12 | 2026-08-31 09:50:25 | 47.84184 | 10.92097 | 67° | 64km/h | 2580m | 4.0m/s | 6.4°C | 63.0% | 752.7hPa | 2.9V | 03:16:00 | 00:18:18 | 00:00:00 | |
| DO3MHA-11 | 2026-08-31 09:50:19 | 47.84157 | 10.91973 | 76° | 66km/h | 2548m | 4.2m/s | 6.6°C | 61.4% | 755.6hPa | 2.9V | 00:00:00 | 00:18:12 | 00:00:00 | |
| DO3MHA-12 | 2026-08-31 09:50:15 | 47.84130 | 10.91867 | 65° | 62km/h | 2530m | 5.6m/s | 6.7°C | 62.8% | 757.5hPa | 2.9V | 00:00:00 | 00:18:08 | 00:00:00 | |
| DO3MHA-11 | 2026-08-31 09:50:09 | 47.84102 | 10.91746 | 79° | 64km/h | 2497m | 4.9m/s | 7.0°C | 62.2% | 760.5hPa | 2.9V | 00:00:00 | 00:18:02 | 00:00:00 | |
| DG1MJG | 2026-08-31 09:50:08 | 47.84102 | 10.91746 | 80° | 60km/h | 2497m | 5.0m/s | 7.1°C | 61.3% | 760.5hPa | 2.9V | 03:17:00 | 00:00:00 | 00:00:00 | |
| DO3MHA-12 | 2026-08-31 09:50:05 | 47.84080 | 10.91649 | 67° | 64km/h | 2477m | 5.4m/s | 7.2°C | 59.6% | 762.3hPa | 2.9V | 00:00:00 | 00:17:58 | 00:00:00 | |
| DO3MHA-11 | 2026-08-31 09:49:59 | 47.84047 | 10.91521 | 69° | 60km/h | 2439m | 8.3m/s | 7.5°C | 57.2% | 765.8hPa | 2.9V | 03:16:00 | 00:17:52 | 00:00:00 | |
| DO3MHA-12 | 2026-08-31 09:49:55 | 47.84019 | 10.91431 | 63° | 60km/h | 2415m | 4.2m/s | 7.7°C | 58.4% | 768.1hPa | 2.9V | 00:00:00 | 00:17:48 | 00:00:00 | |
| DO3MHA-11 | 2026-08-31 09:49:49 | 47.83993 | 10.91310 | 75° | 60km/h | 2380m | 6.0m/s | 7.9°C | 60.2% | 771.3hPa | 2.9V | 00:00:00 | 00:17:42 | 00:00:00 | |
| DO3MHA-12 | 2026-08-31 09:49:45 | 47.83968 | 10.91223 | 66° | 57km/h | 2360m | 5.8m/s | 8.1°C | 61.5% | 773.3hPa | 2.9V | 03:17:00 | 00:17:38 | 00:00:00 | |
| DO3MHA-11 | 2026-08-31 09:49:39 | 47.83945 | 10.91100 | 71° | 57km/h | 2330m | 5.4m/s | 8.3°C | 66.3% | 776.1hPa | 2.9V | 00:00:00 | 00:17:32 | 00:00:00 | |
| DG1MJG | 2026-08-31 09:49:37 | 47.83940 | 10.91079 | 67° | 58km/h | 2325m | 5.4m/s | 8.4°C | 65.2% | 776.8hPa | 2.9V | 03:17:00 | 00:00:00 | 00:00:00 | |
| DO3MHA-12 | 2026-08-31 09:49:35 | 47.83923 | 10.91026 | 72° | 57km/h | 2308m | 5.8m/s | 8.5°C | 64.7% | 778.1hPa | 2.9V | 00:00:00 | 00:17:28 | 00:00:00 | |
| DO3MHA-11 | 2026-08-31 09:49:29 | 47.83901 | 10.90899 | 66° | 53km/h | 2278m | 5.5m/s | 8.8°C | 63.8% | 781.1hPa | 2.9V | 00:00:00 | 00:17:22 | 00:00:00 | |
| DO3MHA-12 | 2026-08-31 09:49:25 | 47.83876 | 10.90830 | 67° | 55km/h | 2256m | 6.8m/s | 9.1°C | 58.9% | 783.1hPa | 2.9V | 00:00:00 | 00:17:18 | 00:00:00 | |
| DO3MHA-11 | 2026-08-31 09:49:19 | 47.83849 | 10.90715 | 63° | 55km/h | 2225m | 4.3m/s | 9.3°C | 60.0% | 786.1hPa | 2.9V | 03:17:00 | 00:17:12 | 00:00:00 | |
| DO3MHA-12 | 2026-08-31 09:49:15 | 47.83822 | 10.90645 | 64° | 55km/h | 2205m | 5.7m/s | 9.2°C | 67.8% | 788.0hPa | 2.9V | 00:00:00 | 00:17:08 | 00:00:00 | |
| DO3MHA-11 | 2026-08-31 09:49:09 | 47.83795 | 10.90529 | 66° | 57km/h | 2171m | 5.6m/s | 9.6°C | 65.8% | 791.3hPa | 2.9V | 00:00:00 | 00:17:02 | 00:00:00 | |
| DG1MJG | 2026-08-31 09:49:06 | 47.83783 | 10.90490 | 65° | 53km/h | 2161m | 4.8m/s | 9.8°C | 63.7% | 792.4hPa | 2.9V | 03:17:00 | 00:00:00 | 00:00:00 | |
| DO3MHA-12 | 2026-08-31 09:49:05 | 47.83773 | 10.90455 | 73° | 57km/h | 2149m | 7.3m/s | 9.8°C | 64.7% | 793.2hPa | 2.9V | 03:17:00 | 00:16:58 | 00:00:00 | |
| DO3MHA-11 | 2026-08-31 09:48:59 | 47.83740 | 10.90330 | 57° | 57km/h | 2112m | 6.5m/s | 9.9°C | 68.1% | 797.0hPa | 2.9V | 00:00:00 | 00:16:52 | 00:00:00 | |
| DO3MHA-12 | 2026-08-31 09:48:55 | 47.83714 | 10.90260 | 73° | 55km/h | 2087m | 5.7m/s | 10.1°C | 67.5% | 799.3hPa | 2.9V | 00:00:00 | 00:16:48 | 00:00:00 | |
| DO3MHA-11 | 2026-08-31 09:48:49 | 47.83680 | 10.90141 | 58° | 53km/h | 2052m | 7.4m/s | 10.1°C | 71.0% | 802.7hPa | 2.9V | 00:00:00 | 00:16:42 | 00:00:00 | |
| DO3MHA-12 | 2026-08-31 09:48:45 | 47.83661 | 10.90073 | 76° | 51km/h | 2025m | 5.9m/s | 10.1°C | 75.1% | 805.2hPa | 2.9V | 00:00:00 | 00:16:38 | 00:00:00 | |
| DO3MHA-11 | 2026-08-31 09:48:39 | 47.83629 | 10.89956 | 67° | 44km/h | 1989m | 5.9m/s | 10.4°C | 74.0% | 808.8hPa | 2.9V | 03:18:00 | 00:16:32 | 00:00:00 | |
| DG1MJG | 2026-08-31 09:48:36 | 47.83623 | 10.89926 | 79° | 40km/h | 1976m | 7.3m/s | 10.5°C | 73.5% | 810.0hPa | 2.9V | 03:18:00 | 00:00:00 | 00:00:00 | |
| DO3MHA-12 | 2026-08-31 09:48:35 | 47.83619 | 10.89894 | 77° | 47km/h | 1961m | 6.6m/s | 10.5°C | 75.3% | 811.5hPa | 2.9V | 00:00:00 | 00:16:28 | 00:00:00 | |
| DO3MHA-11 | 2026-08-31 09:48:29 | 47.83590 | 10.89801 | 70° | 51km/h | 1920m | 5.6m/s | 10.8°C | 73.8% | 815.5hPa | 2.9V | 00:00:00 | 00:16:22 | 00:00:00 | |
| DO3MHA-12 | 2026-08-31 09:48:25 | 47.83569 | 10.89730 | 59° | 53km/h | 1894m | 6.3m/s | 11.0°C | 73.4% | 818.0hPa | 2.9V | 03:18:00 | 00:16:18 | 00:00:00 | |
| DO3MHA-11 | 2026-08-31 09:48:19 | 47.83536 | 10.89623 | 82° | 53km/h | 1860m | 7.5m/s | 11.2°C | 75.0% | 821.3hPa | 2.9V | 00:00:00 | 00:16:12 | 00:00:00 | |
| DO3MHA-12 | 2026-08-31 09:48:15 | 47.83531 | 10.89546 | 81° | 53km/h | 1834m | 5.7m/s | 11.3°C | 77.9% | 824.0hPa | 2.9V | 00:00:00 | 00:16:08 | 00:00:00 | |
| DO3MHA-11 | 2026-08-31 09:48:09 | 47.83506 | 10.89431 | 72° | 44km/h | 1800m | 5.0m/s | 11.4°C | 79.7% | 827.1hPa | 2.9V | 00:00:00 | 00:16:02 | 00:00:00 | |
| DG1MJG | 2026-08-31 09:48:06 | 47.83497 | 10.89390 | 73° | 57km/h | 1791m | 5.0m/s | 11.5°C | 78.5% | 828.2hPa | 2.9V | 03:19:00 | 00:00:00 | 00:00:00 | |
| DO3MHA-12 | 2026-08-31 09:48:05 | 47.83490 | 10.89353 | 78° | 40km/h | 1782m | 4.9m/s | 11.6°C | 79.4% | 829.0hPa | 2.9V | 00:00:00 | 00:15:58 | 00:00:00 | |
| DO3MHA-11 | 2026-08-31 09:47:59 | 47.83470 | 10.89282 | 55° | 47km/h | 1747m | 5.7m/s | 0°C | 0% | 0hPa | 0V | 03:18:00 | 00:15:52 | 00:00:00 | |
| DO3MHA-12 | 2026-08-31 09:47:55 | 47.83442 | 10.89219 | 65° | 51km/h | 1722m | 5.9m/s | 12.1°C | 77.0% | 835.1hPa | 0V | 00:00:00 | 00:15:48 | 00:00:00 | |
| DO3MHA-11 | 2026-08-31 09:47:49 | 47.83423 | 10.89114 | 68° | 47km/h | 1691m | 3.5m/s | 0°C | 0% | 0hPa | 0V | 00:00:00 | 00:15:42 | 00:00:00 | |
| DO3MHA-12 | 2026-08-31 09:47:45 | 47.83401 | 10.89038 | 75° | 46km/h | 1670m | 6.1m/s | 0°C | 0% | 0hPa | 0V | 03:19:00 | 00:15:38 | 00:00:00 | |
| DO3MHA-11 | 2026-08-31 09:47:39 | 47.83371 | 10.88957 | 50° | 53km/h | 1639m | 4.5m/s | 0°C | 0% | 0hPa | 0V | 00:00:00 | 00:15:32 | 00:00:00 | |
| DG1MJG | 2026-08-31 09:47:35 | 47.83351 | 10.88907 | 70° | 55km/h | 1624m | 6.2m/s | 11.7°C | 0% | 844.9hPa | 0V | 03:19:00 | 00:00:00 | 00:00:00 | |
| DO3MHA-12 | 2026-08-31 09:47:35 | 47.83346 | 10.88888 | 74° | 47km/h | 1618m | 4.9m/s | 0°C | 0% | 0hPa | 0V | 00:00:00 | 00:15:28 | 00:00:00 | |
| DO3MHA-11 | 2026-08-31 09:47:29 | 47.83315 | 10.88781 | 51° | 42km/h | 1589m | 5.3m/s | 0°C | 0% | 0hPa | 0V | 00:00:00 | 00:15:22 | 00:00:00 | |
| DO3MHA-12 | 2026-08-31 09:47:25 | 47.83293 | 10.88729 | 74° | 40km/h | 1566m | 3.6m/s | 0°C | 0% | 0hPa | 0V | 00:00:00 | 00:15:18 | 00:00:00 | |
| DO3MHA-11 | 2026-08-31 09:47:19 | 47.83284 | 10.88633 | 73° | 35km/h | 1533m | 5.7m/s | 0°C | 0% | 0hPa | 0V | 00:00:00 | 00:15:12 | 00:00:00 | |
| DO3MHA-12 | 2026-08-31 09:47:15 | 47.83269 | 10.88584 | 74° | 37km/h | 1512m | 5.9m/s | 0°C | 0% | 0hPa | 0V | 00:00:00 | 00:15:08 | 00:00:00 | |
| DG1MJG | 2026-08-31 09:47:05 | 47.83246 | 10.88466 | 76° | 42km/h | 1456m | 5.6m/s | 0°C | 0% | 0hPa | 0V | 00:00:00 | 00:00:00 | 00:00:00 |